﻿_id	data_ora	id_station	denominazione	temperatura	cod_validazione_temperatura	umidita	cod_validazione_umidita_rel	precipitazione	cod_validazione_precipitazione	velocita_vento	cod_validazione_velocita_vento	direzione_vento	cod_validazione_direzione_vento	rad_solare_globale	cod_validazione_rad_solare_globale	pressione_atmosferica	cod_validazione_pressione_atmosferica	Latitude	Longitude
1	2024-01-01 00:00:00	15	san_pancrazio_salentino	11.33	1	92.89	1	0.0	1	null	6	null	6	null	6	null	6	40.423415	17.846371
2	2024-01-01 01:00:00	15	san_pancrazio_salentino	11.44	1	93.54	1	0.0	1	null	6	null	6	null	6	null	6	40.423415	17.846371
3	2024-01-01 02:00:00	15	san_pancrazio_salentino	11.19	1	93.14	1	0.0	1	null	6	null	6	null	6	null	6	40.423415	17.846371
4	2024-01-01 03:00:00	15	san_pancrazio_salentino	11.22	1	96.35	1	0.0	1	null	6	null	6	null	6	null	6	40.423415	17.846371
5	2024-01-01 04:00:00	15	san_pancrazio_salentino	10.7	1	97.75	1	0.0	1	null	6	null	6	null	6	null	6	40.423415	17.846371
6	2024-01-01 05:00:00	15	san_pancrazio_salentino	11.42	1	98.72	1	0.0	1	null	6	null	6	null	6	null	6	40.423415	17.846371
7	2024-01-01 06:00:00	15	san_pancrazio_salentino	12.26	1	98.84	1	0.0	1	null	6	null	6	null	6	null	6	40.423415	17.846371
8	2024-01-01 07:00:00	15	san_pancrazio_salentino	12.1	1	98.69	1	0.0	1	null	6	null	6	null	6	null	6	40.423415	17.846371
9	2024-01-01 08:00:00	15	san_pancrazio_salentino	11.71	1	98.65	1	0.0	1	null	6	null	6	null	6	null	6	40.423415	17.846371
10	2024-01-01 09:00:00	15	san_pancrazio_salentino	13.3	1	96.35	1	0.0	1	null	6	null	6	null	6	null	6	40.423415	17.846371
11	2024-01-01 10:00:00	15	san_pancrazio_salentino	14.77	1	90.23	1	0.0	1	null	6	null	6	null	6	null	6	40.423415	17.846371
12	2024-01-01 11:00:00	15	san_pancrazio_salentino	16.16	1	77.63	1	0.0	1	null	6	null	6	null	6	null	6	40.423415	17.846371
13	2024-01-01 12:00:00	15	san_pancrazio_salentino	18.36	1	69.08	1	0.0	1	null	6	null	6	null	6	null	6	40.423415	17.846371
14	2024-01-01 13:00:00	15	san_pancrazio_salentino	18.93	1	65.39	1	0.0	1	null	6	null	6	null	6	null	6	40.423415	17.846371
15	2024-01-01 14:00:00	15	san_pancrazio_salentino	19.02	1	63.67	1	0.0	1	null	6	null	6	null	6	null	6	40.423415	17.846371
16	2024-01-01 15:00:00	15	san_pancrazio_salentino	18.43	1	66.61	1	0.0	1	null	6	null	6	null	6	null	6	40.423415	17.846371
17	2024-01-01 16:00:00	15	san_pancrazio_salentino	16.4	1	75.44	1	0.0	1	null	6	null	6	null	6	null	6	40.423415	17.846371
18	2024-01-01 17:00:00	15	san_pancrazio_salentino	14.95	1	85.91	1	0.0	1	null	6	null	6	null	6	null	6	40.423415	17.846371
19	2024-01-01 18:00:00	15	san_pancrazio_salentino	14.36	1	86.97	1	0.0	1	null	6	null	6	null	6	null	6	40.423415	17.846371
20	2024-01-01 19:00:00	15	san_pancrazio_salentino	14.22	1	84.79	1	0.0	1	null	6	null	6	null	6	null	6	40.423415	17.846371
21	2024-01-01 20:00:00	15	san_pancrazio_salentino	14.64	1	82.94	1	0.0	1	null	6	null	6	null	6	null	6	40.423415	17.846371
22	2024-01-01 21:00:00	15	san_pancrazio_salentino	14.51	1	81.98	1	0.0	1	null	6	null	6	null	6	null	6	40.423415	17.846371
23	2024-01-01 22:00:00	15	san_pancrazio_salentino	13.97	1	83.2	1	0.0	1	null	6	null	6	null	6	null	6	40.423415	17.846371
24	2024-01-01 23:00:00	15	san_pancrazio_salentino	13.71	1	85.07	1	0.0	1	null	6	null	6	null	6	null	6	40.423415	17.846371
25	2024-01-02 00:00:00	15	san_pancrazio_salentino	13.48	1	87.66	1	0.0	1	null	6	null	6	null	6	null	6	40.423415	17.846371
26	2024-01-02 01:00:00	15	san_pancrazio_salentino	13.52	1	88.96	1	0.0	1	null	6	null	6	null	6	null	6	40.423415	17.846371
27	2024-01-02 02:00:00	15	san_pancrazio_salentino	12.98	1	92.17	1	0.0	1	null	6	null	6	null	6	null	6	40.423415	17.846371
28	2024-01-02 03:00:00	15	san_pancrazio_salentino	12.51	1	94.49	1	0.0	1	null	6	null	6	null	6	null	6	40.423415	17.846371
29	2024-01-02 04:00:00	15	san_pancrazio_salentino	12.2	1	94.89	1	0.0	1	null	6	null	6	null	6	null	6	40.423415	17.846371
30	2024-01-02 05:00:00	15	san_pancrazio_salentino	11.4	1	95.51	1	0.0	1	null	6	null	6	null	6	null	6	40.423415	17.846371
31	2024-01-02 06:00:00	15	san_pancrazio_salentino	10.54	1	97.16	1	0.0	1	null	6	null	6	null	6	null	6	40.423415	17.846371
32	2024-01-02 07:00:00	15	san_pancrazio_salentino	9.94	1	97.51	1	0.0	1	null	6	null	6	null	6	null	6	40.423415	17.846371
33	2024-01-02 08:00:00	15	san_pancrazio_salentino	9.29	1	97.97	1	0.0	1	null	6	null	6	null	6	null	6	40.423415	17.846371
34	2024-01-02 09:00:00	15	san_pancrazio_salentino	11.36	1	82.77	1	0.0	1	null	6	null	6	null	6	null	6	40.423415	17.846371
35	2024-01-02 10:00:00	15	san_pancrazio_salentino	12.59	1	76.32	1	0.0	1	null	6	null	6	null	6	null	6	40.423415	17.846371
36	2024-01-02 11:00:00	15	san_pancrazio_salentino	14.36	1	67.63	1	0.0	1	null	6	null	6	null	6	null	6	40.423415	17.846371
37	2024-01-02 12:00:00	15	san_pancrazio_salentino	17.82	1	56.57	1	0.0	1	null	6	null	6	null	6	null	6	40.423415	17.846371
38	2024-01-02 13:00:00	15	san_pancrazio_salentino	21.07	1	47.61	1	0.0	1	null	6	null	6	null	6	null	6	40.423415	17.846371
39	2024-01-02 14:00:00	15	san_pancrazio_salentino	20.53	1	47.82	1	0.0	1	null	6	null	6	null	6	null	6	40.423415	17.846371
40	2024-01-02 15:00:00	15	san_pancrazio_salentino	18.68	1	53.52	1	0.0	1	null	6	null	6	null	6	null	6	40.423415	17.846371
41	2024-01-02 16:00:00	15	san_pancrazio_salentino	14.96	1	69.83	1	0.0	1	null	6	null	6	null	6	null	6	40.423415	17.846371
42	2024-01-02 17:00:00	15	san_pancrazio_salentino	13.37	1	76.52	1	0.0	1	null	6	null	6	null	6	null	6	40.423415	17.846371
43	2024-01-02 18:00:00	15	san_pancrazio_salentino	11.81	1	83.34	1	0.0	1	null	6	null	6	null	6	null	6	40.423415	17.846371
44	2024-01-02 19:00:00	15	san_pancrazio_salentino	10.82	1	88.99	1	0.0	1	null	6	null	6	null	6	null	6	40.423415	17.846371
45	2024-01-02 20:00:00	15	san_pancrazio_salentino	10.5	1	91.02	1	0.0	1	null	6	null	6	null	6	null	6	40.423415	17.846371
46	2024-01-02 21:00:00	15	san_pancrazio_salentino	10.26	1	91.46	1	0.0	1	null	6	null	6	null	6	null	6	40.423415	17.846371
47	2024-01-02 22:00:00	15	san_pancrazio_salentino	11.55	1	81.68	1	0.0	1	null	6	null	6	null	6	null	6	40.423415	17.846371
48	2024-01-02 23:00:00	15	san_pancrazio_salentino	10.75	1	89.26	1	0.0	1	null	6	null	6	null	6	null	6	40.423415	17.846371
49	2024-01-03 00:00:00	15	san_pancrazio_salentino	10.72	1	86.59	1	0.0	1	null	6	null	6	null	6	null	6	40.423415	17.846371
50	2024-01-03 01:00:00	15	san_pancrazio_salentino	11.45	1	84.6	1	0.0	1	null	6	null	6	null	6	null	6	40.423415	17.846371
51	2024-01-03 02:00:00	15	san_pancrazio_salentino	11.34	1	84.68	1	0.0	1	null	6	null	6	null	6	null	6	40.423415	17.846371
52	2024-01-03 03:00:00	15	san_pancrazio_salentino	11.55	1	80.11	1	0.0	1	null	6	null	6	null	6	null	6	40.423415	17.846371
53	2024-01-03 04:00:00	15	san_pancrazio_salentino	11.84	1	79.36	1	0.0	1	null	6	null	6	null	6	null	6	40.423415	17.846371
54	2024-01-03 05:00:00	15	san_pancrazio_salentino	11.68	1	82.7	1	0.0	1	null	6	null	6	null	6	null	6	40.423415	17.846371
55	2024-01-03 06:00:00	15	san_pancrazio_salentino	11.69	1	81.32	1	0.0	1	null	6	null	6	null	6	null	6	40.423415	17.846371
56	2024-01-03 07:00:00	15	san_pancrazio_salentino	12.18	1	80.09	1	0.0	1	null	6	null	6	null	6	null	6	40.423415	17.846371
57	2024-01-03 08:00:00	15	san_pancrazio_salentino	12.87	1	75.29	1	0.0	1	null	6	null	6	null	6	null	6	40.423415	17.846371
58	2024-01-03 09:00:00	15	san_pancrazio_salentino	13.3	1	75.34	1	0.0	1	null	6	null	6	null	6	null	6	40.423415	17.846371
59	2024-01-03 10:00:00	15	san_pancrazio_salentino	14.75	1	72.11	1	0.0	1	null	6	null	6	null	6	null	6	40.423415	17.846371
60	2024-01-03 11:00:00	15	san_pancrazio_salentino	16.01	1	64.07	1	0.0	1	null	6	null	6	null	6	null	6	40.423415	17.846371
61	2024-01-03 12:00:00	15	san_pancrazio_salentino	16.23	1	65.73	1	0.0	1	null	6	null	6	null	6	null	6	40.423415	17.846371
62	2024-01-03 13:00:00	15	san_pancrazio_salentino	16.34	1	67.44	1	0.0	1	null	6	null	6	null	6	null	6	40.423415	17.846371
63	2024-01-03 14:00:00	15	san_pancrazio_salentino	17.4	1	64.43	1	0.0	1	null	6	null	6	null	6	null	6	40.423415	17.846371
64	2024-01-03 15:00:00	15	san_pancrazio_salentino	17.28	1	67.64	1	0.0	1	null	6	null	6	null	6	null	6	40.423415	17.846371
65	2024-01-03 16:00:00	15	san_pancrazio_salentino	16.42	1	69.05	1	0.0	1	null	6	null	6	null	6	null	6	40.423415	17.846371
66	2024-01-03 17:00:00	15	san_pancrazio_salentino	15.0	1	79.47	1	0.0	1	null	6	null	6	null	6	null	6	40.423415	17.846371
67	2024-01-03 18:00:00	15	san_pancrazio_salentino	13.92	1	84.02	1	0.0	1	null	6	null	6	null	6	null	6	40.423415	17.846371
68	2024-01-03 19:00:00	15	san_pancrazio_salentino	13.71	1	83.77	1	0.0	1	null	6	null	6	null	6	null	6	40.423415	17.846371
69	2024-01-03 20:00:00	15	san_pancrazio_salentino	13.87	1	80.64	1	0.0	1	null	6	null	6	null	6	null	6	40.423415	17.846371
70	2024-01-03 21:00:00	15	san_pancrazio_salentino	13.83	1	79.31	1	0.0	1	null	6	null	6	null	6	null	6	40.423415	17.846371
71	2024-01-03 22:00:00	15	san_pancrazio_salentino	14.37	1	76.47	1	0.0	1	null	6	null	6	null	6	null	6	40.423415	17.846371
72	2024-01-03 23:00:00	15	san_pancrazio_salentino	14.15	1	77.9	1	0.0	1	null	6	null	6	null	6	null	6	40.423415	17.846371
73	2024-01-04 00:00:00	15	san_pancrazio_salentino	13.39	1	83.84	1	0.0	1	null	6	null	6	null	6	null	6	40.423415	17.846371
74	2024-01-04 01:00:00	15	san_pancrazio_salentino	13.64	1	78.54	1	0.0	1	null	6	null	6	null	6	null	6	40.423415	17.846371
75	2024-01-04 02:00:00	15	san_pancrazio_salentino	14.48	1	73.11	1	0.0	1	null	6	null	6	null	6	null	6	40.423415	17.846371
76	2024-01-04 03:00:00	15	san_pancrazio_salentino	13.62	1	84.52	1	0.0	1	null	6	null	6	null	6	null	6	40.423415	17.846371
77	2024-01-04 04:00:00	15	san_pancrazio_salentino	13.29	1	85.66	1	0.0	1	null	6	null	6	null	6	null	6	40.423415	17.846371
78	2024-01-04 05:00:00	15	san_pancrazio_salentino	13.37	1	86.31	1	0.0	1	null	6	null	6	null	6	null	6	40.423415	17.846371
79	2024-01-04 06:00:00	15	san_pancrazio_salentino	12.9	1	89.33	1	0.0	1	null	6	null	6	null	6	null	6	40.423415	17.846371
80	2024-01-04 07:00:00	15	san_pancrazio_salentino	13.0	1	91.12	1	0.0	1	null	6	null	6	null	6	null	6	40.423415	17.846371
81	2024-01-04 08:00:00	15	san_pancrazio_salentino	12.66	1	92.1	1	0.0	1	null	6	null	6	null	6	null	6	40.423415	17.846371
82	2024-01-04 09:00:00	15	san_pancrazio_salentino	15.03	1	87.19	1	0.0	1	null	6	null	6	null	6	null	6	40.423415	17.846371
83	2024-01-04 10:00:00	15	san_pancrazio_salentino	16.4	1	78.65	1	0.0	1	null	6	null	6	null	6	null	6	40.423415	17.846371
84	2024-01-04 11:00:00	15	san_pancrazio_salentino	17.81	1	64.66	1	0.0	1	null	6	null	6	null	6	null	6	40.423415	17.846371
85	2024-01-04 12:00:00	15	san_pancrazio_salentino	20.14	1	51.54	1	0.0	1	null	6	null	6	null	6	null	6	40.423415	17.846371
86	2024-01-04 13:00:00	15	san_pancrazio_salentino	21.31	1	49.5	1	0.0	1	null	6	null	6	null	6	null	6	40.423415	17.846371
87	2024-01-04 14:00:00	15	san_pancrazio_salentino	22.06	1	45.12	1	0.0	1	null	6	null	6	null	6	null	6	40.423415	17.846371
88	2024-01-04 15:00:00	15	san_pancrazio_salentino	22.41	1	44.84	1	0.0	1	null	6	null	6	null	6	null	6	40.423415	17.846371
89	2024-01-04 16:00:00	15	san_pancrazio_salentino	20.25	1	53.02	1	0.0	1	null	6	null	6	null	6	null	6	40.423415	17.846371
90	2024-01-04 17:00:00	15	san_pancrazio_salentino	16.64	1	65.32	1	0.0	1	null	6	null	6	null	6	null	6	40.423415	17.846371
91	2024-01-04 18:00:00	15	san_pancrazio_salentino	14.89	1	71.45	1	0.0	1	null	6	null	6	null	6	null	6	40.423415	17.846371
92	2024-01-04 19:00:00	15	san_pancrazio_salentino	14.02	1	74.81	1	0.0	1	null	6	null	6	null	6	null	6	40.423415	17.846371
93	2024-01-04 20:00:00	15	san_pancrazio_salentino	13.47	1	75.91	1	0.0	1	null	6	null	6	null	6	null	6	40.423415	17.846371
94	2024-01-04 21:00:00	15	san_pancrazio_salentino	12.2	1	80.38	1	0.0	1	null	6	null	6	null	6	null	6	40.423415	17.846371
95	2024-01-04 22:00:00	15	san_pancrazio_salentino	10.86	1	85.38	1	0.0	1	null	6	null	6	null	6	null	6	40.423415	17.846371
96	2024-01-04 23:00:00	15	san_pancrazio_salentino	9.65	1	90.92	1	0.0	1	null	6	null	6	null	6	null	6	40.423415	17.846371
97	2024-01-05 00:00:00	15	san_pancrazio_salentino	8.98	1	93.54	1	0.0	1	null	6	null	6	null	6	null	6	40.423415	17.846371
98	2024-01-05 01:00:00	15	san_pancrazio_salentino	8.83	1	94.81	1	0.0	1	null	6	null	6	null	6	null	6	40.423415	17.846371
99	2024-01-05 02:00:00	15	san_pancrazio_salentino	8.58	1	93.02	1	0.0	1	null	6	null	6	null	6	null	6	40.423415	17.846371
100	2024-01-05 03:00:00	15	san_pancrazio_salentino	8.36	1	89.73	1	0.0	1	null	6	null	6	null	6	null	6	40.423415	17.846371
101	2024-01-05 04:00:00	15	san_pancrazio_salentino	6.72	1	91.44	1	0.0	1	null	6	null	6	null	6	null	6	40.423415	17.846371
102	2024-01-05 05:00:00	15	san_pancrazio_salentino	7.13	1	94.59	1	0.0	1	null	6	null	6	null	6	null	6	40.423415	17.846371
103	2024-01-05 06:00:00	15	san_pancrazio_salentino	6.92	1	95.53	1	0.0	1	null	6	null	6	null	6	null	6	40.423415	17.846371
104	2024-01-05 07:00:00	15	san_pancrazio_salentino	5.91	1	95.64	1	0.0	1	null	6	null	6	null	6	null	6	40.423415	17.846371
105	2024-01-05 08:00:00	15	san_pancrazio_salentino	6.88	1	97.41	1	0.0	1	null	6	null	6	null	6	null	6	40.423415	17.846371
106	2024-01-05 09:00:00	15	san_pancrazio_salentino	11.76	1	82.82	1	0.0	1	null	6	null	6	null	6	null	6	40.423415	17.846371
107	2024-01-05 10:00:00	15	san_pancrazio_salentino	14.26	1	84.23	1	0.0	1	null	6	null	6	null	6	null	6	40.423415	17.846371
108	2024-01-05 11:00:00	15	san_pancrazio_salentino	16.3	1	76.39	1	0.0	1	null	6	null	6	null	6	null	6	40.423415	17.846371
109	2024-01-05 12:00:00	15	san_pancrazio_salentino	17.45	1	73.7	1	0.2	1	null	6	null	6	null	6	null	6	40.423415	17.846371
110	2024-01-05 13:00:00	15	san_pancrazio_salentino	17.1	1	78.8	1	0.0	1	null	6	null	6	null	6	null	6	40.423415	17.846371
111	2024-01-05 14:00:00	15	san_pancrazio_salentino	17.03	1	79.92	1	0.0	1	null	6	null	6	null	6	null	6	40.423415	17.846371
112	2024-01-05 15:00:00	15	san_pancrazio_salentino	16.77	1	80.71	1	0.0	1	null	6	null	6	null	6	null	6	40.423415	17.846371
113	2024-01-05 16:00:00	15	san_pancrazio_salentino	16.5	1	85.16	1	0.0	1	null	6	null	6	null	6	null	6	40.423415	17.846371
114	2024-01-05 17:00:00	15	san_pancrazio_salentino	15.98	1	87.22	1	0.0	1	null	6	null	6	null	6	null	6	40.423415	17.846371
115	2024-01-05 18:00:00	15	san_pancrazio_salentino	15.66	1	88.43	1	0.0	1	null	6	null	6	null	6	null	6	40.423415	17.846371
116	2024-01-05 19:00:00	15	san_pancrazio_salentino	15.5	1	88.93	1	0.0	1	null	6	null	6	null	6	null	6	40.423415	17.846371
117	2024-01-05 20:00:00	15	san_pancrazio_salentino	15.73	1	88.03	1	0.0	1	null	6	null	6	null	6	null	6	40.423415	17.846371
118	2024-01-05 21:00:00	15	san_pancrazio_salentino	15.67	1	89.35	1	0.0	1	null	6	null	6	null	6	null	6	40.423415	17.846371
119	2024-01-05 22:00:00	15	san_pancrazio_salentino	15.68	1	88.18	1	0.0	1	null	6	null	6	null	6	null	6	40.423415	17.846371
120	2024-01-05 23:00:00	15	san_pancrazio_salentino	15.68	1	87.64	1	0.0	1	null	6	null	6	null	6	null	6	40.423415	17.846371
121	2024-01-06 00:00:00	15	san_pancrazio_salentino	15.61	1	86.21	1	0.0	1	null	6	null	6	null	6	null	6	40.423415	17.846371
122	2024-01-06 01:00:00	15	san_pancrazio_salentino	15.64	1	86.0	1	0.0	1	null	6	null	6	null	6	null	6	40.423415	17.846371
123	2024-01-06 02:00:00	15	san_pancrazio_salentino	15.69	1	87.77	1	0.0	1	null	6	null	6	null	6	null	6	40.423415	17.846371
124	2024-01-06 03:00:00	15	san_pancrazio_salentino	15.79	1	88.44	1	0.0	1	null	6	null	6	null	6	null	6	40.423415	17.846371
125	2024-01-06 04:00:00	15	san_pancrazio_salentino	15.67	1	88.35	1	0.0	1	null	6	null	6	null	6	null	6	40.423415	17.846371
126	2024-01-06 05:00:00	15	san_pancrazio_salentino	15.65	1	86.98	1	0.0	1	null	6	null	6	null	6	null	6	40.423415	17.846371
127	2024-01-06 06:00:00	15	san_pancrazio_salentino	15.39	1	86.95	1	0.0	1	null	6	null	6	null	6	null	6	40.423415	17.846371
128	2024-01-06 07:00:00	15	san_pancrazio_salentino	15.39	1	86.21	1	0.0	1	null	6	null	6	null	6	null	6	40.423415	17.846371
129	2024-01-06 08:00:00	15	san_pancrazio_salentino	15.54	1	86.25	1	0.0	1	null	6	null	6	null	6	null	6	40.423415	17.846371
130	2024-01-06 09:00:00	15	san_pancrazio_salentino	15.98	1	85.13	1	0.0	1	null	6	null	6	null	6	null	6	40.423415	17.846371
131	2024-01-06 10:00:00	15	san_pancrazio_salentino	16.41	1	83.33	1	0.0	1	null	6	null	6	null	6	null	6	40.423415	17.846371
132	2024-01-06 11:00:00	15	san_pancrazio_salentino	17.18	1	78.78	1	0.0	1	null	6	null	6	null	6	null	6	40.423415	17.846371
133	2024-01-06 12:00:00	15	san_pancrazio_salentino	17.79	1	75.72	1	0.0	1	null	6	null	6	null	6	null	6	40.423415	17.846371
134	2024-01-06 13:00:00	15	san_pancrazio_salentino	17.69	1	75.74	1	0.0	1	null	6	null	6	null	6	null	6	40.423415	17.846371
135	2024-01-06 14:00:00	15	san_pancrazio_salentino	17.41	1	77.4	1	0.0	1	null	6	null	6	null	6	null	6	40.423415	17.846371
136	2024-01-06 15:00:00	15	san_pancrazio_salentino	17.01	1	80.15	1	0.0	1	null	6	null	6	null	6	null	6	40.423415	17.846371
137	2024-01-06 16:00:00	15	san_pancrazio_salentino	17.27	1	76.73	1	0.0	1	null	6	null	6	null	6	null	6	40.423415	17.846371
138	2024-01-06 17:00:00	15	san_pancrazio_salentino	16.75	1	78.48	1	0.0	1	null	6	null	6	null	6	null	6	40.423415	17.846371
139	2024-01-06 18:00:00	15	san_pancrazio_salentino	14.6	1	85.59	1	0.0	1	null	6	null	6	null	6	null	6	40.423415	17.846371
140	2024-01-06 19:00:00	15	san_pancrazio_salentino	11.74	1	93.77	1	0.0	1	null	6	null	6	null	6	null	6	40.423415	17.846371
141	2024-01-06 20:00:00	15	san_pancrazio_salentino	11.28	1	94.67	1	0.0	1	null	6	null	6	null	6	null	6	40.423415	17.846371
142	2024-01-06 21:00:00	15	san_pancrazio_salentino	11.81	1	86.38	1	0.0	1	null	6	null	6	null	6	null	6	40.423415	17.846371
143	2024-01-06 22:00:00	15	san_pancrazio_salentino	11.55	1	87.01	1	0.0	1	null	6	null	6	null	6	null	6	40.423415	17.846371
144	2024-01-06 23:00:00	15	san_pancrazio_salentino	11.15	1	86.92	1	0.0	1	null	6	null	6	null	6	null	6	40.423415	17.846371
145	2024-01-07 00:00:00	15	san_pancrazio_salentino	10.87	1	85.96	1	0.0	1	null	6	null	6	null	6	null	6	40.423415	17.846371
146	2024-01-07 01:00:00	15	san_pancrazio_salentino	10.71	1	86.03	1	0.0	1	null	6	null	6	null	6	null	6	40.423415	17.846371
147	2024-01-07 02:00:00	15	san_pancrazio_salentino	10.58	1	85.74	1	0.0	1	null	6	null	6	null	6	null	6	40.423415	17.846371
148	2024-01-07 03:00:00	15	san_pancrazio_salentino	10.28	1	88.06	1	0.0	1	null	6	null	6	null	6	null	6	40.423415	17.846371
149	2024-01-07 04:00:00	15	san_pancrazio_salentino	9.74	1	92.07	1	0.0	1	null	6	null	6	null	6	null	6	40.423415	17.846371
150	2024-01-07 05:00:00	15	san_pancrazio_salentino	9.37	1	94.94	1	0.0	1	null	6	null	6	null	6	null	6	40.423415	17.846371
151	2024-01-07 06:00:00	15	san_pancrazio_salentino	9.93	1	94.84	1	0.0	1	null	6	null	6	null	6	null	6	40.423415	17.846371
152	2024-01-07 07:00:00	15	san_pancrazio_salentino	10.06	1	95.61	1	0.0	1	null	6	null	6	null	6	null	6	40.423415	17.846371
153	2024-01-07 08:00:00	15	san_pancrazio_salentino	9.72	1	96.58	1	0.0	1	null	6	null	6	null	6	null	6	40.423415	17.846371
154	2024-01-07 09:00:00	15	san_pancrazio_salentino	10.8	1	95.31	1	0.2	1	null	6	null	6	null	6	null	6	40.423415	17.846371
155	2024-01-07 10:00:00	15	san_pancrazio_salentino	12.55	1	89.87	1	0.0	1	null	6	null	6	null	6	null	6	40.423415	17.846371
156	2024-01-07 11:00:00	15	san_pancrazio_salentino	13.44	1	85.37	1	0.0	1	null	6	null	6	null	6	null	6	40.423415	17.846371
157	2024-01-07 12:00:00	15	san_pancrazio_salentino	13.8	1	81.44	1	0.0	1	null	6	null	6	null	6	null	6	40.423415	17.846371
158	2024-01-07 13:00:00	15	san_pancrazio_salentino	13.44	1	83.77	1	0.0	1	null	6	null	6	null	6	null	6	40.423415	17.846371
159	2024-01-07 14:00:00	15	san_pancrazio_salentino	13.22	1	80.73	1	0.0	1	null	6	null	6	null	6	null	6	40.423415	17.846371
160	2024-01-07 15:00:00	15	san_pancrazio_salentino	13.53	1	71.0	1	0.0	1	null	6	null	6	null	6	null	6	40.423415	17.846371
161	2024-01-07 16:00:00	15	san_pancrazio_salentino	13.21	1	64.45	1	0.0	1	null	6	null	6	null	6	null	6	40.423415	17.846371
162	2024-01-07 17:00:00	15	san_pancrazio_salentino	12.75	1	64.84	1	0.0	1	null	6	null	6	null	6	null	6	40.423415	17.846371
163	2024-01-07 18:00:00	15	san_pancrazio_salentino	12.49	1	63.67	1	0.0	1	null	6	null	6	null	6	null	6	40.423415	17.846371
164	2024-01-07 19:00:00	15	san_pancrazio_salentino	11.79	1	74.26	1	0.0	1	null	6	null	6	null	6	null	6	40.423415	17.846371
165	2024-01-07 20:00:00	15	san_pancrazio_salentino	10.7	1	86.3	1	0.0	1	null	6	null	6	null	6	null	6	40.423415	17.846371
166	2024-01-07 21:00:00	15	san_pancrazio_salentino	10.12	1	90.83	1	0.0	1	null	6	null	6	null	6	null	6	40.423415	17.846371
167	2024-01-07 22:00:00	15	san_pancrazio_salentino	9.58	1	92.08	1	0.0	1	null	6	null	6	null	6	null	6	40.423415	17.846371
168	2024-01-07 23:00:00	15	san_pancrazio_salentino	9.55	1	89.52	1	0.0	1	null	6	null	6	null	6	null	6	40.423415	17.846371
169	2024-01-08 00:00:00	15	san_pancrazio_salentino	9.58	1	89.27	1	0.0	1	null	6	null	6	null	6	null	6	40.423415	17.846371
170	2024-01-08 01:00:00	15	san_pancrazio_salentino	8.69	1	93.71	1	0.0	1	null	6	null	6	null	6	null	6	40.423415	17.846371
171	2024-01-08 02:00:00	15	san_pancrazio_salentino	8.43	1	93.24	1	0.0	1	null	6	null	6	null	6	null	6	40.423415	17.846371
172	2024-01-08 03:00:00	15	san_pancrazio_salentino	7.68	1	95.43	1	0.0	1	null	6	null	6	null	6	null	6	40.423415	17.846371
173	2024-01-08 04:00:00	15	san_pancrazio_salentino	7.0	1	96.33	1	0.0	1	null	6	null	6	null	6	null	6	40.423415	17.846371
174	2024-01-08 05:00:00	15	san_pancrazio_salentino	6.83	1	95.71	1	0.0	1	null	6	null	6	null	6	null	6	40.423415	17.846371
175	2024-01-08 06:00:00	15	san_pancrazio_salentino	6.49	1	96.4	1	0.0	1	null	6	null	6	null	6	null	6	40.423415	17.846371
176	2024-01-08 07:00:00	15	san_pancrazio_salentino	7.55	1	91.03	1	0.0	1	null	6	null	6	null	6	null	6	40.423415	17.846371
177	2024-01-08 08:00:00	15	san_pancrazio_salentino	7.54	1	92.32	1	0.0	1	null	6	null	6	null	6	null	6	40.423415	17.846371
178	2024-01-08 09:00:00	15	san_pancrazio_salentino	8.51	1	92.44	1	0.0	1	null	6	null	6	null	6	null	6	40.423415	17.846371
179	2024-01-08 10:00:00	15	san_pancrazio_salentino	9.63	1	91.63	1	0.0	1	null	6	null	6	null	6	null	6	40.423415	17.846371
180	2024-01-08 11:00:00	15	san_pancrazio_salentino	10.67	1	88.03	1	0.0	1	null	6	null	6	null	6	null	6	40.423415	17.846371
181	2024-01-08 12:00:00	15	san_pancrazio_salentino	12.23	1	81.6	1	0.0	1	null	6	null	6	null	6	null	6	40.423415	17.846371
182	2024-01-08 13:00:00	15	san_pancrazio_salentino	12.84	1	75.39	1	0.0	1	null	6	null	6	null	6	null	6	40.423415	17.846371
183	2024-01-08 14:00:00	15	san_pancrazio_salentino	12.49	1	74.2	1	0.0	1	null	6	null	6	null	6	null	6	40.423415	17.846371
184	2024-01-08 15:00:00	15	san_pancrazio_salentino	10.73	1	84.41	1	0.0	1	null	6	null	6	null	6	null	6	40.423415	17.846371
185	2024-01-08 16:00:00	15	san_pancrazio_salentino	9.75	1	90.14	1	0.0	1	null	6	null	6	null	6	null	6	40.423415	17.846371
186	2024-01-08 17:00:00	15	san_pancrazio_salentino	9.58	1	88.34	1	0.0	1	null	6	null	6	null	6	null	6	40.423415	17.846371
187	2024-01-08 18:00:00	15	san_pancrazio_salentino	9.12	1	90.08	1	0.0	1	null	6	null	6	null	6	null	6	40.423415	17.846371
188	2024-01-08 19:00:00	15	san_pancrazio_salentino	8.62	1	91.67	1	0.0	1	null	6	null	6	null	6	null	6	40.423415	17.846371
189	2024-01-08 20:00:00	15	san_pancrazio_salentino	7.87	1	94.42	1	0.0	1	null	6	null	6	null	6	null	6	40.423415	17.846371
190	2024-01-08 21:00:00	15	san_pancrazio_salentino	7.74	1	95.66	1	0.0	1	null	6	null	6	null	6	null	6	40.423415	17.846371
191	2024-01-08 22:00:00	15	san_pancrazio_salentino	7.65	1	95.82	1	0.0	1	null	6	null	6	null	6	null	6	40.423415	17.846371
192	2024-01-08 23:00:00	15	san_pancrazio_salentino	7.57	1	96.9	1	0.0	1	null	6	null	6	null	6	null	6	40.423415	17.846371
193	2024-01-09 00:00:00	15	san_pancrazio_salentino	7.95	1	94.45	1	0.0	1	null	6	null	6	null	6	null	6	40.423415	17.846371
194	2024-01-09 01:00:00	15	san_pancrazio_salentino	8.5	1	91.42	1	0.0	1	null	6	null	6	null	6	null	6	40.423415	17.846371
195	2024-01-09 02:00:00	15	san_pancrazio_salentino	8.06	1	92.41	1	0.0	1	null	6	null	6	null	6	null	6	40.423415	17.846371
196	2024-01-09 03:00:00	15	san_pancrazio_salentino	6.77	1	94.63	1	0.0	1	null	6	null	6	null	6	null	6	40.423415	17.846371
197	2024-01-09 04:00:00	15	san_pancrazio_salentino	6.18	1	96.17	1	0.0	1	null	6	null	6	null	6	null	6	40.423415	17.846371
198	2024-01-09 05:00:00	15	san_pancrazio_salentino	6.25	1	96.76	1	0.0	1	null	6	null	6	null	6	null	6	40.423415	17.846371
199	2024-01-09 06:00:00	15	san_pancrazio_salentino	6.65	1	96.22	1	0.0	1	null	6	null	6	null	6	null	6	40.423415	17.846371
200	2024-01-09 07:00:00	15	san_pancrazio_salentino	6.66	1	97.4	1	0.0	1	null	6	null	6	null	6	null	6	40.423415	17.846371
201	2024-01-09 08:00:00	15	san_pancrazio_salentino	6.9	1	96.91	1	0.0	1	null	6	null	6	null	6	null	6	40.423415	17.846371
202	2024-01-09 09:00:00	15	san_pancrazio_salentino	9.67	1	85.36	1	0.0	1	null	6	null	6	null	6	null	6	40.423415	17.846371
203	2024-01-09 10:00:00	15	san_pancrazio_salentino	10.87	1	76.24	1	0.0	1	null	6	null	6	null	6	null	6	40.423415	17.846371
204	2024-01-09 11:00:00	15	san_pancrazio_salentino	11.75	1	67.76	1	0.0	1	null	6	null	6	null	6	null	6	40.423415	17.846371
205	2024-01-09 12:00:00	15	san_pancrazio_salentino	13.54	1	60.98	1	0.0	1	null	6	null	6	null	6	null	6	40.423415	17.846371
206	2024-01-09 13:00:00	15	san_pancrazio_salentino	15.33	1	54.8	1	0.0	1	null	6	null	6	null	6	null	6	40.423415	17.846371
207	2024-01-09 14:00:00	15	san_pancrazio_salentino	15.22	1	55.78	1	0.0	1	null	6	null	6	null	6	null	6	40.423415	17.846371
208	2024-01-09 15:00:00	15	san_pancrazio_salentino	13.33	1	60.66	1	0.0	1	null	6	null	6	null	6	null	6	40.423415	17.846371
209	2024-01-09 16:00:00	15	san_pancrazio_salentino	12.94	1	61.85	1	0.0	1	null	6	null	6	null	6	null	6	40.423415	17.846371
210	2024-01-09 17:00:00	15	san_pancrazio_salentino	10.29	1	71.67	1	0.0	1	null	6	null	6	null	6	null	6	40.423415	17.846371
211	2024-01-09 18:00:00	15	san_pancrazio_salentino	8.75	1	78.42	1	0.0	1	null	6	null	6	null	6	null	6	40.423415	17.846371
212	2024-01-09 19:00:00	15	san_pancrazio_salentino	8.17	1	81.36	1	0.0	1	null	6	null	6	null	6	null	6	40.423415	17.846371
213	2024-01-09 20:00:00	15	san_pancrazio_salentino	8.55	1	80.89	1	0.0	1	null	6	null	6	null	6	null	6	40.423415	17.846371
214	2024-01-09 21:00:00	15	san_pancrazio_salentino	8.87	1	82.14	1	0.0	1	null	6	null	6	null	6	null	6	40.423415	17.846371
215	2024-01-09 22:00:00	15	san_pancrazio_salentino	9.07	1	82.97	1	0.0	1	null	6	null	6	null	6	null	6	40.423415	17.846371
216	2024-01-09 23:00:00	15	san_pancrazio_salentino	9.38	1	79.05	1	0.0	1	null	6	null	6	null	6	null	6	40.423415	17.846371
217	2024-01-10 00:00:00	15	san_pancrazio_salentino	9.3	1	78.65	1	0.0	1	null	6	null	6	null	6	null	6	40.423415	17.846371
218	2024-01-10 01:00:00	15	san_pancrazio_salentino	9.09	1	78.3	1	0.0	1	null	6	null	6	null	6	null	6	40.423415	17.846371
219	2024-01-10 02:00:00	15	san_pancrazio_salentino	8.3	1	82.16	1	0.0	1	null	6	null	6	null	6	null	6	40.423415	17.846371
220	2024-01-10 03:00:00	15	san_pancrazio_salentino	7.97	1	84.54	1	0.0	1	null	6	null	6	null	6	null	6	40.423415	17.846371
221	2024-01-10 04:00:00	15	san_pancrazio_salentino	8.67	1	82.3	1	0.0	1	null	6	null	6	null	6	null	6	40.423415	17.846371
222	2024-01-10 05:00:00	15	san_pancrazio_salentino	8.53	1	84.01	1	0.0	1	null	6	null	6	null	6	null	6	40.423415	17.846371
223	2024-01-10 06:00:00	15	san_pancrazio_salentino	8.42	1	85.55	1	0.0	1	null	6	null	6	null	6	null	6	40.423415	17.846371
224	2024-01-10 07:00:00	15	san_pancrazio_salentino	8.44	1	86.49	1	0.2	1	null	6	null	6	null	6	null	6	40.423415	17.846371
225	2024-01-10 08:00:00	15	san_pancrazio_salentino	8.72	1	84.5	1	0.0	1	null	6	null	6	null	6	null	6	40.423415	17.846371
226	2024-01-10 09:00:00	15	san_pancrazio_salentino	9.02	1	83.17	1	0.0	1	null	6	null	6	null	6	null	6	40.423415	17.846371
227	2024-01-10 10:00:00	15	san_pancrazio_salentino	9.5	1	82.3	1	0.0	1	null	6	null	6	null	6	null	6	40.423415	17.846371
228	2024-01-10 11:00:00	15	san_pancrazio_salentino	10.08	1	80.42	1	0.0	1	null	6	null	6	null	6	null	6	40.423415	17.846371
229	2024-01-10 12:00:00	15	san_pancrazio_salentino	10.7	1	77.3	1	0.0	1	null	6	null	6	null	6	null	6	40.423415	17.846371
230	2024-01-10 13:00:00	15	san_pancrazio_salentino	11.74	1	73.62	1	0.0	1	null	6	null	6	null	6	null	6	40.423415	17.846371
231	2024-01-10 14:00:00	15	san_pancrazio_salentino	11.86	1	73.49	1	0.0	1	null	6	null	6	null	6	null	6	40.423415	17.846371
232	2024-01-10 15:00:00	15	san_pancrazio_salentino	11.58	1	74.18	1	0.0	1	null	6	null	6	null	6	null	6	40.423415	17.846371
233	2024-01-10 16:00:00	15	san_pancrazio_salentino	10.82	1	77.75	1	0.0	1	null	6	null	6	null	6	null	6	40.423415	17.846371
234	2024-01-10 17:00:00	15	san_pancrazio_salentino	10.08	1	83.01	1	0.0	1	null	6	null	6	null	6	null	6	40.423415	17.846371
235	2024-01-10 18:00:00	15	san_pancrazio_salentino	9.56	1	85.91	1	0.0	1	null	6	null	6	null	6	null	6	40.423415	17.846371
236	2024-01-10 19:00:00	15	san_pancrazio_salentino	9.25	1	88.66	1	0.0	1	null	6	null	6	null	6	null	6	40.423415	17.846371
237	2024-01-10 20:00:00	15	san_pancrazio_salentino	8.26	1	91.59	1	0.0	1	null	6	null	6	null	6	null	6	40.423415	17.846371
238	2024-01-10 21:00:00	15	san_pancrazio_salentino	7.4	1	94.41	1	0.0	1	null	6	null	6	null	6	null	6	40.423415	17.846371
239	2024-01-10 22:00:00	15	san_pancrazio_salentino	7.69	1	93.2	1	0.0	1	null	6	null	6	null	6	null	6	40.423415	17.846371
240	2024-01-10 23:00:00	15	san_pancrazio_salentino	7.73	1	90.41	1	0.0	1	null	6	null	6	null	6	null	6	40.423415	17.846371
241	2024-01-11 00:00:00	15	san_pancrazio_salentino	7.82	1	86.9	1	0.0	1	null	6	null	6	null	6	null	6	40.423415	17.846371
242	2024-01-11 01:00:00	15	san_pancrazio_salentino	7.95	1	87.27	1	0.0	1	null	6	null	6	null	6	null	6	40.423415	17.846371
243	2024-01-11 02:00:00	15	san_pancrazio_salentino	7.72	1	89.15	1	0.0	1	null	6	null	6	null	6	null	6	40.423415	17.846371
244	2024-01-11 03:00:00	15	san_pancrazio_salentino	7.32	1	89.83	1	0.0	1	null	6	null	6	null	6	null	6	40.423415	17.846371
245	2024-01-11 04:00:00	15	san_pancrazio_salentino	7.37	1	89.2	1	0.0	1	null	6	null	6	null	6	null	6	40.423415	17.846371
246	2024-01-11 05:00:00	15	san_pancrazio_salentino	7.14	1	89.68	1	0.0	1	null	6	null	6	null	6	null	6	40.423415	17.846371
247	2024-01-11 06:00:00	15	san_pancrazio_salentino	6.99	1	89.29	1	0.0	1	null	6	null	6	null	6	null	6	40.423415	17.846371
248	2024-01-11 07:00:00	15	san_pancrazio_salentino	6.82	1	89.53	1	0.0	1	null	6	null	6	null	6	null	6	40.423415	17.846371
249	2024-01-11 08:00:00	15	san_pancrazio_salentino	7.05	1	88.87	1	0.0	1	null	6	null	6	null	6	null	6	40.423415	17.846371
250	2024-01-11 09:00:00	15	san_pancrazio_salentino	8.05	1	87.83	1	0.0	1	null	6	null	6	null	6	null	6	40.423415	17.846371
251	2024-01-11 10:00:00	15	san_pancrazio_salentino	10.69	1	79.97	1	0.0	1	null	6	null	6	null	6	null	6	40.423415	17.846371
252	2024-01-11 11:00:00	15	san_pancrazio_salentino	12.02	1	72.66	1	0.0	1	null	6	null	6	null	6	null	6	40.423415	17.846371
253	2024-01-11 12:00:00	15	san_pancrazio_salentino	13.08	1	62.69	1	0.0	1	null	6	null	6	null	6	null	6	40.423415	17.846371
254	2024-01-11 13:00:00	15	san_pancrazio_salentino	13.15	1	59.38	1	0.0	1	null	6	null	6	null	6	null	6	40.423415	17.846371
255	2024-01-11 14:00:00	15	san_pancrazio_salentino	12.95	1	63.47	1	0.0	1	null	6	null	6	null	6	null	6	40.423415	17.846371
256	2024-01-11 15:00:00	15	san_pancrazio_salentino	12.92	1	60.48	1	2.8	1	null	6	null	6	null	6	null	6	40.423415	17.846371
257	2024-01-11 16:00:00	15	san_pancrazio_salentino	12.29	1	65.14	1	0.0	1	null	6	null	6	null	6	null	6	40.423415	17.846371
258	2024-01-11 17:00:00	15	san_pancrazio_salentino	10.61	1	73.44	1	0.0	1	null	6	null	6	null	6	null	6	40.423415	17.846371
259	2024-01-11 18:00:00	15	san_pancrazio_salentino	9.33	1	79.66	1	0.0	1	null	6	null	6	null	6	null	6	40.423415	17.846371
260	2024-01-11 19:00:00	15	san_pancrazio_salentino	8.56	1	82.78	1	0.0	1	null	6	null	6	null	6	null	6	40.423415	17.846371
261	2024-01-11 20:00:00	15	san_pancrazio_salentino	7.28	1	86.32	1	0.0	1	null	6	null	6	null	6	null	6	40.423415	17.846371
262	2024-01-11 21:00:00	15	san_pancrazio_salentino	6.41	1	88.55	1	0.0	1	null	6	null	6	null	6	null	6	40.423415	17.846371
263	2024-01-11 22:00:00	15	san_pancrazio_salentino	6.03	1	88.79	1	0.0	1	null	6	null	6	null	6	null	6	40.423415	17.846371
264	2024-01-11 23:00:00	15	san_pancrazio_salentino	5.7	1	90.73	1	0.0	1	null	6	null	6	null	6	null	6	40.423415	17.846371
265	2024-01-12 00:00:00	15	san_pancrazio_salentino	6.46	1	88.93	1	0.0	1	null	6	null	6	null	6	null	6	40.423415	17.846371
266	2024-01-12 01:00:00	15	san_pancrazio_salentino	5.88	1	90.95	1	0.0	1	null	6	null	6	null	6	null	6	40.423415	17.846371
267	2024-01-12 02:00:00	15	san_pancrazio_salentino	5.32	1	93.24	1	0.0	1	null	6	null	6	null	6	null	6	40.423415	17.846371
268	2024-01-12 03:00:00	15	san_pancrazio_salentino	5.8	1	95.84	1	0.0	1	null	6	null	6	null	6	null	6	40.423415	17.846371
269	2024-01-12 04:00:00	15	san_pancrazio_salentino	6.12	1	95.36	1	0.0	1	null	6	null	6	null	6	null	6	40.423415	17.846371
270	2024-01-12 05:00:00	15	san_pancrazio_salentino	6.54	1	93.14	1	0.0	1	null	6	null	6	null	6	null	6	40.423415	17.846371
271	2024-01-12 06:00:00	15	san_pancrazio_salentino	7.52	1	91.74	1	0.0	1	null	6	null	6	null	6	null	6	40.423415	17.846371
272	2024-01-12 07:00:00	15	san_pancrazio_salentino	8.24	1	91.33	1	0.0	1	null	6	null	6	null	6	null	6	40.423415	17.846371
273	2024-01-12 08:00:00	15	san_pancrazio_salentino	7.95	1	90.48	1	0.0	1	null	6	null	6	null	6	null	6	40.423415	17.846371
274	2024-01-12 09:00:00	15	san_pancrazio_salentino	8.55	1	84.54	1	0.0	1	null	6	null	6	null	6	null	6	40.423415	17.846371
275	2024-01-12 10:00:00	15	san_pancrazio_salentino	9.52	1	77.8	1	0.0	1	null	6	null	6	null	6	null	6	40.423415	17.846371
276	2024-01-12 11:00:00	15	san_pancrazio_salentino	11.41	1	67.17	1	0.0	1	null	6	null	6	null	6	null	6	40.423415	17.846371
277	2024-01-12 12:00:00	15	san_pancrazio_salentino	13.15	1	53.28	1	0.0	1	null	6	null	6	null	6	null	6	40.423415	17.846371
278	2024-01-12 13:00:00	15	san_pancrazio_salentino	15.47	1	42.02	1	0.0	1	null	6	null	6	null	6	null	6	40.423415	17.846371
279	2024-01-12 14:00:00	15	san_pancrazio_salentino	15.41	1	45.37	1	0.2	1	null	6	null	6	null	6	null	6	40.423415	17.846371
280	2024-01-12 15:00:00	15	san_pancrazio_salentino	15.08	1	40.68	1	0.0	1	null	6	null	6	null	6	null	6	40.423415	17.846371
281	2024-01-12 16:00:00	15	san_pancrazio_salentino	13.61	1	45.12	1	0.0	1	null	6	null	6	null	6	null	6	40.423415	17.846371
282	2024-01-12 17:00:00	15	san_pancrazio_salentino	10.55	1	59.43	1	0.0	1	null	6	null	6	null	6	null	6	40.423415	17.846371
283	2024-01-12 18:00:00	15	san_pancrazio_salentino	8.36	1	66.93	1	0.0	1	null	6	null	6	null	6	null	6	40.423415	17.846371
284	2024-01-12 19:00:00	15	san_pancrazio_salentino	7.14	1	72.1	1	0.0	1	null	6	null	6	null	6	null	6	40.423415	17.846371
285	2024-01-12 20:00:00	15	san_pancrazio_salentino	6.24	1	73.81	1	0.0	1	null	6	null	6	null	6	null	6	40.423415	17.846371
286	2024-01-12 21:00:00	15	san_pancrazio_salentino	6.17	1	70.76	1	0.0	1	null	6	null	6	null	6	null	6	40.423415	17.846371
287	2024-01-12 22:00:00	15	san_pancrazio_salentino	6.12	1	68.73	1	0.0	1	null	6	null	6	null	6	null	6	40.423415	17.846371
288	2024-01-12 23:00:00	15	san_pancrazio_salentino	5.92	1	71.16	1	0.0	1	null	6	null	6	null	6	null	6	40.423415	17.846371
289	2024-01-13 00:00:00	15	san_pancrazio_salentino	4.86	1	78.49	1	0.0	1	null	6	null	6	null	6	null	6	40.423415	17.846371
290	2024-01-13 01:00:00	15	san_pancrazio_salentino	4.86	1	83.89	1	0.0	1	null	6	null	6	null	6	null	6	40.423415	17.846371
291	2024-01-13 02:00:00	15	san_pancrazio_salentino	4.76	1	86.04	1	0.0	1	null	6	null	6	null	6	null	6	40.423415	17.846371
292	2024-01-13 03:00:00	15	san_pancrazio_salentino	4.95	1	84.47	1	0.0	1	null	6	null	6	null	6	null	6	40.423415	17.846371
293	2024-01-13 04:00:00	15	san_pancrazio_salentino	4.51	1	84.37	1	0.0	1	null	6	null	6	null	6	null	6	40.423415	17.846371
294	2024-01-13 05:00:00	15	san_pancrazio_salentino	4.86	1	83.7	1	0.0	1	null	6	null	6	null	6	null	6	40.423415	17.846371
295	2024-01-13 06:00:00	15	san_pancrazio_salentino	5.19	1	83.21	1	0.0	1	null	6	null	6	null	6	null	6	40.423415	17.846371
296	2024-01-13 07:00:00	15	san_pancrazio_salentino	5.23	1	83.55	1	0.0	1	null	6	null	6	null	6	null	6	40.423415	17.846371
297	2024-01-13 08:00:00	15	san_pancrazio_salentino	5.61	1	80.4	1	0.0	1	null	6	null	6	null	6	null	6	40.423415	17.846371
298	2024-01-13 09:00:00	15	san_pancrazio_salentino	6.56	1	73.42	1	0.0	1	null	6	null	6	null	6	null	6	40.423415	17.846371
299	2024-01-13 10:00:00	15	san_pancrazio_salentino	7.52	1	69.81	1	0.0	1	null	6	null	6	null	6	null	6	40.423415	17.846371
300	2024-01-13 11:00:00	15	san_pancrazio_salentino	9.5	1	64.06	1	0.0	1	null	6	null	6	null	6	null	6	40.423415	17.846371
301	2024-01-13 12:00:00	15	san_pancrazio_salentino	9.96	1	59.9	1	0.0	1	null	6	null	6	null	6	null	6	40.423415	17.846371
302	2024-01-13 13:00:00	15	san_pancrazio_salentino	11.62	1	48.74	1	0.0	1	null	6	null	6	null	6	null	6	40.423415	17.846371
303	2024-01-13 14:00:00	15	san_pancrazio_salentino	12.82	1	46.28	1	0.0	1	null	6	null	6	null	6	null	6	40.423415	17.846371
304	2024-01-13 15:00:00	15	san_pancrazio_salentino	10.73	1	54.49	1	0.0	1	null	6	null	6	null	6	null	6	40.423415	17.846371
305	2024-01-13 16:00:00	15	san_pancrazio_salentino	10.64	1	53.33	1	0.0	1	null	6	null	6	null	6	null	6	40.423415	17.846371
306	2024-01-13 17:00:00	15	san_pancrazio_salentino	8.29	1	63.27	1	0.0	1	null	6	null	6	null	6	null	6	40.423415	17.846371
307	2024-01-13 18:00:00	15	san_pancrazio_salentino	6.67	1	70.01	1	0.0	1	null	6	null	6	null	6	null	6	40.423415	17.846371
308	2024-01-13 19:00:00	15	san_pancrazio_salentino	6.29	1	73.1	1	0.0	1	null	6	null	6	null	6	null	6	40.423415	17.846371
309	2024-01-13 20:00:00	15	san_pancrazio_salentino	5.83	1	77.14	1	0.0	1	null	6	null	6	null	6	null	6	40.423415	17.846371
310	2024-01-13 21:00:00	15	san_pancrazio_salentino	4.9	1	80.77	1	0.0	1	null	6	null	6	null	6	null	6	40.423415	17.846371
311	2024-01-13 22:00:00	15	san_pancrazio_salentino	4.71	1	81.56	1	0.0	1	null	6	null	6	null	6	null	6	40.423415	17.846371
312	2024-01-13 23:00:00	15	san_pancrazio_salentino	4.12	1	85.82	1	0.0	1	null	6	null	6	null	6	null	6	40.423415	17.846371
313	2024-01-14 00:00:00	15	san_pancrazio_salentino	3.95	1	86.75	1	0.0	1	null	6	null	6	null	6	null	6	40.423415	17.846371
314	2024-01-14 01:00:00	15	san_pancrazio_salentino	4.1	1	85.57	1	0.0	1	null	6	null	6	null	6	null	6	40.423415	17.846371
315	2024-01-14 02:00:00	15	san_pancrazio_salentino	3.7	1	86.96	1	0.0	1	null	6	null	6	null	6	null	6	40.423415	17.846371
316	2024-01-14 03:00:00	15	san_pancrazio_salentino	3.45	1	87.28	1	0.0	1	null	6	null	6	null	6	null	6	40.423415	17.846371
317	2024-01-14 04:00:00	15	san_pancrazio_salentino	2.95	1	89.32	1	0.0	1	null	6	null	6	null	6	null	6	40.423415	17.846371
318	2024-01-14 05:00:00	15	san_pancrazio_salentino	2.83	1	89.36	1	0.0	1	null	6	null	6	null	6	null	6	40.423415	17.846371
319	2024-01-14 06:00:00	15	san_pancrazio_salentino	3.14	1	86.15	1	0.0	1	null	6	null	6	null	6	null	6	40.423415	17.846371
320	2024-01-14 07:00:00	15	san_pancrazio_salentino	3.03	1	83.49	1	0.0	1	null	6	null	6	null	6	null	6	40.423415	17.846371
321	2024-01-14 08:00:00	15	san_pancrazio_salentino	3.02	1	81.41	1	0.0	1	null	6	null	6	null	6	null	6	40.423415	17.846371
322	2024-01-14 09:00:00	15	san_pancrazio_salentino	5.2	1	73.44	1	0.0	1	null	6	null	6	null	6	null	6	40.423415	17.846371
323	2024-01-14 10:00:00	15	san_pancrazio_salentino	7.52	1	65.66	1	0.0	1	null	6	null	6	null	6	null	6	40.423415	17.846371
324	2024-01-14 11:00:00	15	san_pancrazio_salentino	9.66	1	51.39	1	0.0	1	null	6	null	6	null	6	null	6	40.423415	17.846371
325	2024-01-14 12:00:00	15	san_pancrazio_salentino	12.67	1	36.35	1	0.0	1	null	6	null	6	null	6	null	6	40.423415	17.846371
326	2024-01-14 13:00:00	15	san_pancrazio_salentino	13.22	1	37.49	1	0.0	1	null	6	null	6	null	6	null	6	40.423415	17.846371
327	2024-01-14 14:00:00	15	san_pancrazio_salentino	13.61	1	41.98	1	0.0	1	null	6	null	6	null	6	null	6	40.423415	17.846371
328	2024-01-14 15:00:00	15	san_pancrazio_salentino	12.27	1	59.37	1	0.0	1	null	6	null	6	null	6	null	6	40.423415	17.846371
329	2024-01-14 16:00:00	15	san_pancrazio_salentino	12.22	1	66.41	1	0.0	1	null	6	null	6	null	6	null	6	40.423415	17.846371
330	2024-01-14 17:00:00	15	san_pancrazio_salentino	10.91	1	71.38	1	0.0	1	null	6	null	6	null	6	null	6	40.423415	17.846371
331	2024-01-14 18:00:00	15	san_pancrazio_salentino	10.62	1	68.56	1	0.0	1	null	6	null	6	null	6	null	6	40.423415	17.846371
332	2024-01-14 19:00:00	15	san_pancrazio_salentino	10.14	1	72.43	1	0.0	1	null	6	null	6	null	6	null	6	40.423415	17.846371
333	2024-01-14 20:00:00	15	san_pancrazio_salentino	9.62	1	72.78	1	0.0	1	null	6	null	6	null	6	null	6	40.423415	17.846371
334	2024-01-14 21:00:00	15	san_pancrazio_salentino	8.59	1	77.66	1	0.0	1	null	6	null	6	null	6	null	6	40.423415	17.846371
335	2024-01-14 22:00:00	15	san_pancrazio_salentino	7.95	1	83.51	1	0.0	1	null	6	null	6	null	6	null	6	40.423415	17.846371
336	2024-01-14 23:00:00	15	san_pancrazio_salentino	8.28	1	86.12	1	0.0	1	null	6	null	6	null	6	null	6	40.423415	17.846371
337	2024-01-15 00:00:00	15	san_pancrazio_salentino	9.34	1	82.82	1	0.0	1	null	6	null	6	null	6	null	6	40.423415	17.846371
338	2024-01-15 01:00:00	15	san_pancrazio_salentino	8.92	1	84.13	1	0.0	1	null	6	null	6	null	6	null	6	40.423415	17.846371
339	2024-01-15 02:00:00	15	san_pancrazio_salentino	9.19	1	83.03	1	0.0	1	null	6	null	6	null	6	null	6	40.423415	17.846371
340	2024-01-15 03:00:00	15	san_pancrazio_salentino	9.46	1	84.47	1	0.0	1	null	6	null	6	null	6	null	6	40.423415	17.846371
341	2024-01-15 04:00:00	15	san_pancrazio_salentino	9.82	1	89.45	1	0.0	1	null	6	null	6	null	6	null	6	40.423415	17.846371
342	2024-01-15 05:00:00	15	san_pancrazio_salentino	10.02	1	92.52	1	0.0	1	null	6	null	6	null	6	null	6	40.423415	17.846371
343	2024-01-15 06:00:00	15	san_pancrazio_salentino	10.3	1	94.97	1	0.0	1	null	6	null	6	null	6	null	6	40.423415	17.846371
344	2024-01-15 07:00:00	15	san_pancrazio_salentino	11.22	1	91.63	1	0.0	1	null	6	null	6	null	6	null	6	40.423415	17.846371
345	2024-01-15 08:00:00	15	san_pancrazio_salentino	11.98	1	89.19	1	0.0	1	null	6	null	6	null	6	null	6	40.423415	17.846371
346	2024-01-15 09:00:00	15	san_pancrazio_salentino	12.49	1	83.97	1	0.0	1	null	6	null	6	null	6	null	6	40.423415	17.846371
347	2024-01-15 10:00:00	15	san_pancrazio_salentino	13.46	1	80.01	1	0.0	1	null	6	null	6	null	6	null	6	40.423415	17.846371
348	2024-01-15 11:00:00	15	san_pancrazio_salentino	14.36	1	75.16	1	0.0	1	null	6	null	6	null	6	null	6	40.423415	17.846371
349	2024-01-15 12:00:00	15	san_pancrazio_salentino	14.83	1	75.26	1	0.0	1	null	6	null	6	null	6	null	6	40.423415	17.846371
350	2024-01-15 13:00:00	15	san_pancrazio_salentino	13.84	1	77.53	1	0.2	1	null	6	null	6	null	6	null	6	40.423415	17.846371
351	2024-01-15 14:00:00	15	san_pancrazio_salentino	13.22	1	83.89	1	0.0	1	null	6	null	6	null	6	null	6	40.423415	17.846371
352	2024-01-15 15:00:00	15	san_pancrazio_salentino	13.85	1	79.54	1	0.0	1	null	6	null	6	null	6	null	6	40.423415	17.846371
353	2024-01-15 16:00:00	15	san_pancrazio_salentino	13.71	1	80.53	1	0.0	1	null	6	null	6	null	6	null	6	40.423415	17.846371
354	2024-01-15 17:00:00	15	san_pancrazio_salentino	13.15	1	83.25	1	0.0	1	null	6	null	6	null	6	null	6	40.423415	17.846371
355	2024-01-15 18:00:00	15	san_pancrazio_salentino	12.89	1	86.66	1	0.0	1	null	6	null	6	null	6	null	6	40.423415	17.846371
356	2024-01-15 19:00:00	15	san_pancrazio_salentino	12.54	1	87.0	1	0.0	1	null	6	null	6	null	6	null	6	40.423415	17.846371
357	2024-01-15 20:00:00	15	san_pancrazio_salentino	12.09	1	88.72	1	0.0	1	null	6	null	6	null	6	null	6	40.423415	17.846371
358	2024-01-15 21:00:00	15	san_pancrazio_salentino	11.98	1	88.61	1	0.0	1	null	6	null	6	null	6	null	6	40.423415	17.846371
359	2024-01-15 22:00:00	15	san_pancrazio_salentino	12.2	1	87.88	1	0.0	1	null	6	null	6	null	6	null	6	40.423415	17.846371
360	2024-01-15 23:00:00	15	san_pancrazio_salentino	12.87	1	83.02	1	0.0	1	null	6	null	6	null	6	null	6	40.423415	17.846371
361	2024-01-16 00:00:00	15	san_pancrazio_salentino	12.67	1	78.39	1	0.0	1	null	6	null	6	null	6	null	6	40.423415	17.846371
362	2024-01-16 01:00:00	15	san_pancrazio_salentino	11.34	1	85.51	1	0.0	1	null	6	null	6	null	6	null	6	40.423415	17.846371
363	2024-01-16 02:00:00	15	san_pancrazio_salentino	10.13	1	89.1	1	0.0	1	null	6	null	6	null	6	null	6	40.423415	17.846371
364	2024-01-16 03:00:00	15	san_pancrazio_salentino	10.14	1	85.42	1	0.0	1	null	6	null	6	null	6	null	6	40.423415	17.846371
365	2024-01-16 04:00:00	15	san_pancrazio_salentino	11.47	1	78.25	1	0.0	1	null	6	null	6	null	6	null	6	40.423415	17.846371
366	2024-01-16 05:00:00	15	san_pancrazio_salentino	8.68	1	87.11	1	0.0	1	null	6	null	6	null	6	null	6	40.423415	17.846371
367	2024-01-16 06:00:00	15	san_pancrazio_salentino	6.9	1	94.65	1	0.0	1	null	6	null	6	null	6	null	6	40.423415	17.846371
368	2024-01-16 07:00:00	15	san_pancrazio_salentino	6.47	1	93.66	1	0.0	1	null	6	null	6	null	6	null	6	40.423415	17.846371
369	2024-01-16 08:00:00	15	san_pancrazio_salentino	6.21	1	95.16	1	0.0	1	null	6	null	6	null	6	null	6	40.423415	17.846371
370	2024-01-16 09:00:00	15	san_pancrazio_salentino	8.9	1	86.28	1	0.0	1	null	6	null	6	null	6	null	6	40.423415	17.846371
371	2024-01-16 10:00:00	15	san_pancrazio_salentino	11.6	1	77.31	1	0.0	1	null	6	null	6	null	6	null	6	40.423415	17.846371
372	2024-01-16 11:00:00	15	san_pancrazio_salentino	14.34	1	68.44	1	0.0	1	null	6	null	6	null	6	null	6	40.423415	17.846371
373	2024-01-16 12:00:00	15	san_pancrazio_salentino	18.67	1	52.64	1	0.0	1	null	6	null	6	null	6	null	6	40.423415	17.846371
374	2024-01-16 13:00:00	15	san_pancrazio_salentino	22.88	1	41.34	1	0.0	1	null	6	null	6	null	6	null	6	40.423415	17.846371
375	2024-01-16 14:00:00	15	san_pancrazio_salentino	24.05	1	38.21	1	0.0	1	null	6	null	6	null	6	null	6	40.423415	17.846371
376	2024-01-16 15:00:00	15	san_pancrazio_salentino	22.02	1	45.3	1	0.0	1	null	6	null	6	null	6	null	6	40.423415	17.846371
377	2024-01-16 16:00:00	15	san_pancrazio_salentino	16.06	1	62.59	1	0.0	1	null	6	null	6	null	6	null	6	40.423415	17.846371
378	2024-01-16 17:00:00	15	san_pancrazio_salentino	13.49	1	74.81	1	0.0	1	null	6	null	6	null	6	null	6	40.423415	17.846371
379	2024-01-16 18:00:00	15	san_pancrazio_salentino	12.7	1	78.25	1	0.0	1	null	6	null	6	null	6	null	6	40.423415	17.846371
380	2024-01-16 19:00:00	15	san_pancrazio_salentino	12.5	1	84.66	1	0.2	1	null	6	null	6	null	6	null	6	40.423415	17.846371
381	2024-01-16 20:00:00	15	san_pancrazio_salentino	11.69	1	89.49	1	0.0	1	null	6	null	6	null	6	null	6	40.423415	17.846371
382	2024-01-16 21:00:00	15	san_pancrazio_salentino	10.59	1	92.52	1	0.0	1	null	6	null	6	null	6	null	6	40.423415	17.846371
383	2024-01-16 22:00:00	15	san_pancrazio_salentino	10.2	1	93.18	1	0.0	1	null	6	null	6	null	6	null	6	40.423415	17.846371
384	2024-01-16 23:00:00	15	san_pancrazio_salentino	9.94	1	93.47	1	0.0	1	null	6	null	6	null	6	null	6	40.423415	17.846371
385	2024-01-17 00:00:00	15	san_pancrazio_salentino	10.24	1	95.45	1	0.0	1	null	6	null	6	null	6	null	6	40.423415	17.846371
386	2024-01-17 01:00:00	15	san_pancrazio_salentino	10.76	1	95.13	1	0.2	1	null	6	null	6	null	6	null	6	40.423415	17.846371
387	2024-01-17 02:00:00	15	san_pancrazio_salentino	11.13	1	96.61	1	0.0	1	null	6	null	6	null	6	null	6	40.423415	17.846371
388	2024-01-17 03:00:00	15	san_pancrazio_salentino	11.44	1	95.87	1	0.0	1	null	6	null	6	null	6	null	6	40.423415	17.846371
389	2024-01-17 04:00:00	15	san_pancrazio_salentino	11.39	1	96.08	1	0.0	1	null	6	null	6	null	6	null	6	40.423415	17.846371
390	2024-01-17 05:00:00	15	san_pancrazio_salentino	10.32	1	95.97	1	0.0	1	null	6	null	6	null	6	null	6	40.423415	17.846371
391	2024-01-17 06:00:00	15	san_pancrazio_salentino	9.5	1	98.42	1	0.0	1	null	6	null	6	null	6	null	6	40.423415	17.846371
392	2024-01-17 07:00:00	15	san_pancrazio_salentino	11.19	1	95.19	1	0.0	1	null	6	null	6	null	6	null	6	40.423415	17.846371
393	2024-01-17 08:00:00	15	san_pancrazio_salentino	11.17	1	95.02	1	0.0	1	null	6	null	6	null	6	null	6	40.423415	17.846371
394	2024-01-17 09:00:00	15	san_pancrazio_salentino	12.75	1	92.27	1	0.0	1	null	6	null	6	null	6	null	6	40.423415	17.846371
395	2024-01-17 10:00:00	15	san_pancrazio_salentino	15.03	1	83.25	1	0.0	1	null	6	null	6	null	6	null	6	40.423415	17.846371
396	2024-01-17 11:00:00	15	san_pancrazio_salentino	16.09	1	77.8	1	0.0	1	null	6	null	6	null	6	null	6	40.423415	17.846371
397	2024-01-17 12:00:00	15	san_pancrazio_salentino	17.47	1	71.23	1	0.0	1	null	6	null	6	null	6	null	6	40.423415	17.846371
398	2024-01-17 13:00:00	15	san_pancrazio_salentino	17.24	1	68.2	1	0.0	1	null	6	null	6	null	6	null	6	40.423415	17.846371
399	2024-01-17 14:00:00	15	san_pancrazio_salentino	16.46	1	76.49	1	0.0	1	null	6	null	6	null	6	null	6	40.423415	17.846371
400	2024-01-17 15:00:00	15	san_pancrazio_salentino	16.49	1	78.15	1	0.0	1	null	6	null	6	null	6	null	6	40.423415	17.846371
401	2024-01-17 16:00:00	15	san_pancrazio_salentino	15.43	1	86.09	1	0.0	1	null	6	null	6	null	6	null	6	40.423415	17.846371
402	2024-01-17 17:00:00	15	san_pancrazio_salentino	14.99	1	89.11	1	0.0	1	null	6	null	6	null	6	null	6	40.423415	17.846371
403	2024-01-17 18:00:00	15	san_pancrazio_salentino	14.78	1	91.29	1	0.0	1	null	6	null	6	null	6	null	6	40.423415	17.846371
404	2024-01-17 19:00:00	15	san_pancrazio_salentino	14.69	1	92.56	1	0.2	1	null	6	null	6	null	6	null	6	40.423415	17.846371
405	2024-01-17 20:00:00	15	san_pancrazio_salentino	14.55	1	93.77	1	0.4	1	null	6	null	6	null	6	null	6	40.423415	17.846371
406	2024-01-17 21:00:00	15	san_pancrazio_salentino	14.28	1	93.4	1	0.0	1	null	6	null	6	null	6	null	6	40.423415	17.846371
407	2024-01-17 22:00:00	15	san_pancrazio_salentino	14.21	1	94.98	1	0.0	1	null	6	null	6	null	6	null	6	40.423415	17.846371
408	2024-01-17 23:00:00	15	san_pancrazio_salentino	14.26	1	96.34	1	0.0	1	null	6	null	6	null	6	null	6	40.423415	17.846371
409	2024-01-18 00:00:00	15	san_pancrazio_salentino	14.67	1	95.38	1	0.0	1	null	6	null	6	null	6	null	6	40.423415	17.846371
410	2024-01-18 01:00:00	15	san_pancrazio_salentino	14.82	1	95.03	1	0.0	1	null	6	null	6	null	6	null	6	40.423415	17.846371
411	2024-01-18 02:00:00	15	san_pancrazio_salentino	14.69	1	93.71	1	0.0	1	null	6	null	6	null	6	null	6	40.423415	17.846371
412	2024-01-18 03:00:00	15	san_pancrazio_salentino	14.69	1	92.75	1	0.2	1	null	6	null	6	null	6	null	6	40.423415	17.846371
413	2024-01-18 04:00:00	15	san_pancrazio_salentino	14.55	1	93.56	1	0.0	1	null	6	null	6	null	6	null	6	40.423415	17.846371
414	2024-01-18 05:00:00	15	san_pancrazio_salentino	14.46	1	93.3	1	0.0	1	null	6	null	6	null	6	null	6	40.423415	17.846371
415	2024-01-18 06:00:00	15	san_pancrazio_salentino	14.53	1	92.92	1	0.0	1	null	6	null	6	null	6	null	6	40.423415	17.846371
416	2024-01-18 07:00:00	15	san_pancrazio_salentino	13.9	1	93.47	1	0.0	1	null	6	null	6	null	6	null	6	40.423415	17.846371
417	2024-01-18 08:00:00	15	san_pancrazio_salentino	13.71	1	93.91	1	0.0	1	null	6	null	6	null	6	null	6	40.423415	17.846371
418	2024-01-18 09:00:00	15	san_pancrazio_salentino	15.55	1	84.46	1	0.0	1	null	6	null	6	null	6	null	6	40.423415	17.846371
419	2024-01-18 10:00:00	15	san_pancrazio_salentino	17.67	1	70.1	1	0.0	1	null	6	null	6	null	6	null	6	40.423415	17.846371
420	2024-01-18 11:00:00	15	san_pancrazio_salentino	18.8	1	64.84	1	0.0	1	null	6	null	6	null	6	null	6	40.423415	17.846371
421	2024-01-18 12:00:00	15	san_pancrazio_salentino	19.36	1	63.43	1	0.0	1	null	6	null	6	null	6	null	6	40.423415	17.846371
422	2024-01-18 13:00:00	15	san_pancrazio_salentino	20.05	1	62.19	1	0.0	1	null	6	null	6	null	6	null	6	40.423415	17.846371
423	2024-01-18 14:00:00	15	san_pancrazio_salentino	20.03	1	62.39	1	0.0	1	null	6	null	6	null	6	null	6	40.423415	17.846371
424	2024-01-18 15:00:00	15	san_pancrazio_salentino	19.56	1	62.75	1	0.0	1	null	6	null	6	null	6	null	6	40.423415	17.846371
425	2024-01-18 16:00:00	15	san_pancrazio_salentino	19.02	1	65.13	1	0.0	1	null	6	null	6	null	6	null	6	40.423415	17.846371
426	2024-01-18 17:00:00	15	san_pancrazio_salentino	17.08	1	72.35	1	0.0	1	null	6	null	6	null	6	null	6	40.423415	17.846371
427	2024-01-18 18:00:00	15	san_pancrazio_salentino	16.45	1	72.08	1	0.0	1	null	6	null	6	null	6	null	6	40.423415	17.846371
428	2024-01-18 19:00:00	15	san_pancrazio_salentino	15.99	1	70.45	1	0.0	1	null	6	null	6	null	6	null	6	40.423415	17.846371
429	2024-01-18 20:00:00	15	san_pancrazio_salentino	15.51	1	72.28	1	0.0	1	null	6	null	6	null	6	null	6	40.423415	17.846371
430	2024-01-18 21:00:00	15	san_pancrazio_salentino	15.66	1	73.7	1	0.0	1	null	6	null	6	null	6	null	6	40.423415	17.846371
431	2024-01-18 22:00:00	15	san_pancrazio_salentino	15.34	1	76.5	1	0.0	1	null	6	null	6	null	6	null	6	40.423415	17.846371
432	2024-01-18 23:00:00	15	san_pancrazio_salentino	14.84	1	74.68	1	0.0	1	null	6	null	6	null	6	null	6	40.423415	17.846371
433	2024-01-19 00:00:00	15	san_pancrazio_salentino	12.51	1	84.61	1	0.0	1	null	6	null	6	null	6	null	6	40.423415	17.846371
434	2024-01-19 01:00:00	15	san_pancrazio_salentino	13.64	1	80.78	1	0.0	1	null	6	null	6	null	6	null	6	40.423415	17.846371
435	2024-01-19 02:00:00	15	san_pancrazio_salentino	13.77	1	82.15	1	0.0	1	null	6	null	6	null	6	null	6	40.423415	17.846371
436	2024-01-19 03:00:00	15	san_pancrazio_salentino	13.55	1	82.46	1	0.0	1	null	6	null	6	null	6	null	6	40.423415	17.846371
437	2024-01-19 04:00:00	15	san_pancrazio_salentino	13.82	1	82.33	1	0.0	1	null	6	null	6	null	6	null	6	40.423415	17.846371
438	2024-01-19 05:00:00	15	san_pancrazio_salentino	14.12	1	83.55	1	0.0	1	null	6	null	6	null	6	null	6	40.423415	17.846371
439	2024-01-19 06:00:00	15	san_pancrazio_salentino	13.51	1	87.73	1	0.0	1	null	6	null	6	null	6	null	6	40.423415	17.846371
440	2024-01-19 07:00:00	15	san_pancrazio_salentino	12.78	1	88.86	1	0.0	1	null	6	null	6	null	6	null	6	40.423415	17.846371
441	2024-01-19 08:00:00	15	san_pancrazio_salentino	13.33	1	84.57	1	0.0	1	null	6	null	6	null	6	null	6	40.423415	17.846371
442	2024-01-19 09:00:00	15	san_pancrazio_salentino	15.77	1	76.39	1	0.0	1	null	6	null	6	null	6	null	6	40.423415	17.846371
443	2024-01-19 10:00:00	15	san_pancrazio_salentino	17.07	1	69.91	1	0.0	1	null	6	null	6	null	6	null	6	40.423415	17.846371
444	2024-01-19 11:00:00	15	san_pancrazio_salentino	17.89	1	64.69	1	0.0	1	null	6	null	6	null	6	null	6	40.423415	17.846371
445	2024-01-19 12:00:00	15	san_pancrazio_salentino	19.62	1	56.0	1	0.0	1	null	6	null	6	null	6	null	6	40.423415	17.846371
446	2024-01-19 13:00:00	15	san_pancrazio_salentino	19.42	1	57.66	1	0.0	1	null	6	null	6	null	6	null	6	40.423415	17.846371
447	2024-01-19 14:00:00	15	san_pancrazio_salentino	19.08	1	57.84	1	0.0	1	null	6	null	6	null	6	null	6	40.423415	17.846371
448	2024-01-19 15:00:00	15	san_pancrazio_salentino	18.98	1	58.06	1	0.0	1	null	6	null	6	null	6	null	6	40.423415	17.846371
449	2024-01-19 16:00:00	15	san_pancrazio_salentino	17.76	1	60.6	1	0.0	1	null	6	null	6	null	6	null	6	40.423415	17.846371
450	2024-01-19 17:00:00	15	san_pancrazio_salentino	16.62	1	69.55	1	0.0	1	null	6	null	6	null	6	null	6	40.423415	17.846371
451	2024-01-19 18:00:00	15	san_pancrazio_salentino	15.15	1	78.7	1	0.0	1	null	6	null	6	null	6	null	6	40.423415	17.846371
452	2024-01-19 19:00:00	15	san_pancrazio_salentino	14.83	1	81.03	1	0.0	1	null	6	null	6	null	6	null	6	40.423415	17.846371
453	2024-01-19 20:00:00	15	san_pancrazio_salentino	14.56	1	81.88	1	0.0	1	null	6	null	6	null	6	null	6	40.423415	17.846371
454	2024-01-19 21:00:00	15	san_pancrazio_salentino	14.08	1	82.28	1	0.0	1	null	6	null	6	null	6	null	6	40.423415	17.846371
455	2024-01-19 22:00:00	15	san_pancrazio_salentino	15.08	1	75.56	1	0.0	1	null	6	null	6	null	6	null	6	40.423415	17.846371
456	2024-01-19 23:00:00	15	san_pancrazio_salentino	15.6	1	70.81	1	0.0	1	null	6	null	6	null	6	null	6	40.423415	17.846371
457	2024-01-20 00:00:00	15	san_pancrazio_salentino	15.74	1	69.97	1	0.0	1	null	6	null	6	null	6	null	6	40.423415	17.846371
458	2024-01-20 01:00:00	15	san_pancrazio_salentino	14.92	1	75.02	1	0.0	1	null	6	null	6	null	6	null	6	40.423415	17.846371
459	2024-01-20 02:00:00	15	san_pancrazio_salentino	14.25	1	79.88	1	0.0	1	null	6	null	6	null	6	null	6	40.423415	17.846371
460	2024-01-20 03:00:00	15	san_pancrazio_salentino	13.24	1	88.93	1	0.0	1	null	6	null	6	null	6	null	6	40.423415	17.846371
461	2024-01-20 04:00:00	15	san_pancrazio_salentino	12.72	1	92.57	1	0.6	1	null	6	null	6	null	6	null	6	40.423415	17.846371
462	2024-01-20 05:00:00	15	san_pancrazio_salentino	11.83	1	91.26	1	0.0	1	null	6	null	6	null	6	null	6	40.423415	17.846371
463	2024-01-20 06:00:00	15	san_pancrazio_salentino	10.86	1	92.77	1	1.4	1	null	6	null	6	null	6	null	6	40.423415	17.846371
464	2024-01-20 07:00:00	15	san_pancrazio_salentino	10.13	1	87.17	1	0.0	1	null	6	null	6	null	6	null	6	40.423415	17.846371
465	2024-01-20 08:00:00	15	san_pancrazio_salentino	9.97	1	81.82	1	0.0	1	null	6	null	6	null	6	null	6	40.423415	17.846371
466	2024-01-20 09:00:00	15	san_pancrazio_salentino	9.32	1	88.21	1	1.0	1	null	6	null	6	null	6	null	6	40.423415	17.846371
467	2024-01-20 10:00:00	15	san_pancrazio_salentino	8.92	1	92.97	1	1.0	1	null	6	null	6	null	6	null	6	40.423415	17.846371
468	2024-01-20 11:00:00	15	san_pancrazio_salentino	8.7	1	92.54	1	0.6	1	null	6	null	6	null	6	null	6	40.423415	17.846371
469	2024-01-20 12:00:00	15	san_pancrazio_salentino	8.83	1	91.67	1	0.6	1	null	6	null	6	null	6	null	6	40.423415	17.846371
470	2024-01-20 13:00:00	15	san_pancrazio_salentino	8.33	1	94.07	1	1.4	1	null	6	null	6	null	6	null	6	40.423415	17.846371
471	2024-01-20 14:00:00	15	san_pancrazio_salentino	8.02	1	94.6	1	0.4	1	null	6	null	6	null	6	null	6	40.423415	17.846371
472	2024-01-20 15:00:00	15	san_pancrazio_salentino	7.7	1	91.19	1	0.0	1	null	6	null	6	null	6	null	6	40.423415	17.846371
473	2024-01-20 16:00:00	15	san_pancrazio_salentino	7.59	1	83.96	1	0.0	1	null	6	null	6	null	6	null	6	40.423415	17.846371
474	2024-01-20 17:00:00	15	san_pancrazio_salentino	7.27	1	85.39	1	0.2	1	null	6	null	6	null	6	null	6	40.423415	17.846371
475	2024-01-20 18:00:00	15	san_pancrazio_salentino	6.84	1	91.6	1	0.2	1	null	6	null	6	null	6	null	6	40.423415	17.846371
476	2024-01-20 19:00:00	15	san_pancrazio_salentino	6.74	1	85.53	1	0.0	1	null	6	null	6	null	6	null	6	40.423415	17.846371
477	2024-01-20 20:00:00	15	san_pancrazio_salentino	6.96	1	86.0	1	0.2	1	null	6	null	6	null	6	null	6	40.423415	17.846371
478	2024-01-20 21:00:00	15	san_pancrazio_salentino	6.95	1	83.17	1	0.2	1	null	6	null	6	null	6	null	6	40.423415	17.846371
479	2024-01-20 22:00:00	15	san_pancrazio_salentino	6.89	1	68.11	1	0.0	1	null	6	null	6	null	6	null	6	40.423415	17.846371
480	2024-01-20 23:00:00	15	san_pancrazio_salentino	7.1	1	63.28	1	0.0	1	null	6	null	6	null	6	null	6	40.423415	17.846371
481	2024-01-21 00:00:00	15	san_pancrazio_salentino	7.16	1	64.08	1	0.0	1	null	6	null	6	null	6	null	6	40.423415	17.846371
482	2024-01-21 01:00:00	15	san_pancrazio_salentino	6.74	1	68.17	1	0.0	1	null	6	null	6	null	6	null	6	40.423415	17.846371
483	2024-01-21 02:00:00	15	san_pancrazio_salentino	6.65	1	68.34	1	0.0	1	null	6	null	6	null	6	null	6	40.423415	17.846371
484	2024-01-21 03:00:00	15	san_pancrazio_salentino	6.71	1	63.7	1	0.0	1	null	6	null	6	null	6	null	6	40.423415	17.846371
485	2024-01-21 04:00:00	15	san_pancrazio_salentino	6.61	1	66.91	1	0.0	1	null	6	null	6	null	6	null	6	40.423415	17.846371
486	2024-01-21 05:00:00	15	san_pancrazio_salentino	6.5	1	62.64	1	0.0	1	null	6	null	6	null	6	null	6	40.423415	17.846371
487	2024-01-21 06:00:00	15	san_pancrazio_salentino	6.53	1	63.49	1	0.0	1	null	6	null	6	null	6	null	6	40.423415	17.846371
488	2024-01-21 07:00:00	15	san_pancrazio_salentino	6.67	1	63.13	1	0.0	1	null	6	null	6	null	6	null	6	40.423415	17.846371
489	2024-01-21 08:00:00	15	san_pancrazio_salentino	6.99	1	63.07	1	0.0	1	null	6	null	6	null	6	null	6	40.423415	17.846371
490	2024-01-21 09:00:00	15	san_pancrazio_salentino	8.67	1	59.15	1	0.0	1	null	6	null	6	null	6	null	6	40.423415	17.846371
491	2024-01-21 10:00:00	15	san_pancrazio_salentino	9.36	1	59.56	1	0.0	1	null	6	null	6	null	6	null	6	40.423415	17.846371
492	2024-01-21 11:00:00	15	san_pancrazio_salentino	9.82	1	59.06	1	0.0	1	null	6	null	6	null	6	null	6	40.423415	17.846371
493	2024-01-21 12:00:00	15	san_pancrazio_salentino	10.89	1	52.7	1	0.0	1	null	6	null	6	null	6	null	6	40.423415	17.846371
494	2024-01-21 13:00:00	15	san_pancrazio_salentino	12.66	1	47.27	1	0.0	1	null	6	null	6	null	6	null	6	40.423415	17.846371
495	2024-01-21 14:00:00	15	san_pancrazio_salentino	12.93	1	42.14	1	0.0	1	null	6	null	6	null	6	null	6	40.423415	17.846371
496	2024-01-21 15:00:00	15	san_pancrazio_salentino	12.74	1	36.3	1	0.0	1	null	6	null	6	null	6	null	6	40.423415	17.846371
497	2024-01-21 16:00:00	15	san_pancrazio_salentino	11.94	1	39.7	1	0.0	1	null	6	null	6	null	6	null	6	40.423415	17.846371
498	2024-01-21 17:00:00	15	san_pancrazio_salentino	9.74	1	44.69	1	0.0	1	null	6	null	6	null	6	null	6	40.423415	17.846371
499	2024-01-21 18:00:00	15	san_pancrazio_salentino	8.33	1	49.89	1	0.0	1	null	6	null	6	null	6	null	6	40.423415	17.846371
500	2024-01-21 19:00:00	15	san_pancrazio_salentino	7.78	1	55.13	1	0.0	1	null	6	null	6	null	6	null	6	40.423415	17.846371
501	2024-01-21 20:00:00	15	san_pancrazio_salentino	7.97	1	53.97	1	0.0	1	null	6	null	6	null	6	null	6	40.423415	17.846371
502	2024-01-21 21:00:00	15	san_pancrazio_salentino	7.93	1	48.31	1	0.0	1	null	6	null	6	null	6	null	6	40.423415	17.846371
503	2024-01-21 22:00:00	15	san_pancrazio_salentino	7.34	1	53.71	1	0.0	1	null	6	null	6	null	6	null	6	40.423415	17.846371
504	2024-01-21 23:00:00	15	san_pancrazio_salentino	5.92	1	68.92	1	0.0	1	null	6	null	6	null	6	null	6	40.423415	17.846371
505	2024-01-22 00:00:00	15	san_pancrazio_salentino	5.18	1	74.79	1	0.0	1	null	6	null	6	null	6	null	6	40.423415	17.846371
506	2024-01-22 01:00:00	15	san_pancrazio_salentino	4.62	1	76.46	1	0.0	1	null	6	null	6	null	6	null	6	40.423415	17.846371
507	2024-01-22 02:00:00	15	san_pancrazio_salentino	3.94	1	77.61	1	0.0	1	null	6	null	6	null	6	null	6	40.423415	17.846371
508	2024-01-22 03:00:00	15	san_pancrazio_salentino	3.97	1	69.24	1	0.0	1	null	6	null	6	null	6	null	6	40.423415	17.846371
509	2024-01-22 04:00:00	15	san_pancrazio_salentino	3.63	1	72.56	1	0.0	1	null	6	null	6	null	6	null	6	40.423415	17.846371
510	2024-01-22 05:00:00	15	san_pancrazio_salentino	3.74	1	72.61	1	0.0	1	null	6	null	6	null	6	null	6	40.423415	17.846371
511	2024-01-22 06:00:00	15	san_pancrazio_salentino	3.04	1	77.21	1	0.0	1	null	6	null	6	null	6	null	6	40.423415	17.846371
512	2024-01-22 07:00:00	15	san_pancrazio_salentino	3.15	1	74.75	1	0.0	1	null	6	null	6	null	6	null	6	40.423415	17.846371
513	2024-01-22 08:00:00	15	san_pancrazio_salentino	2.74	1	78.85	1	0.0	1	null	6	null	6	null	6	null	6	40.423415	17.846371
514	2024-01-22 09:00:00	15	san_pancrazio_salentino	6.53	1	70.29	1	0.0	1	null	6	null	6	null	6	null	6	40.423415	17.846371
515	2024-01-22 10:00:00	15	san_pancrazio_salentino	10.28	1	57.96	1	0.0	1	null	6	null	6	null	6	null	6	40.423415	17.846371
516	2024-01-22 11:00:00	15	san_pancrazio_salentino	11.73	1	49.09	1	0.0	1	null	6	null	6	null	6	null	6	40.423415	17.846371
517	2024-01-22 12:00:00	15	san_pancrazio_salentino	13.57	1	52.81	1	0.0	1	null	6	null	6	null	6	null	6	40.423415	17.846371
518	2024-01-22 13:00:00	15	san_pancrazio_salentino	15.62	1	45.19	1	0.0	1	null	6	null	6	null	6	null	6	40.423415	17.846371
519	2024-01-22 14:00:00	15	san_pancrazio_salentino	16.29	1	48.1	1	0.0	1	null	6	null	6	null	6	null	6	40.423415	17.846371
520	2024-01-22 15:00:00	15	san_pancrazio_salentino	16.09	1	53.06	1	0.0	1	null	6	null	6	null	6	null	6	40.423415	17.846371
521	2024-01-22 16:00:00	15	san_pancrazio_salentino	14.74	1	56.18	1	0.0	1	null	6	null	6	null	6	null	6	40.423415	17.846371
522	2024-01-22 17:00:00	15	san_pancrazio_salentino	11.93	1	64.36	1	0.0	1	null	6	null	6	null	6	null	6	40.423415	17.846371
523	2024-01-22 18:00:00	15	san_pancrazio_salentino	8.84	1	73.6	1	0.0	1	null	6	null	6	null	6	null	6	40.423415	17.846371
524	2024-01-22 19:00:00	15	san_pancrazio_salentino	7.51	1	81.14	1	0.0	1	null	6	null	6	null	6	null	6	40.423415	17.846371
525	2024-01-22 20:00:00	15	san_pancrazio_salentino	6.75	1	85.02	1	0.0	1	null	6	null	6	null	6	null	6	40.423415	17.846371
526	2024-01-22 21:00:00	15	san_pancrazio_salentino	6.14	1	87.22	1	0.0	1	null	6	null	6	null	6	null	6	40.423415	17.846371
527	2024-01-22 22:00:00	15	san_pancrazio_salentino	5.68	1	88.69	1	0.0	1	null	6	null	6	null	6	null	6	40.423415	17.846371
528	2024-01-22 23:00:00	15	san_pancrazio_salentino	5.44	1	88.18	1	0.0	1	null	6	null	6	null	6	null	6	40.423415	17.846371
529	2024-01-23 00:00:00	15	san_pancrazio_salentino	5.03	1	88.53	1	0.0	1	null	6	null	6	null	6	null	6	40.423415	17.846371
530	2024-01-23 01:00:00	15	san_pancrazio_salentino	4.35	1	89.82	1	0.0	1	null	6	null	6	null	6	null	6	40.423415	17.846371
531	2024-01-23 02:00:00	15	san_pancrazio_salentino	3.62	1	91.3	1	0.0	1	null	6	null	6	null	6	null	6	40.423415	17.846371
532	2024-01-23 03:00:00	15	san_pancrazio_salentino	2.31	1	92.8	1	0.0	1	null	6	null	6	null	6	null	6	40.423415	17.846371
533	2024-01-23 04:00:00	15	san_pancrazio_salentino	1.02	1	94.62	1	0.0	1	null	6	null	6	null	6	null	6	40.423415	17.846371
534	2024-01-23 05:00:00	15	san_pancrazio_salentino	1.26	1	95.41	1	0.0	1	null	6	null	6	null	6	null	6	40.423415	17.846371
535	2024-01-23 06:00:00	15	san_pancrazio_salentino	1.58	1	94.52	1	0.0	1	null	6	null	6	null	6	null	6	40.423415	17.846371
536	2024-01-23 07:00:00	15	san_pancrazio_salentino	2.65	1	92.66	1	0.0	1	null	6	null	6	null	6	null	6	40.423415	17.846371
537	2024-01-23 08:00:00	15	san_pancrazio_salentino	2.98	1	90.24	1	0.0	1	null	6	null	6	null	6	null	6	40.423415	17.846371
538	2024-01-23 09:00:00	15	san_pancrazio_salentino	4.9	1	82.57	1	0.0	1	null	6	null	6	null	6	null	6	40.423415	17.846371
539	2024-01-23 10:00:00	15	san_pancrazio_salentino	7.03	1	76.55	1	0.0	1	null	6	null	6	null	6	null	6	40.423415	17.846371
540	2024-01-23 11:00:00	15	san_pancrazio_salentino	10.51	1	63.1	1	0.0	1	null	6	null	6	null	6	null	6	40.423415	17.846371
541	2024-01-23 12:00:00	15	san_pancrazio_salentino	12.65	1	57.56	1	0.0	1	null	6	null	6	null	6	null	6	40.423415	17.846371
542	2024-01-23 13:00:00	15	san_pancrazio_salentino	13.65	1	57.54	1	0.0	1	null	6	null	6	null	6	null	6	40.423415	17.846371
543	2024-01-23 14:00:00	15	san_pancrazio_salentino	13.14	1	64.94	1	0.0	1	null	6	null	6	null	6	null	6	40.423415	17.846371
544	2024-01-23 15:00:00	15	san_pancrazio_salentino	10.79	1	82.89	1	0.0	1	null	6	null	6	null	6	null	6	40.423415	17.846371
545	2024-01-23 16:00:00	15	san_pancrazio_salentino	10.16	1	87.62	1	0.2	1	null	6	null	6	null	6	null	6	40.423415	17.846371
546	2024-01-23 17:00:00	15	san_pancrazio_salentino	9.98	1	87.17	1	0.0	1	null	6	null	6	null	6	null	6	40.423415	17.846371
547	2024-01-23 18:00:00	15	san_pancrazio_salentino	9.73	1	86.49	1	1.2	1	null	6	null	6	null	6	null	6	40.423415	17.846371
548	2024-01-23 19:00:00	15	san_pancrazio_salentino	9.41	1	91.18	1	0.6	1	null	6	null	6	null	6	null	6	40.423415	17.846371
549	2024-01-23 20:00:00	15	san_pancrazio_salentino	8.44	1	91.52	1	0.0	1	null	6	null	6	null	6	null	6	40.423415	17.846371
550	2024-01-23 21:00:00	15	san_pancrazio_salentino	7.68	1	88.18	1	0.0	1	null	6	null	6	null	6	null	6	40.423415	17.846371
551	2024-01-23 22:00:00	15	san_pancrazio_salentino	8.26	1	82.28	1	0.0	1	null	6	null	6	null	6	null	6	40.423415	17.846371
552	2024-01-23 23:00:00	15	san_pancrazio_salentino	9.2	1	76.36	1	0.0	1	null	6	null	6	null	6	null	6	40.423415	17.846371
553	2024-01-24 00:00:00	15	san_pancrazio_salentino	9.57	1	67.69	1	0.0	1	null	6	null	6	null	6	null	6	40.423415	17.846371
554	2024-01-24 01:00:00	15	san_pancrazio_salentino	9.17	1	66.01	1	0.0	1	null	6	null	6	null	6	null	6	40.423415	17.846371
555	2024-01-24 02:00:00	15	san_pancrazio_salentino	8.41	1	67.3	1	0.0	1	null	6	null	6	null	6	null	6	40.423415	17.846371
556	2024-01-24 03:00:00	15	san_pancrazio_salentino	8.94	1	62.95	1	0.0	1	null	6	null	6	null	6	null	6	40.423415	17.846371
557	2024-01-24 04:00:00	15	san_pancrazio_salentino	8.25	1	65.4	1	0.0	1	null	6	null	6	null	6	null	6	40.423415	17.846371
558	2024-01-24 05:00:00	15	san_pancrazio_salentino	6.86	1	72.8	1	0.0	1	null	6	null	6	null	6	null	6	40.423415	17.846371
559	2024-01-24 06:00:00	15	san_pancrazio_salentino	6.42	1	72.89	1	0.0	1	null	6	null	6	null	6	null	6	40.423415	17.846371
560	2024-01-24 07:00:00	15	san_pancrazio_salentino	6.36	1	73.33	1	0.0	1	null	6	null	6	null	6	null	6	40.423415	17.846371
561	2024-01-24 08:00:00	15	san_pancrazio_salentino	5.71	1	74.97	1	0.0	1	null	6	null	6	null	6	null	6	40.423415	17.846371
562	2024-01-24 09:00:00	15	san_pancrazio_salentino	9.0	1	66.07	1	0.0	1	null	6	null	6	null	6	null	6	40.423415	17.846371
563	2024-01-24 10:00:00	15	san_pancrazio_salentino	11.54	1	59.33	1	0.0	1	null	6	null	6	null	6	null	6	40.423415	17.846371
564	2024-01-24 11:00:00	15	san_pancrazio_salentino	12.68	1	53.19	1	0.2	1	null	6	null	6	null	6	null	6	40.423415	17.846371
565	2024-01-24 12:00:00	15	san_pancrazio_salentino	14.16	1	48.26	1	0.0	1	null	6	null	6	null	6	null	6	40.423415	17.846371
566	2024-01-24 13:00:00	15	san_pancrazio_salentino	16.37	1	44.6	1	0.0	1	null	6	null	6	null	6	null	6	40.423415	17.846371
567	2024-01-24 14:00:00	15	san_pancrazio_salentino	16.53	1	45.1	1	0.0	1	null	6	null	6	null	6	null	6	40.423415	17.846371
568	2024-01-24 15:00:00	15	san_pancrazio_salentino	16.04	1	45.46	1	0.0	1	null	6	null	6	null	6	null	6	40.423415	17.846371
569	2024-01-24 16:00:00	15	san_pancrazio_salentino	14.69	1	51.2	1	0.0	1	null	6	null	6	null	6	null	6	40.423415	17.846371
570	2024-01-24 17:00:00	15	san_pancrazio_salentino	12.56	1	63.03	1	0.0	1	null	6	null	6	null	6	null	6	40.423415	17.846371
571	2024-01-24 18:00:00	15	san_pancrazio_salentino	10.36	1	74.54	1	0.0	1	null	6	null	6	null	6	null	6	40.423415	17.846371
572	2024-01-24 19:00:00	15	san_pancrazio_salentino	9.54	1	75.77	1	0.0	1	null	6	null	6	null	6	null	6	40.423415	17.846371
573	2024-01-24 20:00:00	15	san_pancrazio_salentino	8.85	1	76.52	1	0.0	1	null	6	null	6	null	6	null	6	40.423415	17.846371
574	2024-01-24 21:00:00	15	san_pancrazio_salentino	8.15	1	74.92	1	0.0	1	null	6	null	6	null	6	null	6	40.423415	17.846371
575	2024-01-24 22:00:00	15	san_pancrazio_salentino	7.75	1	70.46	1	0.0	1	null	6	null	6	null	6	null	6	40.423415	17.846371
576	2024-01-24 23:00:00	15	san_pancrazio_salentino	7.67	1	63.78	1	0.0	1	null	6	null	6	null	6	null	6	40.423415	17.846371
577	2024-01-25 00:00:00	15	san_pancrazio_salentino	6.89	1	69.99	1	0.0	1	null	6	null	6	null	6	null	6	40.423415	17.846371
578	2024-01-25 01:00:00	15	san_pancrazio_salentino	6.68	1	67.28	1	0.0	1	null	6	null	6	null	6	null	6	40.423415	17.846371
579	2024-01-25 02:00:00	15	san_pancrazio_salentino	6.33	1	69.69	1	0.0	1	null	6	null	6	null	6	null	6	40.423415	17.846371
580	2024-01-25 03:00:00	15	san_pancrazio_salentino	5.11	1	79.43	1	0.0	1	null	6	null	6	null	6	null	6	40.423415	17.846371
581	2024-01-25 04:00:00	15	san_pancrazio_salentino	4.92	1	76.17	1	0.0	1	null	6	null	6	null	6	null	6	40.423415	17.846371
582	2024-01-25 05:00:00	15	san_pancrazio_salentino	4.04	1	82.67	1	0.0	1	null	6	null	6	null	6	null	6	40.423415	17.846371
583	2024-01-25 06:00:00	15	san_pancrazio_salentino	4.23	1	77.31	1	0.0	1	null	6	null	6	null	6	null	6	40.423415	17.846371
584	2024-01-25 07:00:00	15	san_pancrazio_salentino	4.65	1	76.9	1	0.0	1	null	6	null	6	null	6	null	6	40.423415	17.846371
585	2024-01-25 08:00:00	15	san_pancrazio_salentino	4.96	1	77.16	1	0.0	1	null	6	null	6	null	6	null	6	40.423415	17.846371
586	2024-01-25 09:00:00	15	san_pancrazio_salentino	8.45	1	68.17	1	0.0	1	null	6	null	6	null	6	null	6	40.423415	17.846371
587	2024-01-25 10:00:00	15	san_pancrazio_salentino	11.47	1	66.19	1	0.0	1	null	6	null	6	null	6	null	6	40.423415	17.846371
588	2024-01-25 11:00:00	15	san_pancrazio_salentino	13.88	1	54.5	1	0.0	1	null	6	null	6	null	6	null	6	40.423415	17.846371
589	2024-01-25 12:00:00	15	san_pancrazio_salentino	16.84	1	47.28	1	0.0	1	null	6	null	6	null	6	null	6	40.423415	17.846371
590	2024-01-25 13:00:00	15	san_pancrazio_salentino	20.09	1	45.9	1	0.0	1	null	6	null	6	null	6	null	6	40.423415	17.846371
591	2024-01-25 14:00:00	15	san_pancrazio_salentino	19.52	1	51.2	1	0.0	1	null	6	null	6	null	6	null	6	40.423415	17.846371
592	2024-01-25 15:00:00	15	san_pancrazio_salentino	18.53	1	57.55	1	0.0	1	null	6	null	6	null	6	null	6	40.423415	17.846371
593	2024-01-25 16:00:00	15	san_pancrazio_salentino	17.74	1	57.91	1	0.0	1	null	6	null	6	null	6	null	6	40.423415	17.846371
594	2024-01-25 17:00:00	15	san_pancrazio_salentino	13.76	1	72.61	1	0.0	1	null	6	null	6	null	6	null	6	40.423415	17.846371
595	2024-01-25 18:00:00	15	san_pancrazio_salentino	11.13	1	82.25	1	0.0	1	null	6	null	6	null	6	null	6	40.423415	17.846371
596	2024-01-25 19:00:00	15	san_pancrazio_salentino	9.9	1	84.99	1	0.0	1	null	6	null	6	null	6	null	6	40.423415	17.846371
597	2024-01-25 20:00:00	15	san_pancrazio_salentino	9.01	1	88.21	1	0.0	1	null	6	null	6	null	6	null	6	40.423415	17.846371
598	2024-01-25 21:00:00	15	san_pancrazio_salentino	8.19	1	89.64	1	0.0	1	null	6	null	6	null	6	null	6	40.423415	17.846371
599	2024-01-25 22:00:00	15	san_pancrazio_salentino	8.86	1	89.09	1	0.0	1	null	6	null	6	null	6	null	6	40.423415	17.846371
600	2024-01-25 23:00:00	15	san_pancrazio_salentino	8.56	1	92.56	1	0.0	1	null	6	null	6	null	6	null	6	40.423415	17.846371
601	2024-01-26 00:00:00	15	san_pancrazio_salentino	7.9	1	95.07	1	0.0	1	null	6	null	6	null	6	null	6	40.423415	17.846371
602	2024-01-26 01:00:00	15	san_pancrazio_salentino	7.66	1	95.4	1	0.0	1	null	6	null	6	null	6	null	6	40.423415	17.846371
603	2024-01-26 02:00:00	15	san_pancrazio_salentino	7.27	1	95.47	1	0.0	1	null	6	null	6	null	6	null	6	40.423415	17.846371
604	2024-01-26 03:00:00	15	san_pancrazio_salentino	7.11	1	93.67	1	0.0	1	null	6	null	6	null	6	null	6	40.423415	17.846371
605	2024-01-26 04:00:00	15	san_pancrazio_salentino	7.88	1	93.93	1	0.0	1	null	6	null	6	null	6	null	6	40.423415	17.846371
606	2024-01-26 05:00:00	15	san_pancrazio_salentino	8.45	1	94.44	1	0.0	1	null	6	null	6	null	6	null	6	40.423415	17.846371
607	2024-01-26 06:00:00	15	san_pancrazio_salentino	8.62	1	95.24	1	0.0	1	null	6	null	6	null	6	null	6	40.423415	17.846371
608	2024-01-26 07:00:00	15	san_pancrazio_salentino	8.93	1	94.47	1	0.0	1	null	6	null	6	null	6	null	6	40.423415	17.846371
609	2024-01-26 08:00:00	15	san_pancrazio_salentino	8.7	1	95.47	1	0.0	1	null	6	null	6	null	6	null	6	40.423415	17.846371
610	2024-01-26 09:00:00	15	san_pancrazio_salentino	10.82	1	90.17	1	0.0	1	null	6	null	6	null	6	null	6	40.423415	17.846371
611	2024-01-26 10:00:00	15	san_pancrazio_salentino	12.78	1	85.6	1	0.0	1	null	6	null	6	null	6	null	6	40.423415	17.846371
612	2024-01-26 11:00:00	15	san_pancrazio_salentino	14.24	1	74.21	1	0.0	1	null	6	null	6	null	6	null	6	40.423415	17.846371
613	2024-01-26 12:00:00	15	san_pancrazio_salentino	16.66	1	59.96	1	0.0	1	null	6	null	6	null	6	null	6	40.423415	17.846371
614	2024-01-26 13:00:00	15	san_pancrazio_salentino	20.81	1	44.73	1	0.0	1	null	6	null	6	null	6	null	6	40.423415	17.846371
615	2024-01-26 14:00:00	15	san_pancrazio_salentino	21.88	1	36.2	1	0.0	1	null	6	null	6	null	6	null	6	40.423415	17.846371
616	2024-01-26 15:00:00	15	san_pancrazio_salentino	22.61	1	29.69	1	0.0	1	null	6	null	6	null	6	null	6	40.423415	17.846371
617	2024-01-26 16:00:00	15	san_pancrazio_salentino	20.42	1	35.17	1	0.0	1	null	6	null	6	null	6	null	6	40.423415	17.846371
618	2024-01-26 17:00:00	15	san_pancrazio_salentino	15.5	1	54.5	1	0.0	1	null	6	null	6	null	6	null	6	40.423415	17.846371
619	2024-01-26 18:00:00	15	san_pancrazio_salentino	11.86	1	69.62	1	0.0	1	null	6	null	6	null	6	null	6	40.423415	17.846371
620	2024-01-26 19:00:00	15	san_pancrazio_salentino	9.97	1	82.42	1	0.0	1	null	6	null	6	null	6	null	6	40.423415	17.846371
621	2024-01-26 20:00:00	15	san_pancrazio_salentino	9.3	1	83.23	1	0.0	1	null	6	null	6	null	6	null	6	40.423415	17.846371
622	2024-01-26 21:00:00	15	san_pancrazio_salentino	8.79	1	83.67	1	0.0	1	null	6	null	6	null	6	null	6	40.423415	17.846371
623	2024-01-26 22:00:00	15	san_pancrazio_salentino	6.95	1	90.03	1	0.0	1	null	6	null	6	null	6	null	6	40.423415	17.846371
624	2024-01-26 23:00:00	15	san_pancrazio_salentino	6.84	1	90.93	1	0.0	1	null	6	null	6	null	6	null	6	40.423415	17.846371
625	2024-01-27 00:00:00	15	san_pancrazio_salentino	6.66	1	85.17	1	0.0	1	null	6	null	6	null	6	null	6	40.423415	17.846371
626	2024-01-27 01:00:00	15	san_pancrazio_salentino	7.38	1	75.52	1	0.0	1	null	6	null	6	null	6	null	6	40.423415	17.846371
627	2024-01-27 02:00:00	15	san_pancrazio_salentino	6.8	1	73.79	1	0.0	1	null	6	null	6	null	6	null	6	40.423415	17.846371
628	2024-01-27 03:00:00	15	san_pancrazio_salentino	6.9	1	64.85	1	0.0	1	null	6	null	6	null	6	null	6	40.423415	17.846371
629	2024-01-27 04:00:00	15	san_pancrazio_salentino	6.34	1	66.39	1	0.0	1	null	6	null	6	null	6	null	6	40.423415	17.846371
630	2024-01-27 05:00:00	15	san_pancrazio_salentino	6.64	1	70.74	1	0.0	1	null	6	null	6	null	6	null	6	40.423415	17.846371
631	2024-01-27 06:00:00	15	san_pancrazio_salentino	5.98	1	86.83	1	0.0	1	null	6	null	6	null	6	null	6	40.423415	17.846371
632	2024-01-27 07:00:00	15	san_pancrazio_salentino	7.16	1	96.37	1	0.0	1	null	6	null	6	null	6	null	6	40.423415	17.846371
633	2024-01-27 08:00:00	15	san_pancrazio_salentino	8.78	1	97.46	1	0.0	1	null	6	null	6	null	6	null	6	40.423415	17.846371
634	2024-01-27 09:00:00	15	san_pancrazio_salentino	10.38	1	93.44	1	0.0	1	null	6	null	6	null	6	null	6	40.423415	17.846371
635	2024-01-27 10:00:00	15	san_pancrazio_salentino	12.61	1	80.22	1	0.0	1	null	6	null	6	null	6	null	6	40.423415	17.846371
636	2024-01-27 11:00:00	15	san_pancrazio_salentino	14.65	1	76.18	1	0.0	1	null	6	null	6	null	6	null	6	40.423415	17.846371
637	2024-01-27 12:00:00	15	san_pancrazio_salentino	15.16	1	75.21	1	0.0	1	null	6	null	6	null	6	null	6	40.423415	17.846371
638	2024-01-27 13:00:00	15	san_pancrazio_salentino	16.36	1	70.06	1	0.0	1	null	6	null	6	null	6	null	6	40.423415	17.846371
639	2024-01-27 14:00:00	15	san_pancrazio_salentino	16.56	1	66.81	1	0.0	1	null	6	null	6	null	6	null	6	40.423415	17.846371
640	2024-01-27 15:00:00	15	san_pancrazio_salentino	16.76	1	66.32	1	0.0	1	null	6	null	6	null	6	null	6	40.423415	17.846371
641	2024-01-27 16:00:00	15	san_pancrazio_salentino	15.7	1	69.95	1	0.0	1	null	6	null	6	null	6	null	6	40.423415	17.846371
642	2024-01-27 17:00:00	15	san_pancrazio_salentino	13.57	1	75.19	1	0.0	1	null	6	null	6	null	6	null	6	40.423415	17.846371
643	2024-01-27 18:00:00	15	san_pancrazio_salentino	12.0	1	69.18	1	0.0	1	null	6	null	6	null	6	null	6	40.423415	17.846371
644	2024-01-27 19:00:00	15	san_pancrazio_salentino	10.27	1	68.69	1	0.0	1	null	6	null	6	null	6	null	6	40.423415	17.846371
645	2024-01-27 20:00:00	15	san_pancrazio_salentino	8.98	1	67.74	1	0.0	1	null	6	null	6	null	6	null	6	40.423415	17.846371
646	2024-01-27 21:00:00	15	san_pancrazio_salentino	9.16	1	65.25	1	0.0	1	null	6	null	6	null	6	null	6	40.423415	17.846371
647	2024-01-27 22:00:00	15	san_pancrazio_salentino	8.33	1	75.09	1	0.0	1	null	6	null	6	null	6	null	6	40.423415	17.846371
648	2024-01-27 23:00:00	15	san_pancrazio_salentino	8.97	1	85.89	1	0.0	1	null	6	null	6	null	6	null	6	40.423415	17.846371
649	2024-01-28 00:00:00	15	san_pancrazio_salentino	8.08	1	85.45	1	0.0	1	null	6	null	6	null	6	null	6	40.423415	17.846371
650	2024-01-28 01:00:00	15	san_pancrazio_salentino	7.84	1	75.47	1	0.0	1	null	6	null	6	null	6	null	6	40.423415	17.846371
651	2024-01-28 02:00:00	15	san_pancrazio_salentino	7.84	1	58.42	1	0.0	1	null	6	null	6	null	6	null	6	40.423415	17.846371
652	2024-01-28 03:00:00	15	san_pancrazio_salentino	6.96	1	60.2	1	0.0	1	null	6	null	6	null	6	null	6	40.423415	17.846371
653	2024-01-28 04:00:00	15	san_pancrazio_salentino	7.0	1	59.07	1	0.0	1	null	6	null	6	null	6	null	6	40.423415	17.846371
654	2024-01-28 05:00:00	15	san_pancrazio_salentino	6.59	1	57.94	1	0.0	1	null	6	null	6	null	6	null	6	40.423415	17.846371
655	2024-01-28 06:00:00	15	san_pancrazio_salentino	7.7	1	52.98	1	0.0	1	null	6	null	6	null	6	null	6	40.423415	17.846371
656	2024-01-28 07:00:00	15	san_pancrazio_salentino	8.31	1	51.17	1	0.0	1	null	6	null	6	null	6	null	6	40.423415	17.846371
657	2024-01-28 08:00:00	15	san_pancrazio_salentino	8.41	1	54.13	1	0.0	1	null	6	null	6	null	6	null	6	40.423415	17.846371
658	2024-01-28 09:00:00	15	san_pancrazio_salentino	10.31	1	48.45	1	0.0	1	null	6	null	6	null	6	null	6	40.423415	17.846371
659	2024-01-28 10:00:00	15	san_pancrazio_salentino	11.21	1	45.09	1	0.0	1	null	6	null	6	null	6	null	6	40.423415	17.846371
660	2024-01-28 11:00:00	15	san_pancrazio_salentino	11.66	1	43.12	1	0.0	1	null	6	null	6	null	6	null	6	40.423415	17.846371
661	2024-01-28 12:00:00	15	san_pancrazio_salentino	12.76	1	41.0	1	0.0	1	null	6	null	6	null	6	null	6	40.423415	17.846371
662	2024-01-28 13:00:00	15	san_pancrazio_salentino	14.95	1	37.05	1	0.0	1	null	6	null	6	null	6	null	6	40.423415	17.846371
663	2024-01-28 14:00:00	15	san_pancrazio_salentino	15.04	1	36.73	1	0.0	1	null	6	null	6	null	6	null	6	40.423415	17.846371
664	2024-01-28 15:00:00	15	san_pancrazio_salentino	14.5	1	37.77	1	0.0	1	null	6	null	6	null	6	null	6	40.423415	17.846371
665	2024-01-28 16:00:00	15	san_pancrazio_salentino	12.9	1	42.12	1	0.0	1	null	6	null	6	null	6	null	6	40.423415	17.846371
666	2024-01-28 17:00:00	15	san_pancrazio_salentino	10.14	1	49.71	1	0.0	1	null	6	null	6	null	6	null	6	40.423415	17.846371
667	2024-01-28 18:00:00	15	san_pancrazio_salentino	8.21	1	57.53	1	0.0	1	null	6	null	6	null	6	null	6	40.423415	17.846371
668	2024-01-28 19:00:00	15	san_pancrazio_salentino	7.12	1	62.1	1	0.0	1	null	6	null	6	null	6	null	6	40.423415	17.846371
669	2024-01-28 20:00:00	15	san_pancrazio_salentino	7.02	1	64.58	1	0.0	1	null	6	null	6	null	6	null	6	40.423415	17.846371
670	2024-01-28 21:00:00	15	san_pancrazio_salentino	7.82	1	64.11	1	0.0	1	null	6	null	6	null	6	null	6	40.423415	17.846371
671	2024-01-28 22:00:00	15	san_pancrazio_salentino	8.11	1	64.22	1	0.0	1	null	6	null	6	null	6	null	6	40.423415	17.846371
672	2024-01-28 23:00:00	15	san_pancrazio_salentino	7.77	1	65.98	1	0.0	1	null	6	null	6	null	6	null	6	40.423415	17.846371
673	2024-01-29 00:00:00	15	san_pancrazio_salentino	6.57	1	68.47	1	0.0	1	null	6	null	6	null	6	null	6	40.423415	17.846371
674	2024-01-29 01:00:00	15	san_pancrazio_salentino	5.88	1	69.55	1	0.0	1	null	6	null	6	null	6	null	6	40.423415	17.846371
675	2024-01-29 02:00:00	15	san_pancrazio_salentino	4.94	1	73.21	1	0.0	1	null	6	null	6	null	6	null	6	40.423415	17.846371
676	2024-01-29 03:00:00	15	san_pancrazio_salentino	4.36	1	75.69	1	0.0	1	null	6	null	6	null	6	null	6	40.423415	17.846371
677	2024-01-29 04:00:00	15	san_pancrazio_salentino	3.94	1	77.93	1	0.0	1	null	6	null	6	null	6	null	6	40.423415	17.846371
678	2024-01-29 05:00:00	15	san_pancrazio_salentino	3.77	1	77.9	1	0.0	1	null	6	null	6	null	6	null	6	40.423415	17.846371
679	2024-01-29 06:00:00	15	san_pancrazio_salentino	3.9	1	75.86	1	0.0	1	null	6	null	6	null	6	null	6	40.423415	17.846371
680	2024-01-29 07:00:00	15	san_pancrazio_salentino	3.76	1	76.19	1	0.0	1	null	6	null	6	null	6	null	6	40.423415	17.846371
681	2024-01-29 08:00:00	15	san_pancrazio_salentino	4.03	1	76.26	1	0.0	1	null	6	null	6	null	6	null	6	40.423415	17.846371
682	2024-01-29 09:00:00	15	san_pancrazio_salentino	9.3	1	62.35	1	0.0	1	null	6	null	6	null	6	null	6	40.423415	17.846371
683	2024-01-29 10:00:00	15	san_pancrazio_salentino	9.39	1	58.3	1	0.0	1	null	6	null	6	null	6	null	6	40.423415	17.846371
684	2024-01-29 11:00:00	15	san_pancrazio_salentino	11.22	1	47.66	1	0.0	1	null	6	null	6	null	6	null	6	40.423415	17.846371
685	2024-01-29 12:00:00	15	san_pancrazio_salentino	12.09	1	44.73	1	0.0	1	null	6	null	6	null	6	null	6	40.423415	17.846371
686	2024-01-29 13:00:00	15	san_pancrazio_salentino	12.29	1	45.36	1	0.0	1	null	6	null	6	null	6	null	6	40.423415	17.846371
687	2024-01-29 14:00:00	15	san_pancrazio_salentino	12.34	1	45.6	1	0.0	1	null	6	null	6	null	6	null	6	40.423415	17.846371
688	2024-01-29 15:00:00	15	san_pancrazio_salentino	13.47	1	43.62	1	0.0	1	null	6	null	6	null	6	null	6	40.423415	17.846371
689	2024-01-29 16:00:00	15	san_pancrazio_salentino	12.54	1	46.23	1	0.0	1	null	6	null	6	null	6	null	6	40.423415	17.846371
690	2024-01-29 17:00:00	15	san_pancrazio_salentino	9.8	1	55.59	1	0.0	1	null	6	null	6	null	6	null	6	40.423415	17.846371
691	2024-01-29 18:00:00	15	san_pancrazio_salentino	7.45	1	65.86	1	0.0	1	null	6	null	6	null	6	null	6	40.423415	17.846371
692	2024-01-29 19:00:00	15	san_pancrazio_salentino	5.86	1	73.03	1	0.0	1	null	6	null	6	null	6	null	6	40.423415	17.846371
693	2024-01-29 20:00:00	15	san_pancrazio_salentino	4.97	1	77.3	1	0.0	1	null	6	null	6	null	6	null	6	40.423415	17.846371
694	2024-01-29 21:00:00	15	san_pancrazio_salentino	4.49	1	80.87	1	0.0	1	null	6	null	6	null	6	null	6	40.423415	17.846371
695	2024-01-29 22:00:00	15	san_pancrazio_salentino	4.38	1	82.68	1	0.0	1	null	6	null	6	null	6	null	6	40.423415	17.846371
696	2024-01-29 23:00:00	15	san_pancrazio_salentino	4.28	1	81.18	1	0.0	1	null	6	null	6	null	6	null	6	40.423415	17.846371
697	2024-01-30 00:00:00	15	san_pancrazio_salentino	3.94	1	76.88	1	0.0	1	null	6	null	6	null	6	null	6	40.423415	17.846371
698	2024-01-30 01:00:00	15	san_pancrazio_salentino	3.84	1	74.57	1	0.0	1	null	6	null	6	null	6	null	6	40.423415	17.846371
699	2024-01-30 02:00:00	15	san_pancrazio_salentino	3.5	1	75.62	1	0.0	1	null	6	null	6	null	6	null	6	40.423415	17.846371
700	2024-01-30 03:00:00	15	san_pancrazio_salentino	3.25	1	75.68	1	0.0	1	null	6	null	6	null	6	null	6	40.423415	17.846371
701	2024-01-30 04:00:00	15	san_pancrazio_salentino	2.99	1	76.15	1	0.0	1	null	6	null	6	null	6	null	6	40.423415	17.846371
702	2024-01-30 05:00:00	15	san_pancrazio_salentino	2.64	1	76.46	1	0.0	1	null	6	null	6	null	6	null	6	40.423415	17.846371
703	2024-01-30 06:00:00	15	san_pancrazio_salentino	2.86	1	73.67	1	0.0	1	null	6	null	6	null	6	null	6	40.423415	17.846371
704	2024-01-30 07:00:00	15	san_pancrazio_salentino	2.71	1	74.44	1	0.0	1	null	6	null	6	null	6	null	6	40.423415	17.846371
705	2024-01-30 08:00:00	15	san_pancrazio_salentino	2.73	1	74.07	1	0.0	1	null	6	null	6	null	6	null	6	40.423415	17.846371
706	2024-01-30 09:00:00	15	san_pancrazio_salentino	7.07	1	61.24	1	0.0	1	null	6	null	6	null	6	null	6	40.423415	17.846371
707	2024-01-30 10:00:00	15	san_pancrazio_salentino	9.91	1	51.97	1	0.0	1	null	6	null	6	null	6	null	6	40.423415	17.846371
708	2024-01-30 11:00:00	15	san_pancrazio_salentino	10.2	1	46.28	1	0.0	1	null	6	null	6	null	6	null	6	40.423415	17.846371
709	2024-01-30 12:00:00	15	san_pancrazio_salentino	11.67	1	44.4	1	0.0	1	null	6	null	6	null	6	null	6	40.423415	17.846371
710	2024-01-30 13:00:00	15	san_pancrazio_salentino	14.51	1	39.83	1	0.0	1	null	6	null	6	null	6	null	6	40.423415	17.846371
711	2024-01-30 14:00:00	15	san_pancrazio_salentino	14.73	1	39.0	1	0.0	1	null	6	null	6	null	6	null	6	40.423415	17.846371
712	2024-01-30 15:00:00	15	san_pancrazio_salentino	14.34	1	39.26	1	0.0	1	null	6	null	6	null	6	null	6	40.423415	17.846371
713	2024-01-30 16:00:00	15	san_pancrazio_salentino	12.28	1	44.61	1	0.0	1	null	6	null	6	null	6	null	6	40.423415	17.846371
714	2024-01-30 17:00:00	15	san_pancrazio_salentino	9.68	1	53.33	1	0.0	1	null	6	null	6	null	6	null	6	40.423415	17.846371
715	2024-01-30 18:00:00	15	san_pancrazio_salentino	7.46	1	61.03	1	0.0	1	null	6	null	6	null	6	null	6	40.423415	17.846371
716	2024-01-30 19:00:00	15	san_pancrazio_salentino	5.7	1	70.52	1	0.0	1	null	6	null	6	null	6	null	6	40.423415	17.846371
717	2024-01-30 20:00:00	15	san_pancrazio_salentino	5.42	1	71.56	1	0.0	1	null	6	null	6	null	6	null	6	40.423415	17.846371
718	2024-01-30 21:00:00	15	san_pancrazio_salentino	6.38	1	69.49	1	0.0	1	null	6	null	6	null	6	null	6	40.423415	17.846371
719	2024-01-30 22:00:00	15	san_pancrazio_salentino	5.37	1	75.05	1	0.0	1	null	6	null	6	null	6	null	6	40.423415	17.846371
720	2024-01-30 23:00:00	15	san_pancrazio_salentino	4.14	1	81.04	1	0.0	1	null	6	null	6	null	6	null	6	40.423415	17.846371
721	2024-01-31 00:00:00	15	san_pancrazio_salentino	3.86	1	83.26	1	0.0	1	null	6	null	6	null	6	null	6	40.423415	17.846371
722	2024-01-31 01:00:00	15	san_pancrazio_salentino	3.64	1	86.41	1	0.0	1	null	6	null	6	null	6	null	6	40.423415	17.846371
723	2024-01-31 02:00:00	15	san_pancrazio_salentino	4.06	1	88.21	1	0.0	1	null	6	null	6	null	6	null	6	40.423415	17.846371
724	2024-01-31 03:00:00	15	san_pancrazio_salentino	4.61	1	86.47	1	0.0	1	null	6	null	6	null	6	null	6	40.423415	17.846371
725	2024-01-31 04:00:00	15	san_pancrazio_salentino	4.68	1	86.51	1	0.0	1	null	6	null	6	null	6	null	6	40.423415	17.846371
726	2024-01-31 05:00:00	15	san_pancrazio_salentino	4.07	1	92.09	1	0.0	1	null	6	null	6	null	6	null	6	40.423415	17.846371
727	2024-01-31 06:00:00	15	san_pancrazio_salentino	4.37	1	94.08	1	0.0	1	null	6	null	6	null	6	null	6	40.423415	17.846371
728	2024-01-31 07:00:00	15	san_pancrazio_salentino	4.45	1	95.06	1	0.0	1	null	6	null	6	null	6	null	6	40.423415	17.846371
729	2024-01-31 08:00:00	15	san_pancrazio_salentino	4.79	1	94.78	1	0.0	1	null	6	null	6	null	6	null	6	40.423415	17.846371
730	2024-01-31 09:00:00	15	san_pancrazio_salentino	6.54	1	89.78	1	0.0	1	null	6	null	6	null	6	null	6	40.423415	17.846371
731	2024-01-31 10:00:00	15	san_pancrazio_salentino	10.43	1	79.55	1	0.0	1	null	6	null	6	null	6	null	6	40.423415	17.846371
732	2024-01-31 11:00:00	15	san_pancrazio_salentino	12.24	1	72.01	1	0.0	1	null	6	null	6	null	6	null	6	40.423415	17.846371
733	2024-01-31 12:00:00	15	san_pancrazio_salentino	13.72	1	64.69	1	0.0	1	null	6	null	6	null	6	null	6	40.423415	17.846371
734	2024-01-31 13:00:00	15	san_pancrazio_salentino	15.63	1	57.43	1	0.0	1	null	6	null	6	null	6	null	6	40.423415	17.846371
735	2024-01-31 14:00:00	15	san_pancrazio_salentino	15.87	1	56.47	1	0.0	1	null	6	null	6	null	6	null	6	40.423415	17.846371
736	2024-01-31 15:00:00	15	san_pancrazio_salentino	15.91	1	57.16	1	0.0	1	null	6	null	6	null	6	null	6	40.423415	17.846371
737	2024-01-31 16:00:00	15	san_pancrazio_salentino	15.24	1	62.02	1	0.0	1	null	6	null	6	null	6	null	6	40.423415	17.846371
738	2024-01-31 17:00:00	15	san_pancrazio_salentino	11.76	1	74.3	1	0.0	1	null	6	null	6	null	6	null	6	40.423415	17.846371
739	2024-01-31 18:00:00	15	san_pancrazio_salentino	9.69	1	83.94	1	0.0	1	null	6	null	6	null	6	null	6	40.423415	17.846371
740	2024-01-31 19:00:00	15	san_pancrazio_salentino	8.48	1	88.69	1	0.0	1	null	6	null	6	null	6	null	6	40.423415	17.846371
741	2024-01-31 20:00:00	15	san_pancrazio_salentino	7.97	1	90.81	1	0.0	1	null	6	null	6	null	6	null	6	40.423415	17.846371
742	2024-01-31 21:00:00	15	san_pancrazio_salentino	7.15	1	92.28	1	0.0	1	null	6	null	6	null	6	null	6	40.423415	17.846371
743	2024-01-31 22:00:00	15	san_pancrazio_salentino	6.69	1	93.67	1	0.0	1	null	6	null	6	null	6	null	6	40.423415	17.846371
744	2024-01-31 23:00:00	15	san_pancrazio_salentino	6.47	1	93.15	1	0.0	1	null	6	null	6	null	6	null	6	40.423415	17.846371
745	2024-02-01 00:00:00	15	san_pancrazio_salentino	5.53	1	94.8	1	0.0	1	null	6	null	6	null	6	null	6	40.423415	17.846371
746	2024-02-01 01:00:00	15	san_pancrazio_salentino	5.11	1	95.96	1	0.0	1	null	6	null	6	null	6	null	6	40.423415	17.846371
747	2024-02-01 02:00:00	15	san_pancrazio_salentino	5.5	1	95.38	1	0.0	1	null	6	null	6	null	6	null	6	40.423415	17.846371
748	2024-02-01 03:00:00	15	san_pancrazio_salentino	5.23	1	94.72	1	0.0	1	null	6	null	6	null	6	null	6	40.423415	17.846371
749	2024-02-01 04:00:00	15	san_pancrazio_salentino	5.04	1	95.47	1	0.0	1	null	6	null	6	null	6	null	6	40.423415	17.846371
750	2024-02-01 05:00:00	15	san_pancrazio_salentino	5.01	1	95.97	1	0.0	1	null	6	null	6	null	6	null	6	40.423415	17.846371
751	2024-02-01 06:00:00	15	san_pancrazio_salentino	4.31	1	95.81	1	0.0	1	null	6	null	6	null	6	null	6	40.423415	17.846371
752	2024-02-01 07:00:00	15	san_pancrazio_salentino	3.8	1	96.78	1	0.0	1	null	6	null	6	null	6	null	6	40.423415	17.846371
753	2024-02-01 08:00:00	15	san_pancrazio_salentino	4.14	1	97.14	1	0.0	1	null	6	null	6	null	6	null	6	40.423415	17.846371
754	2024-02-01 09:00:00	15	san_pancrazio_salentino	6.68	1	91.83	1	0.0	1	null	6	null	6	null	6	null	6	40.423415	17.846371
755	2024-02-01 10:00:00	15	san_pancrazio_salentino	9.81	1	83.2	1	0.0	1	null	6	null	6	null	6	null	6	40.423415	17.846371
756	2024-02-01 11:00:00	15	san_pancrazio_salentino	12.19	1	70.65	1	0.0	1	null	6	null	6	null	6	null	6	40.423415	17.846371
757	2024-02-01 12:00:00	15	san_pancrazio_salentino	14.46	1	57.89	1	0.0	1	null	6	null	6	null	6	null	6	40.423415	17.846371
758	2024-02-01 13:00:00	15	san_pancrazio_salentino	17.29	1	47.22	1	0.0	1	null	6	null	6	null	6	null	6	40.423415	17.846371
759	2024-02-01 14:00:00	15	san_pancrazio_salentino	19.18	1	41.61	1	0.0	1	null	6	null	6	null	6	null	6	40.423415	17.846371
760	2024-02-01 15:00:00	15	san_pancrazio_salentino	19.28	1	40.97	1	0.0	1	null	6	null	6	null	6	null	6	40.423415	17.846371
761	2024-02-01 16:00:00	15	san_pancrazio_salentino	17.15	1	49.9	1	0.0	1	null	6	null	6	null	6	null	6	40.423415	17.846371
762	2024-02-01 17:00:00	15	san_pancrazio_salentino	12.84	1	59.96	1	0.0	1	null	6	null	6	null	6	null	6	40.423415	17.846371
763	2024-02-01 18:00:00	15	san_pancrazio_salentino	10.15	1	66.25	1	0.0	1	null	6	null	6	null	6	null	6	40.423415	17.846371
764	2024-02-01 19:00:00	15	san_pancrazio_salentino	8.82	1	72.02	1	0.0	1	null	6	null	6	null	6	null	6	40.423415	17.846371
765	2024-02-01 20:00:00	15	san_pancrazio_salentino	7.55	1	77.31	1	0.0	1	null	6	null	6	null	6	null	6	40.423415	17.846371
766	2024-02-01 21:00:00	15	san_pancrazio_salentino	7.02	1	80.06	1	0.0	1	null	6	null	6	null	6	null	6	40.423415	17.846371
767	2024-02-01 22:00:00	15	san_pancrazio_salentino	6.32	1	84.35	1	0.0	1	null	6	null	6	null	6	null	6	40.423415	17.846371
768	2024-02-01 23:00:00	15	san_pancrazio_salentino	5.78	1	88.73	1	0.0	1	null	6	null	6	null	6	null	6	40.423415	17.846371
769	2024-02-02 00:00:00	15	san_pancrazio_salentino	5.48	1	90.71	1	0.0	1	null	6	null	6	null	6	null	6	40.423415	17.846371
770	2024-02-02 01:00:00	15	san_pancrazio_salentino	4.57	1	90.73	1	0.0	1	null	6	null	6	null	6	null	6	40.423415	17.846371
771	2024-02-02 02:00:00	15	san_pancrazio_salentino	4.07	1	89.17	1	0.0	1	null	6	null	6	null	6	null	6	40.423415	17.846371
772	2024-02-02 03:00:00	15	san_pancrazio_salentino	3.83	1	89.64	1	0.0	1	null	6	null	6	null	6	null	6	40.423415	17.846371
773	2024-02-02 04:00:00	15	san_pancrazio_salentino	3.16	1	91.25	1	0.0	1	null	6	null	6	null	6	null	6	40.423415	17.846371
774	2024-02-02 05:00:00	15	san_pancrazio_salentino	3.03	1	93.67	1	0.0	1	null	6	null	6	null	6	null	6	40.423415	17.846371
775	2024-02-02 06:00:00	15	san_pancrazio_salentino	3.46	1	94.69	1	0.0	1	null	6	null	6	null	6	null	6	40.423415	17.846371
776	2024-02-02 07:00:00	15	san_pancrazio_salentino	3.93	1	94.31	1	0.0	1	null	6	null	6	null	6	null	6	40.423415	17.846371
777	2024-02-02 08:00:00	15	san_pancrazio_salentino	4.37	1	95.04	1	0.0	1	null	6	null	6	null	6	null	6	40.423415	17.846371
778	2024-02-02 09:00:00	15	san_pancrazio_salentino	6.86	1	92.3	1	0.0	1	null	6	null	6	null	6	null	6	40.423415	17.846371
779	2024-02-02 10:00:00	15	san_pancrazio_salentino	10.02	1	84.65	1	0.0	1	null	6	null	6	null	6	null	6	40.423415	17.846371
780	2024-02-02 11:00:00	15	san_pancrazio_salentino	12.29	1	74.71	1	0.0	1	null	6	null	6	null	6	null	6	40.423415	17.846371
781	2024-02-02 12:00:00	15	san_pancrazio_salentino	13.46	1	69.34	1	0.0	1	null	6	null	6	null	6	null	6	40.423415	17.846371
782	2024-02-02 13:00:00	15	san_pancrazio_salentino	16.37	1	51.75	1	0.0	1	null	6	null	6	null	6	null	6	40.423415	17.846371
783	2024-02-02 14:00:00	15	san_pancrazio_salentino	17.33	1	48.91	1	0.0	1	null	6	null	6	null	6	null	6	40.423415	17.846371
784	2024-02-02 15:00:00	15	san_pancrazio_salentino	16.88	1	50.56	1	0.0	1	null	6	null	6	null	6	null	6	40.423415	17.846371
785	2024-02-02 16:00:00	15	san_pancrazio_salentino	15.83	1	54.69	1	0.0	1	null	6	null	6	null	6	null	6	40.423415	17.846371
786	2024-02-02 17:00:00	15	san_pancrazio_salentino	13.0	1	62.06	1	0.0	1	null	6	null	6	null	6	null	6	40.423415	17.846371
787	2024-02-02 18:00:00	15	san_pancrazio_salentino	10.55	1	62.2	1	0.0	1	null	6	null	6	null	6	null	6	40.423415	17.846371
788	2024-02-02 19:00:00	15	san_pancrazio_salentino	8.74	1	66.08	1	0.0	1	null	6	null	6	null	6	null	6	40.423415	17.846371
789	2024-02-02 20:00:00	15	san_pancrazio_salentino	7.95	1	69.34	1	0.0	1	null	6	null	6	null	6	null	6	40.423415	17.846371
790	2024-02-02 21:00:00	15	san_pancrazio_salentino	8.17	1	73.08	1	0.0	1	null	6	null	6	null	6	null	6	40.423415	17.846371
791	2024-02-02 22:00:00	15	san_pancrazio_salentino	8.24	1	70.8	1	0.0	1	null	6	null	6	null	6	null	6	40.423415	17.846371
792	2024-02-02 23:00:00	15	san_pancrazio_salentino	7.82	1	65.48	1	0.0	1	null	6	null	6	null	6	null	6	40.423415	17.846371
793	2024-02-03 00:00:00	15	san_pancrazio_salentino	7.6	1	65.0	1	0.0	1	null	6	null	6	null	6	null	6	40.423415	17.846371
794	2024-02-03 01:00:00	15	san_pancrazio_salentino	6.99	1	68.57	1	0.0	1	null	6	null	6	null	6	null	6	40.423415	17.846371
795	2024-02-03 02:00:00	15	san_pancrazio_salentino	6.05	1	74.92	1	0.0	1	null	6	null	6	null	6	null	6	40.423415	17.846371
796	2024-02-03 03:00:00	15	san_pancrazio_salentino	5.41	1	80.5	1	0.0	1	null	6	null	6	null	6	null	6	40.423415	17.846371
797	2024-02-03 04:00:00	15	san_pancrazio_salentino	4.6	1	82.5	1	0.0	1	null	6	null	6	null	6	null	6	40.423415	17.846371
798	2024-02-03 05:00:00	15	san_pancrazio_salentino	4.29	1	81.72	1	0.0	1	null	6	null	6	null	6	null	6	40.423415	17.846371
799	2024-02-03 06:00:00	15	san_pancrazio_salentino	3.83	1	82.53	1	0.0	1	null	6	null	6	null	6	null	6	40.423415	17.846371
800	2024-02-03 07:00:00	15	san_pancrazio_salentino	3.93	1	81.94	1	0.0	1	null	6	null	6	null	6	null	6	40.423415	17.846371
801	2024-02-03 08:00:00	15	san_pancrazio_salentino	5.05	1	77.15	1	0.0	1	null	6	null	6	null	6	null	6	40.423415	17.846371
802	2024-02-03 09:00:00	15	san_pancrazio_salentino	7.56	1	72.4	1	0.0	1	null	6	null	6	null	6	null	6	40.423415	17.846371
803	2024-02-03 10:00:00	15	san_pancrazio_salentino	10.25	1	65.91	1	0.0	1	null	6	null	6	null	6	null	6	40.423415	17.846371
804	2024-02-03 11:00:00	15	san_pancrazio_salentino	12.68	1	56.95	1	0.0	1	null	6	null	6	null	6	null	6	40.423415	17.846371
805	2024-02-03 12:00:00	15	san_pancrazio_salentino	15.46	1	46.78	1	0.0	1	null	6	null	6	null	6	null	6	40.423415	17.846371
806	2024-02-03 13:00:00	15	san_pancrazio_salentino	18.68	1	44.09	1	0.0	1	null	6	null	6	null	6	null	6	40.423415	17.846371
807	2024-02-03 14:00:00	15	san_pancrazio_salentino	19.62	1	44.72	1	0.0	1	null	6	null	6	null	6	null	6	40.423415	17.846371
808	2024-02-03 15:00:00	15	san_pancrazio_salentino	19.79	1	46.22	1	0.0	1	null	6	null	6	null	6	null	6	40.423415	17.846371
809	2024-02-03 16:00:00	15	san_pancrazio_salentino	18.21	1	50.43	1	0.0	1	null	6	null	6	null	6	null	6	40.423415	17.846371
810	2024-02-03 17:00:00	15	san_pancrazio_salentino	14.56	1	61.65	1	0.0	1	null	6	null	6	null	6	null	6	40.423415	17.846371
811	2024-02-03 18:00:00	15	san_pancrazio_salentino	12.07	1	70.86	1	0.0	1	null	6	null	6	null	6	null	6	40.423415	17.846371
812	2024-02-03 19:00:00	15	san_pancrazio_salentino	10.29	1	78.53	1	0.0	1	null	6	null	6	null	6	null	6	40.423415	17.846371
813	2024-02-03 20:00:00	15	san_pancrazio_salentino	9.26	1	82.23	1	0.0	1	null	6	null	6	null	6	null	6	40.423415	17.846371
814	2024-02-03 21:00:00	15	san_pancrazio_salentino	7.46	1	87.32	1	0.0	1	null	6	null	6	null	6	null	6	40.423415	17.846371
815	2024-02-03 22:00:00	15	san_pancrazio_salentino	6.75	1	91.02	1	0.0	1	null	6	null	6	null	6	null	6	40.423415	17.846371
816	2024-02-03 23:00:00	15	san_pancrazio_salentino	6.3	1	89.62	1	0.0	1	null	6	null	6	null	6	null	6	40.423415	17.846371
817	2024-02-04 00:00:00	15	san_pancrazio_salentino	5.3	1	90.88	1	0.0	1	null	6	null	6	null	6	null	6	40.423415	17.846371
818	2024-02-04 01:00:00	15	san_pancrazio_salentino	4.51	1	93.8	1	0.0	1	null	6	null	6	null	6	null	6	40.423415	17.846371
819	2024-02-04 02:00:00	15	san_pancrazio_salentino	4.11	1	93.18	1	0.0	1	null	6	null	6	null	6	null	6	40.423415	17.846371
820	2024-02-04 03:00:00	15	san_pancrazio_salentino	4.46	1	94.64	1	0.0	1	null	6	null	6	null	6	null	6	40.423415	17.846371
821	2024-02-04 04:00:00	15	san_pancrazio_salentino	4.49	1	95.42	1	0.0	1	null	6	null	6	null	6	null	6	40.423415	17.846371
822	2024-02-04 05:00:00	15	san_pancrazio_salentino	4.8	1	96.86	1	0.0	1	null	6	null	6	null	6	null	6	40.423415	17.846371
823	2024-02-04 06:00:00	15	san_pancrazio_salentino	4.39	1	97.06	1	0.0	1	null	6	null	6	null	6	null	6	40.423415	17.846371
824	2024-02-04 07:00:00	15	san_pancrazio_salentino	4.66	1	97.51	1	0.0	1	null	6	null	6	null	6	null	6	40.423415	17.846371
825	2024-02-04 08:00:00	15	san_pancrazio_salentino	5.62	1	97.11	1	0.0	1	null	6	null	6	null	6	null	6	40.423415	17.846371
826	2024-02-04 09:00:00	15	san_pancrazio_salentino	9.03	1	86.61	1	0.0	1	null	6	null	6	null	6	null	6	40.423415	17.846371
827	2024-02-04 10:00:00	15	san_pancrazio_salentino	11.95	1	69.58	1	0.0	1	null	6	null	6	null	6	null	6	40.423415	17.846371
828	2024-02-04 11:00:00	15	san_pancrazio_salentino	13.9	1	58.87	1	0.0	1	null	6	null	6	null	6	null	6	40.423415	17.846371
829	2024-02-04 12:00:00	15	san_pancrazio_salentino	16.6	1	45.0	1	0.0	1	null	6	null	6	null	6	null	6	40.423415	17.846371
830	2024-02-04 13:00:00	15	san_pancrazio_salentino	22.07	1	33.39	1	0.0	1	null	6	null	6	null	6	null	6	40.423415	17.846371
831	2024-02-04 14:00:00	15	san_pancrazio_salentino	23.67	1	31.63	1	0.0	1	null	6	null	6	null	6	null	6	40.423415	17.846371
832	2024-02-04 15:00:00	15	san_pancrazio_salentino	24.44	1	31.09	1	0.0	1	null	6	null	6	null	6	null	6	40.423415	17.846371
833	2024-02-04 16:00:00	15	san_pancrazio_salentino	21.47	1	37.91	1	0.0	1	null	6	null	6	null	6	null	6	40.423415	17.846371
834	2024-02-04 17:00:00	15	san_pancrazio_salentino	16.87	1	51.18	1	0.0	1	null	6	null	6	null	6	null	6	40.423415	17.846371
835	2024-02-04 18:00:00	15	san_pancrazio_salentino	13.82	1	59.84	1	0.0	1	null	6	null	6	null	6	null	6	40.423415	17.846371
836	2024-02-04 19:00:00	15	san_pancrazio_salentino	11.59	1	65.45	1	0.0	1	null	6	null	6	null	6	null	6	40.423415	17.846371
837	2024-02-04 20:00:00	15	san_pancrazio_salentino	10.35	1	71.51	1	0.0	1	null	6	null	6	null	6	null	6	40.423415	17.846371
838	2024-02-04 21:00:00	15	san_pancrazio_salentino	10.21	1	72.06	1	0.0	1	null	6	null	6	null	6	null	6	40.423415	17.846371
839	2024-02-04 22:00:00	15	san_pancrazio_salentino	9.9	1	70.98	1	0.0	1	null	6	null	6	null	6	null	6	40.423415	17.846371
840	2024-02-04 23:00:00	15	san_pancrazio_salentino	8.3	1	77.52	1	0.0	1	null	6	null	6	null	6	null	6	40.423415	17.846371
841	2024-02-05 00:00:00	15	san_pancrazio_salentino	7.94	1	78.43	1	0.0	1	null	6	null	6	null	6	null	6	40.423415	17.846371
842	2024-02-05 01:00:00	15	san_pancrazio_salentino	6.6	1	86.4	1	0.0	1	null	6	null	6	null	6	null	6	40.423415	17.846371
843	2024-02-05 02:00:00	15	san_pancrazio_salentino	6.89	1	86.3	1	0.0	1	null	6	null	6	null	6	null	6	40.423415	17.846371
844	2024-02-05 03:00:00	15	san_pancrazio_salentino	7.2	1	83.45	1	0.0	1	null	6	null	6	null	6	null	6	40.423415	17.846371
845	2024-02-05 04:00:00	15	san_pancrazio_salentino	6.56	1	84.82	1	0.0	1	null	6	null	6	null	6	null	6	40.423415	17.846371
846	2024-02-05 05:00:00	15	san_pancrazio_salentino	6.25	1	85.42	1	0.0	1	null	6	null	6	null	6	null	6	40.423415	17.846371
847	2024-02-05 06:00:00	15	san_pancrazio_salentino	6.09	1	89.18	1	0.0	1	null	6	null	6	null	6	null	6	40.423415	17.846371
848	2024-02-05 07:00:00	15	san_pancrazio_salentino	6.04	1	92.89	1	0.0	1	null	6	null	6	null	6	null	6	40.423415	17.846371
849	2024-02-05 08:00:00	15	san_pancrazio_salentino	7.78	1	87.67	1	0.0	1	null	6	null	6	null	6	null	6	40.423415	17.846371
850	2024-02-05 09:00:00	15	san_pancrazio_salentino	12.23	1	76.02	1	0.0	1	null	6	null	6	null	6	null	6	40.423415	17.846371
851	2024-02-05 10:00:00	15	san_pancrazio_salentino	14.14	1	70.09	1	0.0	1	null	6	null	6	null	6	null	6	40.423415	17.846371
852	2024-02-05 11:00:00	15	san_pancrazio_salentino	16.47	1	58.78	1	0.0	1	null	6	null	6	null	6	null	6	40.423415	17.846371
853	2024-02-05 12:00:00	15	san_pancrazio_salentino	17.86	1	54.81	1	0.0	1	null	6	null	6	null	6	null	6	40.423415	17.846371
854	2024-02-05 13:00:00	15	san_pancrazio_salentino	21.09	1	44.08	1	0.0	1	null	6	null	6	null	6	null	6	40.423415	17.846371
855	2024-02-05 14:00:00	15	san_pancrazio_salentino	21.81	1	40.62	1	0.0	1	null	6	null	6	null	6	null	6	40.423415	17.846371
856	2024-02-05 15:00:00	15	san_pancrazio_salentino	21.09	1	43.15	1	0.0	1	null	6	null	6	null	6	null	6	40.423415	17.846371
857	2024-02-05 16:00:00	15	san_pancrazio_salentino	20.05	1	43.68	1	0.0	1	null	6	null	6	null	6	null	6	40.423415	17.846371
858	2024-02-05 17:00:00	15	san_pancrazio_salentino	16.77	1	50.86	1	0.0	1	null	6	null	6	null	6	null	6	40.423415	17.846371
859	2024-02-05 18:00:00	15	san_pancrazio_salentino	14.06	1	63.21	1	0.0	1	null	6	null	6	null	6	null	6	40.423415	17.846371
860	2024-02-05 19:00:00	15	san_pancrazio_salentino	12.48	1	78.66	1	0.0	1	null	6	null	6	null	6	null	6	40.423415	17.846371
861	2024-02-05 20:00:00	15	san_pancrazio_salentino	11.55	1	87.16	1	0.0	1	null	6	null	6	null	6	null	6	40.423415	17.846371
862	2024-02-05 21:00:00	15	san_pancrazio_salentino	10.4	1	90.81	1	0.0	1	null	6	null	6	null	6	null	6	40.423415	17.846371
863	2024-02-05 22:00:00	15	san_pancrazio_salentino	8.26	1	95.17	1	0.0	1	null	6	null	6	null	6	null	6	40.423415	17.846371
864	2024-02-05 23:00:00	15	san_pancrazio_salentino	8.13	1	96.19	1	0.0	1	null	6	null	6	null	6	null	6	40.423415	17.846371
865	2024-02-06 00:00:00	15	san_pancrazio_salentino	6.76	1	97.26	1	0.0	1	null	6	null	6	null	6	null	6	40.423415	17.846371
866	2024-02-06 01:00:00	15	san_pancrazio_salentino	6.53	1	98.34	1	0.0	1	null	6	null	6	null	6	null	6	40.423415	17.846371
867	2024-02-06 02:00:00	15	san_pancrazio_salentino	6.48	1	98.62	1	0.0	1	null	6	null	6	null	6	null	6	40.423415	17.846371
868	2024-02-06 03:00:00	15	san_pancrazio_salentino	6.13	1	98.53	1	0.0	1	null	6	null	6	null	6	null	6	40.423415	17.846371
869	2024-02-06 04:00:00	15	san_pancrazio_salentino	5.5	1	99.02	1	0.0	1	null	6	null	6	null	6	null	6	40.423415	17.846371
870	2024-02-06 05:00:00	15	san_pancrazio_salentino	4.42	1	99.09	1	0.0	1	null	6	null	6	null	6	null	6	40.423415	17.846371
871	2024-02-06 06:00:00	15	san_pancrazio_salentino	4.29	1	99.23	1	0.0	1	null	6	null	6	null	6	null	6	40.423415	17.846371
872	2024-02-06 07:00:00	15	san_pancrazio_salentino	3.12	1	99.21	1	0.0	1	null	6	null	6	null	6	null	6	40.423415	17.846371
873	2024-02-06 08:00:00	15	san_pancrazio_salentino	4.51	1	99.18	1	0.0	1	null	6	null	6	null	6	null	6	40.423415	17.846371
874	2024-02-06 09:00:00	15	san_pancrazio_salentino	7.67	1	97.45	1	0.0	1	null	6	null	6	null	6	null	6	40.423415	17.846371
875	2024-02-06 10:00:00	15	san_pancrazio_salentino	10.87	1	94.0	1	0.0	1	null	6	null	6	null	6	null	6	40.423415	17.846371
876	2024-02-06 11:00:00	15	san_pancrazio_salentino	12.09	1	91.74	1	0.0	1	null	6	null	6	null	6	null	6	40.423415	17.846371
877	2024-02-06 12:00:00	15	san_pancrazio_salentino	15.5	1	75.93	1	0.0	1	null	6	null	6	null	6	null	6	40.423415	17.846371
878	2024-02-06 13:00:00	15	san_pancrazio_salentino	19.83	1	57.56	1	0.0	1	null	6	null	6	null	6	null	6	40.423415	17.846371
879	2024-02-06 14:00:00	15	san_pancrazio_salentino	20.48	1	53.88	1	0.0	1	null	6	null	6	null	6	null	6	40.423415	17.846371
880	2024-02-06 15:00:00	15	san_pancrazio_salentino	18.68	1	57.25	1	0.0	1	null	6	null	6	null	6	null	6	40.423415	17.846371
881	2024-02-06 16:00:00	15	san_pancrazio_salentino	16.39	1	59.72	1	0.0	1	null	6	null	6	null	6	null	6	40.423415	17.846371
882	2024-02-06 17:00:00	15	san_pancrazio_salentino	15.13	1	63.19	1	0.0	1	null	6	null	6	null	6	null	6	40.423415	17.846371
883	2024-02-06 18:00:00	15	san_pancrazio_salentino	13.08	1	70.81	1	0.0	1	null	6	null	6	null	6	null	6	40.423415	17.846371
884	2024-02-06 19:00:00	15	san_pancrazio_salentino	11.77	1	79.76	1	0.0	1	null	6	null	6	null	6	null	6	40.423415	17.846371
885	2024-02-06 20:00:00	15	san_pancrazio_salentino	10.78	1	85.14	1	0.0	1	null	6	null	6	null	6	null	6	40.423415	17.846371
886	2024-02-06 21:00:00	15	san_pancrazio_salentino	10.0	1	88.55	1	0.0	1	null	6	null	6	null	6	null	6	40.423415	17.846371
887	2024-02-06 22:00:00	15	san_pancrazio_salentino	9.7	1	91.33	1	0.0	1	null	6	null	6	null	6	null	6	40.423415	17.846371
888	2024-02-06 23:00:00	15	san_pancrazio_salentino	7.94	1	92.65	1	0.0	1	null	6	null	6	null	6	null	6	40.423415	17.846371
889	2024-02-07 00:00:00	15	san_pancrazio_salentino	7.95	1	95.72	1	0.0	1	null	6	null	6	null	6	null	6	40.423415	17.846371
890	2024-02-07 01:00:00	15	san_pancrazio_salentino	7.52	1	95.34	1	0.0	1	null	6	null	6	null	6	null	6	40.423415	17.846371
891	2024-02-07 02:00:00	15	san_pancrazio_salentino	5.11	1	95.27	1	0.0	1	null	6	null	6	null	6	null	6	40.423415	17.846371
892	2024-02-07 03:00:00	15	san_pancrazio_salentino	4.44	1	96.09	1	0.0	1	null	6	null	6	null	6	null	6	40.423415	17.846371
893	2024-02-07 04:00:00	15	san_pancrazio_salentino	4.75	1	96.98	1	0.0	1	null	6	null	6	null	6	null	6	40.423415	17.846371
894	2024-02-07 05:00:00	15	san_pancrazio_salentino	6.32	1	96.63	1	0.0	1	null	6	null	6	null	6	null	6	40.423415	17.846371
895	2024-02-07 06:00:00	15	san_pancrazio_salentino	9.58	1	97.14	1	0.0	1	null	6	null	6	null	6	null	6	40.423415	17.846371
896	2024-02-07 07:00:00	15	san_pancrazio_salentino	9.15	1	97.3	1	0.0	1	null	6	null	6	null	6	null	6	40.423415	17.846371
897	2024-02-07 08:00:00	15	san_pancrazio_salentino	8.33	1	97.92	1	0.0	1	null	6	null	6	null	6	null	6	40.423415	17.846371
898	2024-02-07 09:00:00	15	san_pancrazio_salentino	9.91	1	98.13	1	0.0	1	null	6	null	6	null	6	null	6	40.423415	17.846371
899	2024-02-07 10:00:00	15	san_pancrazio_salentino	12.62	1	93.87	1	0.0	1	null	6	null	6	null	6	null	6	40.423415	17.846371
900	2024-02-07 11:00:00	15	san_pancrazio_salentino	14.38	1	85.79	1	0.0	1	null	6	null	6	null	6	null	6	40.423415	17.846371
901	2024-02-07 12:00:00	15	san_pancrazio_salentino	15.43	1	79.09	1	0.0	1	null	6	null	6	null	6	null	6	40.423415	17.846371
902	2024-02-07 13:00:00	15	san_pancrazio_salentino	17.64	1	64.74	1	0.0	1	null	6	null	6	null	6	null	6	40.423415	17.846371
903	2024-02-07 14:00:00	15	san_pancrazio_salentino	17.62	1	66.21	1	0.0	1	null	6	null	6	null	6	null	6	40.423415	17.846371
904	2024-02-07 15:00:00	15	san_pancrazio_salentino	16.95	1	71.29	1	0.0	1	null	6	null	6	null	6	null	6	40.423415	17.846371
905	2024-02-07 16:00:00	15	san_pancrazio_salentino	16.01	1	70.87	1	0.0	1	null	6	null	6	null	6	null	6	40.423415	17.846371
906	2024-02-07 17:00:00	15	san_pancrazio_salentino	14.76	1	75.31	1	0.0	1	null	6	null	6	null	6	null	6	40.423415	17.846371
907	2024-02-07 18:00:00	15	san_pancrazio_salentino	13.55	1	85.14	1	0.0	1	null	6	null	6	null	6	null	6	40.423415	17.846371
908	2024-02-07 19:00:00	15	san_pancrazio_salentino	12.1	1	89.52	1	0.0	1	null	6	null	6	null	6	null	6	40.423415	17.846371
909	2024-02-07 20:00:00	15	san_pancrazio_salentino	11.51	1	92.98	1	0.0	1	null	6	null	6	null	6	null	6	40.423415	17.846371
910	2024-02-07 21:00:00	15	san_pancrazio_salentino	10.68	1	95.05	1	0.0	1	null	6	null	6	null	6	null	6	40.423415	17.846371
911	2024-02-07 22:00:00	15	san_pancrazio_salentino	11.99	1	96.19	1	0.0	1	null	6	null	6	null	6	null	6	40.423415	17.846371
912	2024-02-07 23:00:00	15	san_pancrazio_salentino	12.65	1	96.12	1	0.0	1	null	6	null	6	null	6	null	6	40.423415	17.846371
913	2024-02-08 00:00:00	15	san_pancrazio_salentino	12.82	1	96.64	1	0.0	1	null	6	null	6	null	6	null	6	40.423415	17.846371
914	2024-02-08 01:00:00	15	san_pancrazio_salentino	12.54	1	96.55	1	0.0	1	null	6	null	6	null	6	null	6	40.423415	17.846371
915	2024-02-08 02:00:00	15	san_pancrazio_salentino	11.15	1	97.63	1	0.0	1	null	6	null	6	null	6	null	6	40.423415	17.846371
916	2024-02-08 03:00:00	15	san_pancrazio_salentino	10.28	1	98.07	1	0.0	1	null	6	null	6	null	6	null	6	40.423415	17.846371
917	2024-02-08 04:00:00	15	san_pancrazio_salentino	9.22	1	98.21	1	0.0	1	null	6	null	6	null	6	null	6	40.423415	17.846371
918	2024-02-08 05:00:00	15	san_pancrazio_salentino	8.25	1	98.63	1	0.0	1	null	6	null	6	null	6	null	6	40.423415	17.846371
919	2024-02-08 06:00:00	15	san_pancrazio_salentino	7.88	1	99.08	1	0.0	1	null	6	null	6	null	6	null	6	40.423415	17.846371
920	2024-02-08 07:00:00	15	san_pancrazio_salentino	8.44	1	99.24	1	0.0	1	null	6	null	6	null	6	null	6	40.423415	17.846371
921	2024-02-08 08:00:00	15	san_pancrazio_salentino	8.67	1	99.23	1	0.2	1	null	6	null	6	null	6	null	6	40.423415	17.846371
922	2024-02-08 09:00:00	15	san_pancrazio_salentino	9.61	1	98.95	1	0.0	1	null	6	null	6	null	6	null	6	40.423415	17.846371
923	2024-02-08 10:00:00	15	san_pancrazio_salentino	11.41	1	98.26	1	0.0	1	null	6	null	6	null	6	null	6	40.423415	17.846371
924	2024-02-08 11:00:00	15	san_pancrazio_salentino	14.0	1	82.37	1	0.0	1	null	6	null	6	null	6	null	6	40.423415	17.846371
925	2024-02-08 12:00:00	15	san_pancrazio_salentino	17.61	1	53.27	1	0.0	1	null	6	null	6	null	6	null	6	40.423415	17.846371
926	2024-02-08 13:00:00	15	san_pancrazio_salentino	20.36	1	46.15	1	0.0	1	null	6	null	6	null	6	null	6	40.423415	17.846371
927	2024-02-08 14:00:00	15	san_pancrazio_salentino	20.91	1	43.93	1	0.0	1	null	6	null	6	null	6	null	6	40.423415	17.846371
928	2024-02-08 15:00:00	15	san_pancrazio_salentino	20.23	1	47.77	1	0.0	1	null	6	null	6	null	6	null	6	40.423415	17.846371
929	2024-02-08 16:00:00	15	san_pancrazio_salentino	18.77	1	56.09	1	0.0	1	null	6	null	6	null	6	null	6	40.423415	17.846371
930	2024-02-08 17:00:00	15	san_pancrazio_salentino	15.95	1	67.66	1	0.0	1	null	6	null	6	null	6	null	6	40.423415	17.846371
931	2024-02-08 18:00:00	15	san_pancrazio_salentino	13.74	1	86.43	1	0.0	1	null	6	null	6	null	6	null	6	40.423415	17.846371
932	2024-02-08 19:00:00	15	san_pancrazio_salentino	12.93	1	93.21	1	0.0	1	null	6	null	6	null	6	null	6	40.423415	17.846371
933	2024-02-08 20:00:00	15	san_pancrazio_salentino	12.24	1	93.11	1	0.0	1	null	6	null	6	null	6	null	6	40.423415	17.846371
934	2024-02-08 21:00:00	15	san_pancrazio_salentino	12.83	1	90.29	1	0.0	1	null	6	null	6	null	6	null	6	40.423415	17.846371
935	2024-02-08 22:00:00	15	san_pancrazio_salentino	12.28	1	89.82	1	0.0	1	null	6	null	6	null	6	null	6	40.423415	17.846371
936	2024-02-08 23:00:00	15	san_pancrazio_salentino	12.13	1	88.76	1	0.0	1	null	6	null	6	null	6	null	6	40.423415	17.846371
937	2024-02-09 00:00:00	15	san_pancrazio_salentino	11.37	1	88.0	1	0.0	1	null	6	null	6	null	6	null	6	40.423415	17.846371
938	2024-02-09 01:00:00	15	san_pancrazio_salentino	10.9	1	85.24	1	0.0	1	null	6	null	6	null	6	null	6	40.423415	17.846371
939	2024-02-09 02:00:00	15	san_pancrazio_salentino	10.69	1	84.22	1	0.0	1	null	6	null	6	null	6	null	6	40.423415	17.846371
940	2024-02-09 03:00:00	15	san_pancrazio_salentino	9.87	1	86.87	1	0.0	1	null	6	null	6	null	6	null	6	40.423415	17.846371
941	2024-02-09 04:00:00	15	san_pancrazio_salentino	9.49	1	94.3	1	0.0	1	null	6	null	6	null	6	null	6	40.423415	17.846371
942	2024-02-09 05:00:00	15	san_pancrazio_salentino	10.04	1	94.47	1	0.0	1	null	6	null	6	null	6	null	6	40.423415	17.846371
943	2024-02-09 06:00:00	15	san_pancrazio_salentino	9.92	1	90.49	1	0.0	1	null	6	null	6	null	6	null	6	40.423415	17.846371
944	2024-02-09 07:00:00	15	san_pancrazio_salentino	9.67	1	87.62	1	0.0	1	null	6	null	6	null	6	null	6	40.423415	17.846371
945	2024-02-09 08:00:00	15	san_pancrazio_salentino	10.73	1	84.8	1	0.0	1	null	6	null	6	null	6	null	6	40.423415	17.846371
946	2024-02-09 09:00:00	15	san_pancrazio_salentino	13.63	1	78.29	1	0.0	1	null	6	null	6	null	6	null	6	40.423415	17.846371
947	2024-02-09 10:00:00	15	san_pancrazio_salentino	14.59	1	74.84	1	0.0	1	null	6	null	6	null	6	null	6	40.423415	17.846371
948	2024-02-09 11:00:00	15	san_pancrazio_salentino	16.13	1	69.95	1	0.0	1	null	6	null	6	null	6	null	6	40.423415	17.846371
949	2024-02-09 12:00:00	15	san_pancrazio_salentino	16.91	1	71.0	1	0.0	1	null	6	null	6	null	6	null	6	40.423415	17.846371
950	2024-02-09 13:00:00	15	san_pancrazio_salentino	16.76	1	67.43	1	0.0	1	null	6	null	6	null	6	null	6	40.423415	17.846371
951	2024-02-09 14:00:00	15	san_pancrazio_salentino	16.42	1	69.84	1	0.0	1	null	6	null	6	null	6	null	6	40.423415	17.846371
952	2024-02-09 15:00:00	15	san_pancrazio_salentino	16.02	1	74.32	1	0.0	1	null	6	null	6	null	6	null	6	40.423415	17.846371
953	2024-02-09 16:00:00	15	san_pancrazio_salentino	15.22	1	76.79	1	0.0	1	null	6	null	6	null	6	null	6	40.423415	17.846371
954	2024-02-09 17:00:00	15	san_pancrazio_salentino	14.86	1	74.18	1	0.0	1	null	6	null	6	null	6	null	6	40.423415	17.846371
955	2024-02-09 18:00:00	15	san_pancrazio_salentino	13.98	1	79.63	1	0.0	1	null	6	null	6	null	6	null	6	40.423415	17.846371
956	2024-02-09 19:00:00	15	san_pancrazio_salentino	13.0	1	88.66	1	0.0	1	null	6	null	6	null	6	null	6	40.423415	17.846371
957	2024-02-09 20:00:00	15	san_pancrazio_salentino	12.66	1	89.84	1	0.0	1	null	6	null	6	null	6	null	6	40.423415	17.846371
958	2024-02-09 21:00:00	15	san_pancrazio_salentino	12.86	1	90.25	1	0.0	1	null	6	null	6	null	6	null	6	40.423415	17.846371
959	2024-02-09 22:00:00	15	san_pancrazio_salentino	13.32	1	90.31	1	0.0	1	null	6	null	6	null	6	null	6	40.423415	17.846371
960	2024-02-09 23:00:00	15	san_pancrazio_salentino	14.0	1	87.99	1	0.0	1	null	6	null	6	null	6	null	6	40.423415	17.846371
961	2024-02-10 00:00:00	15	san_pancrazio_salentino	14.17	1	88.11	1	0.0	1	null	6	null	6	null	6	null	6	40.423415	17.846371
962	2024-02-10 01:00:00	15	san_pancrazio_salentino	14.12	1	88.06	1	0.0	1	null	6	null	6	null	6	null	6	40.423415	17.846371
963	2024-02-10 02:00:00	15	san_pancrazio_salentino	14.5	1	85.84	1	0.0	1	null	6	null	6	null	6	null	6	40.423415	17.846371
964	2024-02-10 03:00:00	15	san_pancrazio_salentino	14.65	1	86.7	1	0.0	1	null	6	null	6	null	6	null	6	40.423415	17.846371
965	2024-02-10 04:00:00	15	san_pancrazio_salentino	14.58	1	87.53	1	0.0	1	null	6	null	6	null	6	null	6	40.423415	17.846371
966	2024-02-10 05:00:00	15	san_pancrazio_salentino	14.55	1	87.74	1	0.0	1	null	6	null	6	null	6	null	6	40.423415	17.846371
967	2024-02-10 06:00:00	15	san_pancrazio_salentino	14.4	1	88.78	1	0.0	1	null	6	null	6	null	6	null	6	40.423415	17.846371
968	2024-02-10 07:00:00	15	san_pancrazio_salentino	14.29	1	88.44	1	0.0	1	null	6	null	6	null	6	null	6	40.423415	17.846371
969	2024-02-10 08:00:00	15	san_pancrazio_salentino	14.57	1	87.2	1	0.0	1	null	6	null	6	null	6	null	6	40.423415	17.846371
970	2024-02-10 09:00:00	15	san_pancrazio_salentino	14.93	1	85.42	1	0.0	1	null	6	null	6	null	6	null	6	40.423415	17.846371
971	2024-02-10 10:00:00	15	san_pancrazio_salentino	15.79	1	80.16	1	0.0	1	null	6	null	6	null	6	null	6	40.423415	17.846371
972	2024-02-10 11:00:00	15	san_pancrazio_salentino	16.21	1	77.05	1	0.0	1	null	6	null	6	null	6	null	6	40.423415	17.846371
973	2024-02-10 12:00:00	15	san_pancrazio_salentino	16.0	1	79.17	1	0.0	1	null	6	null	6	null	6	null	6	40.423415	17.846371
974	2024-02-10 13:00:00	15	san_pancrazio_salentino	15.97	1	81.91	1	0.0	1	null	6	null	6	null	6	null	6	40.423415	17.846371
975	2024-02-10 14:00:00	15	san_pancrazio_salentino	15.79	1	83.45	1	0.0	1	null	6	null	6	null	6	null	6	40.423415	17.846371
976	2024-02-10 15:00:00	15	san_pancrazio_salentino	15.63	1	84.1	1	0.0	1	null	6	null	6	null	6	null	6	40.423415	17.846371
977	2024-02-10 16:00:00	15	san_pancrazio_salentino	15.66	1	83.45	1	0.0	1	null	6	null	6	null	6	null	6	40.423415	17.846371
978	2024-02-10 17:00:00	15	san_pancrazio_salentino	15.68	1	83.63	1	0.0	1	null	6	null	6	null	6	null	6	40.423415	17.846371
979	2024-02-10 18:00:00	15	san_pancrazio_salentino	15.35	1	85.48	1	0.0	1	null	6	null	6	null	6	null	6	40.423415	17.846371
980	2024-02-10 19:00:00	15	san_pancrazio_salentino	15.55	1	82.16	1	0.0	1	null	6	null	6	null	6	null	6	40.423415	17.846371
981	2024-02-10 20:00:00	15	san_pancrazio_salentino	15.91	1	78.97	1	0.0	1	null	6	null	6	null	6	null	6	40.423415	17.846371
982	2024-02-10 21:00:00	15	san_pancrazio_salentino	15.77	1	79.9	1	0.0	1	null	6	null	6	null	6	null	6	40.423415	17.846371
983	2024-02-10 22:00:00	15	san_pancrazio_salentino	15.07	1	87.92	1	0.2	1	null	6	null	6	null	6	null	6	40.423415	17.846371
984	2024-02-10 23:00:00	15	san_pancrazio_salentino	14.9	1	89.1	1	0.0	1	null	6	null	6	null	6	null	6	40.423415	17.846371
985	2024-02-11 00:00:00	15	san_pancrazio_salentino	15.18	1	86.37	1	0.0	1	null	6	null	6	null	6	null	6	40.423415	17.846371
986	2024-02-11 01:00:00	15	san_pancrazio_salentino	15.27	1	86.19	1	0.0	1	null	6	null	6	null	6	null	6	40.423415	17.846371
987	2024-02-11 02:00:00	15	san_pancrazio_salentino	15.09	1	87.14	1	0.0	1	null	6	null	6	null	6	null	6	40.423415	17.846371
988	2024-02-11 03:00:00	15	san_pancrazio_salentino	14.96	1	87.22	1	0.0	1	null	6	null	6	null	6	null	6	40.423415	17.846371
989	2024-02-11 04:00:00	15	san_pancrazio_salentino	14.66	1	90.34	1	0.0	1	null	6	null	6	null	6	null	6	40.423415	17.846371
990	2024-02-11 05:00:00	15	san_pancrazio_salentino	14.73	1	89.84	1	0.0	1	null	6	null	6	null	6	null	6	40.423415	17.846371
991	2024-02-11 06:00:00	15	san_pancrazio_salentino	15.04	1	87.65	1	0.0	1	null	6	null	6	null	6	null	6	40.423415	17.846371
992	2024-02-11 07:00:00	15	san_pancrazio_salentino	14.76	1	89.87	1	0.0	1	null	6	null	6	null	6	null	6	40.423415	17.846371
993	2024-02-11 08:00:00	15	san_pancrazio_salentino	14.59	1	89.83	1	0.0	1	null	6	null	6	null	6	null	6	40.423415	17.846371
994	2024-02-11 09:00:00	15	san_pancrazio_salentino	14.74	1	88.52	1	0.0	1	null	6	null	6	null	6	null	6	40.423415	17.846371
995	2024-02-11 10:00:00	15	san_pancrazio_salentino	15.61	1	84.95	1	0.0	1	null	6	null	6	null	6	null	6	40.423415	17.846371
996	2024-02-11 11:00:00	15	san_pancrazio_salentino	16.75	1	74.98	1	0.0	1	null	6	null	6	null	6	null	6	40.423415	17.846371
997	2024-02-11 12:00:00	15	san_pancrazio_salentino	18.22	1	61.14	1	0.0	1	null	6	null	6	null	6	null	6	40.423415	17.846371
998	2024-02-11 13:00:00	15	san_pancrazio_salentino	18.73	1	62.27	1	0.0	1	null	6	null	6	null	6	null	6	40.423415	17.846371
999	2024-02-11 14:00:00	15	san_pancrazio_salentino	18.86	1	57.24	1	0.0	1	null	6	null	6	null	6	null	6	40.423415	17.846371
1000	2024-02-11 15:00:00	15	san_pancrazio_salentino	16.67	1	69.66	1	0.0	1	null	6	null	6	null	6	null	6	40.423415	17.846371
1001	2024-02-11 16:00:00	15	san_pancrazio_salentino	14.21	1	67.81	1	0.0	1	null	6	null	6	null	6	null	6	40.423415	17.846371
1002	2024-02-11 17:00:00	15	san_pancrazio_salentino	13.23	1	75.84	1	0.2	1	null	6	null	6	null	6	null	6	40.423415	17.846371
1003	2024-02-11 18:00:00	15	san_pancrazio_salentino	12.82	1	77.87	1	0.0	1	null	6	null	6	null	6	null	6	40.423415	17.846371
1004	2024-02-11 19:00:00	15	san_pancrazio_salentino	12.78	1	79.64	1	0.0	1	null	6	null	6	null	6	null	6	40.423415	17.846371
1005	2024-02-11 20:00:00	15	san_pancrazio_salentino	12.84	1	75.79	1	0.0	1	null	6	null	6	null	6	null	6	40.423415	17.846371
1006	2024-02-11 21:00:00	15	san_pancrazio_salentino	12.33	1	77.17	1	0.0	1	null	6	null	6	null	6	null	6	40.423415	17.846371
1007	2024-02-11 22:00:00	15	san_pancrazio_salentino	11.79	1	83.06	1	0.0	1	null	6	null	6	null	6	null	6	40.423415	17.846371
1008	2024-02-11 23:00:00	15	san_pancrazio_salentino	11.28	1	82.63	1	0.0	1	null	6	null	6	null	6	null	6	40.423415	17.846371
1009	2024-02-12 00:00:00	15	san_pancrazio_salentino	10.49	1	81.35	1	0.0	1	null	6	null	6	null	6	null	6	40.423415	17.846371
1010	2024-02-12 01:00:00	15	san_pancrazio_salentino	10.01	1	85.17	1	0.0	1	null	6	null	6	null	6	null	6	40.423415	17.846371
1011	2024-02-12 02:00:00	15	san_pancrazio_salentino	10.17	1	83.01	1	0.0	1	null	6	null	6	null	6	null	6	40.423415	17.846371
1012	2024-02-12 03:00:00	15	san_pancrazio_salentino	10.25	1	77.84	1	0.0	1	null	6	null	6	null	6	null	6	40.423415	17.846371
1013	2024-02-12 04:00:00	15	san_pancrazio_salentino	9.68	1	78.71	1	0.0	1	null	6	null	6	null	6	null	6	40.423415	17.846371
1014	2024-02-12 05:00:00	15	san_pancrazio_salentino	8.61	1	84.92	1	0.0	1	null	6	null	6	null	6	null	6	40.423415	17.846371
1015	2024-02-12 06:00:00	15	san_pancrazio_salentino	8.9	1	88.34	1	0.0	1	null	6	null	6	null	6	null	6	40.423415	17.846371
1016	2024-02-12 07:00:00	15	san_pancrazio_salentino	9.58	1	86.31	1	0.0	1	null	6	null	6	null	6	null	6	40.423415	17.846371
1017	2024-02-12 08:00:00	15	san_pancrazio_salentino	10.79	1	79.36	1	0.0	1	null	6	null	6	null	6	null	6	40.423415	17.846371
1018	2024-02-12 09:00:00	15	san_pancrazio_salentino	13.03	1	77.37	1	0.0	1	null	6	null	6	null	6	null	6	40.423415	17.846371
1019	2024-02-12 10:00:00	15	san_pancrazio_salentino	13.24	1	76.69	1	0.0	1	null	6	null	6	null	6	null	6	40.423415	17.846371
1020	2024-02-12 11:00:00	15	san_pancrazio_salentino	14.95	1	60.65	1	0.0	1	null	6	null	6	null	6	null	6	40.423415	17.846371
1021	2024-02-12 12:00:00	15	san_pancrazio_salentino	15.05	1	62.22	1	0.0	1	null	6	null	6	null	6	null	6	40.423415	17.846371
1022	2024-02-12 13:00:00	15	san_pancrazio_salentino	16.95	1	57.15	1	0.0	1	null	6	null	6	null	6	null	6	40.423415	17.846371
1023	2024-02-12 14:00:00	15	san_pancrazio_salentino	18.04	1	52.59	1	0.0	1	null	6	null	6	null	6	null	6	40.423415	17.846371
1024	2024-02-12 15:00:00	15	san_pancrazio_salentino	18.32	1	46.94	1	0.0	1	null	6	null	6	null	6	null	6	40.423415	17.846371
1025	2024-02-12 16:00:00	15	san_pancrazio_salentino	15.69	1	58.59	1	0.0	1	null	6	null	6	null	6	null	6	40.423415	17.846371
1026	2024-02-12 17:00:00	15	san_pancrazio_salentino	14.33	1	65.65	1	0.0	1	null	6	null	6	null	6	null	6	40.423415	17.846371
1027	2024-02-12 18:00:00	15	san_pancrazio_salentino	12.46	1	72.34	1	0.0	1	null	6	null	6	null	6	null	6	40.423415	17.846371
1028	2024-02-12 19:00:00	15	san_pancrazio_salentino	11.52	1	76.37	1	0.0	1	null	6	null	6	null	6	null	6	40.423415	17.846371
1029	2024-02-12 20:00:00	15	san_pancrazio_salentino	11.14	1	78.8	1	0.0	1	null	6	null	6	null	6	null	6	40.423415	17.846371
1030	2024-02-12 21:00:00	15	san_pancrazio_salentino	10.27	1	82.84	1	0.0	1	null	6	null	6	null	6	null	6	40.423415	17.846371
1031	2024-02-12 22:00:00	15	san_pancrazio_salentino	9.42	1	86.56	1	0.0	1	null	6	null	6	null	6	null	6	40.423415	17.846371
1032	2024-02-12 23:00:00	15	san_pancrazio_salentino	9.32	1	87.43	1	0.0	1	null	6	null	6	null	6	null	6	40.423415	17.846371
1033	2024-02-13 00:00:00	15	san_pancrazio_salentino	8.65	1	89.96	1	0.0	1	null	6	null	6	null	6	null	6	40.423415	17.846371
1034	2024-02-13 01:00:00	15	san_pancrazio_salentino	8.17	1	91.48	1	0.0	1	null	6	null	6	null	6	null	6	40.423415	17.846371
1035	2024-02-13 02:00:00	15	san_pancrazio_salentino	7.62	1	90.29	1	0.0	1	null	6	null	6	null	6	null	6	40.423415	17.846371
1036	2024-02-13 03:00:00	15	san_pancrazio_salentino	7.23	1	89.55	1	0.0	1	null	6	null	6	null	6	null	6	40.423415	17.846371
1037	2024-02-13 04:00:00	15	san_pancrazio_salentino	7.16	1	90.2	1	0.0	1	null	6	null	6	null	6	null	6	40.423415	17.846371
1038	2024-02-13 05:00:00	15	san_pancrazio_salentino	7.62	1	90.35	1	0.0	1	null	6	null	6	null	6	null	6	40.423415	17.846371
1039	2024-02-13 06:00:00	15	san_pancrazio_salentino	7.11	1	90.46	1	0.0	1	null	6	null	6	null	6	null	6	40.423415	17.846371
1040	2024-02-13 07:00:00	15	san_pancrazio_salentino	6.67	1	92.47	1	0.0	1	null	6	null	6	null	6	null	6	40.423415	17.846371
1041	2024-02-13 08:00:00	15	san_pancrazio_salentino	8.37	1	89.15	1	0.0	1	null	6	null	6	null	6	null	6	40.423415	17.846371
1042	2024-02-13 09:00:00	15	san_pancrazio_salentino	11.59	1	82.85	1	0.0	1	null	6	null	6	null	6	null	6	40.423415	17.846371
1043	2024-02-13 10:00:00	15	san_pancrazio_salentino	13.45	1	74.8	1	0.0	1	null	6	null	6	null	6	null	6	40.423415	17.846371
1044	2024-02-13 11:00:00	15	san_pancrazio_salentino	14.86	1	67.6	1	0.0	1	null	6	null	6	null	6	null	6	40.423415	17.846371
1045	2024-02-13 12:00:00	15	san_pancrazio_salentino	14.64	1	69.38	1	0.0	1	null	6	null	6	null	6	null	6	40.423415	17.846371
1046	2024-02-13 13:00:00	15	san_pancrazio_salentino	15.17	1	66.74	1	0.0	1	null	6	null	6	null	6	null	6	40.423415	17.846371
1047	2024-02-13 14:00:00	15	san_pancrazio_salentino	14.19	1	67.95	1	0.0	1	null	6	null	6	null	6	null	6	40.423415	17.846371
1048	2024-02-13 15:00:00	15	san_pancrazio_salentino	12.89	1	73.54	1	0.0	1	null	6	null	6	null	6	null	6	40.423415	17.846371
1049	2024-02-13 16:00:00	15	san_pancrazio_salentino	11.55	1	85.31	1	0.2	1	null	6	null	6	null	6	null	6	40.423415	17.846371
1050	2024-02-13 17:00:00	15	san_pancrazio_salentino	11.07	1	87.13	1	0.0	1	null	6	null	6	null	6	null	6	40.423415	17.846371
1051	2024-02-13 18:00:00	15	san_pancrazio_salentino	10.37	1	92.67	1	0.0	1	null	6	null	6	null	6	null	6	40.423415	17.846371
1052	2024-02-13 19:00:00	15	san_pancrazio_salentino	10.1	1	93.95	1	0.2	1	null	6	null	6	null	6	null	6	40.423415	17.846371
1053	2024-02-13 20:00:00	15	san_pancrazio_salentino	9.92	1	90.23	1	0.0	1	null	6	null	6	null	6	null	6	40.423415	17.846371
1054	2024-02-13 21:00:00	15	san_pancrazio_salentino	9.98	1	85.59	1	0.0	1	null	6	null	6	null	6	null	6	40.423415	17.846371
1055	2024-02-13 22:00:00	15	san_pancrazio_salentino	10.22	1	86.21	1	0.0	1	null	6	null	6	null	6	null	6	40.423415	17.846371
1056	2024-02-13 23:00:00	15	san_pancrazio_salentino	10.16	1	85.07	1	0.0	1	null	6	null	6	null	6	null	6	40.423415	17.846371
1057	2024-02-14 00:00:00	15	san_pancrazio_salentino	9.98	1	86.31	1	0.0	1	null	6	null	6	null	6	null	6	40.423415	17.846371
1058	2024-02-14 01:00:00	15	san_pancrazio_salentino	10.21	1	76.46	1	0.0	1	null	6	null	6	null	6	null	6	40.423415	17.846371
1059	2024-02-14 02:00:00	15	san_pancrazio_salentino	9.39	1	79.67	1	0.0	1	null	6	null	6	null	6	null	6	40.423415	17.846371
1060	2024-02-14 03:00:00	15	san_pancrazio_salentino	9.21	1	76.98	1	0.0	1	null	6	null	6	null	6	null	6	40.423415	17.846371
1061	2024-02-14 04:00:00	15	san_pancrazio_salentino	8.74	1	76.47	1	0.0	1	null	6	null	6	null	6	null	6	40.423415	17.846371
1062	2024-02-14 05:00:00	15	san_pancrazio_salentino	8.45	1	77.8	1	0.0	1	null	6	null	6	null	6	null	6	40.423415	17.846371
1063	2024-02-14 06:00:00	15	san_pancrazio_salentino	7.76	1	79.32	1	0.0	1	null	6	null	6	null	6	null	6	40.423415	17.846371
1064	2024-02-14 07:00:00	15	san_pancrazio_salentino	7.04	1	80.5	1	0.0	1	null	6	null	6	null	6	null	6	40.423415	17.846371
1065	2024-02-14 08:00:00	15	san_pancrazio_salentino	7.87	1	78.49	1	0.0	1	null	6	null	6	null	6	null	6	40.423415	17.846371
1066	2024-02-14 09:00:00	15	san_pancrazio_salentino	11.31	1	61.96	1	0.0	1	null	6	null	6	null	6	null	6	40.423415	17.846371
1067	2024-02-14 10:00:00	15	san_pancrazio_salentino	13.01	1	50.96	1	0.0	1	null	6	null	6	null	6	null	6	40.423415	17.846371
1068	2024-02-14 11:00:00	15	san_pancrazio_salentino	13.33	1	47.16	1	0.0	1	null	6	null	6	null	6	null	6	40.423415	17.846371
1069	2024-02-14 12:00:00	15	san_pancrazio_salentino	14.34	1	43.07	1	0.0	1	null	6	null	6	null	6	null	6	40.423415	17.846371
1070	2024-02-14 13:00:00	15	san_pancrazio_salentino	16.29	1	41.38	1	0.0	1	null	6	null	6	null	6	null	6	40.423415	17.846371
1071	2024-02-14 14:00:00	15	san_pancrazio_salentino	16.83	1	40.88	1	0.0	1	null	6	null	6	null	6	null	6	40.423415	17.846371
1072	2024-02-14 15:00:00	15	san_pancrazio_salentino	16.24	1	41.58	1	0.0	1	null	6	null	6	null	6	null	6	40.423415	17.846371
1073	2024-02-14 16:00:00	15	san_pancrazio_salentino	14.64	1	43.45	1	0.0	1	null	6	null	6	null	6	null	6	40.423415	17.846371
1074	2024-02-14 17:00:00	15	san_pancrazio_salentino	12.49	1	48.52	1	0.0	1	null	6	null	6	null	6	null	6	40.423415	17.846371
1075	2024-02-14 18:00:00	15	san_pancrazio_salentino	11.3	1	50.69	1	0.0	1	null	6	null	6	null	6	null	6	40.423415	17.846371
1076	2024-02-14 19:00:00	15	san_pancrazio_salentino	10.85	1	56.03	1	0.0	1	null	6	null	6	null	6	null	6	40.423415	17.846371
1077	2024-02-14 20:00:00	15	san_pancrazio_salentino	10.94	1	59.24	1	0.0	1	null	6	null	6	null	6	null	6	40.423415	17.846371
1078	2024-02-14 21:00:00	15	san_pancrazio_salentino	10.68	1	64.59	1	0.0	1	null	6	null	6	null	6	null	6	40.423415	17.846371
1079	2024-02-14 22:00:00	15	san_pancrazio_salentino	10.74	1	71.0	1	0.0	1	null	6	null	6	null	6	null	6	40.423415	17.846371
1080	2024-02-14 23:00:00	15	san_pancrazio_salentino	10.56	1	74.74	1	0.0	1	null	6	null	6	null	6	null	6	40.423415	17.846371
1081	2024-02-15 00:00:00	15	san_pancrazio_salentino	10.51	1	77.85	1	0.0	1	null	6	null	6	null	6	null	6	40.423415	17.846371
1082	2024-02-15 01:00:00	15	san_pancrazio_salentino	10.41	1	78.5	1	0.0	1	null	6	null	6	null	6	null	6	40.423415	17.846371
1083	2024-02-15 02:00:00	15	san_pancrazio_salentino	9.77	1	80.44	1	0.0	1	null	6	null	6	null	6	null	6	40.423415	17.846371
1084	2024-02-15 03:00:00	15	san_pancrazio_salentino	9.47	1	82.14	1	0.0	1	null	6	null	6	null	6	null	6	40.423415	17.846371
1085	2024-02-15 04:00:00	15	san_pancrazio_salentino	9.13	1	84.07	1	0.0	1	null	6	null	6	null	6	null	6	40.423415	17.846371
1086	2024-02-15 05:00:00	15	san_pancrazio_salentino	8.46	1	86.31	1	0.0	1	null	6	null	6	null	6	null	6	40.423415	17.846371
1087	2024-02-15 06:00:00	15	san_pancrazio_salentino	7.49	1	89.08	1	0.0	1	null	6	null	6	null	6	null	6	40.423415	17.846371
1088	2024-02-15 07:00:00	15	san_pancrazio_salentino	6.82	1	90.13	1	0.0	1	null	6	null	6	null	6	null	6	40.423415	17.846371
1089	2024-02-15 08:00:00	15	san_pancrazio_salentino	8.41	1	83.12	1	0.0	1	null	6	null	6	null	6	null	6	40.423415	17.846371
1090	2024-02-15 09:00:00	15	san_pancrazio_salentino	11.54	1	73.04	1	0.0	1	null	6	null	6	null	6	null	6	40.423415	17.846371
1091	2024-02-15 10:00:00	15	san_pancrazio_salentino	13.51	1	59.71	1	0.0	1	null	6	null	6	null	6	null	6	40.423415	17.846371
1092	2024-02-15 11:00:00	15	san_pancrazio_salentino	14.31	1	51.7	1	0.0	1	null	6	null	6	null	6	null	6	40.423415	17.846371
1093	2024-02-15 12:00:00	15	san_pancrazio_salentino	15.85	1	45.26	1	0.0	1	null	6	null	6	null	6	null	6	40.423415	17.846371
1094	2024-02-15 13:00:00	15	san_pancrazio_salentino	18.57	1	40.21	1	0.0	1	null	6	null	6	null	6	null	6	40.423415	17.846371
1095	2024-02-15 14:00:00	15	san_pancrazio_salentino	18.97	1	37.65	1	0.0	1	null	6	null	6	null	6	null	6	40.423415	17.846371
1096	2024-02-15 15:00:00	15	san_pancrazio_salentino	19.08	1	38.16	1	0.0	1	null	6	null	6	null	6	null	6	40.423415	17.846371
1097	2024-02-15 16:00:00	15	san_pancrazio_salentino	17.8	1	41.27	1	0.0	1	null	6	null	6	null	6	null	6	40.423415	17.846371
1098	2024-02-15 17:00:00	15	san_pancrazio_salentino	14.29	1	49.65	1	0.0	1	null	6	null	6	null	6	null	6	40.423415	17.846371
1099	2024-02-15 18:00:00	15	san_pancrazio_salentino	12.12	1	58.83	1	0.0	1	null	6	null	6	null	6	null	6	40.423415	17.846371
1100	2024-02-15 19:00:00	15	san_pancrazio_salentino	10.1	1	69.86	1	0.0	1	null	6	null	6	null	6	null	6	40.423415	17.846371
1101	2024-02-15 20:00:00	15	san_pancrazio_salentino	8.98	1	75.64	1	0.0	1	null	6	null	6	null	6	null	6	40.423415	17.846371
1102	2024-02-15 21:00:00	15	san_pancrazio_salentino	8.2	1	80.38	1	0.0	1	null	6	null	6	null	6	null	6	40.423415	17.846371
1103	2024-02-15 22:00:00	15	san_pancrazio_salentino	8.46	1	89.94	1	0.0	1	null	6	null	6	null	6	null	6	40.423415	17.846371
1104	2024-02-15 23:00:00	15	san_pancrazio_salentino	8.68	1	93.95	1	0.0	1	null	6	null	6	null	6	null	6	40.423415	17.846371
1105	2024-02-16 00:00:00	15	san_pancrazio_salentino	8.03	1	95.44	1	0.0	1	null	6	null	6	null	6	null	6	40.423415	17.846371
1106	2024-02-16 01:00:00	15	san_pancrazio_salentino	7.98	1	96.92	1	0.0	1	null	6	null	6	null	6	null	6	40.423415	17.846371
1107	2024-02-16 02:00:00	15	san_pancrazio_salentino	7.95	1	97.39	1	0.0	1	null	6	null	6	null	6	null	6	40.423415	17.846371
1108	2024-02-16 03:00:00	15	san_pancrazio_salentino	7.89	1	97.6	1	0.0	1	null	6	null	6	null	6	null	6	40.423415	17.846371
1109	2024-02-16 04:00:00	15	san_pancrazio_salentino	8.14	1	97.46	1	0.0	1	null	6	null	6	null	6	null	6	40.423415	17.846371
1110	2024-02-16 05:00:00	15	san_pancrazio_salentino	8.45	1	96.77	1	0.0	1	null	6	null	6	null	6	null	6	40.423415	17.846371
1111	2024-02-16 06:00:00	15	san_pancrazio_salentino	7.81	1	96.41	1	0.0	1	null	6	null	6	null	6	null	6	40.423415	17.846371
1112	2024-02-16 07:00:00	15	san_pancrazio_salentino	7.28	1	96.68	1	0.0	1	null	6	null	6	null	6	null	6	40.423415	17.846371
1113	2024-02-16 08:00:00	15	san_pancrazio_salentino	8.91	1	91.96	1	0.0	1	null	6	null	6	null	6	null	6	40.423415	17.846371
1114	2024-02-16 09:00:00	15	san_pancrazio_salentino	11.34	1	86.34	1	0.0	1	null	6	null	6	null	6	null	6	40.423415	17.846371
1115	2024-02-16 10:00:00	15	san_pancrazio_salentino	14.15	1	72.72	1	0.0	1	null	6	null	6	null	6	null	6	40.423415	17.846371
1116	2024-02-16 11:00:00	15	san_pancrazio_salentino	14.94	1	56.25	1	0.0	1	null	6	null	6	null	6	null	6	40.423415	17.846371
1117	2024-02-16 12:00:00	15	san_pancrazio_salentino	16.81	1	42.93	1	0.0	1	null	6	null	6	null	6	null	6	40.423415	17.846371
1118	2024-02-16 13:00:00	15	san_pancrazio_salentino	20.93	1	31.33	1	0.0	1	null	6	null	6	null	6	null	6	40.423415	17.846371
1119	2024-02-16 14:00:00	15	san_pancrazio_salentino	21.34	1	27.12	1	0.0	1	null	6	null	6	null	6	null	6	40.423415	17.846371
1120	2024-02-16 15:00:00	15	san_pancrazio_salentino	21.03	1	27.9	1	0.0	1	null	6	null	6	null	6	null	6	40.423415	17.846371
1121	2024-02-16 16:00:00	15	san_pancrazio_salentino	19.67	1	30.61	1	0.0	1	null	6	null	6	null	6	null	6	40.423415	17.846371
1122	2024-02-16 17:00:00	15	san_pancrazio_salentino	15.38	1	40.95	1	0.0	1	null	6	null	6	null	6	null	6	40.423415	17.846371
1123	2024-02-16 18:00:00	15	san_pancrazio_salentino	12.53	1	55.72	1	0.0	1	null	6	null	6	null	6	null	6	40.423415	17.846371
1124	2024-02-16 19:00:00	15	san_pancrazio_salentino	10.53	1	66.47	1	0.0	1	null	6	null	6	null	6	null	6	40.423415	17.846371
1125	2024-02-16 20:00:00	15	san_pancrazio_salentino	9.14	1	76.1	1	0.0	1	null	6	null	6	null	6	null	6	40.423415	17.846371
1126	2024-02-16 21:00:00	15	san_pancrazio_salentino	8.22	1	82.22	1	0.0	1	null	6	null	6	null	6	null	6	40.423415	17.846371
1127	2024-02-16 22:00:00	15	san_pancrazio_salentino	7.44	1	86.63	1	0.0	1	null	6	null	6	null	6	null	6	40.423415	17.846371
1128	2024-02-16 23:00:00	15	san_pancrazio_salentino	6.97	1	90.16	1	0.0	1	null	6	null	6	null	6	null	6	40.423415	17.846371
1129	2024-02-17 00:00:00	15	san_pancrazio_salentino	6.79	1	89.42	1	0.0	1	null	6	null	6	null	6	null	6	40.423415	17.846371
1130	2024-02-17 01:00:00	15	san_pancrazio_salentino	5.82	1	91.16	1	0.0	1	null	6	null	6	null	6	null	6	40.423415	17.846371
1131	2024-02-17 02:00:00	15	san_pancrazio_salentino	5.43	1	94.11	1	0.0	1	null	6	null	6	null	6	null	6	40.423415	17.846371
1132	2024-02-17 03:00:00	15	san_pancrazio_salentino	5.55	1	96.75	1	0.0	1	null	6	null	6	null	6	null	6	40.423415	17.846371
1133	2024-02-17 04:00:00	15	san_pancrazio_salentino	5.38	1	97.12	1	0.0	1	null	6	null	6	null	6	null	6	40.423415	17.846371
1134	2024-02-17 05:00:00	15	san_pancrazio_salentino	5.19	1	97.37	1	0.0	1	null	6	null	6	null	6	null	6	40.423415	17.846371
1135	2024-02-17 06:00:00	15	san_pancrazio_salentino	5.06	1	97.69	1	0.0	1	null	6	null	6	null	6	null	6	40.423415	17.846371
1136	2024-02-17 07:00:00	15	san_pancrazio_salentino	4.77	1	97.96	1	0.0	1	null	6	null	6	null	6	null	6	40.423415	17.846371
1137	2024-02-17 08:00:00	15	san_pancrazio_salentino	5.4	1	97.74	1	0.0	1	null	6	null	6	null	6	null	6	40.423415	17.846371
1138	2024-02-17 09:00:00	15	san_pancrazio_salentino	7.39	1	95.8	1	0.0	1	null	6	null	6	null	6	null	6	40.423415	17.846371
1139	2024-02-17 10:00:00	15	san_pancrazio_salentino	11.02	1	89.0	1	0.0	1	null	6	null	6	null	6	null	6	40.423415	17.846371
1140	2024-02-17 11:00:00	15	san_pancrazio_salentino	13.6	1	65.55	1	0.0	1	null	6	null	6	null	6	null	6	40.423415	17.846371
1141	2024-02-17 12:00:00	15	san_pancrazio_salentino	16.59	1	49.84	1	0.0	1	null	6	null	6	null	6	null	6	40.423415	17.846371
1142	2024-02-17 13:00:00	15	san_pancrazio_salentino	21.69	1	38.64	1	0.0	1	null	6	null	6	null	6	null	6	40.423415	17.846371
1143	2024-02-17 14:00:00	15	san_pancrazio_salentino	22.7	1	37.58	1	0.0	1	null	6	null	6	null	6	null	6	40.423415	17.846371
1144	2024-02-17 15:00:00	15	san_pancrazio_salentino	21.17	1	42.6	1	0.0	1	null	6	null	6	null	6	null	6	40.423415	17.846371
1145	2024-02-17 16:00:00	15	san_pancrazio_salentino	19.46	1	46.34	1	0.0	1	null	6	null	6	null	6	null	6	40.423415	17.846371
1146	2024-02-17 17:00:00	15	san_pancrazio_salentino	15.59	1	57.96	1	0.0	1	null	6	null	6	null	6	null	6	40.423415	17.846371
1147	2024-02-17 18:00:00	15	san_pancrazio_salentino	13.05	1	66.12	1	0.0	1	null	6	null	6	null	6	null	6	40.423415	17.846371
1148	2024-02-17 19:00:00	15	san_pancrazio_salentino	10.84	1	75.07	1	0.0	1	null	6	null	6	null	6	null	6	40.423415	17.846371
1149	2024-02-17 20:00:00	15	san_pancrazio_salentino	9.49	1	84.45	1	0.0	1	null	6	null	6	null	6	null	6	40.423415	17.846371
1150	2024-02-17 21:00:00	15	san_pancrazio_salentino	8.87	1	91.49	1	0.0	1	null	6	null	6	null	6	null	6	40.423415	17.846371
1151	2024-02-17 22:00:00	15	san_pancrazio_salentino	8.3	1	93.89	1	0.0	1	null	6	null	6	null	6	null	6	40.423415	17.846371
1152	2024-02-17 23:00:00	15	san_pancrazio_salentino	7.32	1	94.99	1	0.0	1	null	6	null	6	null	6	null	6	40.423415	17.846371
1153	2024-02-18 00:00:00	15	san_pancrazio_salentino	7.05	1	95.78	1	0.0	1	null	6	null	6	null	6	null	6	40.423415	17.846371
1154	2024-02-18 01:00:00	15	san_pancrazio_salentino	6.76	1	96.48	1	0.0	1	null	6	null	6	null	6	null	6	40.423415	17.846371
1155	2024-02-18 02:00:00	15	san_pancrazio_salentino	6.46	1	95.61	1	0.0	1	null	6	null	6	null	6	null	6	40.423415	17.846371
1156	2024-02-18 03:00:00	15	san_pancrazio_salentino	6.78	1	93.74	1	0.0	1	null	6	null	6	null	6	null	6	40.423415	17.846371
1157	2024-02-18 04:00:00	15	san_pancrazio_salentino	6.98	1	94.74	1	0.0	1	null	6	null	6	null	6	null	6	40.423415	17.846371
1158	2024-02-18 05:00:00	15	san_pancrazio_salentino	7.42	1	96.9	1	0.0	1	null	6	null	6	null	6	null	6	40.423415	17.846371
1159	2024-02-18 06:00:00	15	san_pancrazio_salentino	7.64	1	97.33	1	0.0	1	null	6	null	6	null	6	null	6	40.423415	17.846371
1160	2024-02-18 07:00:00	15	san_pancrazio_salentino	7.12	1	97.95	1	0.0	1	null	6	null	6	null	6	null	6	40.423415	17.846371
1161	2024-02-18 08:00:00	15	san_pancrazio_salentino	9.23	1	94.98	1	0.0	1	null	6	null	6	null	6	null	6	40.423415	17.846371
1162	2024-02-18 09:00:00	15	san_pancrazio_salentino	12.12	1	85.61	1	0.0	1	null	6	null	6	null	6	null	6	40.423415	17.846371
1163	2024-02-18 10:00:00	15	san_pancrazio_salentino	13.42	1	78.32	1	0.0	1	null	6	null	6	null	6	null	6	40.423415	17.846371
1164	2024-02-18 11:00:00	15	san_pancrazio_salentino	14.48	1	72.24	1	0.0	1	null	6	null	6	null	6	null	6	40.423415	17.846371
1165	2024-02-18 12:00:00	15	san_pancrazio_salentino	15.48	1	67.77	1	0.0	1	null	6	null	6	null	6	null	6	40.423415	17.846371
1166	2024-02-18 13:00:00	15	san_pancrazio_salentino	16.46	1	64.18	1	0.0	1	null	6	null	6	null	6	null	6	40.423415	17.846371
1167	2024-02-18 14:00:00	15	san_pancrazio_salentino	18.64	1	57.11	1	0.0	1	null	6	null	6	null	6	null	6	40.423415	17.846371
1168	2024-02-18 15:00:00	15	san_pancrazio_salentino	20.39	1	52.36	1	0.0	1	null	6	null	6	null	6	null	6	40.423415	17.846371
1169	2024-02-18 16:00:00	15	san_pancrazio_salentino	18.53	1	58.62	1	0.0	1	null	6	null	6	null	6	null	6	40.423415	17.846371
1170	2024-02-18 17:00:00	15	san_pancrazio_salentino	15.08	1	70.23	1	0.0	1	null	6	null	6	null	6	null	6	40.423415	17.846371
1171	2024-02-18 18:00:00	15	san_pancrazio_salentino	12.79	1	79.21	1	0.0	1	null	6	null	6	null	6	null	6	40.423415	17.846371
1172	2024-02-18 19:00:00	15	san_pancrazio_salentino	10.75	1	88.68	1	0.0	1	null	6	null	6	null	6	null	6	40.423415	17.846371
1173	2024-02-18 20:00:00	15	san_pancrazio_salentino	10.14	1	91.44	1	0.0	1	null	6	null	6	null	6	null	6	40.423415	17.846371
1174	2024-02-18 21:00:00	15	san_pancrazio_salentino	9.71	1	91.19	1	0.0	1	null	6	null	6	null	6	null	6	40.423415	17.846371
1175	2024-02-18 22:00:00	15	san_pancrazio_salentino	9.11	1	92.77	1	0.0	1	null	6	null	6	null	6	null	6	40.423415	17.846371
1176	2024-02-18 23:00:00	15	san_pancrazio_salentino	8.68	1	94.83	1	0.0	1	null	6	null	6	null	6	null	6	40.423415	17.846371
1177	2024-02-19 00:00:00	15	san_pancrazio_salentino	8.96	1	95.88	1	0.0	1	null	6	null	6	null	6	null	6	40.423415	17.846371
1178	2024-02-19 01:00:00	15	san_pancrazio_salentino	9.6	1	92.26	1	0.0	1	null	6	null	6	null	6	null	6	40.423415	17.846371
1179	2024-02-19 02:00:00	15	san_pancrazio_salentino	9.8	1	90.41	1	0.0	1	null	6	null	6	null	6	null	6	40.423415	17.846371
1180	2024-02-19 03:00:00	15	san_pancrazio_salentino	9.07	1	91.93	1	0.0	1	null	6	null	6	null	6	null	6	40.423415	17.846371
1181	2024-02-19 04:00:00	15	san_pancrazio_salentino	8.9	1	88.07	1	0.0	1	null	6	null	6	null	6	null	6	40.423415	17.846371
1182	2024-02-19 05:00:00	15	san_pancrazio_salentino	9.21	1	83.0	1	0.0	1	null	6	null	6	null	6	null	6	40.423415	17.846371
1183	2024-02-19 06:00:00	15	san_pancrazio_salentino	8.74	1	84.47	1	0.0	1	null	6	null	6	null	6	null	6	40.423415	17.846371
1184	2024-02-19 07:00:00	15	san_pancrazio_salentino	8.29	1	84.66	1	0.0	1	null	6	null	6	null	6	null	6	40.423415	17.846371
1185	2024-02-19 08:00:00	15	san_pancrazio_salentino	9.59	1	79.77	1	0.0	1	null	6	null	6	null	6	null	6	40.423415	17.846371
1186	2024-02-19 09:00:00	15	san_pancrazio_salentino	11.25	1	79.55	1	0.0	1	null	6	null	6	null	6	null	6	40.423415	17.846371
1187	2024-02-19 10:00:00	15	san_pancrazio_salentino	14.42	1	69.35	1	0.0	1	null	6	null	6	null	6	null	6	40.423415	17.846371
1188	2024-02-19 11:00:00	15	san_pancrazio_salentino	16.2	1	57.64	1	0.0	1	null	6	null	6	null	6	null	6	40.423415	17.846371
1189	2024-02-19 12:00:00	15	san_pancrazio_salentino	17.66	1	49.12	1	0.0	1	null	6	null	6	null	6	null	6	40.423415	17.846371
1190	2024-02-19 13:00:00	15	san_pancrazio_salentino	19.06	1	48.45	1	0.0	1	null	6	null	6	null	6	null	6	40.423415	17.846371
1191	2024-02-19 14:00:00	15	san_pancrazio_salentino	19.3	1	45.81	1	0.0	1	null	6	null	6	null	6	null	6	40.423415	17.846371
1192	2024-02-19 15:00:00	15	san_pancrazio_salentino	20.75	1	41.37	1	0.0	1	null	6	null	6	null	6	null	6	40.423415	17.846371
1193	2024-02-19 16:00:00	15	san_pancrazio_salentino	20.12	1	40.09	1	0.0	1	null	6	null	6	null	6	null	6	40.423415	17.846371
1194	2024-02-19 17:00:00	15	san_pancrazio_salentino	17.77	1	48.52	1	0.0	1	null	6	null	6	null	6	null	6	40.423415	17.846371
1195	2024-02-19 18:00:00	15	san_pancrazio_salentino	14.76	1	69.21	1	0.0	1	null	6	null	6	null	6	null	6	40.423415	17.846371
1196	2024-02-19 19:00:00	15	san_pancrazio_salentino	13.58	1	81.39	1	0.0	1	null	6	null	6	null	6	null	6	40.423415	17.846371
1197	2024-02-19 20:00:00	15	san_pancrazio_salentino	13.29	1	86.15	1	0.0	1	null	6	null	6	null	6	null	6	40.423415	17.846371
1198	2024-02-19 21:00:00	15	san_pancrazio_salentino	12.74	1	87.62	1	0.0	1	null	6	null	6	null	6	null	6	40.423415	17.846371
1199	2024-02-19 22:00:00	15	san_pancrazio_salentino	11.45	1	85.19	1	0.0	1	null	6	null	6	null	6	null	6	40.423415	17.846371
1200	2024-02-19 23:00:00	15	san_pancrazio_salentino	11.53	1	83.3	1	0.0	1	null	6	null	6	null	6	null	6	40.423415	17.846371
1201	2024-02-20 00:00:00	15	san_pancrazio_salentino	10.98	1	84.95	1	0.0	1	null	6	null	6	null	6	null	6	40.423415	17.846371
1202	2024-02-20 01:00:00	15	san_pancrazio_salentino	9.91	1	88.74	1	0.0	1	null	6	null	6	null	6	null	6	40.423415	17.846371
1203	2024-02-20 02:00:00	15	san_pancrazio_salentino	9.27	1	90.1	1	0.0	1	null	6	null	6	null	6	null	6	40.423415	17.846371
1204	2024-02-20 03:00:00	15	san_pancrazio_salentino	9.34	1	92.62	1	0.0	1	null	6	null	6	null	6	null	6	40.423415	17.846371
1205	2024-02-20 04:00:00	15	san_pancrazio_salentino	9.54	1	93.47	1	0.0	1	null	6	null	6	null	6	null	6	40.423415	17.846371
1206	2024-02-20 05:00:00	15	san_pancrazio_salentino	9.26	1	95.15	1	0.0	1	null	6	null	6	null	6	null	6	40.423415	17.846371
1207	2024-02-20 06:00:00	15	san_pancrazio_salentino	9.56	1	95.96	1	0.0	1	null	6	null	6	null	6	null	6	40.423415	17.846371
1208	2024-02-20 07:00:00	15	san_pancrazio_salentino	9.52	1	95.86	1	0.0	1	null	6	null	6	null	6	null	6	40.423415	17.846371
1209	2024-02-20 08:00:00	15	san_pancrazio_salentino	9.92	1	95.44	1	0.0	1	null	6	null	6	null	6	null	6	40.423415	17.846371
1210	2024-02-20 09:00:00	15	san_pancrazio_salentino	12.6	1	86.82	1	0.0	1	null	6	null	6	null	6	null	6	40.423415	17.846371
1211	2024-02-20 10:00:00	15	san_pancrazio_salentino	14.41	1	79.35	1	0.0	1	null	6	null	6	null	6	null	6	40.423415	17.846371
1212	2024-02-20 11:00:00	15	san_pancrazio_salentino	16.3	1	68.65	1	0.0	1	null	6	null	6	null	6	null	6	40.423415	17.846371
1213	2024-02-20 12:00:00	15	san_pancrazio_salentino	16.38	1	63.81	1	0.0	1	null	6	null	6	null	6	null	6	40.423415	17.846371
1214	2024-02-20 13:00:00	15	san_pancrazio_salentino	16.5	1	60.46	1	0.0	1	null	6	null	6	null	6	null	6	40.423415	17.846371
1215	2024-02-20 14:00:00	15	san_pancrazio_salentino	18.28	1	51.92	1	0.0	1	null	6	null	6	null	6	null	6	40.423415	17.846371
1216	2024-02-20 15:00:00	15	san_pancrazio_salentino	19.06	1	48.49	1	0.0	1	null	6	null	6	null	6	null	6	40.423415	17.846371
1217	2024-02-20 16:00:00	15	san_pancrazio_salentino	15.56	1	66.41	1	0.0	1	null	6	null	6	null	6	null	6	40.423415	17.846371
1218	2024-02-20 17:00:00	15	san_pancrazio_salentino	14.94	1	68.43	1	0.0	1	null	6	null	6	null	6	null	6	40.423415	17.846371
1219	2024-02-20 18:00:00	15	san_pancrazio_salentino	13.2	1	77.74	1	0.0	1	null	6	null	6	null	6	null	6	40.423415	17.846371
1220	2024-02-20 19:00:00	15	san_pancrazio_salentino	11.18	1	85.8	1	0.0	1	null	6	null	6	null	6	null	6	40.423415	17.846371
1221	2024-02-20 20:00:00	15	san_pancrazio_salentino	9.97	1	90.68	1	0.0	1	null	6	null	6	null	6	null	6	40.423415	17.846371
1222	2024-02-20 21:00:00	15	san_pancrazio_salentino	9.2	1	93.81	1	0.0	1	null	6	null	6	null	6	null	6	40.423415	17.846371
1223	2024-02-20 22:00:00	15	san_pancrazio_salentino	8.59	1	95.38	1	0.0	1	null	6	null	6	null	6	null	6	40.423415	17.846371
1224	2024-02-20 23:00:00	15	san_pancrazio_salentino	8.36	1	96.4	1	0.0	1	null	6	null	6	null	6	null	6	40.423415	17.846371
1225	2024-02-21 00:00:00	15	san_pancrazio_salentino	8.07	1	96.07	1	0.0	1	null	6	null	6	null	6	null	6	40.423415	17.846371
1226	2024-02-21 01:00:00	15	san_pancrazio_salentino	7.7	1	95.05	1	0.0	1	null	6	null	6	null	6	null	6	40.423415	17.846371
1227	2024-02-21 02:00:00	15	san_pancrazio_salentino	7.6	1	95.01	1	0.0	1	null	6	null	6	null	6	null	6	40.423415	17.846371
1228	2024-02-21 03:00:00	15	san_pancrazio_salentino	7.51	1	93.96	1	0.0	1	null	6	null	6	null	6	null	6	40.423415	17.846371
1229	2024-02-21 04:00:00	15	san_pancrazio_salentino	7.5	1	93.19	1	0.0	1	null	6	null	6	null	6	null	6	40.423415	17.846371
1230	2024-02-21 05:00:00	15	san_pancrazio_salentino	7.73	1	93.11	1	0.0	1	null	6	null	6	null	6	null	6	40.423415	17.846371
1231	2024-02-21 06:00:00	15	san_pancrazio_salentino	8.08	1	95.43	1	0.0	1	null	6	null	6	null	6	null	6	40.423415	17.846371
1232	2024-02-21 07:00:00	15	san_pancrazio_salentino	7.62	1	96.21	1	0.0	1	null	6	null	6	null	6	null	6	40.423415	17.846371
1233	2024-02-21 08:00:00	15	san_pancrazio_salentino	9.24	1	91.99	1	0.0	1	null	6	null	6	null	6	null	6	40.423415	17.846371
1234	2024-02-21 09:00:00	15	san_pancrazio_salentino	12.64	1	81.94	1	0.0	1	null	6	null	6	null	6	null	6	40.423415	17.846371
1235	2024-02-21 10:00:00	15	san_pancrazio_salentino	14.78	1	70.12	1	0.0	1	null	6	null	6	null	6	null	6	40.423415	17.846371
1236	2024-02-21 11:00:00	15	san_pancrazio_salentino	15.75	1	61.47	1	0.0	1	null	6	null	6	null	6	null	6	40.423415	17.846371
1237	2024-02-21 12:00:00	15	san_pancrazio_salentino	17.22	1	49.02	1	0.0	1	null	6	null	6	null	6	null	6	40.423415	17.846371
1238	2024-02-21 13:00:00	15	san_pancrazio_salentino	20.27	1	39.87	1	0.0	1	null	6	null	6	null	6	null	6	40.423415	17.846371
1239	2024-02-21 14:00:00	15	san_pancrazio_salentino	21.2	1	36.91	1	0.0	1	null	6	null	6	null	6	null	6	40.423415	17.846371
1240	2024-02-21 15:00:00	15	san_pancrazio_salentino	20.79	1	36.13	1	0.0	1	null	6	null	6	null	6	null	6	40.423415	17.846371
1241	2024-02-21 16:00:00	15	san_pancrazio_salentino	18.49	1	40.25	1	0.0	1	null	6	null	6	null	6	null	6	40.423415	17.846371
1242	2024-02-21 17:00:00	15	san_pancrazio_salentino	15.16	1	45.41	1	0.0	1	null	6	null	6	null	6	null	6	40.423415	17.846371
1243	2024-02-21 18:00:00	15	san_pancrazio_salentino	12.85	1	59.22	1	0.0	1	null	6	null	6	null	6	null	6	40.423415	17.846371
1244	2024-02-21 19:00:00	15	san_pancrazio_salentino	10.87	1	69.44	1	0.0	1	null	6	null	6	null	6	null	6	40.423415	17.846371
1245	2024-02-21 20:00:00	15	san_pancrazio_salentino	10.11	1	72.91	1	0.0	1	null	6	null	6	null	6	null	6	40.423415	17.846371
1246	2024-02-21 21:00:00	15	san_pancrazio_salentino	9.58	1	75.66	1	0.0	1	null	6	null	6	null	6	null	6	40.423415	17.846371
1247	2024-02-21 22:00:00	15	san_pancrazio_salentino	8.56	1	79.67	1	0.0	1	null	6	null	6	null	6	null	6	40.423415	17.846371
1248	2024-02-21 23:00:00	15	san_pancrazio_salentino	8.53	1	79.7	1	0.0	1	null	6	null	6	null	6	null	6	40.423415	17.846371
1249	2024-02-22 00:00:00	15	san_pancrazio_salentino	7.21	1	85.23	1	0.0	1	null	6	null	6	null	6	null	6	40.423415	17.846371
1250	2024-02-22 01:00:00	15	san_pancrazio_salentino	6.25	1	90.75	1	0.0	1	null	6	null	6	null	6	null	6	40.423415	17.846371
1251	2024-02-22 02:00:00	15	san_pancrazio_salentino	6.59	1	90.26	1	0.0	1	null	6	null	6	null	6	null	6	40.423415	17.846371
1252	2024-02-22 03:00:00	15	san_pancrazio_salentino	6.48	1	89.98	1	0.0	1	null	6	null	6	null	6	null	6	40.423415	17.846371
1253	2024-02-22 04:00:00	15	san_pancrazio_salentino	5.75	1	92.23	1	0.0	1	null	6	null	6	null	6	null	6	40.423415	17.846371
1254	2024-02-22 05:00:00	15	san_pancrazio_salentino	5.81	1	92.4	1	0.0	1	null	6	null	6	null	6	null	6	40.423415	17.846371
1255	2024-02-22 06:00:00	15	san_pancrazio_salentino	5.67	1	90.24	1	0.0	1	null	6	null	6	null	6	null	6	40.423415	17.846371
1256	2024-02-22 07:00:00	15	san_pancrazio_salentino	5.27	1	90.24	1	0.0	1	null	6	null	6	null	6	null	6	40.423415	17.846371
1257	2024-02-22 08:00:00	15	san_pancrazio_salentino	8.71	1	76.01	1	0.0	1	null	6	null	6	null	6	null	6	40.423415	17.846371
1258	2024-02-22 09:00:00	15	san_pancrazio_salentino	11.5	1	71.82	1	0.0	1	null	6	null	6	null	6	null	6	40.423415	17.846371
1259	2024-02-22 10:00:00	15	san_pancrazio_salentino	13.1	1	70.48	1	0.0	1	null	6	null	6	null	6	null	6	40.423415	17.846371
1260	2024-02-22 11:00:00	15	san_pancrazio_salentino	14.53	1	65.46	1	0.0	1	null	6	null	6	null	6	null	6	40.423415	17.846371
1261	2024-02-22 12:00:00	15	san_pancrazio_salentino	15.65	1	61.54	1	0.0	1	null	6	null	6	null	6	null	6	40.423415	17.846371
1262	2024-02-22 13:00:00	15	san_pancrazio_salentino	17.41	1	55.57	1	0.0	1	null	6	null	6	null	6	null	6	40.423415	17.846371
1263	2024-02-22 14:00:00	15	san_pancrazio_salentino	17.65	1	54.4	1	0.0	1	null	6	null	6	null	6	null	6	40.423415	17.846371
1264	2024-02-22 15:00:00	15	san_pancrazio_salentino	17.39	1	49.16	1	0.0	1	null	6	null	6	null	6	null	6	40.423415	17.846371
1265	2024-02-22 16:00:00	15	san_pancrazio_salentino	16.15	1	52.77	1	0.0	1	null	6	null	6	null	6	null	6	40.423415	17.846371
1266	2024-02-22 17:00:00	15	san_pancrazio_salentino	14.26	1	60.79	1	0.0	1	null	6	null	6	null	6	null	6	40.423415	17.846371
1267	2024-02-22 18:00:00	15	san_pancrazio_salentino	12.84	1	67.08	1	0.0	1	null	6	null	6	null	6	null	6	40.423415	17.846371
1268	2024-02-22 19:00:00	15	san_pancrazio_salentino	11.71	1	77.32	1	0.0	1	null	6	null	6	null	6	null	6	40.423415	17.846371
1269	2024-02-22 20:00:00	15	san_pancrazio_salentino	11.33	1	77.51	1	0.0	1	null	6	null	6	null	6	null	6	40.423415	17.846371
1270	2024-02-22 21:00:00	15	san_pancrazio_salentino	10.85	1	80.62	1	0.0	1	null	6	null	6	null	6	null	6	40.423415	17.846371
1271	2024-02-22 22:00:00	15	san_pancrazio_salentino	11.62	1	83.29	1	0.0	1	null	6	null	6	null	6	null	6	40.423415	17.846371
1272	2024-02-22 23:00:00	15	san_pancrazio_salentino	12.59	1	81.13	1	0.0	1	null	6	null	6	null	6	null	6	40.423415	17.846371
1273	2024-02-23 00:00:00	15	san_pancrazio_salentino	12.53	1	80.27	1	0.0	1	null	6	null	6	null	6	null	6	40.423415	17.846371
1274	2024-02-23 01:00:00	15	san_pancrazio_salentino	12.47	1	81.46	1	0.0	1	null	6	null	6	null	6	null	6	40.423415	17.846371
1275	2024-02-23 02:00:00	15	san_pancrazio_salentino	12.68	1	84.66	1	0.0	1	null	6	null	6	null	6	null	6	40.423415	17.846371
1276	2024-02-23 03:00:00	15	san_pancrazio_salentino	12.06	1	89.45	1	0.0	1	null	6	null	6	null	6	null	6	40.423415	17.846371
1277	2024-02-23 04:00:00	15	san_pancrazio_salentino	11.7	1	89.24	1	0.0	1	null	6	null	6	null	6	null	6	40.423415	17.846371
1278	2024-02-23 05:00:00	15	san_pancrazio_salentino	11.55	1	87.33	1	0.0	1	null	6	null	6	null	6	null	6	40.423415	17.846371
1279	2024-02-23 06:00:00	15	san_pancrazio_salentino	12.26	1	84.03	1	0.0	1	null	6	null	6	null	6	null	6	40.423415	17.846371
1280	2024-02-23 07:00:00	15	san_pancrazio_salentino	12.68	1	83.74	1	0.0	1	null	6	null	6	null	6	null	6	40.423415	17.846371
1281	2024-02-23 08:00:00	15	san_pancrazio_salentino	13.07	1	83.9	1	0.0	1	null	6	null	6	null	6	null	6	40.423415	17.846371
1282	2024-02-23 09:00:00	15	san_pancrazio_salentino	14.15	1	79.91	1	0.0	1	null	6	null	6	null	6	null	6	40.423415	17.846371
1283	2024-02-23 10:00:00	15	san_pancrazio_salentino	14.93	1	74.76	1	0.0	1	null	6	null	6	null	6	null	6	40.423415	17.846371
1284	2024-02-23 11:00:00	15	san_pancrazio_salentino	15.43	1	73.47	1	0.0	1	null	6	null	6	null	6	null	6	40.423415	17.846371
1285	2024-02-23 12:00:00	15	san_pancrazio_salentino	15.77	1	71.79	1	0.0	1	null	6	null	6	null	6	null	6	40.423415	17.846371
1286	2024-02-23 13:00:00	15	san_pancrazio_salentino	15.97	1	72.41	1	0.0	1	null	6	null	6	null	6	null	6	40.423415	17.846371
1287	2024-02-23 14:00:00	15	san_pancrazio_salentino	16.08	1	73.67	1	0.0	1	null	6	null	6	null	6	null	6	40.423415	17.846371
1288	2024-02-23 15:00:00	15	san_pancrazio_salentino	15.87	1	76.69	1	0.0	1	null	6	null	6	null	6	null	6	40.423415	17.846371
1289	2024-02-23 16:00:00	15	san_pancrazio_salentino	15.32	1	79.53	1	0.0	1	null	6	null	6	null	6	null	6	40.423415	17.846371
1290	2024-02-23 17:00:00	15	san_pancrazio_salentino	15.0	1	80.29	1	0.0	1	null	6	null	6	null	6	null	6	40.423415	17.846371
1291	2024-02-23 18:00:00	15	san_pancrazio_salentino	14.79	1	81.91	1	0.0	1	null	6	null	6	null	6	null	6	40.423415	17.846371
1292	2024-02-23 19:00:00	15	san_pancrazio_salentino	14.71	1	82.53	1	0.0	1	null	6	null	6	null	6	null	6	40.423415	17.846371
1293	2024-02-23 20:00:00	15	san_pancrazio_salentino	14.78	1	82.68	1	0.0	1	null	6	null	6	null	6	null	6	40.423415	17.846371
1294	2024-02-23 21:00:00	15	san_pancrazio_salentino	14.8	1	82.6	1	0.0	1	null	6	null	6	null	6	null	6	40.423415	17.846371
1295	2024-02-23 22:00:00	15	san_pancrazio_salentino	14.71	1	83.24	1	0.0	1	null	6	null	6	null	6	null	6	40.423415	17.846371
1296	2024-02-23 23:00:00	15	san_pancrazio_salentino	14.7	1	83.01	1	0.0	1	null	6	null	6	null	6	null	6	40.423415	17.846371
1297	2024-02-24 00:00:00	15	san_pancrazio_salentino	14.7	1	83.81	1	0.0	1	null	6	null	6	null	6	null	6	40.423415	17.846371
1298	2024-02-24 01:00:00	15	san_pancrazio_salentino	14.74	1	83.33	1	0.0	1	null	6	null	6	null	6	null	6	40.423415	17.846371
1299	2024-02-24 02:00:00	15	san_pancrazio_salentino	14.82	1	81.97	1	0.0	1	null	6	null	6	null	6	null	6	40.423415	17.846371
1300	2024-02-24 03:00:00	15	san_pancrazio_salentino	14.73	1	84.11	1	0.0	1	null	6	null	6	null	6	null	6	40.423415	17.846371
1301	2024-02-24 04:00:00	15	san_pancrazio_salentino	14.7	1	84.69	1	0.0	1	null	6	null	6	null	6	null	6	40.423415	17.846371
1302	2024-02-24 05:00:00	15	san_pancrazio_salentino	14.7	1	85.84	1	0.0	1	null	6	null	6	null	6	null	6	40.423415	17.846371
1303	2024-02-24 06:00:00	15	san_pancrazio_salentino	14.69	1	86.95	1	0.0	1	null	6	null	6	null	6	null	6	40.423415	17.846371
1304	2024-02-24 07:00:00	15	san_pancrazio_salentino	14.21	1	91.78	1	0.4	1	null	6	null	6	null	6	null	6	40.423415	17.846371
1305	2024-02-24 08:00:00	15	san_pancrazio_salentino	14.04	1	93.59	1	0.4	1	null	6	null	6	null	6	null	6	40.423415	17.846371
1306	2024-02-24 09:00:00	15	san_pancrazio_salentino	14.18	1	92.85	1	0.2	1	null	6	null	6	null	6	null	6	40.423415	17.846371
1307	2024-02-24 10:00:00	15	san_pancrazio_salentino	14.34	1	91.95	1	0.4	1	null	6	null	6	null	6	null	6	40.423415	17.846371
1308	2024-02-24 11:00:00	15	san_pancrazio_salentino	14.57	1	91.5	1	0.2	1	null	6	null	6	null	6	null	6	40.423415	17.846371
1309	2024-02-24 12:00:00	15	san_pancrazio_salentino	14.57	1	91.96	1	0.2	1	null	6	null	6	null	6	null	6	40.423415	17.846371
1310	2024-02-24 13:00:00	15	san_pancrazio_salentino	14.53	1	93.21	1	0.4	1	null	6	null	6	null	6	null	6	40.423415	17.846371
1311	2024-02-24 14:00:00	15	san_pancrazio_salentino	14.57	1	94.14	1	0.4	1	null	6	null	6	null	6	null	6	40.423415	17.846371
1312	2024-02-24 15:00:00	15	san_pancrazio_salentino	14.76	1	93.26	1	0.0	1	null	6	null	6	null	6	null	6	40.423415	17.846371
1313	2024-02-24 16:00:00	15	san_pancrazio_salentino	14.9	1	92.25	1	0.0	1	null	6	null	6	null	6	null	6	40.423415	17.846371
1314	2024-02-24 17:00:00	15	san_pancrazio_salentino	14.94	1	91.64	1	0.0	1	null	6	null	6	null	6	null	6	40.423415	17.846371
1315	2024-02-24 18:00:00	15	san_pancrazio_salentino	15.03	1	89.79	1	0.0	1	null	6	null	6	null	6	null	6	40.423415	17.846371
1316	2024-02-24 19:00:00	15	san_pancrazio_salentino	14.86	1	89.5	1	0.0	1	null	6	null	6	null	6	null	6	40.423415	17.846371
1317	2024-02-24 20:00:00	15	san_pancrazio_salentino	14.81	1	89.64	1	0.0	1	null	6	null	6	null	6	null	6	40.423415	17.846371
1318	2024-02-24 21:00:00	15	san_pancrazio_salentino	14.94	1	89.88	1	0.0	1	null	6	null	6	null	6	null	6	40.423415	17.846371
1319	2024-02-24 22:00:00	15	san_pancrazio_salentino	14.92	1	90.68	1	0.0	1	null	6	null	6	null	6	null	6	40.423415	17.846371
1320	2024-02-24 23:00:00	15	san_pancrazio_salentino	14.91	1	91.18	1	0.0	1	null	6	null	6	null	6	null	6	40.423415	17.846371
1321	2024-02-25 00:00:00	15	san_pancrazio_salentino	14.77	1	90.64	1	0.0	1	null	6	null	6	null	6	null	6	40.423415	17.846371
1322	2024-02-25 01:00:00	15	san_pancrazio_salentino	14.86	1	86.97	1	0.0	1	null	6	null	6	null	6	null	6	40.423415	17.846371
1323	2024-02-25 02:00:00	15	san_pancrazio_salentino	14.47	1	88.38	1	0.0	1	null	6	null	6	null	6	null	6	40.423415	17.846371
1324	2024-02-25 03:00:00	15	san_pancrazio_salentino	14.46	1	87.51	1	0.0	1	null	6	null	6	null	6	null	6	40.423415	17.846371
1325	2024-02-25 04:00:00	15	san_pancrazio_salentino	14.36	1	88.13	1	0.0	1	null	6	null	6	null	6	null	6	40.423415	17.846371
1326	2024-02-25 05:00:00	15	san_pancrazio_salentino	13.83	1	89.89	1	0.0	1	null	6	null	6	null	6	null	6	40.423415	17.846371
1327	2024-02-25 06:00:00	15	san_pancrazio_salentino	13.16	1	92.12	1	0.0	1	null	6	null	6	null	6	null	6	40.423415	17.846371
1328	2024-02-25 07:00:00	15	san_pancrazio_salentino	13.64	1	90.65	1	0.0	1	null	6	null	6	null	6	null	6	40.423415	17.846371
1329	2024-02-25 08:00:00	15	san_pancrazio_salentino	14.59	1	88.89	1	0.0	1	null	6	null	6	null	6	null	6	40.423415	17.846371
1330	2024-02-25 09:00:00	15	san_pancrazio_salentino	15.6	1	86.61	1	0.0	1	null	6	null	6	null	6	null	6	40.423415	17.846371
1331	2024-02-25 10:00:00	15	san_pancrazio_salentino	16.6	1	81.42	1	0.0	1	null	6	null	6	null	6	null	6	40.423415	17.846371
1332	2024-02-25 11:00:00	15	san_pancrazio_salentino	16.23	1	81.37	1	2.2	1	null	6	null	6	null	6	null	6	40.423415	17.846371
1333	2024-02-25 12:00:00	15	san_pancrazio_salentino	14.18	1	86.05	1	1.0	1	null	6	null	6	null	6	null	6	40.423415	17.846371
1334	2024-02-25 13:00:00	15	san_pancrazio_salentino	14.89	1	80.53	1	0.0	1	null	6	null	6	null	6	null	6	40.423415	17.846371
1335	2024-02-25 14:00:00	15	san_pancrazio_salentino	15.0	1	80.06	1	0.0	1	null	6	null	6	null	6	null	6	40.423415	17.846371
1336	2024-02-25 15:00:00	15	san_pancrazio_salentino	15.16	1	77.54	1	0.0	1	null	6	null	6	null	6	null	6	40.423415	17.846371
1337	2024-02-25 16:00:00	15	san_pancrazio_salentino	15.0	1	73.93	1	0.0	1	null	6	null	6	null	6	null	6	40.423415	17.846371
1338	2024-02-25 17:00:00	15	san_pancrazio_salentino	14.9	1	76.47	1	1.0	1	null	6	null	6	null	6	null	6	40.423415	17.846371
1339	2024-02-25 18:00:00	15	san_pancrazio_salentino	12.83	1	92.81	1	2.0	1	null	6	null	6	null	6	null	6	40.423415	17.846371
1340	2024-02-25 19:00:00	15	san_pancrazio_salentino	11.61	1	95.74	1	0.6	1	null	6	null	6	null	6	null	6	40.423415	17.846371
1341	2024-02-25 20:00:00	15	san_pancrazio_salentino	11.15	1	96.33	1	0.2	1	null	6	null	6	null	6	null	6	40.423415	17.846371
1342	2024-02-25 21:00:00	15	san_pancrazio_salentino	11.07	1	96.6	1	0.2	1	null	6	null	6	null	6	null	6	40.423415	17.846371
1343	2024-02-25 22:00:00	15	san_pancrazio_salentino	10.84	1	96.54	1	0.0	1	null	6	null	6	null	6	null	6	40.423415	17.846371
1344	2024-02-25 23:00:00	15	san_pancrazio_salentino	11.18	1	95.4	1	0.0	1	null	6	null	6	null	6	null	6	40.423415	17.846371
1345	2024-02-26 00:00:00	15	san_pancrazio_salentino	11.62	1	94.67	1	0.0	1	null	6	null	6	null	6	null	6	40.423415	17.846371
1346	2024-02-26 01:00:00	15	san_pancrazio_salentino	12.02	1	95.15	1	0.6	1	null	6	null	6	null	6	null	6	40.423415	17.846371
1347	2024-02-26 02:00:00	15	san_pancrazio_salentino	11.44	1	95.71	1	0.0	1	null	6	null	6	null	6	null	6	40.423415	17.846371
1348	2024-02-26 03:00:00	15	san_pancrazio_salentino	10.94	1	96.25	1	0.0	1	null	6	null	6	null	6	null	6	40.423415	17.846371
1349	2024-02-26 04:00:00	15	san_pancrazio_salentino	10.6	1	96.21	1	0.0	1	null	6	null	6	null	6	null	6	40.423415	17.846371
1350	2024-02-26 05:00:00	15	san_pancrazio_salentino	10.66	1	96.61	1	0.0	1	null	6	null	6	null	6	null	6	40.423415	17.846371
1351	2024-02-26 06:00:00	15	san_pancrazio_salentino	10.82	1	96.3	1	0.0	1	null	6	null	6	null	6	null	6	40.423415	17.846371
1352	2024-02-26 07:00:00	15	san_pancrazio_salentino	11.01	1	96.07	1	0.0	1	null	6	null	6	null	6	null	6	40.423415	17.846371
1353	2024-02-26 08:00:00	15	san_pancrazio_salentino	11.42	1	95.03	1	0.0	1	null	6	null	6	null	6	null	6	40.423415	17.846371
1354	2024-02-26 09:00:00	15	san_pancrazio_salentino	13.07	1	89.48	1	0.0	1	null	6	null	6	null	6	null	6	40.423415	17.846371
1355	2024-02-26 10:00:00	15	san_pancrazio_salentino	14.51	1	82.64	1	0.0	1	null	6	null	6	null	6	null	6	40.423415	17.846371
1356	2024-02-26 11:00:00	15	san_pancrazio_salentino	15.78	1	76.44	1	0.0	1	null	6	null	6	null	6	null	6	40.423415	17.846371
1357	2024-02-26 12:00:00	15	san_pancrazio_salentino	17.55	1	69.44	1	0.0	1	null	6	null	6	null	6	null	6	40.423415	17.846371
1358	2024-02-26 13:00:00	15	san_pancrazio_salentino	20.62	1	58.41	1	0.0	1	null	6	null	6	null	6	null	6	40.423415	17.846371
1359	2024-02-26 14:00:00	15	san_pancrazio_salentino	21.79	1	55.5	1	0.0	1	null	6	null	6	null	6	null	6	40.423415	17.846371
1360	2024-02-26 15:00:00	15	san_pancrazio_salentino	21.92	1	53.2	1	0.0	1	null	6	null	6	null	6	null	6	40.423415	17.846371
1361	2024-02-26 16:00:00	15	san_pancrazio_salentino	20.36	1	56.58	1	0.0	1	null	6	null	6	null	6	null	6	40.423415	17.846371
1362	2024-02-26 17:00:00	15	san_pancrazio_salentino	17.29	1	64.99	1	0.0	1	null	6	null	6	null	6	null	6	40.423415	17.846371
1363	2024-02-26 18:00:00	15	san_pancrazio_salentino	14.57	1	77.67	1	0.0	1	null	6	null	6	null	6	null	6	40.423415	17.846371
1364	2024-02-26 19:00:00	15	san_pancrazio_salentino	13.0	1	86.89	1	0.0	1	null	6	null	6	null	6	null	6	40.423415	17.846371
1365	2024-02-26 20:00:00	15	san_pancrazio_salentino	12.13	1	91.18	1	0.0	1	null	6	null	6	null	6	null	6	40.423415	17.846371
1366	2024-02-26 21:00:00	15	san_pancrazio_salentino	11.46	1	94.54	1	0.0	1	null	6	null	6	null	6	null	6	40.423415	17.846371
1367	2024-02-26 22:00:00	15	san_pancrazio_salentino	11.24	1	96.1	1	0.0	1	null	6	null	6	null	6	null	6	40.423415	17.846371
1368	2024-02-26 23:00:00	15	san_pancrazio_salentino	10.85	1	96.41	1	0.0	1	null	6	null	6	null	6	null	6	40.423415	17.846371
1369	2024-02-27 00:00:00	15	san_pancrazio_salentino	10.5	1	97.01	1	0.0	1	null	6	null	6	null	6	null	6	40.423415	17.846371
1370	2024-02-27 01:00:00	15	san_pancrazio_salentino	10.42	1	93.74	1	0.0	1	null	6	null	6	null	6	null	6	40.423415	17.846371
1371	2024-02-27 02:00:00	15	san_pancrazio_salentino	9.75	1	93.82	1	0.0	1	null	6	null	6	null	6	null	6	40.423415	17.846371
1372	2024-02-27 03:00:00	15	san_pancrazio_salentino	9.97	1	97.06	1	0.0	1	null	6	null	6	null	6	null	6	40.423415	17.846371
1373	2024-02-27 04:00:00	15	san_pancrazio_salentino	10.0	1	97.69	1	0.0	1	null	6	null	6	null	6	null	6	40.423415	17.846371
1374	2024-02-27 05:00:00	15	san_pancrazio_salentino	9.45	1	97.7	1	0.0	1	null	6	null	6	null	6	null	6	40.423415	17.846371
1375	2024-02-27 06:00:00	15	san_pancrazio_salentino	9.63	1	96.47	1	0.0	1	null	6	null	6	null	6	null	6	40.423415	17.846371
1376	2024-02-27 07:00:00	15	san_pancrazio_salentino	9.39	1	96.7	1	0.0	1	null	6	null	6	null	6	null	6	40.423415	17.846371
1377	2024-02-27 08:00:00	15	san_pancrazio_salentino	10.74	1	95.49	1	0.0	1	null	6	null	6	null	6	null	6	40.423415	17.846371
1378	2024-02-27 09:00:00	15	san_pancrazio_salentino	13.21	1	91.01	1	0.0	1	null	6	null	6	null	6	null	6	40.423415	17.846371
1379	2024-02-27 10:00:00	15	san_pancrazio_salentino	15.18	1	79.82	1	0.0	1	null	6	null	6	null	6	null	6	40.423415	17.846371
1380	2024-02-27 11:00:00	15	san_pancrazio_salentino	16.34	1	69.39	1	0.0	1	null	6	null	6	null	6	null	6	40.423415	17.846371
1381	2024-02-27 12:00:00	15	san_pancrazio_salentino	16.72	1	73.64	1	0.0	1	null	6	null	6	null	6	null	6	40.423415	17.846371
1382	2024-02-27 13:00:00	15	san_pancrazio_salentino	17.0	1	73.54	1	0.0	1	null	6	null	6	null	6	null	6	40.423415	17.846371
1383	2024-02-27 14:00:00	15	san_pancrazio_salentino	16.77	1	74.04	1	0.0	1	null	6	null	6	null	6	null	6	40.423415	17.846371
1384	2024-02-27 15:00:00	15	san_pancrazio_salentino	16.28	1	74.79	1	0.0	1	null	6	null	6	null	6	null	6	40.423415	17.846371
1385	2024-02-27 16:00:00	15	san_pancrazio_salentino	16.18	1	70.73	1	0.0	1	null	6	null	6	null	6	null	6	40.423415	17.846371
1386	2024-02-27 17:00:00	15	san_pancrazio_salentino	15.58	1	73.74	1	0.0	1	null	6	null	6	null	6	null	6	40.423415	17.846371
1387	2024-02-27 18:00:00	15	san_pancrazio_salentino	14.83	1	78.07	1	0.0	1	null	6	null	6	null	6	null	6	40.423415	17.846371
1388	2024-02-27 19:00:00	15	san_pancrazio_salentino	14.27	1	81.2	1	0.0	1	null	6	null	6	null	6	null	6	40.423415	17.846371
1389	2024-02-27 20:00:00	15	san_pancrazio_salentino	14.0	1	84.95	1	0.0	1	null	6	null	6	null	6	null	6	40.423415	17.846371
1390	2024-02-27 21:00:00	15	san_pancrazio_salentino	13.98	1	86.04	1	0.0	1	null	6	null	6	null	6	null	6	40.423415	17.846371
1391	2024-02-27 22:00:00	15	san_pancrazio_salentino	13.93	1	86.77	1	0.0	1	null	6	null	6	null	6	null	6	40.423415	17.846371
1392	2024-02-27 23:00:00	15	san_pancrazio_salentino	13.76	1	88.05	1	0.0	1	null	6	null	6	null	6	null	6	40.423415	17.846371
1393	2024-02-28 00:00:00	15	san_pancrazio_salentino	13.43	1	90.13	1	0.0	1	null	6	null	6	null	6	null	6	40.423415	17.846371
1394	2024-02-28 01:00:00	15	san_pancrazio_salentino	12.95	1	91.33	1	0.0	1	null	6	null	6	null	6	null	6	40.423415	17.846371
1395	2024-02-28 02:00:00	15	san_pancrazio_salentino	12.59	1	91.84	1	0.0	1	null	6	null	6	null	6	null	6	40.423415	17.846371
1396	2024-02-28 03:00:00	15	san_pancrazio_salentino	11.87	1	94.12	1	0.0	1	null	6	null	6	null	6	null	6	40.423415	17.846371
1397	2024-02-28 04:00:00	15	san_pancrazio_salentino	12.23	1	94.44	1	0.0	1	null	6	null	6	null	6	null	6	40.423415	17.846371
1398	2024-02-28 05:00:00	15	san_pancrazio_salentino	12.7	1	92.68	1	0.0	1	null	6	null	6	null	6	null	6	40.423415	17.846371
1399	2024-02-28 06:00:00	15	san_pancrazio_salentino	12.62	1	93.05	1	0.0	1	null	6	null	6	null	6	null	6	40.423415	17.846371
1400	2024-02-28 07:00:00	15	san_pancrazio_salentino	12.04	1	94.34	1	0.0	1	null	6	null	6	null	6	null	6	40.423415	17.846371
1401	2024-02-28 08:00:00	15	san_pancrazio_salentino	12.79	1	92.88	1	0.0	1	null	6	null	6	null	6	null	6	40.423415	17.846371
1402	2024-02-28 09:00:00	15	san_pancrazio_salentino	15.57	1	82.47	1	0.0	1	null	6	null	6	null	6	null	6	40.423415	17.846371
1403	2024-02-28 10:00:00	15	san_pancrazio_salentino	17.06	1	74.38	1	0.0	1	null	6	null	6	null	6	null	6	40.423415	17.846371
1404	2024-02-28 11:00:00	15	san_pancrazio_salentino	17.35	1	70.54	1	0.0	1	null	6	null	6	null	6	null	6	40.423415	17.846371
1405	2024-02-28 12:00:00	15	san_pancrazio_salentino	18.22	1	63.35	1	0.0	1	null	6	null	6	null	6	null	6	40.423415	17.846371
1406	2024-02-28 13:00:00	15	san_pancrazio_salentino	18.54	1	60.67	1	0.0	1	null	6	null	6	null	6	null	6	40.423415	17.846371
1407	2024-02-28 14:00:00	15	san_pancrazio_salentino	18.58	1	61.04	1	0.0	1	null	6	null	6	null	6	null	6	40.423415	17.846371
1408	2024-02-28 15:00:00	15	san_pancrazio_salentino	18.78	1	60.64	1	0.0	1	null	6	null	6	null	6	null	6	40.423415	17.846371
1409	2024-02-28 16:00:00	15	san_pancrazio_salentino	18.22	1	63.04	1	0.0	1	null	6	null	6	null	6	null	6	40.423415	17.846371
1410	2024-02-28 17:00:00	15	san_pancrazio_salentino	17.41	1	64.11	1	0.0	1	null	6	null	6	null	6	null	6	40.423415	17.846371
1411	2024-02-28 18:00:00	15	san_pancrazio_salentino	17.15	1	61.67	1	0.0	1	null	6	null	6	null	6	null	6	40.423415	17.846371
1412	2024-02-28 19:00:00	15	san_pancrazio_salentino	16.01	1	67.42	1	0.0	1	null	6	null	6	null	6	null	6	40.423415	17.846371
1413	2024-02-28 20:00:00	15	san_pancrazio_salentino	15.18	1	75.2	1	0.0	1	null	6	null	6	null	6	null	6	40.423415	17.846371
1414	2024-02-28 21:00:00	15	san_pancrazio_salentino	14.29	1	82.63	1	0.0	1	null	6	null	6	null	6	null	6	40.423415	17.846371
1415	2024-02-28 22:00:00	15	san_pancrazio_salentino	13.8	1	86.82	1	0.0	1	null	6	null	6	null	6	null	6	40.423415	17.846371
1416	2024-02-28 23:00:00	15	san_pancrazio_salentino	13.82	1	88.92	1	0.0	1	null	6	null	6	null	6	null	6	40.423415	17.846371
1417	2024-02-29 00:00:00	15	san_pancrazio_salentino	13.71	1	89.71	1	0.0	1	null	6	null	6	null	6	null	6	40.423415	17.846371
1418	2024-02-29 01:00:00	15	san_pancrazio_salentino	13.58	1	91.11	1	0.0	1	null	6	null	6	null	6	null	6	40.423415	17.846371
1419	2024-02-29 02:00:00	15	san_pancrazio_salentino	13.11	1	93.21	1	0.0	1	null	6	null	6	null	6	null	6	40.423415	17.846371
1420	2024-02-29 03:00:00	15	san_pancrazio_salentino	13.44	1	91.63	1	0.0	1	null	6	null	6	null	6	null	6	40.423415	17.846371
1421	2024-02-29 04:00:00	15	san_pancrazio_salentino	14.01	1	87.69	1	0.0	1	null	6	null	6	null	6	null	6	40.423415	17.846371
1422	2024-02-29 05:00:00	15	san_pancrazio_salentino	13.59	1	89.54	1	0.0	1	null	6	null	6	null	6	null	6	40.423415	17.846371
1423	2024-02-29 06:00:00	15	san_pancrazio_salentino	13.2	1	89.14	1	0.0	1	null	6	null	6	null	6	null	6	40.423415	17.846371
1424	2024-02-29 07:00:00	15	san_pancrazio_salentino	12.74	1	89.62	1	0.0	1	null	6	null	6	null	6	null	6	40.423415	17.846371
1425	2024-02-29 08:00:00	15	san_pancrazio_salentino	13.42	1	85.45	1	0.0	1	null	6	null	6	null	6	null	6	40.423415	17.846371
1426	2024-02-29 09:00:00	15	san_pancrazio_salentino	15.38	1	77.9	1	0.0	1	null	6	null	6	null	6	null	6	40.423415	17.846371
1427	2024-02-29 10:00:00	15	san_pancrazio_salentino	17.55	1	67.59	1	0.0	1	null	6	null	6	null	6	null	6	40.423415	17.846371
1428	2024-02-29 11:00:00	15	san_pancrazio_salentino	18.57	1	60.4	1	0.0	1	null	6	null	6	null	6	null	6	40.423415	17.846371
1429	2024-02-29 12:00:00	15	san_pancrazio_salentino	18.88	1	56.0	1	0.0	1	null	6	null	6	null	6	null	6	40.423415	17.846371
1430	2024-02-29 13:00:00	15	san_pancrazio_salentino	18.29	1	60.61	1	0.0	1	null	6	null	6	null	6	null	6	40.423415	17.846371
1431	2024-02-29 14:00:00	15	san_pancrazio_salentino	17.75	1	64.76	1	0.0	1	null	6	null	6	null	6	null	6	40.423415	17.846371
1432	2024-02-29 15:00:00	15	san_pancrazio_salentino	15.83	1	81.73	1	0.4	1	null	6	null	6	null	6	null	6	40.423415	17.846371
1433	2024-02-29 16:00:00	15	san_pancrazio_salentino	15.69	1	81.51	1	0.2	1	null	6	null	6	null	6	null	6	40.423415	17.846371
1434	2024-02-29 17:00:00	15	san_pancrazio_salentino	13.76	1	89.87	1	7.4	1	null	6	null	6	null	6	null	6	40.423415	17.846371
1435	2024-02-29 18:00:00	15	san_pancrazio_salentino	12.11	1	96.82	1	5.2	1	null	6	null	6	null	6	null	6	40.423415	17.846371
1436	2024-02-29 19:00:00	15	san_pancrazio_salentino	11.68	1	97.61	1	3.0	1	null	6	null	6	null	6	null	6	40.423415	17.846371
1437	2024-02-29 20:00:00	15	san_pancrazio_salentino	11.48	1	97.76	1	3.6	1	null	6	null	6	null	6	null	6	40.423415	17.846371
1438	2024-02-29 21:00:00	15	san_pancrazio_salentino	11.27	1	97.27	1	2.6	1	null	6	null	6	null	6	null	6	40.423415	17.846371
1439	2024-02-29 22:00:00	15	san_pancrazio_salentino	10.75	1	94.56	1	0.0	1	null	6	null	6	null	6	null	6	40.423415	17.846371
1440	2024-02-29 23:00:00	15	san_pancrazio_salentino	10.35	1	94.96	1	0.0	1	null	6	null	6	null	6	null	6	40.423415	17.846371
1441	2024-03-01 00:00:00	15	san_pancrazio_salentino	10.13	1	96.18	1	0.2	1	null	6	null	6	null	6	null	6	40.423415	17.846371
1442	2024-03-01 01:00:00	15	san_pancrazio_salentino	10.35	1	95.74	1	0.0	1	null	6	null	6	null	6	null	6	40.423415	17.846371
1443	2024-03-01 02:00:00	15	san_pancrazio_salentino	10.71	1	95.49	1	0.0	1	null	6	null	6	null	6	null	6	40.423415	17.846371
1444	2024-03-01 03:00:00	15	san_pancrazio_salentino	10.88	1	94.73	1	0.0	1	null	6	null	6	null	6	null	6	40.423415	17.846371
1445	2024-03-01 04:00:00	15	san_pancrazio_salentino	10.78	1	94.82	1	0.0	1	null	6	null	6	null	6	null	6	40.423415	17.846371
1446	2024-03-01 05:00:00	15	san_pancrazio_salentino	10.36	1	95.25	1	0.0	1	null	6	null	6	null	6	null	6	40.423415	17.846371
1447	2024-03-01 06:00:00	15	san_pancrazio_salentino	10.07	1	95.15	1	0.0	1	null	6	null	6	null	6	null	6	40.423415	17.846371
1448	2024-03-01 07:00:00	15	san_pancrazio_salentino	9.62	1	95.42	1	0.0	1	null	6	null	6	null	6	null	6	40.423415	17.846371
1449	2024-03-01 08:00:00	15	san_pancrazio_salentino	11.78	1	88.65	1	0.0	1	null	6	null	6	null	6	null	6	40.423415	17.846371
1450	2024-03-01 09:00:00	15	san_pancrazio_salentino	13.98	1	81.73	1	0.0	1	null	6	null	6	null	6	null	6	40.423415	17.846371
1451	2024-03-01 10:00:00	15	san_pancrazio_salentino	14.78	1	75.97	1	0.0	1	null	6	null	6	null	6	null	6	40.423415	17.846371
1452	2024-03-01 11:00:00	15	san_pancrazio_salentino	15.43	1	70.27	1	0.0	1	null	6	null	6	null	6	null	6	40.423415	17.846371
1453	2024-03-01 12:00:00	15	san_pancrazio_salentino	16.09	1	67.92	1	0.0	1	null	6	null	6	null	6	null	6	40.423415	17.846371
1454	2024-03-01 13:00:00	15	san_pancrazio_salentino	17.51	1	60.49	1	0.0	1	null	6	null	6	null	6	null	6	40.423415	17.846371
1455	2024-03-01 14:00:00	15	san_pancrazio_salentino	17.73	1	55.87	1	0.0	1	null	6	null	6	null	6	null	6	40.423415	17.846371
1456	2024-03-01 15:00:00	15	san_pancrazio_salentino	17.89	1	59.55	1	0.0	1	null	6	null	6	null	6	null	6	40.423415	17.846371
1457	2024-03-01 16:00:00	15	san_pancrazio_salentino	17.07	1	62.33	1	0.0	1	null	6	null	6	null	6	null	6	40.423415	17.846371
1458	2024-03-01 17:00:00	15	san_pancrazio_salentino	15.15	1	70.68	1	0.0	1	null	6	null	6	null	6	null	6	40.423415	17.846371
1459	2024-03-01 18:00:00	15	san_pancrazio_salentino	13.95	1	81.43	1	0.0	1	null	6	null	6	null	6	null	6	40.423415	17.846371
1460	2024-03-01 19:00:00	15	san_pancrazio_salentino	12.89	1	85.32	1	0.0	1	null	6	null	6	null	6	null	6	40.423415	17.846371
1461	2024-03-01 20:00:00	15	san_pancrazio_salentino	12.75	1	86.19	1	0.0	1	null	6	null	6	null	6	null	6	40.423415	17.846371
1462	2024-03-01 21:00:00	15	san_pancrazio_salentino	12.34	1	87.67	1	0.0	1	null	6	null	6	null	6	null	6	40.423415	17.846371
1463	2024-03-01 22:00:00	15	san_pancrazio_salentino	11.36	1	91.29	1	0.0	1	null	6	null	6	null	6	null	6	40.423415	17.846371
1464	2024-03-01 23:00:00	15	san_pancrazio_salentino	11.69	1	88.93	1	0.0	1	null	6	null	6	null	6	null	6	40.423415	17.846371
1465	2024-03-02 00:00:00	15	san_pancrazio_salentino	10.72	1	93.86	1	0.0	1	null	6	null	6	null	6	null	6	40.423415	17.846371
1466	2024-03-02 01:00:00	15	san_pancrazio_salentino	10.61	1	96.0	1	0.0	1	null	6	null	6	null	6	null	6	40.423415	17.846371
1467	2024-03-02 02:00:00	15	san_pancrazio_salentino	10.85	1	95.93	1	0.0	1	null	6	null	6	null	6	null	6	40.423415	17.846371
1468	2024-03-02 03:00:00	15	san_pancrazio_salentino	10.81	1	95.76	1	0.0	1	null	6	null	6	null	6	null	6	40.423415	17.846371
1469	2024-03-02 04:00:00	15	san_pancrazio_salentino	9.94	1	96.51	1	0.0	1	null	6	null	6	null	6	null	6	40.423415	17.846371
1470	2024-03-02 05:00:00	15	san_pancrazio_salentino	9.46	1	97.75	1	0.0	1	null	6	null	6	null	6	null	6	40.423415	17.846371
1471	2024-03-02 06:00:00	15	san_pancrazio_salentino	8.87	1	97.96	1	0.0	1	null	6	null	6	null	6	null	6	40.423415	17.846371
1472	2024-03-02 07:00:00	15	san_pancrazio_salentino	9.19	1	98.45	1	0.0	1	null	6	null	6	null	6	null	6	40.423415	17.846371
1473	2024-03-02 08:00:00	15	san_pancrazio_salentino	11.75	1	94.5	1	0.0	1	null	6	null	6	null	6	null	6	40.423415	17.846371
1474	2024-03-02 09:00:00	15	san_pancrazio_salentino	13.98	1	87.11	1	0.0	1	null	6	null	6	null	6	null	6	40.423415	17.846371
1475	2024-03-02 10:00:00	15	san_pancrazio_salentino	14.73	1	75.8	1	0.0	1	null	6	null	6	null	6	null	6	40.423415	17.846371
1476	2024-03-02 11:00:00	15	san_pancrazio_salentino	15.88	1	61.87	1	0.0	1	null	6	null	6	null	6	null	6	40.423415	17.846371
1477	2024-03-02 12:00:00	15	san_pancrazio_salentino	17.03	1	52.29	1	0.0	1	null	6	null	6	null	6	null	6	40.423415	17.846371
1478	2024-03-02 13:00:00	15	san_pancrazio_salentino	19.42	1	44.0	1	0.0	1	null	6	null	6	null	6	null	6	40.423415	17.846371
1479	2024-03-02 14:00:00	15	san_pancrazio_salentino	19.94	1	42.16	1	0.0	1	null	6	null	6	null	6	null	6	40.423415	17.846371
1480	2024-03-02 15:00:00	15	san_pancrazio_salentino	19.86	1	43.85	1	0.0	1	null	6	null	6	null	6	null	6	40.423415	17.846371
1481	2024-03-02 16:00:00	15	san_pancrazio_salentino	18.51	1	51.91	1	0.0	1	null	6	null	6	null	6	null	6	40.423415	17.846371
1482	2024-03-02 17:00:00	15	san_pancrazio_salentino	16.27	1	60.62	1	0.0	1	null	6	null	6	null	6	null	6	40.423415	17.846371
1483	2024-03-02 18:00:00	15	san_pancrazio_salentino	14.76	1	70.29	1	0.0	1	null	6	null	6	null	6	null	6	40.423415	17.846371
1484	2024-03-02 19:00:00	15	san_pancrazio_salentino	13.28	1	81.98	1	0.0	1	null	6	null	6	null	6	null	6	40.423415	17.846371
1485	2024-03-02 20:00:00	15	san_pancrazio_salentino	12.96	1	88.11	1	0.0	1	null	6	null	6	null	6	null	6	40.423415	17.846371
1486	2024-03-02 21:00:00	15	san_pancrazio_salentino	12.38	1	89.84	1	0.0	1	null	6	null	6	null	6	null	6	40.423415	17.846371
1487	2024-03-02 22:00:00	15	san_pancrazio_salentino	12.56	1	90.47	1	0.0	1	null	6	null	6	null	6	null	6	40.423415	17.846371
1488	2024-03-02 23:00:00	15	san_pancrazio_salentino	11.47	1	93.36	1	0.0	1	null	6	null	6	null	6	null	6	40.423415	17.846371
1489	2024-03-03 00:00:00	15	san_pancrazio_salentino	11.01	1	93.74	1	0.0	1	null	6	null	6	null	6	null	6	40.423415	17.846371
1490	2024-03-03 01:00:00	15	san_pancrazio_salentino	11.68	1	90.48	1	0.0	1	null	6	null	6	null	6	null	6	40.423415	17.846371
1491	2024-03-03 02:00:00	15	san_pancrazio_salentino	11.54	1	87.09	1	0.0	1	null	6	null	6	null	6	null	6	40.423415	17.846371
1492	2024-03-03 03:00:00	15	san_pancrazio_salentino	10.67	1	88.69	1	0.0	1	null	6	null	6	null	6	null	6	40.423415	17.846371
1493	2024-03-03 04:00:00	15	san_pancrazio_salentino	10.22	1	86.02	1	0.0	1	null	6	null	6	null	6	null	6	40.423415	17.846371
1494	2024-03-03 05:00:00	15	san_pancrazio_salentino	10.57	1	80.76	1	0.0	1	null	6	null	6	null	6	null	6	40.423415	17.846371
1495	2024-03-03 06:00:00	15	san_pancrazio_salentino	9.2	1	88.57	1	0.0	1	null	6	null	6	null	6	null	6	40.423415	17.846371
1496	2024-03-03 07:00:00	15	san_pancrazio_salentino	8.65	1	94.2	1	0.0	1	null	6	null	6	null	6	null	6	40.423415	17.846371
1497	2024-03-03 08:00:00	15	san_pancrazio_salentino	11.57	1	88.5	1	0.0	1	null	6	null	6	null	6	null	6	40.423415	17.846371
1498	2024-03-03 09:00:00	15	san_pancrazio_salentino	13.96	1	73.66	1	0.0	1	null	6	null	6	null	6	null	6	40.423415	17.846371
1499	2024-03-03 10:00:00	15	san_pancrazio_salentino	15.48	1	54.8	1	0.0	1	null	6	null	6	null	6	null	6	40.423415	17.846371
1500	2024-03-03 11:00:00	15	san_pancrazio_salentino	16.06	1	55.3	1	0.0	1	null	6	null	6	null	6	null	6	40.423415	17.846371
1501	2024-03-03 12:00:00	15	san_pancrazio_salentino	16.95	1	53.71	1	0.0	1	null	6	null	6	null	6	null	6	40.423415	17.846371
1502	2024-03-03 13:00:00	15	san_pancrazio_salentino	18.71	1	48.78	1	0.0	1	null	6	null	6	null	6	null	6	40.423415	17.846371
1503	2024-03-03 14:00:00	15	san_pancrazio_salentino	17.99	1	57.01	1	0.0	1	null	6	null	6	null	6	null	6	40.423415	17.846371
1504	2024-03-03 15:00:00	15	san_pancrazio_salentino	17.88	1	59.26	1	0.0	1	null	6	null	6	null	6	null	6	40.423415	17.846371
1505	2024-03-03 16:00:00	15	san_pancrazio_salentino	17.39	1	61.04	1	0.0	1	null	6	null	6	null	6	null	6	40.423415	17.846371
1506	2024-03-03 17:00:00	15	san_pancrazio_salentino	15.38	1	65.18	1	0.0	1	null	6	null	6	null	6	null	6	40.423415	17.846371
1507	2024-03-03 18:00:00	15	san_pancrazio_salentino	14.13	1	77.35	1	0.0	1	null	6	null	6	null	6	null	6	40.423415	17.846371
1508	2024-03-03 19:00:00	15	san_pancrazio_salentino	13.35	1	82.09	1	0.0	1	null	6	null	6	null	6	null	6	40.423415	17.846371
1509	2024-03-03 20:00:00	15	san_pancrazio_salentino	13.27	1	78.58	1	0.0	1	null	6	null	6	null	6	null	6	40.423415	17.846371
1510	2024-03-03 21:00:00	15	san_pancrazio_salentino	13.15	1	79.8	1	0.0	1	null	6	null	6	null	6	null	6	40.423415	17.846371
1511	2024-03-03 22:00:00	15	san_pancrazio_salentino	13.32	1	80.78	1	0.0	1	null	6	null	6	null	6	null	6	40.423415	17.846371
1512	2024-03-03 23:00:00	15	san_pancrazio_salentino	13.73	1	81.63	1	0.0	1	null	6	null	6	null	6	null	6	40.423415	17.846371
1513	2024-03-04 00:00:00	15	san_pancrazio_salentino	13.65	1	83.12	1	0.0	1	null	6	null	6	null	6	null	6	40.423415	17.846371
1514	2024-03-04 01:00:00	15	san_pancrazio_salentino	13.66	1	83.85	1	0.0	1	null	6	null	6	null	6	null	6	40.423415	17.846371
1515	2024-03-04 02:00:00	15	san_pancrazio_salentino	13.95	1	84.12	1	0.0	1	null	6	null	6	null	6	null	6	40.423415	17.846371
1516	2024-03-04 03:00:00	15	san_pancrazio_salentino	13.99	1	83.79	1	0.0	1	null	6	null	6	null	6	null	6	40.423415	17.846371
1517	2024-03-04 04:00:00	15	san_pancrazio_salentino	14.07	1	82.51	1	0.0	1	null	6	null	6	null	6	null	6	40.423415	17.846371
1518	2024-03-04 05:00:00	15	san_pancrazio_salentino	13.99	1	84.09	1	0.0	1	null	6	null	6	null	6	null	6	40.423415	17.846371
1519	2024-03-04 06:00:00	15	san_pancrazio_salentino	13.89	1	84.17	1	0.0	1	null	6	null	6	null	6	null	6	40.423415	17.846371
1520	2024-03-04 07:00:00	15	san_pancrazio_salentino	13.98	1	84.16	1	0.0	1	null	6	null	6	null	6	null	6	40.423415	17.846371
1521	2024-03-04 08:00:00	15	san_pancrazio_salentino	14.16	1	82.92	1	0.0	1	null	6	null	6	null	6	null	6	40.423415	17.846371
1522	2024-03-04 09:00:00	15	san_pancrazio_salentino	14.52	1	78.57	1	0.0	1	null	6	null	6	null	6	null	6	40.423415	17.846371
1523	2024-03-04 10:00:00	15	san_pancrazio_salentino	14.66	1	78.46	1	0.0	1	null	6	null	6	null	6	null	6	40.423415	17.846371
1524	2024-03-04 11:00:00	15	san_pancrazio_salentino	12.48	1	85.57	1	4.4	1	null	6	null	6	null	6	null	6	40.423415	17.846371
1525	2024-03-04 12:00:00	15	san_pancrazio_salentino	9.01	1	96.52	1	2.8	1	null	6	null	6	null	6	null	6	40.423415	17.846371
1526	2024-03-04 13:00:00	15	san_pancrazio_salentino	9.39	1	95.89	1	1.0	1	null	6	null	6	null	6	null	6	40.423415	17.846371
1527	2024-03-04 14:00:00	15	san_pancrazio_salentino	10.31	1	88.85	1	0.2	1	null	6	null	6	null	6	null	6	40.423415	17.846371
1528	2024-03-04 15:00:00	15	san_pancrazio_salentino	10.7	1	88.19	1	0.0	1	null	6	null	6	null	6	null	6	40.423415	17.846371
1529	2024-03-04 16:00:00	15	san_pancrazio_salentino	11.35	1	82.75	1	0.0	1	null	6	null	6	null	6	null	6	40.423415	17.846371
1530	2024-03-04 17:00:00	15	san_pancrazio_salentino	11.86	1	78.68	1	0.0	1	null	6	null	6	null	6	null	6	40.423415	17.846371
1531	2024-03-04 18:00:00	15	san_pancrazio_salentino	10.93	1	79.03	1	0.0	1	null	6	null	6	null	6	null	6	40.423415	17.846371
1532	2024-03-04 19:00:00	15	san_pancrazio_salentino	9.53	1	86.09	1	0.0	1	null	6	null	6	null	6	null	6	40.423415	17.846371
1533	2024-03-04 20:00:00	15	san_pancrazio_salentino	8.96	1	86.58	1	0.0	1	null	6	null	6	null	6	null	6	40.423415	17.846371
1534	2024-03-04 21:00:00	15	san_pancrazio_salentino	7.77	1	91.1	1	0.0	1	null	6	null	6	null	6	null	6	40.423415	17.846371
1535	2024-03-04 22:00:00	15	san_pancrazio_salentino	6.91	1	93.99	1	0.0	1	null	6	null	6	null	6	null	6	40.423415	17.846371
1536	2024-03-04 23:00:00	15	san_pancrazio_salentino	6.72	1	94.19	1	0.0	1	null	6	null	6	null	6	null	6	40.423415	17.846371
1537	2024-03-05 00:00:00	15	san_pancrazio_salentino	6.78	1	94.32	1	0.0	1	null	6	null	6	null	6	null	6	40.423415	17.846371
1538	2024-03-05 01:00:00	15	san_pancrazio_salentino	6.89	1	93.55	1	0.0	1	null	6	null	6	null	6	null	6	40.423415	17.846371
1539	2024-03-05 02:00:00	15	san_pancrazio_salentino	6.99	1	92.36	1	0.0	1	null	6	null	6	null	6	null	6	40.423415	17.846371
1540	2024-03-05 03:00:00	15	san_pancrazio_salentino	5.51	1	93.79	1	0.0	1	null	6	null	6	null	6	null	6	40.423415	17.846371
1541	2024-03-05 04:00:00	15	san_pancrazio_salentino	5.27	1	95.27	1	0.0	1	null	6	null	6	null	6	null	6	40.423415	17.846371
1542	2024-03-05 05:00:00	15	san_pancrazio_salentino	4.88	1	95.98	1	0.0	1	null	6	null	6	null	6	null	6	40.423415	17.846371
1543	2024-03-05 06:00:00	15	san_pancrazio_salentino	4.51	1	94.9	1	0.0	1	null	6	null	6	null	6	null	6	40.423415	17.846371
1544	2024-03-05 07:00:00	15	san_pancrazio_salentino	4.64	1	94.2	1	0.0	1	null	6	null	6	null	6	null	6	40.423415	17.846371
1545	2024-03-05 08:00:00	15	san_pancrazio_salentino	6.45	1	91.15	1	0.0	1	null	6	null	6	null	6	null	6	40.423415	17.846371
1546	2024-03-05 09:00:00	15	san_pancrazio_salentino	9.75	1	89.34	1	0.0	1	null	6	null	6	null	6	null	6	40.423415	17.846371
1547	2024-03-05 10:00:00	15	san_pancrazio_salentino	12.73	1	79.63	1	0.0	1	null	6	null	6	null	6	null	6	40.423415	17.846371
1548	2024-03-05 11:00:00	15	san_pancrazio_salentino	14.44	1	68.01	1	0.0	1	null	6	null	6	null	6	null	6	40.423415	17.846371
1549	2024-03-05 12:00:00	15	san_pancrazio_salentino	15.41	1	60.81	1	0.0	1	null	6	null	6	null	6	null	6	40.423415	17.846371
1550	2024-03-05 13:00:00	15	san_pancrazio_salentino	15.04	1	63.2	1	0.0	1	null	6	null	6	null	6	null	6	40.423415	17.846371
1551	2024-03-05 14:00:00	15	san_pancrazio_salentino	14.34	1	72.02	1	0.0	1	null	6	null	6	null	6	null	6	40.423415	17.846371
1552	2024-03-05 15:00:00	15	san_pancrazio_salentino	13.1	1	78.76	1	0.0	1	null	6	null	6	null	6	null	6	40.423415	17.846371
1553	2024-03-05 16:00:00	15	san_pancrazio_salentino	14.79	1	68.16	1	0.0	1	null	6	null	6	null	6	null	6	40.423415	17.846371
1554	2024-03-05 17:00:00	15	san_pancrazio_salentino	14.54	1	68.0	1	0.0	1	null	6	null	6	null	6	null	6	40.423415	17.846371
1555	2024-03-05 18:00:00	15	san_pancrazio_salentino	13.06	1	76.12	1	0.0	1	null	6	null	6	null	6	null	6	40.423415	17.846371
1556	2024-03-05 19:00:00	15	san_pancrazio_salentino	11.19	1	84.65	1	0.0	1	null	6	null	6	null	6	null	6	40.423415	17.846371
1557	2024-03-05 20:00:00	15	san_pancrazio_salentino	10.3	1	89.41	1	0.0	1	null	6	null	6	null	6	null	6	40.423415	17.846371
1558	2024-03-05 21:00:00	15	san_pancrazio_salentino	9.99	1	89.7	1	0.0	1	null	6	null	6	null	6	null	6	40.423415	17.846371
1559	2024-03-05 22:00:00	15	san_pancrazio_salentino	9.5	1	91.32	1	0.0	1	null	6	null	6	null	6	null	6	40.423415	17.846371
1560	2024-03-05 23:00:00	15	san_pancrazio_salentino	9.23	1	92.58	1	0.0	1	null	6	null	6	null	6	null	6	40.423415	17.846371
1561	2024-03-06 00:00:00	15	san_pancrazio_salentino	9.19	1	93.38	1	0.0	1	null	6	null	6	null	6	null	6	40.423415	17.846371
1562	2024-03-06 01:00:00	15	san_pancrazio_salentino	8.56	1	94.8	1	0.0	1	null	6	null	6	null	6	null	6	40.423415	17.846371
1563	2024-03-06 02:00:00	15	san_pancrazio_salentino	8.67	1	93.82	1	0.0	1	null	6	null	6	null	6	null	6	40.423415	17.846371
1564	2024-03-06 03:00:00	15	san_pancrazio_salentino	8.31	1	92.68	1	0.0	1	null	6	null	6	null	6	null	6	40.423415	17.846371
1565	2024-03-06 04:00:00	15	san_pancrazio_salentino	8.51	1	90.81	1	0.0	1	null	6	null	6	null	6	null	6	40.423415	17.846371
1566	2024-03-06 05:00:00	15	san_pancrazio_salentino	8.51	1	90.46	1	0.0	1	null	6	null	6	null	6	null	6	40.423415	17.846371
1567	2024-03-06 06:00:00	15	san_pancrazio_salentino	6.12	1	91.97	1	0.0	1	null	6	null	6	null	6	null	6	40.423415	17.846371
1568	2024-03-06 07:00:00	15	san_pancrazio_salentino	5.68	1	97.23	1	0.0	1	null	6	null	6	null	6	null	6	40.423415	17.846371
1569	2024-03-06 08:00:00	15	san_pancrazio_salentino	8.89	1	92.09	1	0.0	1	null	6	null	6	null	6	null	6	40.423415	17.846371
1570	2024-03-06 09:00:00	15	san_pancrazio_salentino	11.75	1	79.83	1	0.0	1	null	6	null	6	null	6	null	6	40.423415	17.846371
1571	2024-03-06 10:00:00	15	san_pancrazio_salentino	14.09	1	67.55	1	0.0	1	null	6	null	6	null	6	null	6	40.423415	17.846371
1572	2024-03-06 11:00:00	15	san_pancrazio_salentino	15.85	1	58.57	1	0.0	1	null	6	null	6	null	6	null	6	40.423415	17.846371
1573	2024-03-06 12:00:00	15	san_pancrazio_salentino	18.0	1	48.39	1	0.2	1	null	6	null	6	null	6	null	6	40.423415	17.846371
1574	2024-03-06 13:00:00	15	san_pancrazio_salentino	19.75	1	47.05	1	0.0	1	null	6	null	6	null	6	null	6	40.423415	17.846371
1575	2024-03-06 14:00:00	15	san_pancrazio_salentino	19.45	1	49.28	1	0.0	1	null	6	null	6	null	6	null	6	40.423415	17.846371
1576	2024-03-06 15:00:00	15	san_pancrazio_salentino	19.71	1	49.16	1	0.0	1	null	6	null	6	null	6	null	6	40.423415	17.846371
1577	2024-03-06 16:00:00	15	san_pancrazio_salentino	17.52	1	59.32	1	1.4	1	null	6	null	6	null	6	null	6	40.423415	17.846371
1578	2024-03-06 17:00:00	15	san_pancrazio_salentino	14.79	1	72.65	1	0.0	1	null	6	null	6	null	6	null	6	40.423415	17.846371
1579	2024-03-06 18:00:00	15	san_pancrazio_salentino	14.54	1	80.04	1	0.0	1	null	6	null	6	null	6	null	6	40.423415	17.846371
1580	2024-03-06 19:00:00	15	san_pancrazio_salentino	14.0	1	72.36	1	0.0	1	null	6	null	6	null	6	null	6	40.423415	17.846371
1581	2024-03-06 20:00:00	15	san_pancrazio_salentino	14.02	1	64.62	1	0.0	1	null	6	null	6	null	6	null	6	40.423415	17.846371
1582	2024-03-06 21:00:00	15	san_pancrazio_salentino	13.04	1	60.24	1	0.0	1	null	6	null	6	null	6	null	6	40.423415	17.846371
1583	2024-03-06 22:00:00	15	san_pancrazio_salentino	11.58	1	57.82	1	0.0	1	null	6	null	6	null	6	null	6	40.423415	17.846371
1584	2024-03-06 23:00:00	15	san_pancrazio_salentino	11.16	1	58.29	1	0.0	1	null	6	null	6	null	6	null	6	40.423415	17.846371
1585	2024-03-07 00:00:00	15	san_pancrazio_salentino	10.26	1	65.5	1	0.0	1	null	6	null	6	null	6	null	6	40.423415	17.846371
1586	2024-03-07 01:00:00	15	san_pancrazio_salentino	9.84	1	68.6	1	0.0	1	null	6	null	6	null	6	null	6	40.423415	17.846371
1587	2024-03-07 02:00:00	15	san_pancrazio_salentino	9.99	1	66.68	1	0.0	1	null	6	null	6	null	6	null	6	40.423415	17.846371
1588	2024-03-07 03:00:00	15	san_pancrazio_salentino	10.27	1	67.04	1	0.0	1	null	6	null	6	null	6	null	6	40.423415	17.846371
1589	2024-03-07 04:00:00	15	san_pancrazio_salentino	10.39	1	69.05	1	0.0	1	null	6	null	6	null	6	null	6	40.423415	17.846371
1590	2024-03-07 05:00:00	15	san_pancrazio_salentino	9.79	1	75.22	1	0.0	1	null	6	null	6	null	6	null	6	40.423415	17.846371
1591	2024-03-07 06:00:00	15	san_pancrazio_salentino	9.52	1	77.2	1	0.0	1	null	6	null	6	null	6	null	6	40.423415	17.846371
1592	2024-03-07 07:00:00	15	san_pancrazio_salentino	9.03	1	80.25	1	0.0	1	null	6	null	6	null	6	null	6	40.423415	17.846371
1593	2024-03-07 08:00:00	15	san_pancrazio_salentino	10.53	1	74.8	1	0.0	1	null	6	null	6	null	6	null	6	40.423415	17.846371
1594	2024-03-07 09:00:00	15	san_pancrazio_salentino	12.83	1	68.77	1	0.0	1	null	6	null	6	null	6	null	6	40.423415	17.846371
1595	2024-03-07 10:00:00	15	san_pancrazio_salentino	13.83	1	62.01	1	0.0	1	null	6	null	6	null	6	null	6	40.423415	17.846371
1596	2024-03-07 11:00:00	15	san_pancrazio_salentino	14.74	1	46.96	1	0.0	1	null	6	null	6	null	6	null	6	40.423415	17.846371
1597	2024-03-07 12:00:00	15	san_pancrazio_salentino	15.56	1	35.85	1	0.0	1	null	6	null	6	null	6	null	6	40.423415	17.846371
1598	2024-03-07 13:00:00	15	san_pancrazio_salentino	16.53	1	38.97	1	0.0	1	null	6	null	6	null	6	null	6	40.423415	17.846371
1599	2024-03-07 14:00:00	15	san_pancrazio_salentino	16.89	1	38.08	1	0.0	1	null	6	null	6	null	6	null	6	40.423415	17.846371
1600	2024-03-07 15:00:00	15	san_pancrazio_salentino	16.07	1	41.95	1	0.0	1	null	6	null	6	null	6	null	6	40.423415	17.846371
1601	2024-03-07 16:00:00	15	san_pancrazio_salentino	13.99	1	58.26	1	0.0	1	null	6	null	6	null	6	null	6	40.423415	17.846371
1602	2024-03-07 17:00:00	15	san_pancrazio_salentino	12.57	1	67.27	1	0.0	1	null	6	null	6	null	6	null	6	40.423415	17.846371
1603	2024-03-07 18:00:00	15	san_pancrazio_salentino	11.2	1	77.88	1	0.2	1	null	6	null	6	null	6	null	6	40.423415	17.846371
1604	2024-03-07 19:00:00	15	san_pancrazio_salentino	10.38	1	81.22	1	0.2	1	null	6	null	6	null	6	null	6	40.423415	17.846371
1605	2024-03-07 20:00:00	15	san_pancrazio_salentino	9.73	1	88.31	1	0.0	1	null	6	null	6	null	6	null	6	40.423415	17.846371
1606	2024-03-07 21:00:00	15	san_pancrazio_salentino	8.59	1	91.56	1	0.0	1	null	6	null	6	null	6	null	6	40.423415	17.846371
1607	2024-03-07 22:00:00	15	san_pancrazio_salentino	8.05	1	94.52	1	0.0	1	null	6	null	6	null	6	null	6	40.423415	17.846371
1608	2024-03-07 23:00:00	15	san_pancrazio_salentino	8.11	1	91.54	1	0.0	1	null	6	null	6	null	6	null	6	40.423415	17.846371
1609	2024-03-08 00:00:00	15	san_pancrazio_salentino	7.51	1	89.79	1	0.0	1	null	6	null	6	null	6	null	6	40.423415	17.846371
1610	2024-03-08 01:00:00	15	san_pancrazio_salentino	7.25	1	90.1	1	0.0	1	null	6	null	6	null	6	null	6	40.423415	17.846371
1611	2024-03-08 02:00:00	15	san_pancrazio_salentino	7.18	1	90.1	1	0.0	1	null	6	null	6	null	6	null	6	40.423415	17.846371
1612	2024-03-08 03:00:00	15	san_pancrazio_salentino	7.52	1	89.39	1	0.0	1	null	6	null	6	null	6	null	6	40.423415	17.846371
1613	2024-03-08 04:00:00	15	san_pancrazio_salentino	7.14	1	91.13	1	0.0	1	null	6	null	6	null	6	null	6	40.423415	17.846371
1614	2024-03-08 05:00:00	15	san_pancrazio_salentino	6.31	1	92.7	1	0.0	1	null	6	null	6	null	6	null	6	40.423415	17.846371
1615	2024-03-08 06:00:00	15	san_pancrazio_salentino	6.09	1	93.59	1	0.0	1	null	6	null	6	null	6	null	6	40.423415	17.846371
1616	2024-03-08 07:00:00	15	san_pancrazio_salentino	6.78	1	89.79	1	0.0	1	null	6	null	6	null	6	null	6	40.423415	17.846371
1617	2024-03-08 08:00:00	15	san_pancrazio_salentino	10.07	1	80.46	1	0.0	1	null	6	null	6	null	6	null	6	40.423415	17.846371
1618	2024-03-08 09:00:00	15	san_pancrazio_salentino	11.88	1	75.31	1	0.0	1	null	6	null	6	null	6	null	6	40.423415	17.846371
1619	2024-03-08 10:00:00	15	san_pancrazio_salentino	13.03	1	66.22	1	0.0	1	null	6	null	6	null	6	null	6	40.423415	17.846371
1620	2024-03-08 11:00:00	15	san_pancrazio_salentino	14.3	1	55.23	1	0.0	1	null	6	null	6	null	6	null	6	40.423415	17.846371
1621	2024-03-08 12:00:00	15	san_pancrazio_salentino	15.75	1	50.69	1	0.0	1	null	6	null	6	null	6	null	6	40.423415	17.846371
1622	2024-03-08 13:00:00	15	san_pancrazio_salentino	18.08	1	49.11	1	0.2	1	null	6	null	6	null	6	null	6	40.423415	17.846371
1623	2024-03-08 14:00:00	15	san_pancrazio_salentino	17.91	1	49.54	1	0.0	1	null	6	null	6	null	6	null	6	40.423415	17.846371
1624	2024-03-08 15:00:00	15	san_pancrazio_salentino	17.41	1	47.17	1	0.0	1	null	6	null	6	null	6	null	6	40.423415	17.846371
1625	2024-03-08 16:00:00	15	san_pancrazio_salentino	16.61	1	49.62	1	0.0	1	null	6	null	6	null	6	null	6	40.423415	17.846371
1626	2024-03-08 17:00:00	15	san_pancrazio_salentino	14.31	1	57.35	1	0.0	1	null	6	null	6	null	6	null	6	40.423415	17.846371
1627	2024-03-08 18:00:00	15	san_pancrazio_salentino	13.1	1	68.77	1	0.0	1	null	6	null	6	null	6	null	6	40.423415	17.846371
1628	2024-03-08 19:00:00	15	san_pancrazio_salentino	11.32	1	76.57	1	0.0	1	null	6	null	6	null	6	null	6	40.423415	17.846371
1629	2024-03-08 20:00:00	15	san_pancrazio_salentino	10.4	1	79.0	1	0.0	1	null	6	null	6	null	6	null	6	40.423415	17.846371
1630	2024-03-08 21:00:00	15	san_pancrazio_salentino	9.89	1	80.62	1	0.0	1	null	6	null	6	null	6	null	6	40.423415	17.846371
1631	2024-03-08 22:00:00	15	san_pancrazio_salentino	9.78	1	82.56	1	0.0	1	null	6	null	6	null	6	null	6	40.423415	17.846371
1632	2024-03-08 23:00:00	15	san_pancrazio_salentino	9.8	1	83.81	1	0.0	1	null	6	null	6	null	6	null	6	40.423415	17.846371
1633	2024-03-09 00:00:00	15	san_pancrazio_salentino	9.2	1	86.37	1	0.0	1	null	6	null	6	null	6	null	6	40.423415	17.846371
1634	2024-03-09 01:00:00	15	san_pancrazio_salentino	9.32	1	87.35	1	0.0	1	null	6	null	6	null	6	null	6	40.423415	17.846371
1635	2024-03-09 02:00:00	15	san_pancrazio_salentino	9.64	1	87.37	1	0.0	1	null	6	null	6	null	6	null	6	40.423415	17.846371
1636	2024-03-09 03:00:00	15	san_pancrazio_salentino	10.04	1	86.77	1	0.0	1	null	6	null	6	null	6	null	6	40.423415	17.846371
1637	2024-03-09 04:00:00	15	san_pancrazio_salentino	10.55	1	87.38	1	0.0	1	null	6	null	6	null	6	null	6	40.423415	17.846371
1638	2024-03-09 05:00:00	15	san_pancrazio_salentino	10.82	1	89.66	1	0.2	1	null	6	null	6	null	6	null	6	40.423415	17.846371
1639	2024-03-09 06:00:00	15	san_pancrazio_salentino	10.95	1	92.1	1	0.4	1	null	6	null	6	null	6	null	6	40.423415	17.846371
1640	2024-03-09 07:00:00	15	san_pancrazio_salentino	11.4	1	91.11	1	0.0	1	null	6	null	6	null	6	null	6	40.423415	17.846371
1641	2024-03-09 08:00:00	15	san_pancrazio_salentino	11.9	1	91.23	1	2.8	1	null	6	null	6	null	6	null	6	40.423415	17.846371
1642	2024-03-09 09:00:00	15	san_pancrazio_salentino	11.88	1	96.23	1	2.8	1	null	6	null	6	null	6	null	6	40.423415	17.846371
1643	2024-03-09 10:00:00	15	san_pancrazio_salentino	12.07	1	96.67	1	1.6	1	null	6	null	6	null	6	null	6	40.423415	17.846371
1644	2024-03-09 11:00:00	15	san_pancrazio_salentino	13.65	1	94.65	1	0.0	1	null	6	null	6	null	6	null	6	40.423415	17.846371
1645	2024-03-09 12:00:00	15	san_pancrazio_salentino	15.57	1	87.59	1	0.0	1	null	6	null	6	null	6	null	6	40.423415	17.846371
1646	2024-03-09 13:00:00	15	san_pancrazio_salentino	16.12	1	84.28	1	0.0	1	null	6	null	6	null	6	null	6	40.423415	17.846371
1647	2024-03-09 14:00:00	15	san_pancrazio_salentino	16.34	1	82.14	1	0.2	1	null	6	null	6	null	6	null	6	40.423415	17.846371
1648	2024-03-09 15:00:00	15	san_pancrazio_salentino	16.69	1	79.5	1	0.0	1	null	6	null	6	null	6	null	6	40.423415	17.846371
1649	2024-03-09 16:00:00	15	san_pancrazio_salentino	16.33	1	82.16	1	0.0	1	null	6	null	6	null	6	null	6	40.423415	17.846371
1650	2024-03-09 17:00:00	15	san_pancrazio_salentino	15.77	1	83.25	1	0.0	1	null	6	null	6	null	6	null	6	40.423415	17.846371
1651	2024-03-09 18:00:00	15	san_pancrazio_salentino	14.99	1	85.9	1	0.0	1	null	6	null	6	null	6	null	6	40.423415	17.846371
1652	2024-03-09 19:00:00	15	san_pancrazio_salentino	14.5	1	88.13	1	0.0	1	null	6	null	6	null	6	null	6	40.423415	17.846371
1653	2024-03-09 20:00:00	15	san_pancrazio_salentino	14.13	1	89.18	1	0.0	1	null	6	null	6	null	6	null	6	40.423415	17.846371
1654	2024-03-09 21:00:00	15	san_pancrazio_salentino	14.12	1	90.89	1	0.0	1	null	6	null	6	null	6	null	6	40.423415	17.846371
1655	2024-03-09 22:00:00	15	san_pancrazio_salentino	14.41	1	89.65	1	0.0	1	null	6	null	6	null	6	null	6	40.423415	17.846371
1656	2024-03-09 23:00:00	15	san_pancrazio_salentino	14.34	1	88.33	1	0.0	1	null	6	null	6	null	6	null	6	40.423415	17.846371
1657	2024-03-10 00:00:00	15	san_pancrazio_salentino	14.2	1	87.68	1	0.0	1	null	6	null	6	null	6	null	6	40.423415	17.846371
1658	2024-03-10 01:00:00	15	san_pancrazio_salentino	14.1	1	87.54	1	0.0	1	null	6	null	6	null	6	null	6	40.423415	17.846371
1659	2024-03-10 02:00:00	15	san_pancrazio_salentino	14.09	1	87.42	1	0.0	1	null	6	null	6	null	6	null	6	40.423415	17.846371
1660	2024-03-10 03:00:00	15	san_pancrazio_salentino	14.23	1	85.86	1	0.0	1	null	6	null	6	null	6	null	6	40.423415	17.846371
1661	2024-03-10 04:00:00	15	san_pancrazio_salentino	14.14	1	85.85	1	0.0	1	null	6	null	6	null	6	null	6	40.423415	17.846371
1662	2024-03-10 05:00:00	15	san_pancrazio_salentino	14.19	1	84.08	1	0.0	1	null	6	null	6	null	6	null	6	40.423415	17.846371
1663	2024-03-10 06:00:00	15	san_pancrazio_salentino	14.12	1	84.48	1	0.0	1	null	6	null	6	null	6	null	6	40.423415	17.846371
1664	2024-03-10 07:00:00	15	san_pancrazio_salentino	14.21	1	84.43	1	0.0	1	null	6	null	6	null	6	null	6	40.423415	17.846371
1665	2024-03-10 08:00:00	15	san_pancrazio_salentino	14.56	1	83.68	1	0.0	1	null	6	null	6	null	6	null	6	40.423415	17.846371
1666	2024-03-10 09:00:00	15	san_pancrazio_salentino	15.33	1	79.74	1	0.0	1	null	6	null	6	null	6	null	6	40.423415	17.846371
1667	2024-03-10 10:00:00	15	san_pancrazio_salentino	15.69	1	78.97	1	0.0	1	null	6	null	6	null	6	null	6	40.423415	17.846371
1668	2024-03-10 11:00:00	15	san_pancrazio_salentino	15.96	1	73.83	1	0.0	1	null	6	null	6	null	6	null	6	40.423415	17.846371
1669	2024-03-10 12:00:00	15	san_pancrazio_salentino	16.26	1	69.41	1	0.0	1	null	6	null	6	null	6	null	6	40.423415	17.846371
1670	2024-03-10 13:00:00	15	san_pancrazio_salentino	16.13	1	68.26	1	0.0	1	null	6	null	6	null	6	null	6	40.423415	17.846371
1671	2024-03-10 14:00:00	15	san_pancrazio_salentino	16.42	1	69.78	1	0.0	1	null	6	null	6	null	6	null	6	40.423415	17.846371
1672	2024-03-10 15:00:00	15	san_pancrazio_salentino	16.64	1	68.61	1	0.0	1	null	6	null	6	null	6	null	6	40.423415	17.846371
1673	2024-03-10 16:00:00	15	san_pancrazio_salentino	16.58	1	66.32	1	0.0	1	null	6	null	6	null	6	null	6	40.423415	17.846371
1674	2024-03-10 17:00:00	15	san_pancrazio_salentino	15.94	1	70.78	1	0.0	1	null	6	null	6	null	6	null	6	40.423415	17.846371
1675	2024-03-10 18:00:00	15	san_pancrazio_salentino	15.12	1	76.49	1	0.0	1	null	6	null	6	null	6	null	6	40.423415	17.846371
1676	2024-03-10 19:00:00	15	san_pancrazio_salentino	14.51	1	79.81	1	0.0	1	null	6	null	6	null	6	null	6	40.423415	17.846371
1677	2024-03-10 20:00:00	15	san_pancrazio_salentino	14.42	1	80.76	1	0.0	1	null	6	null	6	null	6	null	6	40.423415	17.846371
1678	2024-03-10 21:00:00	15	san_pancrazio_salentino	14.38	1	81.54	1	0.0	1	null	6	null	6	null	6	null	6	40.423415	17.846371
1679	2024-03-10 22:00:00	15	san_pancrazio_salentino	14.47	1	81.2	1	0.0	1	null	6	null	6	null	6	null	6	40.423415	17.846371
1680	2024-03-10 23:00:00	15	san_pancrazio_salentino	14.52	1	81.22	1	0.0	1	null	6	null	6	null	6	null	6	40.423415	17.846371
1681	2024-03-11 00:00:00	15	san_pancrazio_salentino	14.28	1	81.66	1	0.0	1	null	6	null	6	null	6	null	6	40.423415	17.846371
1682	2024-03-11 01:00:00	15	san_pancrazio_salentino	14.05	1	83.95	1	0.0	1	null	6	null	6	null	6	null	6	40.423415	17.846371
1683	2024-03-11 02:00:00	15	san_pancrazio_salentino	14.17	1	81.74	1	0.0	1	null	6	null	6	null	6	null	6	40.423415	17.846371
1684	2024-03-11 03:00:00	15	san_pancrazio_salentino	14.31	1	80.69	1	0.0	1	null	6	null	6	null	6	null	6	40.423415	17.846371
1685	2024-03-11 04:00:00	15	san_pancrazio_salentino	14.57	1	82.88	1	0.0	1	null	6	null	6	null	6	null	6	40.423415	17.846371
1686	2024-03-11 05:00:00	15	san_pancrazio_salentino	14.7	1	82.12	1	0.0	1	null	6	null	6	null	6	null	6	40.423415	17.846371
1687	2024-03-11 06:00:00	15	san_pancrazio_salentino	14.76	1	81.08	1	0.0	1	null	6	null	6	null	6	null	6	40.423415	17.846371
1688	2024-03-11 07:00:00	15	san_pancrazio_salentino	14.92	1	79.98	1	0.0	1	null	6	null	6	null	6	null	6	40.423415	17.846371
1689	2024-03-11 08:00:00	15	san_pancrazio_salentino	15.11	1	80.71	1	0.0	1	null	6	null	6	null	6	null	6	40.423415	17.846371
1690	2024-03-11 09:00:00	15	san_pancrazio_salentino	15.16	1	84.0	1	0.0	1	null	6	null	6	null	6	null	6	40.423415	17.846371
1691	2024-03-11 10:00:00	15	san_pancrazio_salentino	13.89	1	86.0	1	12.6	1	null	6	null	6	null	6	null	6	40.423415	17.846371
1692	2024-03-11 11:00:00	15	san_pancrazio_salentino	11.59	1	96.97	1	10.6	1	null	6	null	6	null	6	null	6	40.423415	17.846371
1693	2024-03-11 12:00:00	15	san_pancrazio_salentino	12.5	1	96.67	1	0.0	1	null	6	null	6	null	6	null	6	40.423415	17.846371
1694	2024-03-11 13:00:00	15	san_pancrazio_salentino	16.08	1	84.24	1	0.0	1	null	6	null	6	null	6	null	6	40.423415	17.846371
1695	2024-03-11 14:00:00	15	san_pancrazio_salentino	19.8	1	57.33	1	0.0	1	null	6	null	6	null	6	null	6	40.423415	17.846371
1696	2024-03-11 15:00:00	15	san_pancrazio_salentino	19.9	1	54.12	1	0.2	1	null	6	null	6	null	6	null	6	40.423415	17.846371
1697	2024-03-11 16:00:00	15	san_pancrazio_salentino	19.55	1	54.08	1	0.0	1	null	6	null	6	null	6	null	6	40.423415	17.846371
1698	2024-03-11 17:00:00	15	san_pancrazio_salentino	17.72	1	57.03	1	0.0	1	null	6	null	6	null	6	null	6	40.423415	17.846371
1699	2024-03-11 18:00:00	15	san_pancrazio_salentino	15.83	1	66.02	1	0.0	1	null	6	null	6	null	6	null	6	40.423415	17.846371
1700	2024-03-11 19:00:00	15	san_pancrazio_salentino	13.92	1	67.89	1	0.0	1	null	6	null	6	null	6	null	6	40.423415	17.846371
1701	2024-03-11 20:00:00	15	san_pancrazio_salentino	12.87	1	73.7	1	0.0	1	null	6	null	6	null	6	null	6	40.423415	17.846371
1702	2024-03-11 21:00:00	15	san_pancrazio_salentino	12.64	1	76.66	1	0.0	1	null	6	null	6	null	6	null	6	40.423415	17.846371
1703	2024-03-11 22:00:00	15	san_pancrazio_salentino	12.75	1	79.56	1	0.0	1	null	6	null	6	null	6	null	6	40.423415	17.846371
1704	2024-03-11 23:00:00	15	san_pancrazio_salentino	12.26	1	80.19	1	0.0	1	null	6	null	6	null	6	null	6	40.423415	17.846371
1705	2024-03-12 00:00:00	15	san_pancrazio_salentino	11.96	1	78.57	1	0.0	1	null	6	null	6	null	6	null	6	40.423415	17.846371
1706	2024-03-12 01:00:00	15	san_pancrazio_salentino	11.27	1	84.82	1	0.0	1	null	6	null	6	null	6	null	6	40.423415	17.846371
1707	2024-03-12 02:00:00	15	san_pancrazio_salentino	11.54	1	83.21	1	0.0	1	null	6	null	6	null	6	null	6	40.423415	17.846371
1708	2024-03-12 03:00:00	15	san_pancrazio_salentino	11.38	1	84.0	1	0.0	1	null	6	null	6	null	6	null	6	40.423415	17.846371
1709	2024-03-12 04:00:00	15	san_pancrazio_salentino	11.7	1	80.78	1	0.0	1	null	6	null	6	null	6	null	6	40.423415	17.846371
1710	2024-03-12 05:00:00	15	san_pancrazio_salentino	11.89	1	69.6	1	0.0	1	null	6	null	6	null	6	null	6	40.423415	17.846371
1711	2024-03-12 06:00:00	15	san_pancrazio_salentino	10.89	1	73.7	1	0.0	1	null	6	null	6	null	6	null	6	40.423415	17.846371
1712	2024-03-12 07:00:00	15	san_pancrazio_salentino	10.72	1	75.74	1	0.0	1	null	6	null	6	null	6	null	6	40.423415	17.846371
1713	2024-03-12 08:00:00	15	san_pancrazio_salentino	11.76	1	72.62	1	0.0	1	null	6	null	6	null	6	null	6	40.423415	17.846371
1714	2024-03-12 09:00:00	15	san_pancrazio_salentino	13.79	1	68.01	1	0.0	1	null	6	null	6	null	6	null	6	40.423415	17.846371
1715	2024-03-12 10:00:00	15	san_pancrazio_salentino	15.01	1	56.56	1	0.0	1	null	6	null	6	null	6	null	6	40.423415	17.846371
1716	2024-03-12 11:00:00	15	san_pancrazio_salentino	16.07	1	49.57	1	0.0	1	null	6	null	6	null	6	null	6	40.423415	17.846371
1717	2024-03-12 12:00:00	15	san_pancrazio_salentino	17.27	1	45.85	1	0.0	1	null	6	null	6	null	6	null	6	40.423415	17.846371
1718	2024-03-12 13:00:00	15	san_pancrazio_salentino	18.54	1	44.55	1	0.0	1	null	6	null	6	null	6	null	6	40.423415	17.846371
1719	2024-03-12 14:00:00	15	san_pancrazio_salentino	19.32	1	42.83	1	0.0	1	null	6	null	6	null	6	null	6	40.423415	17.846371
1720	2024-03-12 15:00:00	15	san_pancrazio_salentino	16.84	1	53.55	1	0.0	1	null	6	null	6	null	6	null	6	40.423415	17.846371
1721	2024-03-12 16:00:00	15	san_pancrazio_salentino	13.2	1	70.47	1	0.0	1	null	6	null	6	null	6	null	6	40.423415	17.846371
1722	2024-03-12 17:00:00	15	san_pancrazio_salentino	13.31	1	69.83	1	0.0	1	null	6	null	6	null	6	null	6	40.423415	17.846371
1723	2024-03-12 18:00:00	15	san_pancrazio_salentino	12.12	1	77.49	1	0.0	1	null	6	null	6	null	6	null	6	40.423415	17.846371
1724	2024-03-12 19:00:00	15	san_pancrazio_salentino	10.87	1	82.98	1	0.0	1	null	6	null	6	null	6	null	6	40.423415	17.846371
1725	2024-03-12 20:00:00	15	san_pancrazio_salentino	9.94	1	87.29	1	0.0	1	null	6	null	6	null	6	null	6	40.423415	17.846371
1726	2024-03-12 21:00:00	15	san_pancrazio_salentino	10.16	1	88.93	1	0.0	1	null	6	null	6	null	6	null	6	40.423415	17.846371
1727	2024-03-12 22:00:00	15	san_pancrazio_salentino	10.05	1	87.68	1	0.0	1	null	6	null	6	null	6	null	6	40.423415	17.846371
1728	2024-03-12 23:00:00	15	san_pancrazio_salentino	9.75	1	85.59	1	0.0	1	null	6	null	6	null	6	null	6	40.423415	17.846371
1729	2024-03-13 00:00:00	15	san_pancrazio_salentino	8.8	1	89.46	1	0.0	1	null	6	null	6	null	6	null	6	40.423415	17.846371
1730	2024-03-13 01:00:00	15	san_pancrazio_salentino	8.69	1	88.39	1	0.0	1	null	6	null	6	null	6	null	6	40.423415	17.846371
1731	2024-03-13 02:00:00	15	san_pancrazio_salentino	8.29	1	86.79	1	0.0	1	null	6	null	6	null	6	null	6	40.423415	17.846371
1732	2024-03-13 03:00:00	15	san_pancrazio_salentino	8.25	1	85.79	1	0.0	1	null	6	null	6	null	6	null	6	40.423415	17.846371
1733	2024-03-13 04:00:00	15	san_pancrazio_salentino	8.74	1	83.95	1	0.0	1	null	6	null	6	null	6	null	6	40.423415	17.846371
1734	2024-03-13 05:00:00	15	san_pancrazio_salentino	8.11	1	85.9	1	0.0	1	null	6	null	6	null	6	null	6	40.423415	17.846371
1735	2024-03-13 06:00:00	15	san_pancrazio_salentino	7.94	1	89.17	1	0.0	1	null	6	null	6	null	6	null	6	40.423415	17.846371
1736	2024-03-13 07:00:00	15	san_pancrazio_salentino	8.82	1	88.49	1	0.2	1	null	6	null	6	null	6	null	6	40.423415	17.846371
1737	2024-03-13 08:00:00	15	san_pancrazio_salentino	11.52	1	80.28	1	0.0	1	null	6	null	6	null	6	null	6	40.423415	17.846371
1738	2024-03-13 09:00:00	15	san_pancrazio_salentino	12.99	1	80.43	1	0.0	1	null	6	null	6	null	6	null	6	40.423415	17.846371
1739	2024-03-13 10:00:00	15	san_pancrazio_salentino	13.74	1	76.58	1	0.0	1	null	6	null	6	null	6	null	6	40.423415	17.846371
1740	2024-03-13 11:00:00	15	san_pancrazio_salentino	15.02	1	71.75	1	0.0	1	null	6	null	6	null	6	null	6	40.423415	17.846371
1741	2024-03-13 12:00:00	15	san_pancrazio_salentino	15.8	1	65.05	1	0.0	1	null	6	null	6	null	6	null	6	40.423415	17.846371
1742	2024-03-13 13:00:00	15	san_pancrazio_salentino	17.59	1	54.97	1	0.0	1	null	6	null	6	null	6	null	6	40.423415	17.846371
1743	2024-03-13 14:00:00	15	san_pancrazio_salentino	18.41	1	51.24	1	0.0	1	null	6	null	6	null	6	null	6	40.423415	17.846371
1744	2024-03-13 15:00:00	15	san_pancrazio_salentino	19.91	1	45.36	1	0.0	1	null	6	null	6	null	6	null	6	40.423415	17.846371
1745	2024-03-13 16:00:00	15	san_pancrazio_salentino	18.59	1	50.52	1	0.0	1	null	6	null	6	null	6	null	6	40.423415	17.846371
1746	2024-03-13 17:00:00	15	san_pancrazio_salentino	15.52	1	63.0	1	0.0	1	null	6	null	6	null	6	null	6	40.423415	17.846371
1747	2024-03-13 18:00:00	15	san_pancrazio_salentino	13.97	1	69.59	1	0.0	1	null	6	null	6	null	6	null	6	40.423415	17.846371
1748	2024-03-13 19:00:00	15	san_pancrazio_salentino	11.99	1	81.44	1	0.0	1	null	6	null	6	null	6	null	6	40.423415	17.846371
1749	2024-03-13 20:00:00	15	san_pancrazio_salentino	10.99	1	83.13	1	0.0	1	null	6	null	6	null	6	null	6	40.423415	17.846371
1750	2024-03-13 21:00:00	15	san_pancrazio_salentino	10.08	1	85.89	1	0.0	1	null	6	null	6	null	6	null	6	40.423415	17.846371
1751	2024-03-13 22:00:00	15	san_pancrazio_salentino	9.26	1	89.74	1	0.0	1	null	6	null	6	null	6	null	6	40.423415	17.846371
1752	2024-03-13 23:00:00	15	san_pancrazio_salentino	9.34	1	87.54	1	0.0	1	null	6	null	6	null	6	null	6	40.423415	17.846371
1753	2024-03-14 00:00:00	15	san_pancrazio_salentino	9.47	1	84.48	1	0.0	1	null	6	null	6	null	6	null	6	40.423415	17.846371
1754	2024-03-14 01:00:00	15	san_pancrazio_salentino	9.37	1	87.1	1	0.0	1	null	6	null	6	null	6	null	6	40.423415	17.846371
1755	2024-03-14 02:00:00	15	san_pancrazio_salentino	8.95	1	90.56	1	0.0	1	null	6	null	6	null	6	null	6	40.423415	17.846371
1756	2024-03-14 03:00:00	15	san_pancrazio_salentino	8.32	1	92.45	1	0.0	1	null	6	null	6	null	6	null	6	40.423415	17.846371
1757	2024-03-14 04:00:00	15	san_pancrazio_salentino	8.08	1	93.12	1	0.0	1	null	6	null	6	null	6	null	6	40.423415	17.846371
1758	2024-03-14 05:00:00	15	san_pancrazio_salentino	7.93	1	90.57	1	0.0	1	null	6	null	6	null	6	null	6	40.423415	17.846371
1759	2024-03-14 06:00:00	15	san_pancrazio_salentino	7.84	1	89.26	1	0.0	1	null	6	null	6	null	6	null	6	40.423415	17.846371
1760	2024-03-14 07:00:00	15	san_pancrazio_salentino	7.98	1	87.57	1	0.0	1	null	6	null	6	null	6	null	6	40.423415	17.846371
1761	2024-03-14 08:00:00	15	san_pancrazio_salentino	11.56	1	76.28	1	0.0	1	null	6	null	6	null	6	null	6	40.423415	17.846371
1762	2024-03-14 09:00:00	15	san_pancrazio_salentino	14.04	1	70.79	1	0.0	1	null	6	null	6	null	6	null	6	40.423415	17.846371
1763	2024-03-14 10:00:00	15	san_pancrazio_salentino	15.27	1	64.88	1	0.0	1	null	6	null	6	null	6	null	6	40.423415	17.846371
1764	2024-03-14 11:00:00	15	san_pancrazio_salentino	16.51	1	55.4	1	0.0	1	null	6	null	6	null	6	null	6	40.423415	17.846371
1765	2024-03-14 12:00:00	15	san_pancrazio_salentino	18.46	1	47.59	1	0.0	1	null	6	null	6	null	6	null	6	40.423415	17.846371
1766	2024-03-14 13:00:00	15	san_pancrazio_salentino	20.61	1	40.28	1	0.0	1	null	6	null	6	null	6	null	6	40.423415	17.846371
1767	2024-03-14 14:00:00	15	san_pancrazio_salentino	21.23	1	37.5	1	0.0	1	null	6	null	6	null	6	null	6	40.423415	17.846371
1768	2024-03-14 15:00:00	15	san_pancrazio_salentino	21.51	1	36.89	1	0.0	1	null	6	null	6	null	6	null	6	40.423415	17.846371
1769	2024-03-14 16:00:00	15	san_pancrazio_salentino	20.24	1	43.27	1	0.0	1	null	6	null	6	null	6	null	6	40.423415	17.846371
1770	2024-03-14 17:00:00	15	san_pancrazio_salentino	17.11	1	52.0	1	0.0	1	null	6	null	6	null	6	null	6	40.423415	17.846371
1771	2024-03-14 18:00:00	15	san_pancrazio_salentino	15.68	1	59.1	1	0.0	1	null	6	null	6	null	6	null	6	40.423415	17.846371
1772	2024-03-14 19:00:00	15	san_pancrazio_salentino	12.55	1	72.67	1	0.0	1	null	6	null	6	null	6	null	6	40.423415	17.846371
1773	2024-03-14 20:00:00	15	san_pancrazio_salentino	11.72	1	74.15	1	0.0	1	null	6	null	6	null	6	null	6	40.423415	17.846371
1774	2024-03-14 21:00:00	15	san_pancrazio_salentino	11.25	1	72.15	1	0.0	1	null	6	null	6	null	6	null	6	40.423415	17.846371
1775	2024-03-14 22:00:00	15	san_pancrazio_salentino	9.58	1	79.74	1	0.0	1	null	6	null	6	null	6	null	6	40.423415	17.846371
1776	2024-03-14 23:00:00	15	san_pancrazio_salentino	8.24	1	85.55	1	0.0	1	null	6	null	6	null	6	null	6	40.423415	17.846371
1777	2024-03-15 00:00:00	15	san_pancrazio_salentino	8.47	1	80.85	1	0.0	1	null	6	null	6	null	6	null	6	40.423415	17.846371
1778	2024-03-15 01:00:00	15	san_pancrazio_salentino	8.12	1	78.46	1	0.0	1	null	6	null	6	null	6	null	6	40.423415	17.846371
1779	2024-03-15 02:00:00	15	san_pancrazio_salentino	7.34	1	74.16	1	0.0	1	null	6	null	6	null	6	null	6	40.423415	17.846371
1780	2024-03-15 03:00:00	15	san_pancrazio_salentino	7.74	1	68.75	1	0.0	1	null	6	null	6	null	6	null	6	40.423415	17.846371
1781	2024-03-15 04:00:00	15	san_pancrazio_salentino	7.91	1	66.01	1	0.0	1	null	6	null	6	null	6	null	6	40.423415	17.846371
1782	2024-03-15 05:00:00	15	san_pancrazio_salentino	7.34	1	68.96	1	0.0	1	null	6	null	6	null	6	null	6	40.423415	17.846371
1783	2024-03-15 06:00:00	15	san_pancrazio_salentino	7.17	1	68.63	1	0.0	1	null	6	null	6	null	6	null	6	40.423415	17.846371
1784	2024-03-15 07:00:00	15	san_pancrazio_salentino	6.88	1	70.16	1	0.0	1	null	6	null	6	null	6	null	6	40.423415	17.846371
1785	2024-03-15 08:00:00	15	san_pancrazio_salentino	11.4	1	59.87	1	0.0	1	null	6	null	6	null	6	null	6	40.423415	17.846371
1786	2024-03-15 09:00:00	15	san_pancrazio_salentino	13.88	1	53.96	1	0.0	1	null	6	null	6	null	6	null	6	40.423415	17.846371
1787	2024-03-15 10:00:00	15	san_pancrazio_salentino	15.7	1	44.9	1	0.0	1	null	6	null	6	null	6	null	6	40.423415	17.846371
1788	2024-03-15 11:00:00	15	san_pancrazio_salentino	17.04	1	38.55	1	0.0	1	null	6	null	6	null	6	null	6	40.423415	17.846371
1789	2024-03-15 12:00:00	15	san_pancrazio_salentino	19.61	1	32.85	1	0.0	1	null	6	null	6	null	6	null	6	40.423415	17.846371
1790	2024-03-15 13:00:00	15	san_pancrazio_salentino	22.27	1	32.91	1	0.0	1	null	6	null	6	null	6	null	6	40.423415	17.846371
1791	2024-03-15 14:00:00	15	san_pancrazio_salentino	20.9	1	41.26	1	0.0	1	null	6	null	6	null	6	null	6	40.423415	17.846371
1792	2024-03-15 15:00:00	15	san_pancrazio_salentino	21.13	1	36.5	1	0.0	1	null	6	null	6	null	6	null	6	40.423415	17.846371
1793	2024-03-15 16:00:00	15	san_pancrazio_salentino	20.73	1	36.94	1	0.0	1	null	6	null	6	null	6	null	6	40.423415	17.846371
1794	2024-03-15 17:00:00	15	san_pancrazio_salentino	18.37	1	42.24	1	0.0	1	null	6	null	6	null	6	null	6	40.423415	17.846371
1795	2024-03-15 18:00:00	15	san_pancrazio_salentino	17.06	1	49.65	1	0.0	1	null	6	null	6	null	6	null	6	40.423415	17.846371
1796	2024-03-15 19:00:00	15	san_pancrazio_salentino	14.7	1	69.73	1	0.0	1	null	6	null	6	null	6	null	6	40.423415	17.846371
1797	2024-03-15 20:00:00	15	san_pancrazio_salentino	12.89	1	81.96	1	0.0	1	null	6	null	6	null	6	null	6	40.423415	17.846371
1798	2024-03-15 21:00:00	15	san_pancrazio_salentino	12.46	1	85.79	1	0.0	1	null	6	null	6	null	6	null	6	40.423415	17.846371
1799	2024-03-15 22:00:00	15	san_pancrazio_salentino	12.26	1	87.46	1	0.0	1	null	6	null	6	null	6	null	6	40.423415	17.846371
1800	2024-03-15 23:00:00	15	san_pancrazio_salentino	12.35	1	85.65	1	0.0	1	null	6	null	6	null	6	null	6	40.423415	17.846371
1801	2024-03-16 00:00:00	15	san_pancrazio_salentino	12.17	1	87.14	1	0.0	1	null	6	null	6	null	6	null	6	40.423415	17.846371
1802	2024-03-16 01:00:00	15	san_pancrazio_salentino	11.56	1	88.07	1	0.0	1	null	6	null	6	null	6	null	6	40.423415	17.846371
1803	2024-03-16 02:00:00	15	san_pancrazio_salentino	9.48	1	92.2	1	0.0	1	null	6	null	6	null	6	null	6	40.423415	17.846371
1804	2024-03-16 03:00:00	15	san_pancrazio_salentino	9.29	1	96.18	1	0.0	1	null	6	null	6	null	6	null	6	40.423415	17.846371
1805	2024-03-16 04:00:00	15	san_pancrazio_salentino	9.16	1	96.08	1	0.0	1	null	6	null	6	null	6	null	6	40.423415	17.846371
1806	2024-03-16 05:00:00	15	san_pancrazio_salentino	8.67	1	96.65	1	0.0	1	null	6	null	6	null	6	null	6	40.423415	17.846371
1807	2024-03-16 06:00:00	15	san_pancrazio_salentino	8.6	1	96.28	1	0.0	1	null	6	null	6	null	6	null	6	40.423415	17.846371
1808	2024-03-16 07:00:00	15	san_pancrazio_salentino	8.95	1	94.47	1	0.0	1	null	6	null	6	null	6	null	6	40.423415	17.846371
1809	2024-03-16 08:00:00	15	san_pancrazio_salentino	10.57	1	85.5	1	0.0	1	null	6	null	6	null	6	null	6	40.423415	17.846371
1810	2024-03-16 09:00:00	15	san_pancrazio_salentino	14.19	1	72.55	1	0.0	1	null	6	null	6	null	6	null	6	40.423415	17.846371
1811	2024-03-16 10:00:00	15	san_pancrazio_salentino	15.87	1	66.43	1	0.0	1	null	6	null	6	null	6	null	6	40.423415	17.846371
1812	2024-03-16 11:00:00	15	san_pancrazio_salentino	17.65	1	60.31	1	0.0	1	null	6	null	6	null	6	null	6	40.423415	17.846371
1813	2024-03-16 12:00:00	15	san_pancrazio_salentino	19.76	1	52.8	1	0.0	1	null	6	null	6	null	6	null	6	40.423415	17.846371
1814	2024-03-16 13:00:00	15	san_pancrazio_salentino	21.52	1	51.05	1	0.0	1	null	6	null	6	null	6	null	6	40.423415	17.846371
1815	2024-03-16 14:00:00	15	san_pancrazio_salentino	20.07	1	56.03	1	0.0	1	null	6	null	6	null	6	null	6	40.423415	17.846371
1816	2024-03-16 15:00:00	15	san_pancrazio_salentino	19.36	1	58.75	1	0.0	1	null	6	null	6	null	6	null	6	40.423415	17.846371
1817	2024-03-16 16:00:00	15	san_pancrazio_salentino	18.16	1	63.2	1	0.0	1	null	6	null	6	null	6	null	6	40.423415	17.846371
1818	2024-03-16 17:00:00	15	san_pancrazio_salentino	16.5	1	68.16	1	0.0	1	null	6	null	6	null	6	null	6	40.423415	17.846371
1819	2024-03-16 18:00:00	15	san_pancrazio_salentino	15.8	1	73.89	1	0.0	1	null	6	null	6	null	6	null	6	40.423415	17.846371
1820	2024-03-16 19:00:00	15	san_pancrazio_salentino	14.46	1	82.48	1	0.0	1	null	6	null	6	null	6	null	6	40.423415	17.846371
1821	2024-03-16 20:00:00	15	san_pancrazio_salentino	13.69	1	88.58	1	0.0	1	null	6	null	6	null	6	null	6	40.423415	17.846371
1822	2024-03-16 21:00:00	15	san_pancrazio_salentino	13.04	1	90.99	1	0.6	1	null	6	null	6	null	6	null	6	40.423415	17.846371
1823	2024-03-16 22:00:00	15	san_pancrazio_salentino	12.62	1	93.15	1	0.2	1	null	6	null	6	null	6	null	6	40.423415	17.846371
1824	2024-03-16 23:00:00	15	san_pancrazio_salentino	11.92	1	90.55	1	0.0	1	null	6	null	6	null	6	null	6	40.423415	17.846371
1825	2024-03-17 00:00:00	15	san_pancrazio_salentino	11.38	1	89.05	1	0.0	1	null	6	null	6	null	6	null	6	40.423415	17.846371
1826	2024-03-17 01:00:00	15	san_pancrazio_salentino	11.2	1	90.07	1	0.0	1	null	6	null	6	null	6	null	6	40.423415	17.846371
1827	2024-03-17 02:00:00	15	san_pancrazio_salentino	11.21	1	88.56	1	0.0	1	null	6	null	6	null	6	null	6	40.423415	17.846371
1828	2024-03-17 03:00:00	15	san_pancrazio_salentino	11.24	1	88.06	1	0.0	1	null	6	null	6	null	6	null	6	40.423415	17.846371
1829	2024-03-17 04:00:00	15	san_pancrazio_salentino	10.95	1	90.61	1	0.0	1	null	6	null	6	null	6	null	6	40.423415	17.846371
1830	2024-03-17 05:00:00	15	san_pancrazio_salentino	10.5	1	94.62	1	0.0	1	null	6	null	6	null	6	null	6	40.423415	17.846371
1831	2024-03-17 06:00:00	15	san_pancrazio_salentino	11.7	1	97.04	1	0.0	1	null	6	null	6	null	6	null	6	40.423415	17.846371
1832	2024-03-17 07:00:00	15	san_pancrazio_salentino	12.42	1	96.13	1	0.0	1	null	6	null	6	null	6	null	6	40.423415	17.846371
1833	2024-03-17 08:00:00	15	san_pancrazio_salentino	13.31	1	92.71	1	0.0	1	null	6	null	6	null	6	null	6	40.423415	17.846371
1834	2024-03-17 09:00:00	15	san_pancrazio_salentino	14.91	1	85.55	1	0.0	1	null	6	null	6	null	6	null	6	40.423415	17.846371
1835	2024-03-17 10:00:00	15	san_pancrazio_salentino	16.23	1	77.93	1	0.0	1	null	6	null	6	null	6	null	6	40.423415	17.846371
1836	2024-03-17 11:00:00	15	san_pancrazio_salentino	17.13	1	69.71	1	0.0	1	null	6	null	6	null	6	null	6	40.423415	17.846371
1837	2024-03-17 12:00:00	15	san_pancrazio_salentino	18.51	1	62.52	1	0.0	1	null	6	null	6	null	6	null	6	40.423415	17.846371
1838	2024-03-17 13:00:00	15	san_pancrazio_salentino	20.14	1	57.3	1	0.0	1	null	6	null	6	null	6	null	6	40.423415	17.846371
1839	2024-03-17 14:00:00	15	san_pancrazio_salentino	20.73	1	56.37	1	0.0	1	null	6	null	6	null	6	null	6	40.423415	17.846371
1840	2024-03-17 15:00:00	15	san_pancrazio_salentino	21.06	1	54.91	1	0.0	1	null	6	null	6	null	6	null	6	40.423415	17.846371
1841	2024-03-17 16:00:00	15	san_pancrazio_salentino	19.91	1	58.5	1	0.0	1	null	6	null	6	null	6	null	6	40.423415	17.846371
1842	2024-03-17 17:00:00	15	san_pancrazio_salentino	17.47	1	64.3	1	0.0	1	null	6	null	6	null	6	null	6	40.423415	17.846371
1843	2024-03-17 18:00:00	15	san_pancrazio_salentino	16.06	1	67.99	1	0.0	1	null	6	null	6	null	6	null	6	40.423415	17.846371
1844	2024-03-17 19:00:00	15	san_pancrazio_salentino	13.14	1	81.46	1	0.0	1	null	6	null	6	null	6	null	6	40.423415	17.846371
1845	2024-03-17 20:00:00	15	san_pancrazio_salentino	11.99	1	88.93	1	0.0	1	null	6	null	6	null	6	null	6	40.423415	17.846371
1846	2024-03-17 21:00:00	15	san_pancrazio_salentino	11.54	1	93.31	1	0.0	1	null	6	null	6	null	6	null	6	40.423415	17.846371
1847	2024-03-17 22:00:00	15	san_pancrazio_salentino	11.45	1	94.73	1	0.0	1	null	6	null	6	null	6	null	6	40.423415	17.846371
1848	2024-03-17 23:00:00	15	san_pancrazio_salentino	11.04	1	95.82	1	0.0	1	null	6	null	6	null	6	null	6	40.423415	17.846371
1849	2024-03-18 00:00:00	15	san_pancrazio_salentino	10.72	1	94.85	1	0.0	1	null	6	null	6	null	6	null	6	40.423415	17.846371
1850	2024-03-18 01:00:00	15	san_pancrazio_salentino	10.04	1	91.54	1	0.0	1	null	6	null	6	null	6	null	6	40.423415	17.846371
1851	2024-03-18 02:00:00	15	san_pancrazio_salentino	9.6	1	90.44	1	0.0	1	null	6	null	6	null	6	null	6	40.423415	17.846371
1852	2024-03-18 03:00:00	15	san_pancrazio_salentino	9.68	1	88.74	1	0.0	1	null	6	null	6	null	6	null	6	40.423415	17.846371
1853	2024-03-18 04:00:00	15	san_pancrazio_salentino	9.48	1	89.11	1	0.0	1	null	6	null	6	null	6	null	6	40.423415	17.846371
1854	2024-03-18 05:00:00	15	san_pancrazio_salentino	9.28	1	85.9	1	0.0	1	null	6	null	6	null	6	null	6	40.423415	17.846371
1855	2024-03-18 06:00:00	15	san_pancrazio_salentino	9.06	1	84.66	1	0.0	1	null	6	null	6	null	6	null	6	40.423415	17.846371
1856	2024-03-18 07:00:00	15	san_pancrazio_salentino	8.72	1	85.89	1	0.0	1	null	6	null	6	null	6	null	6	40.423415	17.846371
1857	2024-03-18 08:00:00	15	san_pancrazio_salentino	12.92	1	75.32	1	0.0	1	null	6	null	6	null	6	null	6	40.423415	17.846371
1858	2024-03-18 09:00:00	15	san_pancrazio_salentino	16.0	1	64.59	1	0.0	1	null	6	null	6	null	6	null	6	40.423415	17.846371
1859	2024-03-18 10:00:00	15	san_pancrazio_salentino	17.17	1	57.04	1	0.0	1	null	6	null	6	null	6	null	6	40.423415	17.846371
1860	2024-03-18 11:00:00	15	san_pancrazio_salentino	18.53	1	52.11	1	0.0	1	null	6	null	6	null	6	null	6	40.423415	17.846371
1861	2024-03-18 12:00:00	15	san_pancrazio_salentino	20.2	1	48.13	1	0.0	1	null	6	null	6	null	6	null	6	40.423415	17.846371
1862	2024-03-18 13:00:00	15	san_pancrazio_salentino	21.39	1	47.51	1	0.0	1	null	6	null	6	null	6	null	6	40.423415	17.846371
1863	2024-03-18 14:00:00	15	san_pancrazio_salentino	21.12	1	48.78	1	0.0	1	null	6	null	6	null	6	null	6	40.423415	17.846371
1864	2024-03-18 15:00:00	15	san_pancrazio_salentino	20.69	1	51.98	1	0.0	1	null	6	null	6	null	6	null	6	40.423415	17.846371
1865	2024-03-18 16:00:00	15	san_pancrazio_salentino	18.75	1	62.84	1	0.0	1	null	6	null	6	null	6	null	6	40.423415	17.846371
1866	2024-03-18 17:00:00	15	san_pancrazio_salentino	17.23	1	65.43	1	0.0	1	null	6	null	6	null	6	null	6	40.423415	17.846371
1867	2024-03-18 18:00:00	15	san_pancrazio_salentino	16.61	1	68.64	1	0.0	1	null	6	null	6	null	6	null	6	40.423415	17.846371
1868	2024-03-18 19:00:00	15	san_pancrazio_salentino	15.89	1	75.19	1	0.0	1	null	6	null	6	null	6	null	6	40.423415	17.846371
1869	2024-03-18 20:00:00	15	san_pancrazio_salentino	15.23	1	81.41	1	0.0	1	null	6	null	6	null	6	null	6	40.423415	17.846371
1870	2024-03-18 21:00:00	15	san_pancrazio_salentino	15.31	1	80.3	1	0.0	1	null	6	null	6	null	6	null	6	40.423415	17.846371
1871	2024-03-18 22:00:00	15	san_pancrazio_salentino	14.78	1	84.08	1	0.2	1	null	6	null	6	null	6	null	6	40.423415	17.846371
1872	2024-03-18 23:00:00	15	san_pancrazio_salentino	13.8	1	86.36	1	0.2	1	null	6	null	6	null	6	null	6	40.423415	17.846371
1873	2024-03-19 00:00:00	15	san_pancrazio_salentino	13.18	1	91.71	1	0.0	1	null	6	null	6	null	6	null	6	40.423415	17.846371
1874	2024-03-19 01:00:00	15	san_pancrazio_salentino	12.75	1	94.07	1	1.2	1	null	6	null	6	null	6	null	6	40.423415	17.846371
1875	2024-03-19 02:00:00	15	san_pancrazio_salentino	12.41	1	95.26	1	1.2	1	null	6	null	6	null	6	null	6	40.423415	17.846371
1876	2024-03-19 03:00:00	15	san_pancrazio_salentino	12.29	1	96.36	1	0.6	1	null	6	null	6	null	6	null	6	40.423415	17.846371
1877	2024-03-19 04:00:00	15	san_pancrazio_salentino	12.18	1	96.21	1	0.4	1	null	6	null	6	null	6	null	6	40.423415	17.846371
1878	2024-03-19 05:00:00	15	san_pancrazio_salentino	12.12	1	96.6	1	0.6	1	null	6	null	6	null	6	null	6	40.423415	17.846371
1879	2024-03-19 06:00:00	15	san_pancrazio_salentino	11.97	1	97.0	1	0.2	1	null	6	null	6	null	6	null	6	40.423415	17.846371
1880	2024-03-19 07:00:00	15	san_pancrazio_salentino	12.06	1	96.89	1	0.4	1	null	6	null	6	null	6	null	6	40.423415	17.846371
1881	2024-03-19 08:00:00	15	san_pancrazio_salentino	12.39	1	96.49	1	0.0	1	null	6	null	6	null	6	null	6	40.423415	17.846371
1882	2024-03-19 09:00:00	15	san_pancrazio_salentino	13.04	1	94.64	1	0.8	1	null	6	null	6	null	6	null	6	40.423415	17.846371
1883	2024-03-19 10:00:00	15	san_pancrazio_salentino	14.46	1	88.35	1	0.0	1	null	6	null	6	null	6	null	6	40.423415	17.846371
1884	2024-03-19 11:00:00	15	san_pancrazio_salentino	15.82	1	75.0	1	0.0	1	null	6	null	6	null	6	null	6	40.423415	17.846371
1885	2024-03-19 12:00:00	15	san_pancrazio_salentino	16.41	1	71.27	1	0.0	1	null	6	null	6	null	6	null	6	40.423415	17.846371
1886	2024-03-19 13:00:00	15	san_pancrazio_salentino	16.16	1	73.18	1	0.0	1	null	6	null	6	null	6	null	6	40.423415	17.846371
1887	2024-03-19 14:00:00	15	san_pancrazio_salentino	18.47	1	63.93	1	0.0	1	null	6	null	6	null	6	null	6	40.423415	17.846371
1888	2024-03-19 15:00:00	15	san_pancrazio_salentino	18.81	1	61.22	1	0.0	1	null	6	null	6	null	6	null	6	40.423415	17.846371
1889	2024-03-19 16:00:00	15	san_pancrazio_salentino	17.9	1	61.41	1	0.0	1	null	6	null	6	null	6	null	6	40.423415	17.846371
1890	2024-03-19 17:00:00	15	san_pancrazio_salentino	16.14	1	68.38	1	0.0	1	null	6	null	6	null	6	null	6	40.423415	17.846371
1891	2024-03-19 18:00:00	15	san_pancrazio_salentino	15.21	1	72.16	1	0.0	1	null	6	null	6	null	6	null	6	40.423415	17.846371
1892	2024-03-19 19:00:00	15	san_pancrazio_salentino	12.98	1	83.87	1	0.0	1	null	6	null	6	null	6	null	6	40.423415	17.846371
1893	2024-03-19 20:00:00	15	san_pancrazio_salentino	12.04	1	87.03	1	0.0	1	null	6	null	6	null	6	null	6	40.423415	17.846371
1894	2024-03-19 21:00:00	15	san_pancrazio_salentino	11.73	1	89.91	1	0.0	1	null	6	null	6	null	6	null	6	40.423415	17.846371
1895	2024-03-19 22:00:00	15	san_pancrazio_salentino	11.42	1	90.89	1	0.0	1	null	6	null	6	null	6	null	6	40.423415	17.846371
1896	2024-03-19 23:00:00	15	san_pancrazio_salentino	11.37	1	85.29	1	0.0	1	null	6	null	6	null	6	null	6	40.423415	17.846371
1897	2024-03-20 00:00:00	15	san_pancrazio_salentino	11.09	1	84.15	1	0.0	1	null	6	null	6	null	6	null	6	40.423415	17.846371
1898	2024-03-20 01:00:00	15	san_pancrazio_salentino	11.22	1	84.56	1	0.0	1	null	6	null	6	null	6	null	6	40.423415	17.846371
1899	2024-03-20 02:00:00	15	san_pancrazio_salentino	10.5	1	87.8	1	0.0	1	null	6	null	6	null	6	null	6	40.423415	17.846371
1900	2024-03-20 03:00:00	15	san_pancrazio_salentino	9.22	1	89.68	1	0.0	1	null	6	null	6	null	6	null	6	40.423415	17.846371
1901	2024-03-20 04:00:00	15	san_pancrazio_salentino	8.34	1	85.25	1	0.0	1	null	6	null	6	null	6	null	6	40.423415	17.846371
1902	2024-03-20 05:00:00	15	san_pancrazio_salentino	7.27	1	81.76	1	0.0	1	null	6	null	6	null	6	null	6	40.423415	17.846371
1903	2024-03-20 06:00:00	15	san_pancrazio_salentino	7.26	1	76.74	1	0.0	1	null	6	null	6	null	6	null	6	40.423415	17.846371
1904	2024-03-20 07:00:00	15	san_pancrazio_salentino	7.56	1	75.73	1	0.0	1	null	6	null	6	null	6	null	6	40.423415	17.846371
1905	2024-03-20 08:00:00	15	san_pancrazio_salentino	12.72	1	62.71	1	0.0	1	null	6	null	6	null	6	null	6	40.423415	17.846371
1906	2024-03-20 09:00:00	15	san_pancrazio_salentino	13.6	1	54.23	1	0.0	1	null	6	null	6	null	6	null	6	40.423415	17.846371
1907	2024-03-20 10:00:00	15	san_pancrazio_salentino	13.9	1	48.72	1	0.0	1	null	6	null	6	null	6	null	6	40.423415	17.846371
1908	2024-03-20 11:00:00	15	san_pancrazio_salentino	14.37	1	47.35	1	0.0	1	null	6	null	6	null	6	null	6	40.423415	17.846371
1909	2024-03-20 12:00:00	15	san_pancrazio_salentino	15.94	1	45.75	1	0.0	1	null	6	null	6	null	6	null	6	40.423415	17.846371
1910	2024-03-20 13:00:00	15	san_pancrazio_salentino	18.27	1	39.98	1	0.0	1	null	6	null	6	null	6	null	6	40.423415	17.846371
1911	2024-03-20 14:00:00	15	san_pancrazio_salentino	18.75	1	37.56	1	0.0	1	null	6	null	6	null	6	null	6	40.423415	17.846371
1912	2024-03-20 15:00:00	15	san_pancrazio_salentino	18.8	1	35.99	1	0.0	1	null	6	null	6	null	6	null	6	40.423415	17.846371
1913	2024-03-20 16:00:00	15	san_pancrazio_salentino	18.3	1	36.28	1	0.0	1	null	6	null	6	null	6	null	6	40.423415	17.846371
1914	2024-03-20 17:00:00	15	san_pancrazio_salentino	15.84	1	45.05	1	0.0	1	null	6	null	6	null	6	null	6	40.423415	17.846371
1915	2024-03-20 18:00:00	15	san_pancrazio_salentino	14.66	1	54.23	1	0.0	1	null	6	null	6	null	6	null	6	40.423415	17.846371
1916	2024-03-20 19:00:00	15	san_pancrazio_salentino	10.85	1	68.76	1	0.0	1	null	6	null	6	null	6	null	6	40.423415	17.846371
1917	2024-03-20 20:00:00	15	san_pancrazio_salentino	9.82	1	72.88	1	0.0	1	null	6	null	6	null	6	null	6	40.423415	17.846371
1918	2024-03-20 21:00:00	15	san_pancrazio_salentino	9.1	1	77.07	1	0.0	1	null	6	null	6	null	6	null	6	40.423415	17.846371
1919	2024-03-20 22:00:00	15	san_pancrazio_salentino	8.56	1	80.58	1	0.0	1	null	6	null	6	null	6	null	6	40.423415	17.846371
1920	2024-03-20 23:00:00	15	san_pancrazio_salentino	8.02	1	84.1	1	0.0	1	null	6	null	6	null	6	null	6	40.423415	17.846371
1921	2024-03-21 00:00:00	15	san_pancrazio_salentino	7.33	1	87.09	1	0.0	1	null	6	null	6	null	6	null	6	40.423415	17.846371
1922	2024-03-21 01:00:00	15	san_pancrazio_salentino	7.22	1	87.0	1	0.0	1	null	6	null	6	null	6	null	6	40.423415	17.846371
1923	2024-03-21 02:00:00	15	san_pancrazio_salentino	7.02	1	86.17	1	0.0	1	null	6	null	6	null	6	null	6	40.423415	17.846371
1924	2024-03-21 03:00:00	15	san_pancrazio_salentino	7.34	1	83.19	1	0.0	1	null	6	null	6	null	6	null	6	40.423415	17.846371
1925	2024-03-21 04:00:00	15	san_pancrazio_salentino	6.87	1	84.33	1	0.0	1	null	6	null	6	null	6	null	6	40.423415	17.846371
1926	2024-03-21 05:00:00	15	san_pancrazio_salentino	5.76	1	88.01	1	0.0	1	null	6	null	6	null	6	null	6	40.423415	17.846371
1927	2024-03-21 06:00:00	15	san_pancrazio_salentino	5.4	1	90.25	1	0.0	1	null	6	null	6	null	6	null	6	40.423415	17.846371
1928	2024-03-21 07:00:00	15	san_pancrazio_salentino	5.98	1	88.51	1	0.0	1	null	6	null	6	null	6	null	6	40.423415	17.846371
1929	2024-03-21 08:00:00	15	san_pancrazio_salentino	10.6	1	75.49	1	0.0	1	null	6	null	6	null	6	null	6	40.423415	17.846371
1930	2024-03-21 09:00:00	15	san_pancrazio_salentino	12.6	1	69.2	1	0.0	1	null	6	null	6	null	6	null	6	40.423415	17.846371
1931	2024-03-21 10:00:00	15	san_pancrazio_salentino	14.27	1	59.01	1	0.0	1	null	6	null	6	null	6	null	6	40.423415	17.846371
1932	2024-03-21 11:00:00	15	san_pancrazio_salentino	15.7	1	44.48	1	0.0	1	null	6	null	6	null	6	null	6	40.423415	17.846371
1933	2024-03-21 12:00:00	15	san_pancrazio_salentino	18.35	1	34.26	1	0.0	1	null	6	null	6	null	6	null	6	40.423415	17.846371
1934	2024-03-21 13:00:00	15	san_pancrazio_salentino	22.74	1	25.33	1	0.0	1	null	6	null	6	null	6	null	6	40.423415	17.846371
1935	2024-03-21 14:00:00	15	san_pancrazio_salentino	22.76	1	29.47	1	0.0	1	null	6	null	6	null	6	null	6	40.423415	17.846371
1936	2024-03-21 15:00:00	15	san_pancrazio_salentino	21.02	1	37.02	1	0.0	1	null	6	null	6	null	6	null	6	40.423415	17.846371
1937	2024-03-21 16:00:00	15	san_pancrazio_salentino	20.72	1	36.19	1	0.0	1	null	6	null	6	null	6	null	6	40.423415	17.846371
1938	2024-03-21 17:00:00	15	san_pancrazio_salentino	18.46	1	39.97	1	0.0	1	null	6	null	6	null	6	null	6	40.423415	17.846371
1939	2024-03-21 18:00:00	15	san_pancrazio_salentino	16.94	1	48.21	1	0.0	1	null	6	null	6	null	6	null	6	40.423415	17.846371
1940	2024-03-21 19:00:00	15	san_pancrazio_salentino	14.31	1	63.4	1	0.0	1	null	6	null	6	null	6	null	6	40.423415	17.846371
1941	2024-03-21 20:00:00	15	san_pancrazio_salentino	12.49	1	74.08	1	0.0	1	null	6	null	6	null	6	null	6	40.423415	17.846371
1942	2024-03-21 21:00:00	15	san_pancrazio_salentino	11.35	1	79.47	1	0.0	1	null	6	null	6	null	6	null	6	40.423415	17.846371
1943	2024-03-21 22:00:00	15	san_pancrazio_salentino	11.15	1	79.76	1	0.0	1	null	6	null	6	null	6	null	6	40.423415	17.846371
1944	2024-03-21 23:00:00	15	san_pancrazio_salentino	10.33	1	82.95	1	0.0	1	null	6	null	6	null	6	null	6	40.423415	17.846371
1945	2024-03-22 00:00:00	15	san_pancrazio_salentino	8.79	1	89.77	1	0.0	1	null	6	null	6	null	6	null	6	40.423415	17.846371
1946	2024-03-22 01:00:00	15	san_pancrazio_salentino	10.41	1	83.3	1	0.0	1	null	6	null	6	null	6	null	6	40.423415	17.846371
1947	2024-03-22 02:00:00	15	san_pancrazio_salentino	10.66	1	82.48	1	0.0	1	null	6	null	6	null	6	null	6	40.423415	17.846371
1948	2024-03-22 03:00:00	15	san_pancrazio_salentino	9.28	1	82.51	1	0.0	1	null	6	null	6	null	6	null	6	40.423415	17.846371
1949	2024-03-22 04:00:00	15	san_pancrazio_salentino	9.79	1	77.08	1	0.0	1	null	6	null	6	null	6	null	6	40.423415	17.846371
1950	2024-03-22 05:00:00	15	san_pancrazio_salentino	9.4	1	79.33	1	0.0	1	null	6	null	6	null	6	null	6	40.423415	17.846371
1951	2024-03-22 06:00:00	15	san_pancrazio_salentino	9.59	1	80.92	1	0.0	1	null	6	null	6	null	6	null	6	40.423415	17.846371
1952	2024-03-22 07:00:00	15	san_pancrazio_salentino	9.66	1	88.93	1	0.0	1	null	6	null	6	null	6	null	6	40.423415	17.846371
1953	2024-03-22 08:00:00	15	san_pancrazio_salentino	10.99	1	91.31	1	0.0	1	null	6	null	6	null	6	null	6	40.423415	17.846371
1954	2024-03-22 09:00:00	15	san_pancrazio_salentino	14.9	1	76.86	1	0.0	1	null	6	null	6	null	6	null	6	40.423415	17.846371
1955	2024-03-22 10:00:00	15	san_pancrazio_salentino	16.69	1	61.42	1	0.0	1	null	6	null	6	null	6	null	6	40.423415	17.846371
1956	2024-03-22 11:00:00	15	san_pancrazio_salentino	17.08	1	59.42	1	0.0	1	null	6	null	6	null	6	null	6	40.423415	17.846371
1957	2024-03-22 12:00:00	15	san_pancrazio_salentino	17.08	1	63.53	1	0.0	1	null	6	null	6	null	6	null	6	40.423415	17.846371
1958	2024-03-22 13:00:00	15	san_pancrazio_salentino	18.19	1	59.74	1	0.0	1	null	6	null	6	null	6	null	6	40.423415	17.846371
1959	2024-03-22 14:00:00	15	san_pancrazio_salentino	19.5	1	55.52	1	0.0	1	null	6	null	6	null	6	null	6	40.423415	17.846371
1960	2024-03-22 15:00:00	15	san_pancrazio_salentino	20.62	1	53.64	1	0.0	1	null	6	null	6	null	6	null	6	40.423415	17.846371
1961	2024-03-22 16:00:00	15	san_pancrazio_salentino	19.91	1	54.1	1	0.0	1	null	6	null	6	null	6	null	6	40.423415	17.846371
1962	2024-03-22 17:00:00	15	san_pancrazio_salentino	17.89	1	59.42	1	0.0	1	null	6	null	6	null	6	null	6	40.423415	17.846371
1963	2024-03-22 18:00:00	15	san_pancrazio_salentino	16.18	1	69.4	1	0.0	1	null	6	null	6	null	6	null	6	40.423415	17.846371
1964	2024-03-22 19:00:00	15	san_pancrazio_salentino	13.2	1	84.79	1	0.0	1	null	6	null	6	null	6	null	6	40.423415	17.846371
1965	2024-03-22 20:00:00	15	san_pancrazio_salentino	12.15	1	91.19	1	0.0	1	null	6	null	6	null	6	null	6	40.423415	17.846371
1966	2024-03-22 21:00:00	15	san_pancrazio_salentino	11.61	1	92.86	1	0.0	1	null	6	null	6	null	6	null	6	40.423415	17.846371
1967	2024-03-22 22:00:00	15	san_pancrazio_salentino	11.03	1	94.9	1	0.0	1	null	6	null	6	null	6	null	6	40.423415	17.846371
1968	2024-03-22 23:00:00	15	san_pancrazio_salentino	10.56	1	96.43	1	0.0	1	null	6	null	6	null	6	null	6	40.423415	17.846371
1969	2024-03-23 00:00:00	15	san_pancrazio_salentino	10.72	1	97.19	1	0.0	1	null	6	null	6	null	6	null	6	40.423415	17.846371
1970	2024-03-23 01:00:00	15	san_pancrazio_salentino	10.68	1	97.24	1	0.0	1	null	6	null	6	null	6	null	6	40.423415	17.846371
1971	2024-03-23 02:00:00	15	san_pancrazio_salentino	10.23	1	97.45	1	0.0	1	null	6	null	6	null	6	null	6	40.423415	17.846371
1972	2024-03-23 03:00:00	15	san_pancrazio_salentino	9.92	1	97.69	1	0.0	1	null	6	null	6	null	6	null	6	40.423415	17.846371
1973	2024-03-23 04:00:00	15	san_pancrazio_salentino	9.49	1	97.96	1	0.0	1	null	6	null	6	null	6	null	6	40.423415	17.846371
1974	2024-03-23 05:00:00	15	san_pancrazio_salentino	9.06	1	98.04	1	0.0	1	null	6	null	6	null	6	null	6	40.423415	17.846371
1975	2024-03-23 06:00:00	15	san_pancrazio_salentino	8.41	1	98.05	1	0.0	1	null	6	null	6	null	6	null	6	40.423415	17.846371
1976	2024-03-23 07:00:00	15	san_pancrazio_salentino	9.18	1	97.54	1	0.0	1	null	6	null	6	null	6	null	6	40.423415	17.846371
1977	2024-03-23 08:00:00	15	san_pancrazio_salentino	13.88	1	80.0	1	0.0	1	null	6	null	6	null	6	null	6	40.423415	17.846371
1978	2024-03-23 09:00:00	15	san_pancrazio_salentino	14.34	1	73.75	1	0.0	1	null	6	null	6	null	6	null	6	40.423415	17.846371
1979	2024-03-23 10:00:00	15	san_pancrazio_salentino	16.0	1	67.69	1	0.0	1	null	6	null	6	null	6	null	6	40.423415	17.846371
1980	2024-03-23 11:00:00	15	san_pancrazio_salentino	17.08	1	64.75	1	0.0	1	null	6	null	6	null	6	null	6	40.423415	17.846371
1981	2024-03-23 12:00:00	15	san_pancrazio_salentino	18.63	1	58.52	1	0.0	1	null	6	null	6	null	6	null	6	40.423415	17.846371
1982	2024-03-23 13:00:00	15	san_pancrazio_salentino	20.51	1	50.11	1	0.0	1	null	6	null	6	null	6	null	6	40.423415	17.846371
1983	2024-03-23 14:00:00	15	san_pancrazio_salentino	20.91	1	45.69	1	0.0	1	null	6	null	6	null	6	null	6	40.423415	17.846371
1984	2024-03-23 15:00:00	15	san_pancrazio_salentino	20.56	1	45.55	1	0.0	1	null	6	null	6	null	6	null	6	40.423415	17.846371
1985	2024-03-23 16:00:00	15	san_pancrazio_salentino	19.08	1	48.38	1	0.0	1	null	6	null	6	null	6	null	6	40.423415	17.846371
1986	2024-03-23 17:00:00	15	san_pancrazio_salentino	17.26	1	58.23	1	0.0	1	null	6	null	6	null	6	null	6	40.423415	17.846371
1987	2024-03-23 18:00:00	15	san_pancrazio_salentino	16.19	1	70.17	1	0.0	1	null	6	null	6	null	6	null	6	40.423415	17.846371
1988	2024-03-23 19:00:00	15	san_pancrazio_salentino	14.2	1	82.57	1	0.0	1	null	6	null	6	null	6	null	6	40.423415	17.846371
1989	2024-03-23 20:00:00	15	san_pancrazio_salentino	13.56	1	86.74	1	0.0	1	null	6	null	6	null	6	null	6	40.423415	17.846371
1990	2024-03-23 21:00:00	15	san_pancrazio_salentino	13.49	1	86.64	1	0.0	1	null	6	null	6	null	6	null	6	40.423415	17.846371
1991	2024-03-23 22:00:00	15	san_pancrazio_salentino	13.6	1	88.96	1	0.0	1	null	6	null	6	null	6	null	6	40.423415	17.846371
1992	2024-03-23 23:00:00	15	san_pancrazio_salentino	13.6	1	91.04	1	0.0	1	null	6	null	6	null	6	null	6	40.423415	17.846371
1993	2024-03-24 00:00:00	15	san_pancrazio_salentino	13.42	1	91.13	1	0.0	1	null	6	null	6	null	6	null	6	40.423415	17.846371
1994	2024-03-24 01:00:00	15	san_pancrazio_salentino	13.28	1	88.93	1	0.0	1	null	6	null	6	null	6	null	6	40.423415	17.846371
1995	2024-03-24 02:00:00	15	san_pancrazio_salentino	13.19	1	89.51	1	0.0	1	null	6	null	6	null	6	null	6	40.423415	17.846371
1996	2024-03-24 03:00:00	15	san_pancrazio_salentino	13.18	1	90.08	1	0.0	1	null	6	null	6	null	6	null	6	40.423415	17.846371
1997	2024-03-24 04:00:00	15	san_pancrazio_salentino	12.42	1	91.75	1	0.0	1	null	6	null	6	null	6	null	6	40.423415	17.846371
1998	2024-03-24 05:00:00	15	san_pancrazio_salentino	11.84	1	94.04	1	0.0	1	null	6	null	6	null	6	null	6	40.423415	17.846371
1999	2024-03-24 06:00:00	15	san_pancrazio_salentino	11.83	1	92.83	1	0.0	1	null	6	null	6	null	6	null	6	40.423415	17.846371
2000	2024-03-24 07:00:00	15	san_pancrazio_salentino	12.53	1	88.96	1	0.0	1	null	6	null	6	null	6	null	6	40.423415	17.846371
2001	2024-03-24 08:00:00	15	san_pancrazio_salentino	16.02	1	77.59	1	0.0	1	null	6	null	6	null	6	null	6	40.423415	17.846371
2002	2024-03-24 09:00:00	15	san_pancrazio_salentino	16.71	1	68.23	1	0.0	1	null	6	null	6	null	6	null	6	40.423415	17.846371
2003	2024-03-24 10:00:00	15	san_pancrazio_salentino	17.18	1	66.21	1	0.0	1	null	6	null	6	null	6	null	6	40.423415	17.846371
2004	2024-03-24 11:00:00	15	san_pancrazio_salentino	17.57	1	67.02	1	0.0	1	null	6	null	6	null	6	null	6	40.423415	17.846371
2005	2024-03-24 12:00:00	15	san_pancrazio_salentino	19.38	1	56.17	1	0.0	1	null	6	null	6	null	6	null	6	40.423415	17.846371
2006	2024-03-24 13:00:00	15	san_pancrazio_salentino	20.25	1	54.51	1	0.0	1	null	6	null	6	null	6	null	6	40.423415	17.846371
2007	2024-03-24 14:00:00	15	san_pancrazio_salentino	20.39	1	51.85	1	0.0	1	null	6	null	6	null	6	null	6	40.423415	17.846371
2008	2024-03-24 15:00:00	15	san_pancrazio_salentino	19.36	1	52.26	1	0.0	1	null	6	null	6	null	6	null	6	40.423415	17.846371
2009	2024-03-24 16:00:00	15	san_pancrazio_salentino	19.79	1	51.16	1	0.0	1	null	6	null	6	null	6	null	6	40.423415	17.846371
2010	2024-03-24 17:00:00	15	san_pancrazio_salentino	19.16	1	55.88	1	0.0	1	null	6	null	6	null	6	null	6	40.423415	17.846371
2011	2024-03-24 18:00:00	15	san_pancrazio_salentino	17.76	1	63.17	1	0.0	1	null	6	null	6	null	6	null	6	40.423415	17.846371
2012	2024-03-24 19:00:00	15	san_pancrazio_salentino	16.45	1	66.11	1	0.0	1	null	6	null	6	null	6	null	6	40.423415	17.846371
2013	2024-03-24 20:00:00	15	san_pancrazio_salentino	16.02	1	68.63	1	0.0	1	null	6	null	6	null	6	null	6	40.423415	17.846371
2014	2024-03-24 21:00:00	15	san_pancrazio_salentino	15.62	1	71.11	1	0.0	1	null	6	null	6	null	6	null	6	40.423415	17.846371
2015	2024-03-24 22:00:00	15	san_pancrazio_salentino	14.24	1	76.86	1	0.0	1	null	6	null	6	null	6	null	6	40.423415	17.846371
2016	2024-03-24 23:00:00	15	san_pancrazio_salentino	12.82	1	81.35	1	0.0	1	null	6	null	6	null	6	null	6	40.423415	17.846371
2017	2024-03-25 00:00:00	15	san_pancrazio_salentino	11.52	1	74.6	1	0.0	1	null	6	null	6	null	6	null	6	40.423415	17.846371
2018	2024-03-25 01:00:00	15	san_pancrazio_salentino	11.32	1	80.96	1	0.0	1	null	6	null	6	null	6	null	6	40.423415	17.846371
2019	2024-03-25 02:00:00	15	san_pancrazio_salentino	11.72	1	87.75	1	0.0	1	null	6	null	6	null	6	null	6	40.423415	17.846371
2020	2024-03-25 03:00:00	15	san_pancrazio_salentino	11.51	1	90.65	1	0.0	1	null	6	null	6	null	6	null	6	40.423415	17.846371
2021	2024-03-25 04:00:00	15	san_pancrazio_salentino	10.98	1	91.96	1	0.0	1	null	6	null	6	null	6	null	6	40.423415	17.846371
2022	2024-03-25 05:00:00	15	san_pancrazio_salentino	10.39	1	92.04	1	0.0	1	null	6	null	6	null	6	null	6	40.423415	17.846371
2023	2024-03-25 06:00:00	15	san_pancrazio_salentino	9.53	1	90.33	1	0.0	1	null	6	null	6	null	6	null	6	40.423415	17.846371
2024	2024-03-25 07:00:00	15	san_pancrazio_salentino	10.26	1	82.66	1	0.0	1	null	6	null	6	null	6	null	6	40.423415	17.846371
2025	2024-03-25 08:00:00	15	san_pancrazio_salentino	14.44	1	68.8	1	0.0	1	null	6	null	6	null	6	null	6	40.423415	17.846371
2026	2024-03-25 09:00:00	15	san_pancrazio_salentino	15.17	1	61.44	1	0.0	1	null	6	null	6	null	6	null	6	40.423415	17.846371
2027	2024-03-25 10:00:00	15	san_pancrazio_salentino	16.14	1	51.93	1	0.0	1	null	6	null	6	null	6	null	6	40.423415	17.846371
2028	2024-03-25 11:00:00	15	san_pancrazio_salentino	17.08	1	43.85	1	0.0	1	null	6	null	6	null	6	null	6	40.423415	17.846371
2029	2024-03-25 12:00:00	15	san_pancrazio_salentino	18.68	1	38.24	1	0.0	1	null	6	null	6	null	6	null	6	40.423415	17.846371
2030	2024-03-25 13:00:00	15	san_pancrazio_salentino	21.41	1	31.72	1	0.0	1	null	6	null	6	null	6	null	6	40.423415	17.846371
2031	2024-03-25 14:00:00	15	san_pancrazio_salentino	21.59	1	32.76	1	0.0	1	null	6	null	6	null	6	null	6	40.423415	17.846371
2032	2024-03-25 15:00:00	15	san_pancrazio_salentino	20.39	1	38.92	1	0.0	1	null	6	null	6	null	6	null	6	40.423415	17.846371
2033	2024-03-25 16:00:00	15	san_pancrazio_salentino	19.02	1	38.52	1	0.0	1	null	6	null	6	null	6	null	6	40.423415	17.846371
2034	2024-03-25 17:00:00	15	san_pancrazio_salentino	15.79	1	46.09	1	0.0	1	null	6	null	6	null	6	null	6	40.423415	17.846371
2035	2024-03-25 18:00:00	15	san_pancrazio_salentino	14.16	1	54.72	1	0.0	1	null	6	null	6	null	6	null	6	40.423415	17.846371
2036	2024-03-25 19:00:00	15	san_pancrazio_salentino	12.71	1	60.62	1	0.0	1	null	6	null	6	null	6	null	6	40.423415	17.846371
2037	2024-03-25 20:00:00	15	san_pancrazio_salentino	12.53	1	62.41	1	0.0	1	null	6	null	6	null	6	null	6	40.423415	17.846371
2038	2024-03-25 21:00:00	15	san_pancrazio_salentino	12.31	1	63.47	1	0.0	1	null	6	null	6	null	6	null	6	40.423415	17.846371
2039	2024-03-25 22:00:00	15	san_pancrazio_salentino	11.55	1	71.61	1	0.0	1	null	6	null	6	null	6	null	6	40.423415	17.846371
2040	2024-03-25 23:00:00	15	san_pancrazio_salentino	11.93	1	66.87	1	0.0	1	null	6	null	6	null	6	null	6	40.423415	17.846371
2041	2024-03-26 00:00:00	15	san_pancrazio_salentino	11.7	1	73.31	1	0.0	1	null	6	null	6	null	6	null	6	40.423415	17.846371
2042	2024-03-26 01:00:00	15	san_pancrazio_salentino	10.98	1	79.86	1	0.0	1	null	6	null	6	null	6	null	6	40.423415	17.846371
2043	2024-03-26 02:00:00	15	san_pancrazio_salentino	11.21	1	77.6	1	0.0	1	null	6	null	6	null	6	null	6	40.423415	17.846371
2044	2024-03-26 03:00:00	15	san_pancrazio_salentino	10.89	1	81.33	1	0.0	1	null	6	null	6	null	6	null	6	40.423415	17.846371
2045	2024-03-26 04:00:00	15	san_pancrazio_salentino	11.06	1	78.79	1	0.0	1	null	6	null	6	null	6	null	6	40.423415	17.846371
2046	2024-03-26 05:00:00	15	san_pancrazio_salentino	11.33	1	79.4	1	0.0	1	null	6	null	6	null	6	null	6	40.423415	17.846371
2047	2024-03-26 06:00:00	15	san_pancrazio_salentino	12.08	1	75.75	1	0.0	1	null	6	null	6	null	6	null	6	40.423415	17.846371
2048	2024-03-26 07:00:00	15	san_pancrazio_salentino	11.79	1	77.41	1	0.0	1	null	6	null	6	null	6	null	6	40.423415	17.846371
2049	2024-03-26 08:00:00	15	san_pancrazio_salentino	12.46	1	74.84	1	0.0	1	null	6	null	6	null	6	null	6	40.423415	17.846371
2050	2024-03-26 09:00:00	15	san_pancrazio_salentino	12.4	1	82.23	1	0.0	1	null	6	null	6	null	6	null	6	40.423415	17.846371
2051	2024-03-26 10:00:00	15	san_pancrazio_salentino	12.61	1	86.01	1	0.0	1	null	6	null	6	null	6	null	6	40.423415	17.846371
2052	2024-03-26 11:00:00	15	san_pancrazio_salentino	14.16	1	85.61	1	0.0	1	null	6	null	6	null	6	null	6	40.423415	17.846371
2053	2024-03-26 12:00:00	15	san_pancrazio_salentino	15.61	1	80.68	1	0.0	1	null	6	null	6	null	6	null	6	40.423415	17.846371
2054	2024-03-26 13:00:00	15	san_pancrazio_salentino	16.4	1	78.46	1	0.0	1	null	6	null	6	null	6	null	6	40.423415	17.846371
2055	2024-03-26 14:00:00	15	san_pancrazio_salentino	16.68	1	77.62	1	0.0	1	null	6	null	6	null	6	null	6	40.423415	17.846371
2056	2024-03-26 15:00:00	15	san_pancrazio_salentino	16.9	1	80.78	1	0.0	1	null	6	null	6	null	6	null	6	40.423415	17.846371
2057	2024-03-26 16:00:00	15	san_pancrazio_salentino	17.05	1	82.21	1	0.0	1	null	6	null	6	null	6	null	6	40.423415	17.846371
2058	2024-03-26 17:00:00	15	san_pancrazio_salentino	17.0	1	81.1	1	0.2	1	null	6	null	6	null	6	null	6	40.423415	17.846371
2059	2024-03-26 18:00:00	15	san_pancrazio_salentino	16.5	1	82.42	1	0.0	1	null	6	null	6	null	6	null	6	40.423415	17.846371
2060	2024-03-26 19:00:00	15	san_pancrazio_salentino	16.3	1	81.77	1	0.0	1	null	6	null	6	null	6	null	6	40.423415	17.846371
2061	2024-03-26 20:00:00	15	san_pancrazio_salentino	16.13	1	85.59	1	0.0	1	null	6	null	6	null	6	null	6	40.423415	17.846371
2062	2024-03-26 21:00:00	15	san_pancrazio_salentino	16.04	1	86.01	1	0.0	1	null	6	null	6	null	6	null	6	40.423415	17.846371
2063	2024-03-26 22:00:00	15	san_pancrazio_salentino	15.84	1	87.91	1	0.0	1	null	6	null	6	null	6	null	6	40.423415	17.846371
2064	2024-03-26 23:00:00	15	san_pancrazio_salentino	16.04	1	87.29	1	0.0	1	null	6	null	6	null	6	null	6	40.423415	17.846371
2065	2024-03-27 00:00:00	15	san_pancrazio_salentino	15.81	1	89.15	1	0.0	1	null	6	null	6	null	6	null	6	40.423415	17.846371
2066	2024-03-27 01:00:00	15	san_pancrazio_salentino	15.44	1	92.3	1	0.0	1	null	6	null	6	null	6	null	6	40.423415	17.846371
2067	2024-03-27 02:00:00	15	san_pancrazio_salentino	15.41	1	93.89	1	0.0	1	null	6	null	6	null	6	null	6	40.423415	17.846371
2068	2024-03-27 03:00:00	15	san_pancrazio_salentino	15.34	1	94.93	1	0.0	1	null	6	null	6	null	6	null	6	40.423415	17.846371
2069	2024-03-27 04:00:00	15	san_pancrazio_salentino	15.43	1	94.7	1	0.0	1	null	6	null	6	null	6	null	6	40.423415	17.846371
2070	2024-03-27 05:00:00	15	san_pancrazio_salentino	15.43	1	95.03	1	0.0	1	null	6	null	6	null	6	null	6	40.423415	17.846371
2071	2024-03-27 06:00:00	15	san_pancrazio_salentino	15.51	1	94.47	1	0.0	1	null	6	null	6	null	6	null	6	40.423415	17.846371
2072	2024-03-27 07:00:00	15	san_pancrazio_salentino	15.7	1	92.99	1	0.0	1	null	6	null	6	null	6	null	6	40.423415	17.846371
2073	2024-03-27 08:00:00	15	san_pancrazio_salentino	15.95	1	91.76	1	0.0	1	null	6	null	6	null	6	null	6	40.423415	17.846371
2074	2024-03-27 09:00:00	15	san_pancrazio_salentino	17.14	1	87.93	1	0.0	1	null	6	null	6	null	6	null	6	40.423415	17.846371
2075	2024-03-27 10:00:00	15	san_pancrazio_salentino	19.22	1	74.65	1	0.0	1	null	6	null	6	null	6	null	6	40.423415	17.846371
2076	2024-03-27 11:00:00	15	san_pancrazio_salentino	20.9	1	68.93	1	0.0	1	null	6	null	6	null	6	null	6	40.423415	17.846371
2077	2024-03-27 12:00:00	15	san_pancrazio_salentino	21.85	1	66.06	1	0.0	1	null	6	null	6	null	6	null	6	40.423415	17.846371
2078	2024-03-27 13:00:00	15	san_pancrazio_salentino	22.14	1	63.52	1	0.0	1	null	6	null	6	null	6	null	6	40.423415	17.846371
2079	2024-03-27 14:00:00	15	san_pancrazio_salentino	22.33	1	57.62	1	0.0	1	null	6	null	6	null	6	null	6	40.423415	17.846371
2080	2024-03-27 15:00:00	15	san_pancrazio_salentino	22.19	1	57.92	1	0.0	1	null	6	null	6	null	6	null	6	40.423415	17.846371
2081	2024-03-27 16:00:00	15	san_pancrazio_salentino	20.53	1	65.03	1	0.0	1	null	6	null	6	null	6	null	6	40.423415	17.846371
2082	2024-03-27 17:00:00	15	san_pancrazio_salentino	19.59	1	67.46	1	0.0	1	null	6	null	6	null	6	null	6	40.423415	17.846371
2083	2024-03-27 18:00:00	15	san_pancrazio_salentino	18.68	1	71.47	1	0.0	1	null	6	null	6	null	6	null	6	40.423415	17.846371
2084	2024-03-27 19:00:00	15	san_pancrazio_salentino	17.59	1	79.83	1	0.0	1	null	6	null	6	null	6	null	6	40.423415	17.846371
2085	2024-03-27 20:00:00	15	san_pancrazio_salentino	16.68	1	85.52	1	0.0	1	null	6	null	6	null	6	null	6	40.423415	17.846371
2086	2024-03-27 21:00:00	15	san_pancrazio_salentino	16.19	1	61.52	1	0.0	1	null	6	null	6	null	6	null	6	40.423415	17.846371
2087	2024-03-27 22:00:00	15	san_pancrazio_salentino	15.3	1	66.38	1	0.0	1	null	6	null	6	null	6	null	6	40.423415	17.846371
2088	2024-03-27 23:00:00	15	san_pancrazio_salentino	14.79	1	59.72	1	0.0	1	null	6	null	6	null	6	null	6	40.423415	17.846371
2089	2024-03-28 00:00:00	15	san_pancrazio_salentino	14.26	1	66.03	1	0.0	1	null	6	null	6	null	6	null	6	40.423415	17.846371
2090	2024-03-28 01:00:00	15	san_pancrazio_salentino	13.32	1	67.69	1	0.0	1	null	6	null	6	null	6	null	6	40.423415	17.846371
2091	2024-03-28 02:00:00	15	san_pancrazio_salentino	12.46	1	68.23	1	0.0	1	null	6	null	6	null	6	null	6	40.423415	17.846371
2092	2024-03-28 03:00:00	15	san_pancrazio_salentino	11.28	1	72.81	1	0.0	1	null	6	null	6	null	6	null	6	40.423415	17.846371
2093	2024-03-28 04:00:00	15	san_pancrazio_salentino	11.36	1	69.16	1	0.0	1	null	6	null	6	null	6	null	6	40.423415	17.846371
2094	2024-03-28 05:00:00	15	san_pancrazio_salentino	11.65	1	68.49	1	0.0	1	null	6	null	6	null	6	null	6	40.423415	17.846371
2095	2024-03-28 06:00:00	15	san_pancrazio_salentino	11.55	1	73.45	1	0.0	1	null	6	null	6	null	6	null	6	40.423415	17.846371
2096	2024-03-28 07:00:00	15	san_pancrazio_salentino	11.26	1	78.25	1	0.0	1	null	6	null	6	null	6	null	6	40.423415	17.846371
2097	2024-03-28 08:00:00	15	san_pancrazio_salentino	16.29	1	67.1	1	0.0	1	null	6	null	6	null	6	null	6	40.423415	17.846371
2098	2024-03-28 09:00:00	15	san_pancrazio_salentino	16.88	1	63.27	1	0.0	1	null	6	null	6	null	6	null	6	40.423415	17.846371
2099	2024-03-28 10:00:00	15	san_pancrazio_salentino	17.34	1	61.61	1	0.0	1	null	6	null	6	null	6	null	6	40.423415	17.846371
2100	2024-03-28 11:00:00	15	san_pancrazio_salentino	18.04	1	53.54	1	0.0	1	null	6	null	6	null	6	null	6	40.423415	17.846371
2101	2024-03-28 12:00:00	15	san_pancrazio_salentino	19.88	1	44.12	1	0.0	1	null	6	null	6	null	6	null	6	40.423415	17.846371
2102	2024-03-28 13:00:00	15	san_pancrazio_salentino	21.52	1	42.76	1	0.0	1	null	6	null	6	null	6	null	6	40.423415	17.846371
2103	2024-03-28 14:00:00	15	san_pancrazio_salentino	20.93	1	48.07	1	0.0	1	null	6	null	6	null	6	null	6	40.423415	17.846371
2104	2024-03-28 15:00:00	15	san_pancrazio_salentino	21.34	1	45.79	1	0.0	1	null	6	null	6	null	6	null	6	40.423415	17.846371
2105	2024-03-28 16:00:00	15	san_pancrazio_salentino	20.57	1	47.63	1	0.0	1	null	6	null	6	null	6	null	6	40.423415	17.846371
2106	2024-03-28 17:00:00	15	san_pancrazio_salentino	19.05	1	50.22	1	0.0	1	null	6	null	6	null	6	null	6	40.423415	17.846371
2107	2024-03-28 18:00:00	15	san_pancrazio_salentino	17.23	1	57.37	1	0.0	1	null	6	null	6	null	6	null	6	40.423415	17.846371
2108	2024-03-28 19:00:00	15	san_pancrazio_salentino	16.06	1	64.93	1	0.0	1	null	6	null	6	null	6	null	6	40.423415	17.846371
2109	2024-03-28 20:00:00	15	san_pancrazio_salentino	15.01	1	73.73	1	0.0	1	null	6	null	6	null	6	null	6	40.423415	17.846371
2110	2024-03-28 21:00:00	15	san_pancrazio_salentino	14.15	1	76.88	1	0.0	1	null	6	null	6	null	6	null	6	40.423415	17.846371
2111	2024-03-28 22:00:00	15	san_pancrazio_salentino	13.34	1	77.14	1	0.0	1	null	6	null	6	null	6	null	6	40.423415	17.846371
2112	2024-03-28 23:00:00	15	san_pancrazio_salentino	13.46	1	77.51	1	0.0	1	null	6	null	6	null	6	null	6	40.423415	17.846371
2113	2024-03-29 00:00:00	15	san_pancrazio_salentino	12.67	1	83.63	1	0.0	1	null	6	null	6	null	6	null	6	40.423415	17.846371
2114	2024-03-29 01:00:00	15	san_pancrazio_salentino	12.05	1	86.19	1	0.0	1	null	6	null	6	null	6	null	6	40.423415	17.846371
2115	2024-03-29 02:00:00	15	san_pancrazio_salentino	11.97	1	86.01	1	0.0	1	null	6	null	6	null	6	null	6	40.423415	17.846371
2116	2024-03-29 03:00:00	15	san_pancrazio_salentino	10.8	1	92.01	1	0.0	1	null	6	null	6	null	6	null	6	40.423415	17.846371
2117	2024-03-29 04:00:00	15	san_pancrazio_salentino	10.86	1	93.76	1	0.0	1	null	6	null	6	null	6	null	6	40.423415	17.846371
2118	2024-03-29 05:00:00	15	san_pancrazio_salentino	11.15	1	92.0	1	0.0	1	null	6	null	6	null	6	null	6	40.423415	17.846371
2119	2024-03-29 06:00:00	15	san_pancrazio_salentino	10.68	1	91.3	1	0.0	1	null	6	null	6	null	6	null	6	40.423415	17.846371
2120	2024-03-29 07:00:00	15	san_pancrazio_salentino	11.22	1	89.03	1	0.0	1	null	6	null	6	null	6	null	6	40.423415	17.846371
2121	2024-03-29 08:00:00	15	san_pancrazio_salentino	15.96	1	76.01	1	0.0	1	null	6	null	6	null	6	null	6	40.423415	17.846371
2122	2024-03-29 09:00:00	15	san_pancrazio_salentino	18.58	1	62.13	1	0.0	1	null	6	null	6	null	6	null	6	40.423415	17.846371
2123	2024-03-29 10:00:00	15	san_pancrazio_salentino	19.18	1	64.44	1	0.0	1	null	6	null	6	null	6	null	6	40.423415	17.846371
2124	2024-03-29 11:00:00	15	san_pancrazio_salentino	20.97	1	56.56	1	0.0	1	null	6	null	6	null	6	null	6	40.423415	17.846371
2125	2024-03-29 12:00:00	15	san_pancrazio_salentino	21.0	1	57.54	1	0.0	1	null	6	null	6	null	6	null	6	40.423415	17.846371
2126	2024-03-29 13:00:00	15	san_pancrazio_salentino	22.98	1	47.67	1	0.0	1	null	6	null	6	null	6	null	6	40.423415	17.846371
2127	2024-03-29 14:00:00	15	san_pancrazio_salentino	22.97	1	54.11	1	0.0	1	null	6	null	6	null	6	null	6	40.423415	17.846371
2128	2024-03-29 15:00:00	15	san_pancrazio_salentino	22.95	1	57.0	1	0.0	1	null	6	null	6	null	6	null	6	40.423415	17.846371
2129	2024-03-29 16:00:00	15	san_pancrazio_salentino	21.64	1	58.81	1	0.0	1	null	6	null	6	null	6	null	6	40.423415	17.846371
2130	2024-03-29 17:00:00	15	san_pancrazio_salentino	20.12	1	57.77	1	0.0	1	null	6	null	6	null	6	null	6	40.423415	17.846371
2131	2024-03-29 18:00:00	15	san_pancrazio_salentino	18.52	1	63.29	1	0.0	1	null	6	null	6	null	6	null	6	40.423415	17.846371
2132	2024-03-29 19:00:00	15	san_pancrazio_salentino	15.98	1	82.16	1	0.0	1	null	6	null	6	null	6	null	6	40.423415	17.846371
2133	2024-03-29 20:00:00	15	san_pancrazio_salentino	15.1	1	90.72	1	0.0	1	null	6	null	6	null	6	null	6	40.423415	17.846371
2134	2024-03-29 21:00:00	15	san_pancrazio_salentino	14.68	1	94.42	1	0.0	1	null	6	null	6	null	6	null	6	40.423415	17.846371
2135	2024-03-29 22:00:00	15	san_pancrazio_salentino	13.81	1	95.58	1	0.0	1	null	6	null	6	null	6	null	6	40.423415	17.846371
2136	2024-03-29 23:00:00	15	san_pancrazio_salentino	13.59	1	96.06	1	0.0	1	null	6	null	6	null	6	null	6	40.423415	17.846371
2137	2024-03-30 00:00:00	15	san_pancrazio_salentino	13.11	1	95.47	1	0.0	1	null	6	null	6	null	6	null	6	40.423415	17.846371
2138	2024-03-30 01:00:00	15	san_pancrazio_salentino	12.05	1	95.93	1	0.0	1	null	6	null	6	null	6	null	6	40.423415	17.846371
2139	2024-03-30 02:00:00	15	san_pancrazio_salentino	12.45	1	95.76	1	0.0	1	null	6	null	6	null	6	null	6	40.423415	17.846371
2140	2024-03-30 03:00:00	15	san_pancrazio_salentino	12.49	1	96.36	1	0.0	1	null	6	null	6	null	6	null	6	40.423415	17.846371
2141	2024-03-30 04:00:00	15	san_pancrazio_salentino	12.23	1	96.62	1	0.0	1	null	6	null	6	null	6	null	6	40.423415	17.846371
2142	2024-03-30 05:00:00	15	san_pancrazio_salentino	11.92	1	97.28	1	0.0	1	null	6	null	6	null	6	null	6	40.423415	17.846371
2143	2024-03-30 06:00:00	15	san_pancrazio_salentino	11.93	1	97.34	1	0.0	1	null	6	null	6	null	6	null	6	40.423415	17.846371
2144	2024-03-30 07:00:00	15	san_pancrazio_salentino	13.01	1	94.58	1	0.0	1	null	6	null	6	null	6	null	6	40.423415	17.846371
2145	2024-03-30 08:00:00	15	san_pancrazio_salentino	16.19	1	81.01	1	0.0	1	null	6	null	6	null	6	null	6	40.423415	17.846371
2146	2024-03-30 09:00:00	15	san_pancrazio_salentino	17.38	1	67.85	1	0.0	1	null	6	null	6	null	6	null	6	40.423415	17.846371
2147	2024-03-30 10:00:00	15	san_pancrazio_salentino	18.17	1	59.2	1	0.0	1	null	6	null	6	null	6	null	6	40.423415	17.846371
2148	2024-03-30 11:00:00	15	san_pancrazio_salentino	19.15	1	47.77	1	0.0	1	null	6	null	6	null	6	null	6	40.423415	17.846371
2149	2024-03-30 12:00:00	15	san_pancrazio_salentino	20.65	1	36.41	1	0.0	1	null	6	null	6	null	6	null	6	40.423415	17.846371
2150	2024-03-30 13:00:00	15	san_pancrazio_salentino	21.43	1	33.18	1	0.0	1	null	6	null	6	null	6	null	6	40.423415	17.846371
2151	2024-03-30 14:00:00	15	san_pancrazio_salentino	21.8	1	31.07	1	0.0	1	null	6	null	6	null	6	null	6	40.423415	17.846371
2152	2024-03-30 15:00:00	15	san_pancrazio_salentino	22.23	1	29.4	1	0.0	1	null	6	null	6	null	6	null	6	40.423415	17.846371
2153	2024-03-30 16:00:00	15	san_pancrazio_salentino	21.6	1	29.7	1	0.0	1	null	6	null	6	null	6	null	6	40.423415	17.846371
2154	2024-03-30 17:00:00	15	san_pancrazio_salentino	19.79	1	36.56	1	0.0	1	null	6	null	6	null	6	null	6	40.423415	17.846371
2155	2024-03-30 18:00:00	15	san_pancrazio_salentino	18.4	1	40.71	1	0.0	1	null	6	null	6	null	6	null	6	40.423415	17.846371
2156	2024-03-30 19:00:00	15	san_pancrazio_salentino	17.23	1	46.44	1	0.0	1	null	6	null	6	null	6	null	6	40.423415	17.846371
2157	2024-03-30 20:00:00	15	san_pancrazio_salentino	16.75	1	51.97	1	0.0	1	null	6	null	6	null	6	null	6	40.423415	17.846371
2158	2024-03-30 21:00:00	15	san_pancrazio_salentino	16.71	1	60.57	1	0.0	1	null	6	null	6	null	6	null	6	40.423415	17.846371
2159	2024-03-30 22:00:00	15	san_pancrazio_salentino	16.68	1	67.21	1	0.0	1	null	6	null	6	null	6	null	6	40.423415	17.846371
2160	2024-03-30 23:00:00	15	san_pancrazio_salentino	16.09	1	74.34	1	0.0	1	null	6	null	6	null	6	null	6	40.423415	17.846371
2161	2024-03-31 00:00:00	15	san_pancrazio_salentino	15.76	1	78.57	1	0.0	1	null	6	null	6	null	6	null	6	40.423415	17.846371
2162	2024-03-31 01:00:00	15	san_pancrazio_salentino	15.67	1	79.25	1	0.0	1	null	6	null	6	null	6	null	6	40.423415	17.846371
2163	2024-03-31 03:00:00	15	san_pancrazio_salentino	15.51	1	77.33	1	0.0	1	null	6	null	6	null	6	null	6	40.423415	17.846371
2164	2024-03-31 03:00:00	15	san_pancrazio_salentino	15.75	1	73.14	1	0.0	1	null	6	null	6	null	6	null	6	40.423415	17.846371
2165	2024-03-31 04:00:00	15	san_pancrazio_salentino	15.97	1	72.89	1	0.0	1	null	6	null	6	null	6	null	6	40.423415	17.846371
2166	2024-03-31 05:00:00	15	san_pancrazio_salentino	15.95	1	75.55	1	0.0	1	null	6	null	6	null	6	null	6	40.423415	17.846371
2167	2024-03-31 06:00:00	15	san_pancrazio_salentino	15.85	1	76.74	1	0.0	1	null	6	null	6	null	6	null	6	40.423415	17.846371
2168	2024-03-31 07:00:00	15	san_pancrazio_salentino	16.12	1	75.17	1	0.0	1	null	6	null	6	null	6	null	6	40.423415	17.846371
2169	2024-03-31 08:00:00	15	san_pancrazio_salentino	17.39	1	69.58	1	0.0	1	null	6	null	6	null	6	null	6	40.423415	17.846371
2170	2024-03-31 09:00:00	15	san_pancrazio_salentino	18.95	1	62.51	1	0.0	1	null	6	null	6	null	6	null	6	40.423415	17.846371
2171	2024-03-31 10:00:00	15	san_pancrazio_salentino	20.02	1	56.58	1	0.0	1	null	6	null	6	null	6	null	6	40.423415	17.846371
2172	2024-03-31 11:00:00	15	san_pancrazio_salentino	20.79	1	51.47	1	0.0	1	null	6	null	6	null	6	null	6	40.423415	17.846371
2173	2024-03-31 12:00:00	15	san_pancrazio_salentino	20.97	1	51.98	1	0.0	1	null	6	null	6	null	6	null	6	40.423415	17.846371
2174	2024-03-31 13:00:00	15	san_pancrazio_salentino	20.96	1	54.27	1	0.0	1	null	6	null	6	null	6	null	6	40.423415	17.846371
2175	2024-03-31 14:00:00	15	san_pancrazio_salentino	21.95	1	52.22	1	0.0	1	null	6	null	6	null	6	null	6	40.423415	17.846371
2176	2024-03-31 15:00:00	15	san_pancrazio_salentino	21.04	1	58.82	1	0.0	1	null	6	null	6	null	6	null	6	40.423415	17.846371
2177	2024-03-31 16:00:00	15	san_pancrazio_salentino	19.8	1	65.95	1	0.0	1	null	6	null	6	null	6	null	6	40.423415	17.846371
2178	2024-03-31 17:00:00	15	san_pancrazio_salentino	18.9	1	70.08	1	0.0	1	null	6	null	6	null	6	null	6	40.423415	17.846371
2179	2024-03-31 18:00:00	15	san_pancrazio_salentino	18.1	1	74.1	1	0.0	1	null	6	null	6	null	6	null	6	40.423415	17.846371
2180	2024-03-31 19:00:00	15	san_pancrazio_salentino	17.27	1	79.28	1	0.0	1	null	6	null	6	null	6	null	6	40.423415	17.846371
2181	2024-03-31 20:00:00	15	san_pancrazio_salentino	16.83	1	82.03	1	0.0	1	null	6	null	6	null	6	null	6	40.423415	17.846371
2182	2024-03-31 21:00:00	15	san_pancrazio_salentino	16.62	1	83.93	1	0.0	1	null	6	null	6	null	6	null	6	40.423415	17.846371
2183	2024-03-31 22:00:00	15	san_pancrazio_salentino	16.32	1	86.0	1	0.0	1	null	6	null	6	null	6	null	6	40.423415	17.846371
2184	2024-03-31 23:00:00	15	san_pancrazio_salentino	16.2	1	86.87	1	0.0	1	null	6	null	6	null	6	null	6	40.423415	17.846371
2185	2024-04-01 00:00:00	15	san_pancrazio_salentino	16.13	1	86.97	1	0.0	1	null	6	null	6	null	6	null	6	40.423415	17.846371
2186	2024-04-01 01:00:00	15	san_pancrazio_salentino	15.85	1	87.31	1	0.0	1	null	6	null	6	null	6	null	6	40.423415	17.846371
2187	2024-04-01 02:00:00	15	san_pancrazio_salentino	15.63	1	87.9	1	0.0	1	null	6	null	6	null	6	null	6	40.423415	17.846371
2188	2024-04-01 03:00:00	15	san_pancrazio_salentino	15.32	1	88.41	1	0.0	1	null	6	null	6	null	6	null	6	40.423415	17.846371
2189	2024-04-01 04:00:00	15	san_pancrazio_salentino	15.16	1	88.35	1	0.0	1	null	6	null	6	null	6	null	6	40.423415	17.846371
2190	2024-04-01 05:00:00	15	san_pancrazio_salentino	15.19	1	88.05	1	0.0	1	null	6	null	6	null	6	null	6	40.423415	17.846371
2191	2024-04-01 06:00:00	15	san_pancrazio_salentino	15.2	1	87.72	1	0.0	1	null	6	null	6	null	6	null	6	40.423415	17.846371
2192	2024-04-01 07:00:00	15	san_pancrazio_salentino	16.24	1	81.66	1	0.0	1	null	6	null	6	null	6	null	6	40.423415	17.846371
2193	2024-04-01 08:00:00	15	san_pancrazio_salentino	18.31	1	72.17	1	0.0	1	null	6	null	6	null	6	null	6	40.423415	17.846371
2194	2024-04-01 09:00:00	15	san_pancrazio_salentino	18.95	1	66.11	1	0.0	1	null	6	null	6	null	6	null	6	40.423415	17.846371
2195	2024-04-01 10:00:00	15	san_pancrazio_salentino	19.78	1	62.05	1	0.0	1	null	6	null	6	null	6	null	6	40.423415	17.846371
2196	2024-04-01 11:00:00	15	san_pancrazio_salentino	20.7	1	58.15	1	0.0	1	null	6	null	6	null	6	null	6	40.423415	17.846371
2197	2024-04-01 12:00:00	15	san_pancrazio_salentino	21.39	1	54.28	1	0.0	1	null	6	null	6	null	6	null	6	40.423415	17.846371
2198	2024-04-01 13:00:00	15	san_pancrazio_salentino	22.33	1	53.11	1	0.0	1	null	6	null	6	null	6	null	6	40.423415	17.846371
2199	2024-04-01 14:00:00	15	san_pancrazio_salentino	22.35	1	55.72	1	0.0	1	null	6	null	6	null	6	null	6	40.423415	17.846371
2200	2024-04-01 15:00:00	15	san_pancrazio_salentino	21.99	1	57.71	1	0.0	1	null	6	null	6	null	6	null	6	40.423415	17.846371
2201	2024-04-01 16:00:00	15	san_pancrazio_salentino	21.38	1	60.96	1	0.0	1	null	6	null	6	null	6	null	6	40.423415	17.846371
2202	2024-04-01 17:00:00	15	san_pancrazio_salentino	19.96	1	68.68	1	0.0	1	null	6	null	6	null	6	null	6	40.423415	17.846371
2203	2024-04-01 18:00:00	15	san_pancrazio_salentino	18.42	1	75.73	1	0.0	1	null	6	null	6	null	6	null	6	40.423415	17.846371
2204	2024-04-01 19:00:00	15	san_pancrazio_salentino	17.42	1	80.01	1	0.0	1	null	6	null	6	null	6	null	6	40.423415	17.846371
2205	2024-04-01 20:00:00	15	san_pancrazio_salentino	16.65	1	83.94	1	0.0	1	null	6	null	6	null	6	null	6	40.423415	17.846371
2206	2024-04-01 21:00:00	15	san_pancrazio_salentino	16.11	1	86.81	1	0.0	1	null	6	null	6	null	6	null	6	40.423415	17.846371
2207	2024-04-01 22:00:00	15	san_pancrazio_salentino	16.34	1	90.21	1	0.0	1	null	6	null	6	null	6	null	6	40.423415	17.846371
2208	2024-04-01 23:00:00	15	san_pancrazio_salentino	16.32	1	87.36	1	0.0	1	null	6	null	6	null	6	null	6	40.423415	17.846371
2209	2024-04-02 00:00:00	15	san_pancrazio_salentino	15.92	1	86.42	1	0.0	1	null	6	null	6	null	6	null	6	40.423415	17.846371
2210	2024-04-02 01:00:00	15	san_pancrazio_salentino	14.88	1	91.16	1	0.0	1	null	6	null	6	null	6	null	6	40.423415	17.846371
2211	2024-04-02 02:00:00	15	san_pancrazio_salentino	14.28	1	92.75	1	0.0	1	null	6	null	6	null	6	null	6	40.423415	17.846371
2212	2024-04-02 03:00:00	15	san_pancrazio_salentino	14.67	1	90.61	1	0.0	1	null	6	null	6	null	6	null	6	40.423415	17.846371
2213	2024-04-02 04:00:00	15	san_pancrazio_salentino	15.03	1	88.84	1	0.0	1	null	6	null	6	null	6	null	6	40.423415	17.846371
2214	2024-04-02 05:00:00	15	san_pancrazio_salentino	13.76	1	92.54	1	0.0	1	null	6	null	6	null	6	null	6	40.423415	17.846371
2215	2024-04-02 06:00:00	15	san_pancrazio_salentino	13.04	1	92.44	1	0.0	1	null	6	null	6	null	6	null	6	40.423415	17.846371
2216	2024-04-02 07:00:00	15	san_pancrazio_salentino	13.3	1	90.97	1	0.0	1	null	6	null	6	null	6	null	6	40.423415	17.846371
2217	2024-04-02 08:00:00	15	san_pancrazio_salentino	13.82	1	90.57	1	0.0	1	null	6	null	6	null	6	null	6	40.423415	17.846371
2218	2024-04-02 09:00:00	15	san_pancrazio_salentino	15.87	1	78.82	1	0.0	1	null	6	null	6	null	6	null	6	40.423415	17.846371
2219	2024-04-02 10:00:00	15	san_pancrazio_salentino	17.81	1	59.08	1	0.0	1	null	6	null	6	null	6	null	6	40.423415	17.846371
2220	2024-04-02 11:00:00	15	san_pancrazio_salentino	19.2	1	40.53	1	0.0	1	null	6	null	6	null	6	null	6	40.423415	17.846371
2221	2024-04-02 12:00:00	15	san_pancrazio_salentino	21.13	1	32.49	1	0.0	1	null	6	null	6	null	6	null	6	40.423415	17.846371
2222	2024-04-02 13:00:00	15	san_pancrazio_salentino	24.83	1	26.92	1	0.0	1	null	6	null	6	null	6	null	6	40.423415	17.846371
2223	2024-04-02 14:00:00	15	san_pancrazio_salentino	23.72	1	35.29	1	0.0	1	null	6	null	6	null	6	null	6	40.423415	17.846371
2224	2024-04-02 15:00:00	15	san_pancrazio_salentino	21.36	1	41.83	1	0.0	1	null	6	null	6	null	6	null	6	40.423415	17.846371
2225	2024-04-02 16:00:00	15	san_pancrazio_salentino	20.66	1	42.5	1	0.0	1	null	6	null	6	null	6	null	6	40.423415	17.846371
2226	2024-04-02 17:00:00	15	san_pancrazio_salentino	20.69	1	42.12	1	0.0	1	null	6	null	6	null	6	null	6	40.423415	17.846371
2227	2024-04-02 18:00:00	15	san_pancrazio_salentino	18.26	1	50.01	1	0.0	1	null	6	null	6	null	6	null	6	40.423415	17.846371
2228	2024-04-02 19:00:00	15	san_pancrazio_salentino	15.33	1	61.62	1	0.0	1	null	6	null	6	null	6	null	6	40.423415	17.846371
2229	2024-04-02 20:00:00	15	san_pancrazio_salentino	14.46	1	64.64	1	0.0	1	null	6	null	6	null	6	null	6	40.423415	17.846371
2230	2024-04-02 21:00:00	15	san_pancrazio_salentino	13.84	1	65.28	1	0.0	1	null	6	null	6	null	6	null	6	40.423415	17.846371
2231	2024-04-02 22:00:00	15	san_pancrazio_salentino	12.68	1	70.31	1	0.0	1	null	6	null	6	null	6	null	6	40.423415	17.846371
2232	2024-04-02 23:00:00	15	san_pancrazio_salentino	11.23	1	76.47	1	0.0	1	null	6	null	6	null	6	null	6	40.423415	17.846371
2233	2024-04-03 00:00:00	15	san_pancrazio_salentino	11.2	1	75.9	1	0.0	1	null	6	null	6	null	6	null	6	40.423415	17.846371
2234	2024-04-03 01:00:00	15	san_pancrazio_salentino	11.48	1	73.22	1	0.0	1	null	6	null	6	null	6	null	6	40.423415	17.846371
2235	2024-04-03 02:00:00	15	san_pancrazio_salentino	10.93	1	74.09	1	0.0	1	null	6	null	6	null	6	null	6	40.423415	17.846371
2236	2024-04-03 03:00:00	15	san_pancrazio_salentino	10.11	1	76.12	1	0.0	1	null	6	null	6	null	6	null	6	40.423415	17.846371
2237	2024-04-03 04:00:00	15	san_pancrazio_salentino	9.68	1	76.73	1	0.0	1	null	6	null	6	null	6	null	6	40.423415	17.846371
2238	2024-04-03 05:00:00	15	san_pancrazio_salentino	9.61	1	76.74	1	0.0	1	null	6	null	6	null	6	null	6	40.423415	17.846371
2239	2024-04-03 06:00:00	15	san_pancrazio_salentino	9.43	1	77.61	1	0.0	1	null	6	null	6	null	6	null	6	40.423415	17.846371
2240	2024-04-03 07:00:00	15	san_pancrazio_salentino	10.99	1	73.91	1	0.0	1	null	6	null	6	null	6	null	6	40.423415	17.846371
2241	2024-04-03 08:00:00	15	san_pancrazio_salentino	16.97	1	62.33	1	0.0	1	null	6	null	6	null	6	null	6	40.423415	17.846371
2242	2024-04-03 09:00:00	15	san_pancrazio_salentino	18.62	1	61.29	1	0.0	1	null	6	null	6	null	6	null	6	40.423415	17.846371
2243	2024-04-03 10:00:00	15	san_pancrazio_salentino	18.5	1	56.28	1	0.0	1	null	6	null	6	null	6	null	6	40.423415	17.846371
2244	2024-04-03 11:00:00	15	san_pancrazio_salentino	19.47	1	43.07	1	0.0	1	null	6	null	6	null	6	null	6	40.423415	17.846371
2245	2024-04-03 12:00:00	15	san_pancrazio_salentino	21.18	1	35.58	1	0.0	1	null	6	null	6	null	6	null	6	40.423415	17.846371
2246	2024-04-03 13:00:00	15	san_pancrazio_salentino	22.25	1	36.91	1	0.0	1	null	6	null	6	null	6	null	6	40.423415	17.846371
2247	2024-04-03 14:00:00	15	san_pancrazio_salentino	23.28	1	23.66	1	0.0	1	null	6	null	6	null	6	null	6	40.423415	17.846371
2248	2024-04-03 15:00:00	15	san_pancrazio_salentino	23.09	1	19.56	1	0.0	1	null	6	null	6	null	6	null	6	40.423415	17.846371
2249	2024-04-03 16:00:00	15	san_pancrazio_salentino	21.81	1	22.56	1	0.0	1	null	6	null	6	null	6	null	6	40.423415	17.846371
2250	2024-04-03 17:00:00	15	san_pancrazio_salentino	22.34	1	27.86	1	0.0	1	null	6	null	6	null	6	null	6	40.423415	17.846371
2251	2024-04-03 18:00:00	15	san_pancrazio_salentino	18.91	1	42.67	1	0.0	1	null	6	null	6	null	6	null	6	40.423415	17.846371
2252	2024-04-03 19:00:00	15	san_pancrazio_salentino	17.32	1	46.83	1	0.0	1	null	6	null	6	null	6	null	6	40.423415	17.846371
2253	2024-04-03 20:00:00	15	san_pancrazio_salentino	15.09	1	59.17	1	0.0	1	null	6	null	6	null	6	null	6	40.423415	17.846371
2254	2024-04-03 21:00:00	15	san_pancrazio_salentino	14.41	1	65.39	1	0.0	1	null	6	null	6	null	6	null	6	40.423415	17.846371
2255	2024-04-03 22:00:00	15	san_pancrazio_salentino	14.43	1	67.89	1	0.0	1	null	6	null	6	null	6	null	6	40.423415	17.846371
2256	2024-04-03 23:00:00	15	san_pancrazio_salentino	13.79	1	72.95	1	0.0	1	null	6	null	6	null	6	null	6	40.423415	17.846371
2257	2024-04-04 00:00:00	15	san_pancrazio_salentino	13.25	1	74.24	1	0.0	1	null	6	null	6	null	6	null	6	40.423415	17.846371
2258	2024-04-04 01:00:00	15	san_pancrazio_salentino	12.39	1	75.81	1	0.0	1	null	6	null	6	null	6	null	6	40.423415	17.846371
2259	2024-04-04 02:00:00	15	san_pancrazio_salentino	12.52	1	77.72	1	0.0	1	null	6	null	6	null	6	null	6	40.423415	17.846371
2260	2024-04-04 03:00:00	15	san_pancrazio_salentino	12.25	1	71.33	1	0.0	1	null	6	null	6	null	6	null	6	40.423415	17.846371
2261	2024-04-04 04:00:00	15	san_pancrazio_salentino	11.03	1	72.94	1	0.0	1	null	6	null	6	null	6	null	6	40.423415	17.846371
2262	2024-04-04 05:00:00	15	san_pancrazio_salentino	10.63	1	71.07	1	0.0	1	null	6	null	6	null	6	null	6	40.423415	17.846371
2263	2024-04-04 06:00:00	15	san_pancrazio_salentino	11.16	1	65.77	1	0.0	1	null	6	null	6	null	6	null	6	40.423415	17.846371
2264	2024-04-04 07:00:00	15	san_pancrazio_salentino	12.57	1	64.09	1	0.0	1	null	6	null	6	null	6	null	6	40.423415	17.846371
2265	2024-04-04 08:00:00	15	san_pancrazio_salentino	17.09	1	56.43	1	0.0	1	null	6	null	6	null	6	null	6	40.423415	17.846371
2266	2024-04-04 09:00:00	15	san_pancrazio_salentino	18.56	1	51.62	1	0.0	1	null	6	null	6	null	6	null	6	40.423415	17.846371
2267	2024-04-04 10:00:00	15	san_pancrazio_salentino	19.2	1	48.48	1	0.0	1	null	6	null	6	null	6	null	6	40.423415	17.846371
2268	2024-04-04 11:00:00	15	san_pancrazio_salentino	20.29	1	43.65	1	0.0	1	null	6	null	6	null	6	null	6	40.423415	17.846371
2269	2024-04-04 12:00:00	15	san_pancrazio_salentino	22.13	1	37.19	1	0.0	1	null	6	null	6	null	6	null	6	40.423415	17.846371
2270	2024-04-04 13:00:00	15	san_pancrazio_salentino	25.43	1	30.56	1	0.0	1	null	6	null	6	null	6	null	6	40.423415	17.846371
2271	2024-04-04 14:00:00	15	san_pancrazio_salentino	26.01	1	30.02	1	0.0	1	null	6	null	6	null	6	null	6	40.423415	17.846371
2272	2024-04-04 15:00:00	15	san_pancrazio_salentino	25.55	1	31.71	1	0.0	1	null	6	null	6	null	6	null	6	40.423415	17.846371
2273	2024-04-04 16:00:00	15	san_pancrazio_salentino	24.02	1	36.22	1	0.0	1	null	6	null	6	null	6	null	6	40.423415	17.846371
2274	2024-04-04 17:00:00	15	san_pancrazio_salentino	22.22	1	41.18	1	0.0	1	null	6	null	6	null	6	null	6	40.423415	17.846371
2275	2024-04-04 18:00:00	15	san_pancrazio_salentino	19.29	1	56.36	1	0.0	1	null	6	null	6	null	6	null	6	40.423415	17.846371
2276	2024-04-04 19:00:00	15	san_pancrazio_salentino	15.82	1	72.65	1	0.0	1	null	6	null	6	null	6	null	6	40.423415	17.846371
2277	2024-04-04 20:00:00	15	san_pancrazio_salentino	14.4	1	79.15	1	0.0	1	null	6	null	6	null	6	null	6	40.423415	17.846371
2278	2024-04-04 21:00:00	15	san_pancrazio_salentino	13.76	1	81.67	1	0.0	1	null	6	null	6	null	6	null	6	40.423415	17.846371
2279	2024-04-04 22:00:00	15	san_pancrazio_salentino	12.95	1	84.75	1	0.0	1	null	6	null	6	null	6	null	6	40.423415	17.846371
2280	2024-04-04 23:00:00	15	san_pancrazio_salentino	12.33	1	85.5	1	0.0	1	null	6	null	6	null	6	null	6	40.423415	17.846371
2281	2024-04-05 00:00:00	15	san_pancrazio_salentino	11.6	1	81.02	1	0.0	1	null	6	null	6	null	6	null	6	40.423415	17.846371
2282	2024-04-05 01:00:00	15	san_pancrazio_salentino	10.83	1	81.54	1	0.0	1	null	6	null	6	null	6	null	6	40.423415	17.846371
2283	2024-04-05 02:00:00	15	san_pancrazio_salentino	10.31	1	83.83	1	0.0	1	null	6	null	6	null	6	null	6	40.423415	17.846371
2284	2024-04-05 03:00:00	15	san_pancrazio_salentino	9.89	1	83.03	1	0.0	1	null	6	null	6	null	6	null	6	40.423415	17.846371
2285	2024-04-05 04:00:00	15	san_pancrazio_salentino	9.71	1	81.6	1	0.0	1	null	6	null	6	null	6	null	6	40.423415	17.846371
2286	2024-04-05 05:00:00	15	san_pancrazio_salentino	10.11	1	77.05	1	0.0	1	null	6	null	6	null	6	null	6	40.423415	17.846371
2287	2024-04-05 06:00:00	15	san_pancrazio_salentino	8.22	1	84.24	1	0.0	1	null	6	null	6	null	6	null	6	40.423415	17.846371
2288	2024-04-05 07:00:00	15	san_pancrazio_salentino	11.08	1	76.21	1	0.0	1	null	6	null	6	null	6	null	6	40.423415	17.846371
2289	2024-04-05 08:00:00	15	san_pancrazio_salentino	17.82	1	58.33	1	0.0	1	null	6	null	6	null	6	null	6	40.423415	17.846371
2290	2024-04-05 09:00:00	15	san_pancrazio_salentino	19.35	1	51.41	1	0.0	1	null	6	null	6	null	6	null	6	40.423415	17.846371
2291	2024-04-05 10:00:00	15	san_pancrazio_salentino	20.22	1	45.26	1	0.0	1	null	6	null	6	null	6	null	6	40.423415	17.846371
2292	2024-04-05 11:00:00	15	san_pancrazio_salentino	20.69	1	44.77	1	0.0	1	null	6	null	6	null	6	null	6	40.423415	17.846371
2293	2024-04-05 12:00:00	15	san_pancrazio_salentino	22.92	1	38.37	1	0.0	1	null	6	null	6	null	6	null	6	40.423415	17.846371
2294	2024-04-05 13:00:00	15	san_pancrazio_salentino	25.42	1	36.14	1	0.0	1	null	6	null	6	null	6	null	6	40.423415	17.846371
2295	2024-04-05 14:00:00	15	san_pancrazio_salentino	26.8	1	32.4	1	0.0	1	null	6	null	6	null	6	null	6	40.423415	17.846371
2296	2024-04-05 15:00:00	15	san_pancrazio_salentino	26.23	1	30.53	1	0.0	1	null	6	null	6	null	6	null	6	40.423415	17.846371
2297	2024-04-05 16:00:00	15	san_pancrazio_salentino	24.43	1	32.43	1	0.0	1	null	6	null	6	null	6	null	6	40.423415	17.846371
2298	2024-04-05 17:00:00	15	san_pancrazio_salentino	22.37	1	36.4	1	0.0	1	null	6	null	6	null	6	null	6	40.423415	17.846371
2299	2024-04-05 18:00:00	15	san_pancrazio_salentino	20.66	1	44.59	1	0.0	1	null	6	null	6	null	6	null	6	40.423415	17.846371
2300	2024-04-05 19:00:00	15	san_pancrazio_salentino	17.06	1	56.43	1	0.0	1	null	6	null	6	null	6	null	6	40.423415	17.846371
2301	2024-04-05 20:00:00	15	san_pancrazio_salentino	15.18	1	66.42	1	0.0	1	null	6	null	6	null	6	null	6	40.423415	17.846371
2302	2024-04-05 21:00:00	15	san_pancrazio_salentino	14.12	1	75.6	1	0.0	1	null	6	null	6	null	6	null	6	40.423415	17.846371
2303	2024-04-05 22:00:00	15	san_pancrazio_salentino	13.59	1	74.11	1	0.0	1	null	6	null	6	null	6	null	6	40.423415	17.846371
2304	2024-04-05 23:00:00	15	san_pancrazio_salentino	12.89	1	68.98	1	0.0	1	null	6	null	6	null	6	null	6	40.423415	17.846371
2305	2024-04-06 00:00:00	15	san_pancrazio_salentino	12.43	1	68.37	1	0.0	1	null	6	null	6	null	6	null	6	40.423415	17.846371
2306	2024-04-06 01:00:00	15	san_pancrazio_salentino	11.82	1	70.26	1	0.0	1	null	6	null	6	null	6	null	6	40.423415	17.846371
2307	2024-04-06 02:00:00	15	san_pancrazio_salentino	11.2	1	73.51	1	0.0	1	null	6	null	6	null	6	null	6	40.423415	17.846371
2308	2024-04-06 03:00:00	15	san_pancrazio_salentino	10.5	1	75.81	1	0.0	1	null	6	null	6	null	6	null	6	40.423415	17.846371
2309	2024-04-06 04:00:00	15	san_pancrazio_salentino	10.34	1	76.9	1	0.0	1	null	6	null	6	null	6	null	6	40.423415	17.846371
2310	2024-04-06 05:00:00	15	san_pancrazio_salentino	10.24	1	76.67	1	0.0	1	null	6	null	6	null	6	null	6	40.423415	17.846371
2311	2024-04-06 06:00:00	15	san_pancrazio_salentino	9.84	1	78.97	1	0.0	1	null	6	null	6	null	6	null	6	40.423415	17.846371
2312	2024-04-06 07:00:00	15	san_pancrazio_salentino	12.14	1	74.61	1	0.0	1	null	6	null	6	null	6	null	6	40.423415	17.846371
2313	2024-04-06 08:00:00	15	san_pancrazio_salentino	17.93	1	62.92	1	0.0	1	null	6	null	6	null	6	null	6	40.423415	17.846371
2314	2024-04-06 09:00:00	15	san_pancrazio_salentino	20.4	1	51.42	1	0.0	1	null	6	null	6	null	6	null	6	40.423415	17.846371
2315	2024-04-06 10:00:00	15	san_pancrazio_salentino	20.97	1	45.11	1	0.0	1	null	6	null	6	null	6	null	6	40.423415	17.846371
2316	2024-04-06 11:00:00	15	san_pancrazio_salentino	21.79	1	40.67	1	0.0	1	null	6	null	6	null	6	null	6	40.423415	17.846371
2317	2024-04-06 12:00:00	15	san_pancrazio_salentino	23.45	1	36.75	1	0.0	1	null	6	null	6	null	6	null	6	40.423415	17.846371
2318	2024-04-06 13:00:00	15	san_pancrazio_salentino	26.08	1	32.88	1	0.0	1	null	6	null	6	null	6	null	6	40.423415	17.846371
2319	2024-04-06 14:00:00	15	san_pancrazio_salentino	25.41	1	34.49	1	0.0	1	null	6	null	6	null	6	null	6	40.423415	17.846371
2320	2024-04-06 15:00:00	15	san_pancrazio_salentino	27.3	1	30.44	1	0.0	1	null	6	null	6	null	6	null	6	40.423415	17.846371
2321	2024-04-06 16:00:00	15	san_pancrazio_salentino	26.45	1	30.79	1	0.0	1	null	6	null	6	null	6	null	6	40.423415	17.846371
2322	2024-04-06 17:00:00	15	san_pancrazio_salentino	24.88	1	32.89	1	0.0	1	null	6	null	6	null	6	null	6	40.423415	17.846371
2323	2024-04-06 18:00:00	15	san_pancrazio_salentino	22.37	1	38.69	1	0.0	1	null	6	null	6	null	6	null	6	40.423415	17.846371
2324	2024-04-06 19:00:00	15	san_pancrazio_salentino	18.12	1	50.18	1	0.0	1	null	6	null	6	null	6	null	6	40.423415	17.846371
2325	2024-04-06 20:00:00	15	san_pancrazio_salentino	15.96	1	57.38	1	0.0	1	null	6	null	6	null	6	null	6	40.423415	17.846371
2326	2024-04-06 21:00:00	15	san_pancrazio_salentino	15.46	1	56.76	1	0.0	1	null	6	null	6	null	6	null	6	40.423415	17.846371
2327	2024-04-06 22:00:00	15	san_pancrazio_salentino	14.53	1	58.98	1	0.0	1	null	6	null	6	null	6	null	6	40.423415	17.846371
2328	2024-04-06 23:00:00	15	san_pancrazio_salentino	13.96	1	60.71	1	0.0	1	null	6	null	6	null	6	null	6	40.423415	17.846371
2329	2024-04-07 00:00:00	15	san_pancrazio_salentino	13.74	1	61.01	1	0.0	1	null	6	null	6	null	6	null	6	40.423415	17.846371
2330	2024-04-07 01:00:00	15	san_pancrazio_salentino	12.92	1	64.03	1	0.0	1	null	6	null	6	null	6	null	6	40.423415	17.846371
2331	2024-04-07 02:00:00	15	san_pancrazio_salentino	12.26	1	65.92	1	0.0	1	null	6	null	6	null	6	null	6	40.423415	17.846371
2332	2024-04-07 03:00:00	15	san_pancrazio_salentino	11.59	1	68.97	1	0.0	1	null	6	null	6	null	6	null	6	40.423415	17.846371
2333	2024-04-07 04:00:00	15	san_pancrazio_salentino	11.61	1	69.11	1	0.0	1	null	6	null	6	null	6	null	6	40.423415	17.846371
2334	2024-04-07 05:00:00	15	san_pancrazio_salentino	11.66	1	69.27	1	0.0	1	null	6	null	6	null	6	null	6	40.423415	17.846371
2335	2024-04-07 06:00:00	15	san_pancrazio_salentino	11.66	1	69.77	1	0.0	1	null	6	null	6	null	6	null	6	40.423415	17.846371
2336	2024-04-07 07:00:00	15	san_pancrazio_salentino	14.21	1	64.47	1	0.0	1	null	6	null	6	null	6	null	6	40.423415	17.846371
2337	2024-04-07 08:00:00	15	san_pancrazio_salentino	19.65	1	53.28	1	0.0	1	null	6	null	6	null	6	null	6	40.423415	17.846371
2338	2024-04-07 09:00:00	15	san_pancrazio_salentino	20.68	1	46.42	1	0.0	1	null	6	null	6	null	6	null	6	40.423415	17.846371
2339	2024-04-07 10:00:00	15	san_pancrazio_salentino	21.57	1	42.72	1	0.0	1	null	6	null	6	null	6	null	6	40.423415	17.846371
2340	2024-04-07 11:00:00	15	san_pancrazio_salentino	22.5	1	39.99	1	0.0	1	null	6	null	6	null	6	null	6	40.423415	17.846371
2341	2024-04-07 12:00:00	15	san_pancrazio_salentino	23.62	1	38.02	1	0.0	1	null	6	null	6	null	6	null	6	40.423415	17.846371
2342	2024-04-07 13:00:00	15	san_pancrazio_salentino	25.62	1	35.97	1	0.0	1	null	6	null	6	null	6	null	6	40.423415	17.846371
2343	2024-04-07 14:00:00	15	san_pancrazio_salentino	26.43	1	35.21	1	0.0	1	null	6	null	6	null	6	null	6	40.423415	17.846371
2344	2024-04-07 15:00:00	15	san_pancrazio_salentino	26.2	1	34.87	1	0.0	1	null	6	null	6	null	6	null	6	40.423415	17.846371
2345	2024-04-07 16:00:00	15	san_pancrazio_salentino	25.2	1	35.82	1	0.0	1	null	6	null	6	null	6	null	6	40.423415	17.846371
2346	2024-04-07 17:00:00	15	san_pancrazio_salentino	24.1	1	36.94	1	0.0	1	null	6	null	6	null	6	null	6	40.423415	17.846371
2347	2024-04-07 18:00:00	15	san_pancrazio_salentino	21.99	1	40.83	1	0.0	1	null	6	null	6	null	6	null	6	40.423415	17.846371
2348	2024-04-07 19:00:00	15	san_pancrazio_salentino	18.45	1	49.37	1	0.0	1	null	6	null	6	null	6	null	6	40.423415	17.846371
2349	2024-04-07 20:00:00	15	san_pancrazio_salentino	16.89	1	55.61	1	0.0	1	null	6	null	6	null	6	null	6	40.423415	17.846371
2350	2024-04-07 21:00:00	15	san_pancrazio_salentino	16.42	1	58.87	1	0.0	1	null	6	null	6	null	6	null	6	40.423415	17.846371
2351	2024-04-07 22:00:00	15	san_pancrazio_salentino	16.87	1	58.37	1	0.0	1	null	6	null	6	null	6	null	6	40.423415	17.846371
2352	2024-04-07 23:00:00	15	san_pancrazio_salentino	17.0	1	58.39	1	0.0	1	null	6	null	6	null	6	null	6	40.423415	17.846371
2353	2024-04-08 00:00:00	15	san_pancrazio_salentino	16.8	1	58.06	1	0.0	1	null	6	null	6	null	6	null	6	40.423415	17.846371
2354	2024-04-08 01:00:00	15	san_pancrazio_salentino	15.38	1	66.63	1	0.0	1	null	6	null	6	null	6	null	6	40.423415	17.846371
2355	2024-04-08 02:00:00	15	san_pancrazio_salentino	15.12	1	72.09	1	0.0	1	null	6	null	6	null	6	null	6	40.423415	17.846371
2356	2024-04-08 03:00:00	15	san_pancrazio_salentino	14.91	1	75.58	1	0.0	1	null	6	null	6	null	6	null	6	40.423415	17.846371
2357	2024-04-08 04:00:00	15	san_pancrazio_salentino	14.14	1	80.09	1	0.0	1	null	6	null	6	null	6	null	6	40.423415	17.846371
2358	2024-04-08 05:00:00	15	san_pancrazio_salentino	13.63	1	83.41	1	0.0	1	null	6	null	6	null	6	null	6	40.423415	17.846371
2359	2024-04-08 06:00:00	15	san_pancrazio_salentino	12.66	1	86.02	1	0.0	1	null	6	null	6	null	6	null	6	40.423415	17.846371
2360	2024-04-08 07:00:00	15	san_pancrazio_salentino	15.52	1	75.07	1	0.0	1	null	6	null	6	null	6	null	6	40.423415	17.846371
2361	2024-04-08 08:00:00	15	san_pancrazio_salentino	21.76	1	56.12	1	0.0	1	null	6	null	6	null	6	null	6	40.423415	17.846371
2362	2024-04-08 09:00:00	15	san_pancrazio_salentino	21.17	1	59.98	1	0.0	1	null	6	null	6	null	6	null	6	40.423415	17.846371
2363	2024-04-08 10:00:00	15	san_pancrazio_salentino	21.62	1	57.11	1	0.0	1	null	6	null	6	null	6	null	6	40.423415	17.846371
2364	2024-04-08 11:00:00	15	san_pancrazio_salentino	22.66	1	51.99	1	0.0	1	null	6	null	6	null	6	null	6	40.423415	17.846371
2365	2024-04-08 12:00:00	15	san_pancrazio_salentino	23.42	1	50.26	1	0.0	1	null	6	null	6	null	6	null	6	40.423415	17.846371
2366	2024-04-08 13:00:00	15	san_pancrazio_salentino	24.43	1	48.01	1	0.0	1	null	6	null	6	null	6	null	6	40.423415	17.846371
2367	2024-04-08 14:00:00	15	san_pancrazio_salentino	24.89	1	47.02	1	0.0	1	null	6	null	6	null	6	null	6	40.423415	17.846371
2368	2024-04-08 15:00:00	15	san_pancrazio_salentino	25.21	1	43.62	1	0.0	1	null	6	null	6	null	6	null	6	40.423415	17.846371
2369	2024-04-08 16:00:00	15	san_pancrazio_salentino	24.32	1	40.26	1	0.0	1	null	6	null	6	null	6	null	6	40.423415	17.846371
2370	2024-04-08 17:00:00	15	san_pancrazio_salentino	23.52	1	40.61	1	0.0	1	null	6	null	6	null	6	null	6	40.423415	17.846371
2371	2024-04-08 18:00:00	15	san_pancrazio_salentino	20.89	1	53.63	1	0.0	1	null	6	null	6	null	6	null	6	40.423415	17.846371
2372	2024-04-08 19:00:00	15	san_pancrazio_salentino	18.58	1	64.96	1	0.0	1	null	6	null	6	null	6	null	6	40.423415	17.846371
2373	2024-04-08 20:00:00	15	san_pancrazio_salentino	17.41	1	74.27	1	0.0	1	null	6	null	6	null	6	null	6	40.423415	17.846371
2374	2024-04-08 21:00:00	15	san_pancrazio_salentino	16.65	1	78.29	1	0.0	1	null	6	null	6	null	6	null	6	40.423415	17.846371
2375	2024-04-08 22:00:00	15	san_pancrazio_salentino	16.23	1	79.87	1	0.0	1	null	6	null	6	null	6	null	6	40.423415	17.846371
2376	2024-04-08 23:00:00	15	san_pancrazio_salentino	15.24	1	84.77	1	0.0	1	null	6	null	6	null	6	null	6	40.423415	17.846371
2377	2024-04-09 00:00:00	15	san_pancrazio_salentino	14.04	1	87.7	1	0.0	1	null	6	null	6	null	6	null	6	40.423415	17.846371
2378	2024-04-09 01:00:00	15	san_pancrazio_salentino	14.3	1	85.05	1	0.0	1	null	6	null	6	null	6	null	6	40.423415	17.846371
2379	2024-04-09 02:00:00	15	san_pancrazio_salentino	14.5	1	85.56	1	0.0	1	null	6	null	6	null	6	null	6	40.423415	17.846371
2380	2024-04-09 03:00:00	15	san_pancrazio_salentino	12.44	1	87.83	1	0.0	1	null	6	null	6	null	6	null	6	40.423415	17.846371
2381	2024-04-09 04:00:00	15	san_pancrazio_salentino	12.19	1	87.24	1	0.0	1	null	6	null	6	null	6	null	6	40.423415	17.846371
2382	2024-04-09 05:00:00	15	san_pancrazio_salentino	11.02	1	88.77	1	0.0	1	null	6	null	6	null	6	null	6	40.423415	17.846371
2383	2024-04-09 06:00:00	15	san_pancrazio_salentino	9.72	1	91.85	1	0.0	1	null	6	null	6	null	6	null	6	40.423415	17.846371
2384	2024-04-09 07:00:00	15	san_pancrazio_salentino	12.6	1	85.31	1	0.0	1	null	6	null	6	null	6	null	6	40.423415	17.846371
2385	2024-04-09 08:00:00	15	san_pancrazio_salentino	18.75	1	68.82	1	0.0	1	null	6	null	6	null	6	null	6	40.423415	17.846371
2386	2024-04-09 09:00:00	15	san_pancrazio_salentino	20.32	1	56.72	1	0.0	1	null	6	null	6	null	6	null	6	40.423415	17.846371
2387	2024-04-09 10:00:00	15	san_pancrazio_salentino	21.35	1	43.75	1	0.0	1	null	6	null	6	null	6	null	6	40.423415	17.846371
2388	2024-04-09 11:00:00	15	san_pancrazio_salentino	22.29	1	38.15	1	0.0	1	null	6	null	6	null	6	null	6	40.423415	17.846371
2389	2024-04-09 12:00:00	15	san_pancrazio_salentino	23.63	1	33.67	1	0.0	1	null	6	null	6	null	6	null	6	40.423415	17.846371
2390	2024-04-09 13:00:00	15	san_pancrazio_salentino	24.79	1	31.88	1	0.0	1	null	6	null	6	null	6	null	6	40.423415	17.846371
2391	2024-04-09 14:00:00	15	san_pancrazio_salentino	25.27	1	30.18	1	0.0	1	null	6	null	6	null	6	null	6	40.423415	17.846371
2392	2024-04-09 15:00:00	15	san_pancrazio_salentino	25.25	1	28.98	1	0.0	1	null	6	null	6	null	6	null	6	40.423415	17.846371
2393	2024-04-09 16:00:00	15	san_pancrazio_salentino	24.15	1	35.49	1	0.0	1	null	6	null	6	null	6	null	6	40.423415	17.846371
2394	2024-04-09 17:00:00	15	san_pancrazio_salentino	22.87	1	38.45	1	0.0	1	null	6	null	6	null	6	null	6	40.423415	17.846371
2395	2024-04-09 18:00:00	15	san_pancrazio_salentino	20.72	1	45.35	1	0.0	1	null	6	null	6	null	6	null	6	40.423415	17.846371
2396	2024-04-09 19:00:00	15	san_pancrazio_salentino	17.86	1	63.38	1	0.0	1	null	6	null	6	null	6	null	6	40.423415	17.846371
2397	2024-04-09 20:00:00	15	san_pancrazio_salentino	16.27	1	73.57	1	0.0	1	null	6	null	6	null	6	null	6	40.423415	17.846371
2398	2024-04-09 21:00:00	15	san_pancrazio_salentino	15.62	1	77.0	1	0.0	1	null	6	null	6	null	6	null	6	40.423415	17.846371
2399	2024-04-09 22:00:00	15	san_pancrazio_salentino	15.06	1	79.41	1	0.0	1	null	6	null	6	null	6	null	6	40.423415	17.846371
2400	2024-04-09 23:00:00	15	san_pancrazio_salentino	14.68	1	81.87	1	0.0	1	null	6	null	6	null	6	null	6	40.423415	17.846371
2401	2024-04-10 00:00:00	15	san_pancrazio_salentino	14.36	1	86.76	1	0.0	1	null	6	null	6	null	6	null	6	40.423415	17.846371
2402	2024-04-10 01:00:00	15	san_pancrazio_salentino	13.43	1	90.64	1	0.0	1	null	6	null	6	null	6	null	6	40.423415	17.846371
2403	2024-04-10 02:00:00	15	san_pancrazio_salentino	13.57	1	92.01	1	0.0	1	null	6	null	6	null	6	null	6	40.423415	17.846371
2404	2024-04-10 03:00:00	15	san_pancrazio_salentino	15.48	1	92.88	1	0.0	1	null	6	null	6	null	6	null	6	40.423415	17.846371
2405	2024-04-10 04:00:00	15	san_pancrazio_salentino	15.35	1	93.48	1	0.0	1	null	6	null	6	null	6	null	6	40.423415	17.846371
2406	2024-04-10 05:00:00	15	san_pancrazio_salentino	15.67	1	92.38	1	0.0	1	null	6	null	6	null	6	null	6	40.423415	17.846371
2407	2024-04-10 06:00:00	15	san_pancrazio_salentino	15.01	1	91.6	1	0.0	1	null	6	null	6	null	6	null	6	40.423415	17.846371
2408	2024-04-10 07:00:00	15	san_pancrazio_salentino	15.35	1	91.43	1	0.0	1	null	6	null	6	null	6	null	6	40.423415	17.846371
2409	2024-04-10 08:00:00	15	san_pancrazio_salentino	16.72	1	87.57	1	0.0	1	null	6	null	6	null	6	null	6	40.423415	17.846371
2410	2024-04-10 09:00:00	15	san_pancrazio_salentino	17.96	1	82.98	1	0.0	1	null	6	null	6	null	6	null	6	40.423415	17.846371
2411	2024-04-10 10:00:00	15	san_pancrazio_salentino	19.36	1	75.84	1	0.0	1	null	6	null	6	null	6	null	6	40.423415	17.846371
2412	2024-04-10 11:00:00	15	san_pancrazio_salentino	21.08	1	65.45	1	0.0	1	null	6	null	6	null	6	null	6	40.423415	17.846371
2413	2024-04-10 12:00:00	15	san_pancrazio_salentino	22.27	1	61.81	1	0.0	1	null	6	null	6	null	6	null	6	40.423415	17.846371
2414	2024-04-10 13:00:00	15	san_pancrazio_salentino	25.35	1	48.64	1	0.0	1	null	6	null	6	null	6	null	6	40.423415	17.846371
2415	2024-04-10 14:00:00	15	san_pancrazio_salentino	26.26	1	46.17	1	0.0	1	null	6	null	6	null	6	null	6	40.423415	17.846371
2416	2024-04-10 15:00:00	15	san_pancrazio_salentino	25.92	1	42.6	1	0.0	1	null	6	null	6	null	6	null	6	40.423415	17.846371
2417	2024-04-10 16:00:00	15	san_pancrazio_salentino	25.13	1	46.61	1	0.0	1	null	6	null	6	null	6	null	6	40.423415	17.846371
2418	2024-04-10 17:00:00	15	san_pancrazio_salentino	25.6	1	30.26	1	0.0	1	null	6	null	6	null	6	null	6	40.423415	17.846371
2419	2024-04-10 18:00:00	15	san_pancrazio_salentino	23.91	1	39.56	1	0.0	1	null	6	null	6	null	6	null	6	40.423415	17.846371
2420	2024-04-10 19:00:00	15	san_pancrazio_salentino	20.53	1	55.72	1	0.0	1	null	6	null	6	null	6	null	6	40.423415	17.846371
2421	2024-04-10 20:00:00	15	san_pancrazio_salentino	18.8	1	60.55	1	0.0	1	null	6	null	6	null	6	null	6	40.423415	17.846371
2422	2024-04-10 21:00:00	15	san_pancrazio_salentino	17.74	1	64.04	1	0.0	1	null	6	null	6	null	6	null	6	40.423415	17.846371
2423	2024-04-10 22:00:00	15	san_pancrazio_salentino	16.53	1	69.68	1	0.0	1	null	6	null	6	null	6	null	6	40.423415	17.846371
2424	2024-04-10 23:00:00	15	san_pancrazio_salentino	15.4	1	74.86	1	0.0	1	null	6	null	6	null	6	null	6	40.423415	17.846371
2425	2024-04-11 00:00:00	15	san_pancrazio_salentino	14.83	1	74.35	1	0.0	1	null	6	null	6	null	6	null	6	40.423415	17.846371
2426	2024-04-11 01:00:00	15	san_pancrazio_salentino	14.07	1	73.52	1	0.0	1	null	6	null	6	null	6	null	6	40.423415	17.846371
2427	2024-04-11 02:00:00	15	san_pancrazio_salentino	13.84	1	67.69	1	0.0	1	null	6	null	6	null	6	null	6	40.423415	17.846371
2428	2024-04-11 03:00:00	15	san_pancrazio_salentino	13.11	1	67.88	1	0.0	1	null	6	null	6	null	6	null	6	40.423415	17.846371
2429	2024-04-11 04:00:00	15	san_pancrazio_salentino	12.4	1	65.05	1	0.0	1	null	6	null	6	null	6	null	6	40.423415	17.846371
2430	2024-04-11 05:00:00	15	san_pancrazio_salentino	12.36	1	58.57	1	0.0	1	null	6	null	6	null	6	null	6	40.423415	17.846371
2431	2024-04-11 06:00:00	15	san_pancrazio_salentino	13.08	1	65.51	1	0.0	1	null	6	null	6	null	6	null	6	40.423415	17.846371
2432	2024-04-11 07:00:00	15	san_pancrazio_salentino	16.21	1	71.84	1	0.0	1	null	6	null	6	null	6	null	6	40.423415	17.846371
2433	2024-04-11 08:00:00	15	san_pancrazio_salentino	19.65	1	65.11	1	0.0	1	null	6	null	6	null	6	null	6	40.423415	17.846371
2434	2024-04-11 09:00:00	15	san_pancrazio_salentino	20.03	1	61.47	1	0.0	1	null	6	null	6	null	6	null	6	40.423415	17.846371
2435	2024-04-11 10:00:00	15	san_pancrazio_salentino	20.62	1	57.35	1	0.0	1	null	6	null	6	null	6	null	6	40.423415	17.846371
2436	2024-04-11 11:00:00	15	san_pancrazio_salentino	20.82	1	60.15	1	0.0	1	null	6	null	6	null	6	null	6	40.423415	17.846371
2437	2024-04-11 12:00:00	15	san_pancrazio_salentino	21.0	1	60.98	1	0.0	1	null	6	null	6	null	6	null	6	40.423415	17.846371
2438	2024-04-11 13:00:00	15	san_pancrazio_salentino	21.88	1	54.89	1	0.0	1	null	6	null	6	null	6	null	6	40.423415	17.846371
2439	2024-04-11 14:00:00	15	san_pancrazio_salentino	22.24	1	56.23	1	0.0	1	null	6	null	6	null	6	null	6	40.423415	17.846371
2440	2024-04-11 15:00:00	15	san_pancrazio_salentino	22.54	1	55.38	1	0.0	1	null	6	null	6	null	6	null	6	40.423415	17.846371
2441	2024-04-11 16:00:00	15	san_pancrazio_salentino	23.31	1	51.32	1	0.0	1	null	6	null	6	null	6	null	6	40.423415	17.846371
2442	2024-04-11 17:00:00	15	san_pancrazio_salentino	21.65	1	53.94	1	0.0	1	null	6	null	6	null	6	null	6	40.423415	17.846371
2443	2024-04-11 18:00:00	15	san_pancrazio_salentino	19.53	1	60.49	1	0.0	1	null	6	null	6	null	6	null	6	40.423415	17.846371
2444	2024-04-11 19:00:00	15	san_pancrazio_salentino	17.59	1	68.28	1	0.0	1	null	6	null	6	null	6	null	6	40.423415	17.846371
2445	2024-04-11 20:00:00	15	san_pancrazio_salentino	16.82	1	72.43	1	0.0	1	null	6	null	6	null	6	null	6	40.423415	17.846371
2446	2024-04-11 21:00:00	15	san_pancrazio_salentino	16.6	1	68.67	1	0.0	1	null	6	null	6	null	6	null	6	40.423415	17.846371
2447	2024-04-11 22:00:00	15	san_pancrazio_salentino	16.36	1	67.77	1	0.0	1	null	6	null	6	null	6	null	6	40.423415	17.846371
2448	2024-04-11 23:00:00	15	san_pancrazio_salentino	16.04	1	69.05	1	0.0	1	null	6	null	6	null	6	null	6	40.423415	17.846371
2449	2024-04-12 00:00:00	15	san_pancrazio_salentino	15.94	1	71.35	1	0.0	1	null	6	null	6	null	6	null	6	40.423415	17.846371
2450	2024-04-12 01:00:00	15	san_pancrazio_salentino	16.04	1	69.49	1	0.0	1	null	6	null	6	null	6	null	6	40.423415	17.846371
2451	2024-04-12 02:00:00	15	san_pancrazio_salentino	15.33	1	69.62	1	0.0	1	null	6	null	6	null	6	null	6	40.423415	17.846371
2452	2024-04-12 03:00:00	15	san_pancrazio_salentino	15.9	1	64.08	1	0.0	1	null	6	null	6	null	6	null	6	40.423415	17.846371
2453	2024-04-12 04:00:00	15	san_pancrazio_salentino	16.12	1	63.71	1	0.0	1	null	6	null	6	null	6	null	6	40.423415	17.846371
2454	2024-04-12 05:00:00	15	san_pancrazio_salentino	15.46	1	67.03	1	0.0	1	null	6	null	6	null	6	null	6	40.423415	17.846371
2455	2024-04-12 06:00:00	15	san_pancrazio_salentino	15.29	1	70.14	1	0.0	1	null	6	null	6	null	6	null	6	40.423415	17.846371
2456	2024-04-12 07:00:00	15	san_pancrazio_salentino	17.42	1	64.99	1	0.0	1	null	6	null	6	null	6	null	6	40.423415	17.846371
2457	2024-04-12 08:00:00	15	san_pancrazio_salentino	20.33	1	57.98	1	0.0	1	null	6	null	6	null	6	null	6	40.423415	17.846371
2458	2024-04-12 09:00:00	15	san_pancrazio_salentino	20.98	1	56.87	1	0.0	1	null	6	null	6	null	6	null	6	40.423415	17.846371
2459	2024-04-12 10:00:00	15	san_pancrazio_salentino	21.77	1	53.93	1	0.0	1	null	6	null	6	null	6	null	6	40.423415	17.846371
2460	2024-04-12 11:00:00	15	san_pancrazio_salentino	22.67	1	50.07	1	0.0	1	null	6	null	6	null	6	null	6	40.423415	17.846371
2461	2024-04-12 12:00:00	15	san_pancrazio_salentino	24.64	1	43.83	1	0.0	1	null	6	null	6	null	6	null	6	40.423415	17.846371
2462	2024-04-12 13:00:00	15	san_pancrazio_salentino	26.51	1	39.65	1	0.0	1	null	6	null	6	null	6	null	6	40.423415	17.846371
2463	2024-04-12 14:00:00	15	san_pancrazio_salentino	27.07	1	38.24	1	0.0	1	null	6	null	6	null	6	null	6	40.423415	17.846371
2464	2024-04-12 15:00:00	15	san_pancrazio_salentino	27.13	1	37.46	1	0.0	1	null	6	null	6	null	6	null	6	40.423415	17.846371
2465	2024-04-12 16:00:00	15	san_pancrazio_salentino	26.14	1	38.58	1	0.0	1	null	6	null	6	null	6	null	6	40.423415	17.846371
2466	2024-04-12 17:00:00	15	san_pancrazio_salentino	24.32	1	41.7	1	0.0	1	null	6	null	6	null	6	null	6	40.423415	17.846371
2467	2024-04-12 18:00:00	15	san_pancrazio_salentino	22.31	1	48.42	1	0.0	1	null	6	null	6	null	6	null	6	40.423415	17.846371
2468	2024-04-12 19:00:00	15	san_pancrazio_salentino	18.85	1	59.03	1	0.0	1	null	6	null	6	null	6	null	6	40.423415	17.846371
2469	2024-04-12 20:00:00	15	san_pancrazio_salentino	16.69	1	67.99	1	0.0	1	null	6	null	6	null	6	null	6	40.423415	17.846371
2470	2024-04-12 21:00:00	15	san_pancrazio_salentino	16.41	1	68.58	1	0.0	1	null	6	null	6	null	6	null	6	40.423415	17.846371
2471	2024-04-12 22:00:00	15	san_pancrazio_salentino	16.06	1	67.79	1	0.0	1	null	6	null	6	null	6	null	6	40.423415	17.846371
2472	2024-04-12 23:00:00	15	san_pancrazio_salentino	15.7	1	67.66	1	0.0	1	null	6	null	6	null	6	null	6	40.423415	17.846371
2473	2024-04-13 00:00:00	15	san_pancrazio_salentino	16.12	1	67.86	1	0.0	1	null	6	null	6	null	6	null	6	40.423415	17.846371
2474	2024-04-13 01:00:00	15	san_pancrazio_salentino	16.33	1	65.12	1	0.0	1	null	6	null	6	null	6	null	6	40.423415	17.846371
2475	2024-04-13 02:00:00	15	san_pancrazio_salentino	16.07	1	65.49	1	0.0	1	null	6	null	6	null	6	null	6	40.423415	17.846371
2476	2024-04-13 03:00:00	15	san_pancrazio_salentino	15.86	1	64.55	1	0.0	1	null	6	null	6	null	6	null	6	40.423415	17.846371
2477	2024-04-13 04:00:00	15	san_pancrazio_salentino	15.45	1	65.12	1	0.0	1	null	6	null	6	null	6	null	6	40.423415	17.846371
2478	2024-04-13 05:00:00	15	san_pancrazio_salentino	15.2	1	65.12	1	0.0	1	null	6	null	6	null	6	null	6	40.423415	17.846371
2479	2024-04-13 06:00:00	15	san_pancrazio_salentino	15.66	1	62.62	1	0.0	1	null	6	null	6	null	6	null	6	40.423415	17.846371
2480	2024-04-13 07:00:00	15	san_pancrazio_salentino	19.46	1	50.56	1	0.0	1	null	6	null	6	null	6	null	6	40.423415	17.846371
2481	2024-04-13 08:00:00	15	san_pancrazio_salentino	22.72	1	44.12	1	0.0	1	null	6	null	6	null	6	null	6	40.423415	17.846371
2482	2024-04-13 09:00:00	15	san_pancrazio_salentino	22.81	1	44.93	1	0.0	1	null	6	null	6	null	6	null	6	40.423415	17.846371
2483	2024-04-13 10:00:00	15	san_pancrazio_salentino	22.99	1	46.96	1	0.0	1	null	6	null	6	null	6	null	6	40.423415	17.846371
2484	2024-04-13 11:00:00	15	san_pancrazio_salentino	23.78	1	46.73	1	0.0	1	null	6	null	6	null	6	null	6	40.423415	17.846371
2485	2024-04-13 12:00:00	15	san_pancrazio_salentino	25.37	1	42.88	1	0.0	1	null	6	null	6	null	6	null	6	40.423415	17.846371
2486	2024-04-13 13:00:00	15	san_pancrazio_salentino	27.38	1	39.61	1	0.0	1	null	6	null	6	null	6	null	6	40.423415	17.846371
2487	2024-04-13 14:00:00	15	san_pancrazio_salentino	27.84	1	39.0	1	0.0	1	null	6	null	6	null	6	null	6	40.423415	17.846371
2488	2024-04-13 15:00:00	15	san_pancrazio_salentino	28.47	1	37.13	1	0.0	1	null	6	null	6	null	6	null	6	40.423415	17.846371
2489	2024-04-13 16:00:00	15	san_pancrazio_salentino	27.71	1	37.67	1	0.0	1	null	6	null	6	null	6	null	6	40.423415	17.846371
2490	2024-04-13 17:00:00	15	san_pancrazio_salentino	26.05	1	41.44	1	0.0	1	null	6	null	6	null	6	null	6	40.423415	17.846371
2491	2024-04-13 18:00:00	15	san_pancrazio_salentino	24.17	1	47.6	1	0.0	1	null	6	null	6	null	6	null	6	40.423415	17.846371
2492	2024-04-13 19:00:00	15	san_pancrazio_salentino	19.97	1	58.59	1	0.0	1	null	6	null	6	null	6	null	6	40.423415	17.846371
2493	2024-04-13 20:00:00	15	san_pancrazio_salentino	17.94	1	63.18	1	0.0	1	null	6	null	6	null	6	null	6	40.423415	17.846371
2494	2024-04-13 21:00:00	15	san_pancrazio_salentino	16.7	1	67.52	1	0.0	1	null	6	null	6	null	6	null	6	40.423415	17.846371
2495	2024-04-13 22:00:00	15	san_pancrazio_salentino	16.27	1	68.02	1	0.0	1	null	6	null	6	null	6	null	6	40.423415	17.846371
2496	2024-04-13 23:00:00	15	san_pancrazio_salentino	15.52	1	71.02	1	0.0	1	null	6	null	6	null	6	null	6	40.423415	17.846371
2497	2024-04-14 00:00:00	15	san_pancrazio_salentino	15.18	1	71.07	1	0.0	1	null	6	null	6	null	6	null	6	40.423415	17.846371
2498	2024-04-14 01:00:00	15	san_pancrazio_salentino	14.77	1	70.86	1	0.0	1	null	6	null	6	null	6	null	6	40.423415	17.846371
2499	2024-04-14 02:00:00	15	san_pancrazio_salentino	14.44	1	71.75	1	0.0	1	null	6	null	6	null	6	null	6	40.423415	17.846371
2500	2024-04-14 03:00:00	15	san_pancrazio_salentino	14.7	1	69.12	1	0.0	1	null	6	null	6	null	6	null	6	40.423415	17.846371
2501	2024-04-14 04:00:00	15	san_pancrazio_salentino	15.14	1	66.67	1	0.0	1	null	6	null	6	null	6	null	6	40.423415	17.846371
2502	2024-04-14 05:00:00	15	san_pancrazio_salentino	14.36	1	68.52	1	0.0	1	null	6	null	6	null	6	null	6	40.423415	17.846371
2503	2024-04-14 06:00:00	15	san_pancrazio_salentino	13.91	1	70.3	1	0.0	1	null	6	null	6	null	6	null	6	40.423415	17.846371
2504	2024-04-14 07:00:00	15	san_pancrazio_salentino	16.41	1	64.18	1	0.0	1	null	6	null	6	null	6	null	6	40.423415	17.846371
2505	2024-04-14 08:00:00	15	san_pancrazio_salentino	23.21	1	46.92	1	0.0	1	null	6	null	6	null	6	null	6	40.423415	17.846371
2506	2024-04-14 09:00:00	15	san_pancrazio_salentino	24.04	1	38.95	1	0.0	1	null	6	null	6	null	6	null	6	40.423415	17.846371
2507	2024-04-14 10:00:00	15	san_pancrazio_salentino	24.72	1	36.86	1	0.0	1	null	6	null	6	null	6	null	6	40.423415	17.846371
2508	2024-04-14 11:00:00	15	san_pancrazio_salentino	25.56	1	34.95	1	0.0	1	null	6	null	6	null	6	null	6	40.423415	17.846371
2509	2024-04-14 12:00:00	15	san_pancrazio_salentino	27.92	1	31.05	1	0.0	1	null	6	null	6	null	6	null	6	40.423415	17.846371
2510	2024-04-14 13:00:00	15	san_pancrazio_salentino	30.31	1	28.02	1	0.0	1	null	6	null	6	null	6	null	6	40.423415	17.846371
2511	2024-04-14 14:00:00	15	san_pancrazio_salentino	31.78	1	26.12	1	0.0	1	null	6	null	6	null	6	null	6	40.423415	17.846371
2512	2024-04-14 15:00:00	15	san_pancrazio_salentino	31.4	1	27.36	1	0.0	1	null	6	null	6	null	6	null	6	40.423415	17.846371
2513	2024-04-14 16:00:00	15	san_pancrazio_salentino	29.98	1	29.46	1	0.0	1	null	6	null	6	null	6	null	6	40.423415	17.846371
2514	2024-04-14 17:00:00	15	san_pancrazio_salentino	28.11	1	34.22	1	0.0	1	null	6	null	6	null	6	null	6	40.423415	17.846371
2515	2024-04-14 18:00:00	15	san_pancrazio_salentino	25.81	1	40.33	1	0.0	1	null	6	null	6	null	6	null	6	40.423415	17.846371
2516	2024-04-14 19:00:00	15	san_pancrazio_salentino	21.56	1	53.31	1	0.0	1	null	6	null	6	null	6	null	6	40.423415	17.846371
2517	2024-04-14 20:00:00	15	san_pancrazio_salentino	18.21	1	68.77	1	0.0	1	null	6	null	6	null	6	null	6	40.423415	17.846371
2518	2024-04-14 21:00:00	15	san_pancrazio_salentino	17.01	1	76.37	1	0.0	1	null	6	null	6	null	6	null	6	40.423415	17.846371
2519	2024-04-14 22:00:00	15	san_pancrazio_salentino	16.62	1	78.05	1	0.0	1	null	6	null	6	null	6	null	6	40.423415	17.846371
2520	2024-04-14 23:00:00	15	san_pancrazio_salentino	16.61	1	76.52	1	0.0	1	null	6	null	6	null	6	null	6	40.423415	17.846371
2521	2024-04-15 00:00:00	15	san_pancrazio_salentino	16.25	1	72.38	1	0.0	1	null	6	null	6	null	6	null	6	40.423415	17.846371
2522	2024-04-15 01:00:00	15	san_pancrazio_salentino	14.52	1	80.56	1	0.0	1	null	6	null	6	null	6	null	6	40.423415	17.846371
2523	2024-04-15 02:00:00	15	san_pancrazio_salentino	15.99	1	75.86	1	0.0	1	null	6	null	6	null	6	null	6	40.423415	17.846371
2524	2024-04-15 03:00:00	15	san_pancrazio_salentino	14.11	1	77.46	1	0.0	1	null	6	null	6	null	6	null	6	40.423415	17.846371
2525	2024-04-15 04:00:00	15	san_pancrazio_salentino	12.79	1	83.92	1	0.0	1	null	6	null	6	null	6	null	6	40.423415	17.846371
2526	2024-04-15 05:00:00	15	san_pancrazio_salentino	12.6	1	90.37	1	0.0	1	null	6	null	6	null	6	null	6	40.423415	17.846371
2527	2024-04-15 06:00:00	15	san_pancrazio_salentino	13.43	1	91.39	1	0.0	1	null	6	null	6	null	6	null	6	40.423415	17.846371
2528	2024-04-15 07:00:00	15	san_pancrazio_salentino	16.99	1	74.37	1	0.0	1	null	6	null	6	null	6	null	6	40.423415	17.846371
2529	2024-04-15 08:00:00	15	san_pancrazio_salentino	20.55	1	63.33	1	0.0	1	null	6	null	6	null	6	null	6	40.423415	17.846371
2530	2024-04-15 09:00:00	15	san_pancrazio_salentino	23.99	1	46.95	1	0.0	1	null	6	null	6	null	6	null	6	40.423415	17.846371
2531	2024-04-15 10:00:00	15	san_pancrazio_salentino	25.88	1	38.13	1	0.0	1	null	6	null	6	null	6	null	6	40.423415	17.846371
2532	2024-04-15 11:00:00	15	san_pancrazio_salentino	25.83	1	39.57	1	0.0	1	null	6	null	6	null	6	null	6	40.423415	17.846371
2533	2024-04-15 12:00:00	15	san_pancrazio_salentino	25.96	1	37.17	1	0.0	1	null	6	null	6	null	6	null	6	40.423415	17.846371
2534	2024-04-15 13:00:00	15	san_pancrazio_salentino	26.26	1	36.5	1	0.0	1	null	6	null	6	null	6	null	6	40.423415	17.846371
2535	2024-04-15 14:00:00	15	san_pancrazio_salentino	26.33	1	39.39	1	0.0	1	null	6	null	6	null	6	null	6	40.423415	17.846371
2536	2024-04-15 15:00:00	15	san_pancrazio_salentino	24.95	1	40.99	1	0.0	1	null	6	null	6	null	6	null	6	40.423415	17.846371
2537	2024-04-15 16:00:00	15	san_pancrazio_salentino	24.0	1	44.07	1	0.0	1	null	6	null	6	null	6	null	6	40.423415	17.846371
2538	2024-04-15 17:00:00	15	san_pancrazio_salentino	22.54	1	49.51	1	0.0	1	null	6	null	6	null	6	null	6	40.423415	17.846371
2539	2024-04-15 18:00:00	15	san_pancrazio_salentino	20.76	1	56.95	1	0.0	1	null	6	null	6	null	6	null	6	40.423415	17.846371
2540	2024-04-15 19:00:00	15	san_pancrazio_salentino	19.49	1	62.58	1	0.0	1	null	6	null	6	null	6	null	6	40.423415	17.846371
2541	2024-04-15 20:00:00	15	san_pancrazio_salentino	19.13	1	63.74	1	0.0	1	null	6	null	6	null	6	null	6	40.423415	17.846371
2542	2024-04-15 21:00:00	15	san_pancrazio_salentino	19.05	1	66.39	1	0.0	1	null	6	null	6	null	6	null	6	40.423415	17.846371
2543	2024-04-15 22:00:00	15	san_pancrazio_salentino	18.85	1	70.21	1	0.0	1	null	6	null	6	null	6	null	6	40.423415	17.846371
2544	2024-04-15 23:00:00	15	san_pancrazio_salentino	18.86	1	71.8	1	0.0	1	null	6	null	6	null	6	null	6	40.423415	17.846371
2545	2024-04-16 00:00:00	15	san_pancrazio_salentino	18.45	1	77.98	1	0.0	1	null	6	null	6	null	6	null	6	40.423415	17.846371
2546	2024-04-16 01:00:00	15	san_pancrazio_salentino	18.34	1	80.58	1	0.0	1	null	6	null	6	null	6	null	6	40.423415	17.846371
2547	2024-04-16 02:00:00	15	san_pancrazio_salentino	18.59	1	79.03	1	0.0	1	null	6	null	6	null	6	null	6	40.423415	17.846371
2548	2024-04-16 03:00:00	15	san_pancrazio_salentino	18.55	1	80.18	1	0.0	1	null	6	null	6	null	6	null	6	40.423415	17.846371
2549	2024-04-16 04:00:00	15	san_pancrazio_salentino	18.38	1	76.81	1	0.0	1	null	6	null	6	null	6	null	6	40.423415	17.846371
2550	2024-04-16 05:00:00	15	san_pancrazio_salentino	18.3	1	70.2	1	0.0	1	null	6	null	6	null	6	null	6	40.423415	17.846371
2551	2024-04-16 06:00:00	15	san_pancrazio_salentino	18.1	1	74.03	1	0.0	1	null	6	null	6	null	6	null	6	40.423415	17.846371
2552	2024-04-16 07:00:00	15	san_pancrazio_salentino	18.73	1	73.17	1	0.0	1	null	6	null	6	null	6	null	6	40.423415	17.846371
2553	2024-04-16 08:00:00	15	san_pancrazio_salentino	20.13	1	65.51	1	0.0	1	null	6	null	6	null	6	null	6	40.423415	17.846371
2554	2024-04-16 09:00:00	15	san_pancrazio_salentino	20.81	1	62.45	1	0.0	1	null	6	null	6	null	6	null	6	40.423415	17.846371
2555	2024-04-16 10:00:00	15	san_pancrazio_salentino	20.73	1	66.1	1	0.0	1	null	6	null	6	null	6	null	6	40.423415	17.846371
2556	2024-04-16 11:00:00	15	san_pancrazio_salentino	21.6	1	61.98	1	0.0	1	null	6	null	6	null	6	null	6	40.423415	17.846371
2557	2024-04-16 12:00:00	15	san_pancrazio_salentino	22.49	1	55.07	1	0.0	1	null	6	null	6	null	6	null	6	40.423415	17.846371
2558	2024-04-16 13:00:00	15	san_pancrazio_salentino	21.91	1	57.45	1	0.0	1	null	6	null	6	null	6	null	6	40.423415	17.846371
2559	2024-04-16 14:00:00	15	san_pancrazio_salentino	20.71	1	61.57	1	0.0	1	null	6	null	6	null	6	null	6	40.423415	17.846371
2560	2024-04-16 15:00:00	15	san_pancrazio_salentino	19.19	1	71.77	1	0.2	1	null	6	null	6	null	6	null	6	40.423415	17.846371
2561	2024-04-16 16:00:00	15	san_pancrazio_salentino	19.26	1	72.95	1	0.0	1	null	6	null	6	null	6	null	6	40.423415	17.846371
2562	2024-04-16 17:00:00	15	san_pancrazio_salentino	20.0	1	65.4	1	0.0	1	null	6	null	6	null	6	null	6	40.423415	17.846371
2563	2024-04-16 18:00:00	15	san_pancrazio_salentino	18.53	1	76.41	1	0.2	1	null	6	null	6	null	6	null	6	40.423415	17.846371
2564	2024-04-16 19:00:00	15	san_pancrazio_salentino	17.17	1	86.23	1	0.0	1	null	6	null	6	null	6	null	6	40.423415	17.846371
2565	2024-04-16 20:00:00	15	san_pancrazio_salentino	16.67	1	89.73	1	0.0	1	null	6	null	6	null	6	null	6	40.423415	17.846371
2566	2024-04-16 21:00:00	15	san_pancrazio_salentino	16.46	1	89.21	1	0.0	1	null	6	null	6	null	6	null	6	40.423415	17.846371
2567	2024-04-16 22:00:00	15	san_pancrazio_salentino	16.24	1	90.87	1	0.0	1	null	6	null	6	null	6	null	6	40.423415	17.846371
2568	2024-04-16 23:00:00	15	san_pancrazio_salentino	16.14	1	91.94	1	0.2	1	null	6	null	6	null	6	null	6	40.423415	17.846371
2569	2024-04-17 00:00:00	15	san_pancrazio_salentino	16.29	1	91.23	1	0.2	1	null	6	null	6	null	6	null	6	40.423415	17.846371
2570	2024-04-17 01:00:00	15	san_pancrazio_salentino	16.39	1	92.47	1	0.0	1	null	6	null	6	null	6	null	6	40.423415	17.846371
2571	2024-04-17 02:00:00	15	san_pancrazio_salentino	16.23	1	92.69	1	0.2	1	null	6	null	6	null	6	null	6	40.423415	17.846371
2572	2024-04-17 03:00:00	15	san_pancrazio_salentino	16.08	1	91.73	1	0.0	1	null	6	null	6	null	6	null	6	40.423415	17.846371
2573	2024-04-17 04:00:00	15	san_pancrazio_salentino	16.38	1	88.81	1	0.0	1	null	6	null	6	null	6	null	6	40.423415	17.846371
2574	2024-04-17 05:00:00	15	san_pancrazio_salentino	16.39	1	86.38	1	0.0	1	null	6	null	6	null	6	null	6	40.423415	17.846371
2575	2024-04-17 06:00:00	15	san_pancrazio_salentino	16.51	1	85.05	1	0.0	1	null	6	null	6	null	6	null	6	40.423415	17.846371
2576	2024-04-17 07:00:00	15	san_pancrazio_salentino	17.17	1	82.51	1	0.0	1	null	6	null	6	null	6	null	6	40.423415	17.846371
2577	2024-04-17 08:00:00	15	san_pancrazio_salentino	18.39	1	77.45	1	0.0	1	null	6	null	6	null	6	null	6	40.423415	17.846371
2578	2024-04-17 09:00:00	15	san_pancrazio_salentino	18.5	1	73.05	1	0.0	1	null	6	null	6	null	6	null	6	40.423415	17.846371
2579	2024-04-17 10:00:00	15	san_pancrazio_salentino	17.0	1	73.99	1	0.0	1	null	6	null	6	null	6	null	6	40.423415	17.846371
2580	2024-04-17 11:00:00	15	san_pancrazio_salentino	19.59	1	63.54	1	0.0	1	null	6	null	6	null	6	null	6	40.423415	17.846371
2581	2024-04-17 12:00:00	15	san_pancrazio_salentino	20.56	1	58.1	1	0.0	1	null	6	null	6	null	6	null	6	40.423415	17.846371
2582	2024-04-17 13:00:00	15	san_pancrazio_salentino	18.96	1	63.96	1	0.0	1	null	6	null	6	null	6	null	6	40.423415	17.846371
2583	2024-04-17 14:00:00	15	san_pancrazio_salentino	16.97	1	72.54	1	2.2	1	null	6	null	6	null	6	null	6	40.423415	17.846371
2584	2024-04-17 15:00:00	15	san_pancrazio_salentino	14.29	1	90.54	1	2.6	1	null	6	null	6	null	6	null	6	40.423415	17.846371
2585	2024-04-17 16:00:00	15	san_pancrazio_salentino	14.75	1	82.46	1	0.0	1	null	6	null	6	null	6	null	6	40.423415	17.846371
2586	2024-04-17 17:00:00	15	san_pancrazio_salentino	13.65	1	90.46	1	1.8	1	null	6	null	6	null	6	null	6	40.423415	17.846371
2587	2024-04-17 18:00:00	15	san_pancrazio_salentino	13.16	1	93.27	1	0.4	1	null	6	null	6	null	6	null	6	40.423415	17.846371
2588	2024-04-17 19:00:00	15	san_pancrazio_salentino	12.64	1	92.83	1	1.6	1	null	6	null	6	null	6	null	6	40.423415	17.846371
2589	2024-04-17 20:00:00	15	san_pancrazio_salentino	12.06	1	93.98	1	0.2	1	null	6	null	6	null	6	null	6	40.423415	17.846371
2590	2024-04-17 21:00:00	15	san_pancrazio_salentino	11.95	1	93.97	1	0.0	1	null	6	null	6	null	6	null	6	40.423415	17.846371
2591	2024-04-17 22:00:00	15	san_pancrazio_salentino	11.24	1	83.68	1	0.0	1	null	6	null	6	null	6	null	6	40.423415	17.846371
2592	2024-04-17 23:00:00	15	san_pancrazio_salentino	10.75	1	81.15	1	0.0	1	null	6	null	6	null	6	null	6	40.423415	17.846371
2593	2024-04-18 00:00:00	15	san_pancrazio_salentino	10.12	1	85.56	1	0.0	1	null	6	null	6	null	6	null	6	40.423415	17.846371
2594	2024-04-18 01:00:00	15	san_pancrazio_salentino	9.62	1	85.81	1	0.0	1	null	6	null	6	null	6	null	6	40.423415	17.846371
2595	2024-04-18 02:00:00	15	san_pancrazio_salentino	9.18	1	85.5	1	0.0	1	null	6	null	6	null	6	null	6	40.423415	17.846371
2596	2024-04-18 03:00:00	15	san_pancrazio_salentino	8.67	1	84.53	1	0.0	1	null	6	null	6	null	6	null	6	40.423415	17.846371
2597	2024-04-18 04:00:00	15	san_pancrazio_salentino	8.37	1	84.73	1	0.0	1	null	6	null	6	null	6	null	6	40.423415	17.846371
2598	2024-04-18 05:00:00	15	san_pancrazio_salentino	7.82	1	86.57	1	0.0	1	null	6	null	6	null	6	null	6	40.423415	17.846371
2599	2024-04-18 06:00:00	15	san_pancrazio_salentino	8.08	1	84.93	1	0.0	1	null	6	null	6	null	6	null	6	40.423415	17.846371
2600	2024-04-18 07:00:00	15	san_pancrazio_salentino	11.05	1	77.44	1	0.0	1	null	6	null	6	null	6	null	6	40.423415	17.846371
2601	2024-04-18 08:00:00	15	san_pancrazio_salentino	15.47	1	65.73	1	0.0	1	null	6	null	6	null	6	null	6	40.423415	17.846371
2602	2024-04-18 09:00:00	15	san_pancrazio_salentino	17.27	1	52.32	1	0.0	1	null	6	null	6	null	6	null	6	40.423415	17.846371
2603	2024-04-18 10:00:00	15	san_pancrazio_salentino	17.35	1	42.64	1	0.0	1	null	6	null	6	null	6	null	6	40.423415	17.846371
2604	2024-04-18 11:00:00	15	san_pancrazio_salentino	17.62	1	41.51	1	0.0	1	null	6	null	6	null	6	null	6	40.423415	17.846371
2605	2024-04-18 12:00:00	15	san_pancrazio_salentino	17.27	1	45.12	1	0.0	1	null	6	null	6	null	6	null	6	40.423415	17.846371
2606	2024-04-18 13:00:00	15	san_pancrazio_salentino	16.73	1	54.9	1	0.0	1	null	6	null	6	null	6	null	6	40.423415	17.846371
2607	2024-04-18 14:00:00	15	san_pancrazio_salentino	16.58	1	54.24	1	0.0	1	null	6	null	6	null	6	null	6	40.423415	17.846371
2608	2024-04-18 15:00:00	15	san_pancrazio_salentino	13.98	1	68.98	1	0.0	1	null	6	null	6	null	6	null	6	40.423415	17.846371
2609	2024-04-18 16:00:00	15	san_pancrazio_salentino	13.2	1	75.51	1	0.0	1	null	6	null	6	null	6	null	6	40.423415	17.846371
2610	2024-04-18 17:00:00	15	san_pancrazio_salentino	13.22	1	72.99	1	0.0	1	null	6	null	6	null	6	null	6	40.423415	17.846371
2611	2024-04-18 18:00:00	15	san_pancrazio_salentino	12.5	1	72.9	1	0.0	1	null	6	null	6	null	6	null	6	40.423415	17.846371
2612	2024-04-18 19:00:00	15	san_pancrazio_salentino	11.55	1	78.95	1	0.0	1	null	6	null	6	null	6	null	6	40.423415	17.846371
2613	2024-04-18 20:00:00	15	san_pancrazio_salentino	11.0	1	86.52	1	0.0	1	null	6	null	6	null	6	null	6	40.423415	17.846371
2614	2024-04-18 21:00:00	15	san_pancrazio_salentino	10.39	1	82.82	1	0.0	1	null	6	null	6	null	6	null	6	40.423415	17.846371
2615	2024-04-18 22:00:00	15	san_pancrazio_salentino	10.22	1	82.85	1	0.0	1	null	6	null	6	null	6	null	6	40.423415	17.846371
2616	2024-04-18 23:00:00	15	san_pancrazio_salentino	8.87	1	89.24	1	0.0	1	null	6	null	6	null	6	null	6	40.423415	17.846371
2617	2024-04-19 00:00:00	15	san_pancrazio_salentino	7.8	1	91.61	1	0.0	1	null	6	null	6	null	6	null	6	40.423415	17.846371
2618	2024-04-19 01:00:00	15	san_pancrazio_salentino	7.54	1	92.72	1	0.0	1	null	6	null	6	null	6	null	6	40.423415	17.846371
2619	2024-04-19 02:00:00	15	san_pancrazio_salentino	7.85	1	90.23	1	0.0	1	null	6	null	6	null	6	null	6	40.423415	17.846371
2620	2024-04-19 03:00:00	15	san_pancrazio_salentino	6.99	1	91.69	1	0.0	1	null	6	null	6	null	6	null	6	40.423415	17.846371
2621	2024-04-19 04:00:00	15	san_pancrazio_salentino	7.78	1	91.26	1	0.0	1	null	6	null	6	null	6	null	6	40.423415	17.846371
2622	2024-04-19 05:00:00	15	san_pancrazio_salentino	7.88	1	90.19	1	0.0	1	null	6	null	6	null	6	null	6	40.423415	17.846371
2623	2024-04-19 06:00:00	15	san_pancrazio_salentino	7.84	1	91.75	1	0.0	1	null	6	null	6	null	6	null	6	40.423415	17.846371
2624	2024-04-19 07:00:00	15	san_pancrazio_salentino	8.92	1	92.38	1	2.6	1	null	6	null	6	null	6	null	6	40.423415	17.846371
2625	2024-04-19 08:00:00	15	san_pancrazio_salentino	9.28	1	92.48	1	5.8	1	null	6	null	6	null	6	null	6	40.423415	17.846371
2626	2024-04-19 09:00:00	15	san_pancrazio_salentino	9.62	1	92.33	1	2.6	1	null	6	null	6	null	6	null	6	40.423415	17.846371
2627	2024-04-19 10:00:00	15	san_pancrazio_salentino	10.79	1	84.74	1	0.0	1	null	6	null	6	null	6	null	6	40.423415	17.846371
2628	2024-04-19 11:00:00	15	san_pancrazio_salentino	11.31	1	84.96	1	0.0	1	null	6	null	6	null	6	null	6	40.423415	17.846371
2629	2024-04-19 12:00:00	15	san_pancrazio_salentino	12.01	1	84.27	1	0.0	1	null	6	null	6	null	6	null	6	40.423415	17.846371
2630	2024-04-19 13:00:00	15	san_pancrazio_salentino	12.52	1	82.39	1	0.0	1	null	6	null	6	null	6	null	6	40.423415	17.846371
2631	2024-04-19 14:00:00	15	san_pancrazio_salentino	11.69	1	86.43	1	0.2	1	null	6	null	6	null	6	null	6	40.423415	17.846371
2632	2024-04-19 15:00:00	15	san_pancrazio_salentino	12.06	1	81.39	1	0.0	1	null	6	null	6	null	6	null	6	40.423415	17.846371
2633	2024-04-19 16:00:00	15	san_pancrazio_salentino	12.45	1	79.58	1	0.0	1	null	6	null	6	null	6	null	6	40.423415	17.846371
2634	2024-04-19 17:00:00	15	san_pancrazio_salentino	12.42	1	78.79	1	0.0	1	null	6	null	6	null	6	null	6	40.423415	17.846371
2635	2024-04-19 18:00:00	15	san_pancrazio_salentino	12.37	1	78.23	1	0.0	1	null	6	null	6	null	6	null	6	40.423415	17.846371
2636	2024-04-19 19:00:00	15	san_pancrazio_salentino	12.6	1	74.11	1	0.0	1	null	6	null	6	null	6	null	6	40.423415	17.846371
2637	2024-04-19 20:00:00	15	san_pancrazio_salentino	11.99	1	65.41	1	0.0	1	null	6	null	6	null	6	null	6	40.423415	17.846371
2638	2024-04-19 21:00:00	15	san_pancrazio_salentino	11.61	1	65.85	1	0.0	1	null	6	null	6	null	6	null	6	40.423415	17.846371
2639	2024-04-19 22:00:00	15	san_pancrazio_salentino	11.23	1	66.25	1	0.0	1	null	6	null	6	null	6	null	6	40.423415	17.846371
2640	2024-04-19 23:00:00	15	san_pancrazio_salentino	10.13	1	71.87	1	0.0	1	null	6	null	6	null	6	null	6	40.423415	17.846371
2641	2024-04-20 00:00:00	15	san_pancrazio_salentino	9.56	1	74.62	1	0.0	1	null	6	null	6	null	6	null	6	40.423415	17.846371
2642	2024-04-20 01:00:00	15	san_pancrazio_salentino	9.41	1	73.38	1	0.0	1	null	6	null	6	null	6	null	6	40.423415	17.846371
2643	2024-04-20 02:00:00	15	san_pancrazio_salentino	9.33	1	72.19	1	0.0	1	null	6	null	6	null	6	null	6	40.423415	17.846371
2644	2024-04-20 03:00:00	15	san_pancrazio_salentino	7.92	1	76.36	1	0.0	1	null	6	null	6	null	6	null	6	40.423415	17.846371
2645	2024-04-20 04:00:00	15	san_pancrazio_salentino	6.81	1	78.71	1	0.0	1	null	6	null	6	null	6	null	6	40.423415	17.846371
2646	2024-04-20 05:00:00	15	san_pancrazio_salentino	6.07	1	80.58	1	0.0	1	null	6	null	6	null	6	null	6	40.423415	17.846371
2647	2024-04-20 06:00:00	15	san_pancrazio_salentino	6.09	1	80.9	1	0.0	1	null	6	null	6	null	6	null	6	40.423415	17.846371
2648	2024-04-20 07:00:00	15	san_pancrazio_salentino	10.09	1	68.95	1	0.0	1	null	6	null	6	null	6	null	6	40.423415	17.846371
2649	2024-04-20 08:00:00	15	san_pancrazio_salentino	14.85	1	50.09	1	0.0	1	null	6	null	6	null	6	null	6	40.423415	17.846371
2650	2024-04-20 09:00:00	15	san_pancrazio_salentino	16.38	1	41.08	1	0.0	1	null	6	null	6	null	6	null	6	40.423415	17.846371
2651	2024-04-20 10:00:00	15	san_pancrazio_salentino	16.12	1	41.97	1	0.0	1	null	6	null	6	null	6	null	6	40.423415	17.846371
2652	2024-04-20 11:00:00	15	san_pancrazio_salentino	17.31	1	38.9	1	0.0	1	null	6	null	6	null	6	null	6	40.423415	17.846371
2653	2024-04-20 12:00:00	15	san_pancrazio_salentino	18.96	1	35.68	1	0.0	1	null	6	null	6	null	6	null	6	40.423415	17.846371
2654	2024-04-20 13:00:00	15	san_pancrazio_salentino	20.33	1	31.67	1	0.0	1	null	6	null	6	null	6	null	6	40.423415	17.846371
2655	2024-04-20 14:00:00	15	san_pancrazio_salentino	20.4	1	31.9	1	0.0	1	null	6	null	6	null	6	null	6	40.423415	17.846371
2656	2024-04-20 15:00:00	15	san_pancrazio_salentino	20.28	1	34.77	1	0.0	1	null	6	null	6	null	6	null	6	40.423415	17.846371
2657	2024-04-20 16:00:00	15	san_pancrazio_salentino	18.27	1	45.16	1	0.0	1	null	6	null	6	null	6	null	6	40.423415	17.846371
2658	2024-04-20 17:00:00	15	san_pancrazio_salentino	15.85	1	57.1	1	0.2	1	null	6	null	6	null	6	null	6	40.423415	17.846371
2659	2024-04-20 18:00:00	15	san_pancrazio_salentino	14.08	1	76.39	1	0.4	1	null	6	null	6	null	6	null	6	40.423415	17.846371
2660	2024-04-20 19:00:00	15	san_pancrazio_salentino	13.07	1	80.48	1	0.0	1	null	6	null	6	null	6	null	6	40.423415	17.846371
2661	2024-04-20 20:00:00	15	san_pancrazio_salentino	13.14	1	80.88	1	0.0	1	null	6	null	6	null	6	null	6	40.423415	17.846371
2662	2024-04-20 21:00:00	15	san_pancrazio_salentino	13.96	1	75.24	1	0.0	1	null	6	null	6	null	6	null	6	40.423415	17.846371
2663	2024-04-20 22:00:00	15	san_pancrazio_salentino	12.99	1	77.97	1	0.0	1	null	6	null	6	null	6	null	6	40.423415	17.846371
2664	2024-04-20 23:00:00	15	san_pancrazio_salentino	13.06	1	73.86	1	0.0	1	null	6	null	6	null	6	null	6	40.423415	17.846371
2665	2024-04-21 00:00:00	15	san_pancrazio_salentino	12.71	1	76.78	1	0.0	1	null	6	null	6	null	6	null	6	40.423415	17.846371
2666	2024-04-21 01:00:00	15	san_pancrazio_salentino	12.27	1	76.51	1	0.0	1	null	6	null	6	null	6	null	6	40.423415	17.846371
2667	2024-04-21 02:00:00	15	san_pancrazio_salentino	11.61	1	78.14	1	0.0	1	null	6	null	6	null	6	null	6	40.423415	17.846371
2668	2024-04-21 03:00:00	15	san_pancrazio_salentino	12.1	1	78.17	1	0.4	1	null	6	null	6	null	6	null	6	40.423415	17.846371
2669	2024-04-21 04:00:00	15	san_pancrazio_salentino	11.45	1	86.64	1	0.0	1	null	6	null	6	null	6	null	6	40.423415	17.846371
2670	2024-04-21 05:00:00	15	san_pancrazio_salentino	11.04	1	89.17	1	0.4	1	null	6	null	6	null	6	null	6	40.423415	17.846371
2671	2024-04-21 06:00:00	15	san_pancrazio_salentino	10.58	1	88.2	1	1.6	1	null	6	null	6	null	6	null	6	40.423415	17.846371
2672	2024-04-21 07:00:00	15	san_pancrazio_salentino	10.44	1	88.99	1	1.6	1	null	6	null	6	null	6	null	6	40.423415	17.846371
2673	2024-04-21 08:00:00	15	san_pancrazio_salentino	11.39	1	90.01	1	0.0	1	null	6	null	6	null	6	null	6	40.423415	17.846371
2674	2024-04-21 09:00:00	15	san_pancrazio_salentino	13.81	1	77.11	1	0.0	1	null	6	null	6	null	6	null	6	40.423415	17.846371
2675	2024-04-21 10:00:00	15	san_pancrazio_salentino	15.49	1	66.94	1	0.0	1	null	6	null	6	null	6	null	6	40.423415	17.846371
2676	2024-04-21 11:00:00	15	san_pancrazio_salentino	16.52	1	55.04	1	0.0	1	null	6	null	6	null	6	null	6	40.423415	17.846371
2677	2024-04-21 12:00:00	15	san_pancrazio_salentino	17.66	1	46.82	1	0.0	1	null	6	null	6	null	6	null	6	40.423415	17.846371
2678	2024-04-21 13:00:00	15	san_pancrazio_salentino	18.17	1	47.99	1	0.0	1	null	6	null	6	null	6	null	6	40.423415	17.846371
2679	2024-04-21 14:00:00	15	san_pancrazio_salentino	17.11	1	53.65	1	0.0	1	null	6	null	6	null	6	null	6	40.423415	17.846371
2680	2024-04-21 15:00:00	15	san_pancrazio_salentino	17.79	1	52.5	1	0.0	1	null	6	null	6	null	6	null	6	40.423415	17.846371
2681	2024-04-21 16:00:00	15	san_pancrazio_salentino	16.8	1	49.74	1	0.0	1	null	6	null	6	null	6	null	6	40.423415	17.846371
2682	2024-04-21 17:00:00	15	san_pancrazio_salentino	16.27	1	48.61	1	0.0	1	null	6	null	6	null	6	null	6	40.423415	17.846371
2683	2024-04-21 18:00:00	15	san_pancrazio_salentino	15.03	1	53.37	1	0.0	1	null	6	null	6	null	6	null	6	40.423415	17.846371
2684	2024-04-21 19:00:00	15	san_pancrazio_salentino	12.56	1	66.45	1	0.0	1	null	6	null	6	null	6	null	6	40.423415	17.846371
2685	2024-04-21 20:00:00	15	san_pancrazio_salentino	10.63	1	76.22	1	0.0	1	null	6	null	6	null	6	null	6	40.423415	17.846371
2686	2024-04-21 21:00:00	15	san_pancrazio_salentino	10.25	1	77.88	1	0.0	1	null	6	null	6	null	6	null	6	40.423415	17.846371
2687	2024-04-21 22:00:00	15	san_pancrazio_salentino	9.39	1	82.71	1	0.0	1	null	6	null	6	null	6	null	6	40.423415	17.846371
2688	2024-04-21 23:00:00	15	san_pancrazio_salentino	9.34	1	82.49	1	0.0	1	null	6	null	6	null	6	null	6	40.423415	17.846371
2689	2024-04-22 00:00:00	15	san_pancrazio_salentino	8.89	1	84.14	1	0.0	1	null	6	null	6	null	6	null	6	40.423415	17.846371
2690	2024-04-22 01:00:00	15	san_pancrazio_salentino	7.9	1	88.2	1	0.0	1	null	6	null	6	null	6	null	6	40.423415	17.846371
2691	2024-04-22 02:00:00	15	san_pancrazio_salentino	7.67	1	88.47	1	0.0	1	null	6	null	6	null	6	null	6	40.423415	17.846371
2692	2024-04-22 03:00:00	15	san_pancrazio_salentino	7.0	1	89.6	1	0.0	1	null	6	null	6	null	6	null	6	40.423415	17.846371
2693	2024-04-22 04:00:00	15	san_pancrazio_salentino	6.44	1	92.29	1	0.0	1	null	6	null	6	null	6	null	6	40.423415	17.846371
2694	2024-04-22 05:00:00	15	san_pancrazio_salentino	6.56	1	92.19	1	0.0	1	null	6	null	6	null	6	null	6	40.423415	17.846371
2695	2024-04-22 06:00:00	15	san_pancrazio_salentino	6.6	1	91.55	1	0.0	1	null	6	null	6	null	6	null	6	40.423415	17.846371
2696	2024-04-22 07:00:00	15	san_pancrazio_salentino	10.25	1	83.84	1	0.0	1	null	6	null	6	null	6	null	6	40.423415	17.846371
2697	2024-04-22 08:00:00	15	san_pancrazio_salentino	15.63	1	67.93	1	0.0	1	null	6	null	6	null	6	null	6	40.423415	17.846371
2698	2024-04-22 09:00:00	15	san_pancrazio_salentino	16.54	1	62.5	1	0.0	1	null	6	null	6	null	6	null	6	40.423415	17.846371
2699	2024-04-22 10:00:00	15	san_pancrazio_salentino	16.71	1	56.11	1	0.0	1	null	6	null	6	null	6	null	6	40.423415	17.846371
2700	2024-04-22 11:00:00	15	san_pancrazio_salentino	17.57	1	49.68	1	0.0	1	null	6	null	6	null	6	null	6	40.423415	17.846371
2701	2024-04-22 12:00:00	15	san_pancrazio_salentino	18.54	1	47.44	1	0.0	1	null	6	null	6	null	6	null	6	40.423415	17.846371
2702	2024-04-22 13:00:00	15	san_pancrazio_salentino	20.23	1	45.4	1	0.0	1	null	6	null	6	null	6	null	6	40.423415	17.846371
2703	2024-04-22 14:00:00	15	san_pancrazio_salentino	20.66	1	47.74	1	0.0	1	null	6	null	6	null	6	null	6	40.423415	17.846371
2704	2024-04-22 15:00:00	15	san_pancrazio_salentino	19.49	1	53.37	1	0.0	1	null	6	null	6	null	6	null	6	40.423415	17.846371
2705	2024-04-22 16:00:00	15	san_pancrazio_salentino	20.25	1	52.91	1	0.0	1	null	6	null	6	null	6	null	6	40.423415	17.846371
2706	2024-04-22 17:00:00	15	san_pancrazio_salentino	19.39	1	56.04	1	0.0	1	null	6	null	6	null	6	null	6	40.423415	17.846371
2707	2024-04-22 18:00:00	15	san_pancrazio_salentino	17.91	1	59.76	1	0.0	1	null	6	null	6	null	6	null	6	40.423415	17.846371
2708	2024-04-22 19:00:00	15	san_pancrazio_salentino	15.46	1	66.26	1	0.0	1	null	6	null	6	null	6	null	6	40.423415	17.846371
2709	2024-04-22 20:00:00	15	san_pancrazio_salentino	14.11	1	71.5	1	0.0	1	null	6	null	6	null	6	null	6	40.423415	17.846371
2710	2024-04-22 21:00:00	15	san_pancrazio_salentino	13.22	1	74.74	1	0.0	1	null	6	null	6	null	6	null	6	40.423415	17.846371
2711	2024-04-22 22:00:00	15	san_pancrazio_salentino	12.87	1	76.55	1	0.0	1	null	6	null	6	null	6	null	6	40.423415	17.846371
2712	2024-04-22 23:00:00	15	san_pancrazio_salentino	12.59	1	80.93	1	0.0	1	null	6	null	6	null	6	null	6	40.423415	17.846371
2713	2024-04-23 00:00:00	15	san_pancrazio_salentino	12.79	1	82.39	1	0.0	1	null	6	null	6	null	6	null	6	40.423415	17.846371
2714	2024-04-23 01:00:00	15	san_pancrazio_salentino	13.09	1	83.77	1	0.0	1	null	6	null	6	null	6	null	6	40.423415	17.846371
2715	2024-04-23 02:00:00	15	san_pancrazio_salentino	13.34	1	83.81	1	0.0	1	null	6	null	6	null	6	null	6	40.423415	17.846371
2716	2024-04-23 03:00:00	15	san_pancrazio_salentino	13.47	1	85.01	1	0.0	1	null	6	null	6	null	6	null	6	40.423415	17.846371
2717	2024-04-23 04:00:00	15	san_pancrazio_salentino	13.53	1	85.68	1	0.0	1	null	6	null	6	null	6	null	6	40.423415	17.846371
2718	2024-04-23 05:00:00	15	san_pancrazio_salentino	13.49	1	86.82	1	0.0	1	null	6	null	6	null	6	null	6	40.423415	17.846371
2719	2024-04-23 06:00:00	15	san_pancrazio_salentino	13.3	1	90.87	1	0.4	1	null	6	null	6	null	6	null	6	40.423415	17.846371
2720	2024-04-23 07:00:00	15	san_pancrazio_salentino	13.58	1	93.55	1	1.6	1	null	6	null	6	null	6	null	6	40.423415	17.846371
2721	2024-04-23 08:00:00	15	san_pancrazio_salentino	13.66	1	95.5	1	1.8	1	null	6	null	6	null	6	null	6	40.423415	17.846371
2722	2024-04-23 09:00:00	15	san_pancrazio_salentino	13.81	1	93.51	1	0.0	1	null	6	null	6	null	6	null	6	40.423415	17.846371
2723	2024-04-23 10:00:00	15	san_pancrazio_salentino	13.93	1	92.12	1	0.0	1	null	6	null	6	null	6	null	6	40.423415	17.846371
2724	2024-04-23 11:00:00	15	san_pancrazio_salentino	14.26	1	91.52	1	0.0	1	null	6	null	6	null	6	null	6	40.423415	17.846371
2725	2024-04-23 12:00:00	15	san_pancrazio_salentino	14.01	1	93.18	1	0.6	1	null	6	null	6	null	6	null	6	40.423415	17.846371
2726	2024-04-23 13:00:00	15	san_pancrazio_salentino	13.59	1	94.63	1	0.2	1	null	6	null	6	null	6	null	6	40.423415	17.846371
2727	2024-04-23 14:00:00	15	san_pancrazio_salentino	13.99	1	94.0	1	0.8	1	null	6	null	6	null	6	null	6	40.423415	17.846371
2728	2024-04-23 15:00:00	15	san_pancrazio_salentino	14.41	1	91.71	1	0.0	1	null	6	null	6	null	6	null	6	40.423415	17.846371
2729	2024-04-23 16:00:00	15	san_pancrazio_salentino	16.88	1	76.72	1	0.0	1	null	6	null	6	null	6	null	6	40.423415	17.846371
2730	2024-04-23 17:00:00	15	san_pancrazio_salentino	19.49	1	60.99	1	0.0	1	null	6	null	6	null	6	null	6	40.423415	17.846371
2731	2024-04-23 18:00:00	15	san_pancrazio_salentino	19.04	1	60.74	1	0.0	1	null	6	null	6	null	6	null	6	40.423415	17.846371
2732	2024-04-23 19:00:00	15	san_pancrazio_salentino	16.36	1	76.61	1	0.0	1	null	6	null	6	null	6	null	6	40.423415	17.846371
2733	2024-04-23 20:00:00	15	san_pancrazio_salentino	14.98	1	84.35	1	0.0	1	null	6	null	6	null	6	null	6	40.423415	17.846371
2734	2024-04-23 21:00:00	15	san_pancrazio_salentino	14.04	1	88.01	1	0.0	1	null	6	null	6	null	6	null	6	40.423415	17.846371
2735	2024-04-23 22:00:00	15	san_pancrazio_salentino	13.64	1	88.2	1	0.0	1	null	6	null	6	null	6	null	6	40.423415	17.846371
2736	2024-04-23 23:00:00	15	san_pancrazio_salentino	12.37	1	91.44	1	0.0	1	null	6	null	6	null	6	null	6	40.423415	17.846371
2737	2024-04-24 00:00:00	15	san_pancrazio_salentino	11.49	1	81.66	1	0.0	1	null	6	null	6	null	6	null	6	40.423415	17.846371
2738	2024-04-24 01:00:00	15	san_pancrazio_salentino	10.01	1	69.29	1	0.0	1	null	6	null	6	null	6	null	6	40.423415	17.846371
2739	2024-04-24 02:00:00	15	san_pancrazio_salentino	9.63	1	67.98	1	0.0	1	null	6	null	6	null	6	null	6	40.423415	17.846371
2740	2024-04-24 03:00:00	15	san_pancrazio_salentino	8.94	1	75.28	1	0.0	1	null	6	null	6	null	6	null	6	40.423415	17.846371
2741	2024-04-24 04:00:00	15	san_pancrazio_salentino	7.93	1	80.94	1	0.0	1	null	6	null	6	null	6	null	6	40.423415	17.846371
2742	2024-04-24 05:00:00	15	san_pancrazio_salentino	7.94	1	76.25	1	0.0	1	null	6	null	6	null	6	null	6	40.423415	17.846371
2743	2024-04-24 06:00:00	15	san_pancrazio_salentino	7.95	1	75.47	1	0.0	1	null	6	null	6	null	6	null	6	40.423415	17.846371
2744	2024-04-24 07:00:00	15	san_pancrazio_salentino	11.04	1	71.1	1	0.0	1	null	6	null	6	null	6	null	6	40.423415	17.846371
2745	2024-04-24 08:00:00	15	san_pancrazio_salentino	15.77	1	56.44	1	0.0	1	null	6	null	6	null	6	null	6	40.423415	17.846371
2746	2024-04-24 09:00:00	15	san_pancrazio_salentino	16.04	1	54.89	1	0.0	1	null	6	null	6	null	6	null	6	40.423415	17.846371
2747	2024-04-24 10:00:00	15	san_pancrazio_salentino	16.92	1	44.01	1	0.0	1	null	6	null	6	null	6	null	6	40.423415	17.846371
2748	2024-04-24 11:00:00	15	san_pancrazio_salentino	17.85	1	40.57	1	0.0	1	null	6	null	6	null	6	null	6	40.423415	17.846371
2749	2024-04-24 12:00:00	15	san_pancrazio_salentino	18.4	1	42.44	1	0.0	1	null	6	null	6	null	6	null	6	40.423415	17.846371
2750	2024-04-24 13:00:00	15	san_pancrazio_salentino	18.61	1	43.71	1	0.0	1	null	6	null	6	null	6	null	6	40.423415	17.846371
2751	2024-04-24 14:00:00	15	san_pancrazio_salentino	18.25	1	44.65	1	0.0	1	null	6	null	6	null	6	null	6	40.423415	17.846371
2752	2024-04-24 15:00:00	15	san_pancrazio_salentino	17.58	1	46.03	1	0.0	1	null	6	null	6	null	6	null	6	40.423415	17.846371
2753	2024-04-24 16:00:00	15	san_pancrazio_salentino	17.15	1	46.24	1	0.0	1	null	6	null	6	null	6	null	6	40.423415	17.846371
2754	2024-04-24 17:00:00	15	san_pancrazio_salentino	16.32	1	50.78	1	0.0	1	null	6	null	6	null	6	null	6	40.423415	17.846371
2755	2024-04-24 18:00:00	15	san_pancrazio_salentino	15.44	1	57.52	1	0.0	1	null	6	null	6	null	6	null	6	40.423415	17.846371
2756	2024-04-24 19:00:00	15	san_pancrazio_salentino	15.17	1	58.73	1	0.0	1	null	6	null	6	null	6	null	6	40.423415	17.846371
2757	2024-04-24 20:00:00	15	san_pancrazio_salentino	14.77	1	59.21	1	0.0	1	null	6	null	6	null	6	null	6	40.423415	17.846371
2758	2024-04-24 21:00:00	15	san_pancrazio_salentino	14.38	1	63.09	1	0.0	1	null	6	null	6	null	6	null	6	40.423415	17.846371
2759	2024-04-24 22:00:00	15	san_pancrazio_salentino	13.97	1	63.33	1	0.0	1	null	6	null	6	null	6	null	6	40.423415	17.846371
2760	2024-04-24 23:00:00	15	san_pancrazio_salentino	13.68	1	60.73	1	0.0	1	null	6	null	6	null	6	null	6	40.423415	17.846371
2761	2024-04-25 00:00:00	15	san_pancrazio_salentino	12.6	1	72.56	1	0.0	1	null	6	null	6	null	6	null	6	40.423415	17.846371
2762	2024-04-25 01:00:00	15	san_pancrazio_salentino	12.02	1	79.7	1	0.0	1	null	6	null	6	null	6	null	6	40.423415	17.846371
2763	2024-04-25 02:00:00	15	san_pancrazio_salentino	11.66	1	77.05	1	0.0	1	null	6	null	6	null	6	null	6	40.423415	17.846371
2764	2024-04-25 03:00:00	15	san_pancrazio_salentino	11.2	1	76.58	1	0.0	1	null	6	null	6	null	6	null	6	40.423415	17.846371
2765	2024-04-25 04:00:00	15	san_pancrazio_salentino	10.83	1	73.06	1	0.0	1	null	6	null	6	null	6	null	6	40.423415	17.846371
2766	2024-04-25 05:00:00	15	san_pancrazio_salentino	9.41	1	72.45	1	0.0	1	null	6	null	6	null	6	null	6	40.423415	17.846371
2767	2024-04-25 06:00:00	15	san_pancrazio_salentino	8.56	1	71.38	1	0.0	1	null	6	null	6	null	6	null	6	40.423415	17.846371
2768	2024-04-25 07:00:00	15	san_pancrazio_salentino	11.58	1	62.92	1	0.0	1	null	6	null	6	null	6	null	6	40.423415	17.846371
2769	2024-04-25 08:00:00	15	san_pancrazio_salentino	16.18	1	47.59	1	0.0	1	null	6	null	6	null	6	null	6	40.423415	17.846371
2770	2024-04-25 09:00:00	15	san_pancrazio_salentino	17.66	1	40.61	1	0.0	1	null	6	null	6	null	6	null	6	40.423415	17.846371
2771	2024-04-25 10:00:00	15	san_pancrazio_salentino	16.98	1	38.78	1	0.0	1	null	6	null	6	null	6	null	6	40.423415	17.846371
2772	2024-04-25 11:00:00	15	san_pancrazio_salentino	17.3	1	38.34	1	0.0	1	null	6	null	6	null	6	null	6	40.423415	17.846371
2773	2024-04-25 12:00:00	15	san_pancrazio_salentino	18.75	1	33.72	1	0.0	1	null	6	null	6	null	6	null	6	40.423415	17.846371
2774	2024-04-25 13:00:00	15	san_pancrazio_salentino	19.87	1	32.97	1	0.0	1	null	6	null	6	null	6	null	6	40.423415	17.846371
2775	2024-04-25 14:00:00	15	san_pancrazio_salentino	20.8	1	32.57	1	0.0	1	null	6	null	6	null	6	null	6	40.423415	17.846371
2776	2024-04-25 15:00:00	15	san_pancrazio_salentino	19.93	1	38.61	1	0.0	1	null	6	null	6	null	6	null	6	40.423415	17.846371
2777	2024-04-25 16:00:00	15	san_pancrazio_salentino	20.36	1	36.82	1	0.0	1	null	6	null	6	null	6	null	6	40.423415	17.846371
2778	2024-04-25 17:00:00	15	san_pancrazio_salentino	18.45	1	45.03	1	0.0	1	null	6	null	6	null	6	null	6	40.423415	17.846371
2779	2024-04-25 18:00:00	15	san_pancrazio_salentino	17.46	1	52.61	1	0.0	1	null	6	null	6	null	6	null	6	40.423415	17.846371
2780	2024-04-25 19:00:00	15	san_pancrazio_salentino	15.37	1	62.04	1	0.0	1	null	6	null	6	null	6	null	6	40.423415	17.846371
2781	2024-04-25 20:00:00	15	san_pancrazio_salentino	14.28	1	67.22	1	0.0	1	null	6	null	6	null	6	null	6	40.423415	17.846371
2782	2024-04-25 21:00:00	15	san_pancrazio_salentino	13.9	1	67.17	1	0.0	1	null	6	null	6	null	6	null	6	40.423415	17.846371
2783	2024-04-25 22:00:00	15	san_pancrazio_salentino	14.38	1	65.3	1	0.0	1	null	6	null	6	null	6	null	6	40.423415	17.846371
2784	2024-04-25 23:00:00	15	san_pancrazio_salentino	13.31	1	71.59	1	0.0	1	null	6	null	6	null	6	null	6	40.423415	17.846371
2785	2024-04-26 00:00:00	15	san_pancrazio_salentino	12.42	1	77.09	1	0.0	1	null	6	null	6	null	6	null	6	40.423415	17.846371
2786	2024-04-26 01:00:00	15	san_pancrazio_salentino	10.99	1	83.63	1	0.0	1	null	6	null	6	null	6	null	6	40.423415	17.846371
2787	2024-04-26 02:00:00	15	san_pancrazio_salentino	9.62	1	88.83	1	0.0	1	null	6	null	6	null	6	null	6	40.423415	17.846371
2788	2024-04-26 03:00:00	15	san_pancrazio_salentino	9.08	1	89.65	1	0.0	1	null	6	null	6	null	6	null	6	40.423415	17.846371
2789	2024-04-26 04:00:00	15	san_pancrazio_salentino	9.09	1	88.11	1	0.0	1	null	6	null	6	null	6	null	6	40.423415	17.846371
2790	2024-04-26 05:00:00	15	san_pancrazio_salentino	8.58	1	88.99	1	0.0	1	null	6	null	6	null	6	null	6	40.423415	17.846371
2791	2024-04-26 06:00:00	15	san_pancrazio_salentino	8.98	1	85.31	1	0.0	1	null	6	null	6	null	6	null	6	40.423415	17.846371
2792	2024-04-26 07:00:00	15	san_pancrazio_salentino	12.97	1	72.68	1	0.0	1	null	6	null	6	null	6	null	6	40.423415	17.846371
2793	2024-04-26 08:00:00	15	san_pancrazio_salentino	18.62	1	55.76	1	0.0	1	null	6	null	6	null	6	null	6	40.423415	17.846371
2794	2024-04-26 09:00:00	15	san_pancrazio_salentino	20.33	1	47.78	1	0.0	1	null	6	null	6	null	6	null	6	40.423415	17.846371
2795	2024-04-26 10:00:00	15	san_pancrazio_salentino	18.56	1	49.47	1	0.0	1	null	6	null	6	null	6	null	6	40.423415	17.846371
2796	2024-04-26 11:00:00	15	san_pancrazio_salentino	19.45	1	44.58	1	0.0	1	null	6	null	6	null	6	null	6	40.423415	17.846371
2797	2024-04-26 12:00:00	15	san_pancrazio_salentino	19.33	1	44.62	1	0.0	1	null	6	null	6	null	6	null	6	40.423415	17.846371
2798	2024-04-26 13:00:00	15	san_pancrazio_salentino	20.67	1	37.69	1	0.0	1	null	6	null	6	null	6	null	6	40.423415	17.846371
2799	2024-04-26 14:00:00	15	san_pancrazio_salentino	21.38	1	32.23	1	0.0	1	null	6	null	6	null	6	null	6	40.423415	17.846371
2800	2024-04-26 15:00:00	15	san_pancrazio_salentino	21.62	1	31.26	1	0.0	1	null	6	null	6	null	6	null	6	40.423415	17.846371
2801	2024-04-26 16:00:00	15	san_pancrazio_salentino	20.97	1	35.93	1	0.0	1	null	6	null	6	null	6	null	6	40.423415	17.846371
2802	2024-04-26 17:00:00	15	san_pancrazio_salentino	19.61	1	39.86	1	0.0	1	null	6	null	6	null	6	null	6	40.423415	17.846371
2803	2024-04-26 18:00:00	15	san_pancrazio_salentino	17.1	1	52.9	1	0.0	1	null	6	null	6	null	6	null	6	40.423415	17.846371
2804	2024-04-26 19:00:00	15	san_pancrazio_salentino	15.98	1	62.17	1	0.0	1	null	6	null	6	null	6	null	6	40.423415	17.846371
2805	2024-04-26 20:00:00	15	san_pancrazio_salentino	15.45	1	65.55	1	0.0	1	null	6	null	6	null	6	null	6	40.423415	17.846371
2806	2024-04-26 21:00:00	15	san_pancrazio_salentino	15.14	1	69.47	1	0.0	1	null	6	null	6	null	6	null	6	40.423415	17.846371
2807	2024-04-26 22:00:00	15	san_pancrazio_salentino	15.18	1	71.16	1	0.0	1	null	6	null	6	null	6	null	6	40.423415	17.846371
2808	2024-04-26 23:00:00	15	san_pancrazio_salentino	14.87	1	74.6	1	0.0	1	null	6	null	6	null	6	null	6	40.423415	17.846371
2809	2024-04-27 00:00:00	15	san_pancrazio_salentino	14.24	1	78.0	1	0.0	1	null	6	null	6	null	6	null	6	40.423415	17.846371
2810	2024-04-27 01:00:00	15	san_pancrazio_salentino	13.67	1	80.74	1	0.0	1	null	6	null	6	null	6	null	6	40.423415	17.846371
2811	2024-04-27 02:00:00	15	san_pancrazio_salentino	12.98	1	83.98	1	0.0	1	null	6	null	6	null	6	null	6	40.423415	17.846371
2812	2024-04-27 03:00:00	15	san_pancrazio_salentino	12.19	1	85.85	1	0.0	1	null	6	null	6	null	6	null	6	40.423415	17.846371
2813	2024-04-27 04:00:00	15	san_pancrazio_salentino	11.03	1	89.55	1	0.0	1	null	6	null	6	null	6	null	6	40.423415	17.846371
2814	2024-04-27 05:00:00	15	san_pancrazio_salentino	11.05	1	86.29	1	0.0	1	null	6	null	6	null	6	null	6	40.423415	17.846371
2815	2024-04-27 06:00:00	15	san_pancrazio_salentino	10.15	1	89.23	1	0.0	1	null	6	null	6	null	6	null	6	40.423415	17.846371
2816	2024-04-27 07:00:00	15	san_pancrazio_salentino	14.61	1	76.02	1	0.0	1	null	6	null	6	null	6	null	6	40.423415	17.846371
2817	2024-04-27 08:00:00	15	san_pancrazio_salentino	19.58	1	59.06	1	0.0	1	null	6	null	6	null	6	null	6	40.423415	17.846371
2818	2024-04-27 09:00:00	15	san_pancrazio_salentino	20.26	1	54.72	1	0.0	1	null	6	null	6	null	6	null	6	40.423415	17.846371
2819	2024-04-27 10:00:00	15	san_pancrazio_salentino	19.4	1	50.09	1	0.0	1	null	6	null	6	null	6	null	6	40.423415	17.846371
2820	2024-04-27 11:00:00	15	san_pancrazio_salentino	20.17	1	42.91	1	0.0	1	null	6	null	6	null	6	null	6	40.423415	17.846371
2821	2024-04-27 12:00:00	15	san_pancrazio_salentino	22.84	1	35.35	1	0.0	1	null	6	null	6	null	6	null	6	40.423415	17.846371
2822	2024-04-27 13:00:00	15	san_pancrazio_salentino	24.25	1	36.79	1	0.0	1	null	6	null	6	null	6	null	6	40.423415	17.846371
2823	2024-04-27 14:00:00	15	san_pancrazio_salentino	23.21	1	43.93	1	0.0	1	null	6	null	6	null	6	null	6	40.423415	17.846371
2824	2024-04-27 15:00:00	15	san_pancrazio_salentino	23.64	1	43.13	1	0.0	1	null	6	null	6	null	6	null	6	40.423415	17.846371
2825	2024-04-27 16:00:00	15	san_pancrazio_salentino	23.19	1	43.99	1	0.0	1	null	6	null	6	null	6	null	6	40.423415	17.846371
2826	2024-04-27 17:00:00	15	san_pancrazio_salentino	22.36	1	44.52	1	0.0	1	null	6	null	6	null	6	null	6	40.423415	17.846371
2827	2024-04-27 18:00:00	15	san_pancrazio_salentino	21.06	1	43.89	1	0.0	1	null	6	null	6	null	6	null	6	40.423415	17.846371
2828	2024-04-27 19:00:00	15	san_pancrazio_salentino	18.29	1	52.8	1	0.0	1	null	6	null	6	null	6	null	6	40.423415	17.846371
2829	2024-04-27 20:00:00	15	san_pancrazio_salentino	15.96	1	61.95	1	0.0	1	null	6	null	6	null	6	null	6	40.423415	17.846371
2830	2024-04-27 21:00:00	15	san_pancrazio_salentino	14.65	1	67.38	1	0.0	1	null	6	null	6	null	6	null	6	40.423415	17.846371
2831	2024-04-27 22:00:00	15	san_pancrazio_salentino	13.88	1	74.24	1	0.0	1	null	6	null	6	null	6	null	6	40.423415	17.846371
2832	2024-04-27 23:00:00	15	san_pancrazio_salentino	13.2	1	78.67	1	0.0	1	null	6	null	6	null	6	null	6	40.423415	17.846371
2833	2024-04-28 00:00:00	15	san_pancrazio_salentino	12.39	1	81.27	1	0.0	1	null	6	null	6	null	6	null	6	40.423415	17.846371
2834	2024-04-28 01:00:00	15	san_pancrazio_salentino	11.61	1	83.78	1	0.0	1	null	6	null	6	null	6	null	6	40.423415	17.846371
2835	2024-04-28 02:00:00	15	san_pancrazio_salentino	10.84	1	85.78	1	0.0	1	null	6	null	6	null	6	null	6	40.423415	17.846371
2836	2024-04-28 03:00:00	15	san_pancrazio_salentino	10.38	1	87.39	1	0.0	1	null	6	null	6	null	6	null	6	40.423415	17.846371
2837	2024-04-28 04:00:00	15	san_pancrazio_salentino	10.33	1	88.06	1	0.0	1	null	6	null	6	null	6	null	6	40.423415	17.846371
2838	2024-04-28 05:00:00	15	san_pancrazio_salentino	9.74	1	88.78	1	0.0	1	null	6	null	6	null	6	null	6	40.423415	17.846371
2839	2024-04-28 06:00:00	15	san_pancrazio_salentino	10.17	1	88.5	1	0.0	1	null	6	null	6	null	6	null	6	40.423415	17.846371
2840	2024-04-28 07:00:00	15	san_pancrazio_salentino	14.25	1	81.97	1	0.0	1	null	6	null	6	null	6	null	6	40.423415	17.846371
2841	2024-04-28 08:00:00	15	san_pancrazio_salentino	21.34	1	54.47	1	0.0	1	null	6	null	6	null	6	null	6	40.423415	17.846371
2842	2024-04-28 09:00:00	15	san_pancrazio_salentino	22.31	1	46.63	1	0.0	1	null	6	null	6	null	6	null	6	40.423415	17.846371
2843	2024-04-28 10:00:00	15	san_pancrazio_salentino	21.82	1	40.55	1	0.0	1	null	6	null	6	null	6	null	6	40.423415	17.846371
2844	2024-04-28 11:00:00	15	san_pancrazio_salentino	22.11	1	34.6	1	0.0	1	null	6	null	6	null	6	null	6	40.423415	17.846371
2845	2024-04-28 12:00:00	15	san_pancrazio_salentino	23.94	1	32.58	1	0.0	1	null	6	null	6	null	6	null	6	40.423415	17.846371
2846	2024-04-28 13:00:00	15	san_pancrazio_salentino	26.23	1	32.74	1	0.0	1	null	6	null	6	null	6	null	6	40.423415	17.846371
2847	2024-04-28 14:00:00	15	san_pancrazio_salentino	27.58	1	33.36	1	0.0	1	null	6	null	6	null	6	null	6	40.423415	17.846371
2848	2024-04-28 15:00:00	15	san_pancrazio_salentino	28.79	1	32.28	1	0.0	1	null	6	null	6	null	6	null	6	40.423415	17.846371
2849	2024-04-28 16:00:00	15	san_pancrazio_salentino	27.82	1	33.75	1	0.0	1	null	6	null	6	null	6	null	6	40.423415	17.846371
2850	2024-04-28 17:00:00	15	san_pancrazio_salentino	26.61	1	37.23	1	0.0	1	null	6	null	6	null	6	null	6	40.423415	17.846371
2851	2024-04-28 18:00:00	15	san_pancrazio_salentino	24.93	1	39.75	1	0.0	1	null	6	null	6	null	6	null	6	40.423415	17.846371
2852	2024-04-28 19:00:00	15	san_pancrazio_salentino	21.26	1	52.05	1	0.0	1	null	6	null	6	null	6	null	6	40.423415	17.846371
2853	2024-04-28 20:00:00	15	san_pancrazio_salentino	18.14	1	59.63	1	0.0	1	null	6	null	6	null	6	null	6	40.423415	17.846371
2854	2024-04-28 21:00:00	15	san_pancrazio_salentino	16.42	1	69.15	1	0.0	1	null	6	null	6	null	6	null	6	40.423415	17.846371
2855	2024-04-28 22:00:00	15	san_pancrazio_salentino	14.94	1	77.45	1	0.0	1	null	6	null	6	null	6	null	6	40.423415	17.846371
2856	2024-04-28 23:00:00	15	san_pancrazio_salentino	13.52	1	83.58	1	0.0	1	null	6	null	6	null	6	null	6	40.423415	17.846371
2857	2024-04-29 00:00:00	15	san_pancrazio_salentino	13.39	1	87.81	1	0.0	1	null	6	null	6	null	6	null	6	40.423415	17.846371
2858	2024-04-29 01:00:00	15	san_pancrazio_salentino	12.2	1	89.41	1	0.0	1	null	6	null	6	null	6	null	6	40.423415	17.846371
2859	2024-04-29 02:00:00	15	san_pancrazio_salentino	11.82	1	90.95	1	0.0	1	null	6	null	6	null	6	null	6	40.423415	17.846371
2860	2024-04-29 03:00:00	15	san_pancrazio_salentino	12.26	1	88.66	1	0.0	1	null	6	null	6	null	6	null	6	40.423415	17.846371
2861	2024-04-29 04:00:00	15	san_pancrazio_salentino	12.03	1	86.0	1	0.0	1	null	6	null	6	null	6	null	6	40.423415	17.846371
2862	2024-04-29 05:00:00	15	san_pancrazio_salentino	11.41	1	81.33	1	0.0	1	null	6	null	6	null	6	null	6	40.423415	17.846371
2863	2024-04-29 06:00:00	15	san_pancrazio_salentino	11.7	1	77.47	1	0.0	1	null	6	null	6	null	6	null	6	40.423415	17.846371
2864	2024-04-29 07:00:00	15	san_pancrazio_salentino	16.22	1	67.75	1	0.0	1	null	6	null	6	null	6	null	6	40.423415	17.846371
2865	2024-04-29 08:00:00	15	san_pancrazio_salentino	22.1	1	51.06	1	0.0	1	null	6	null	6	null	6	null	6	40.423415	17.846371
2866	2024-04-29 09:00:00	15	san_pancrazio_salentino	23.9	1	47.52	1	0.0	1	null	6	null	6	null	6	null	6	40.423415	17.846371
2867	2024-04-29 10:00:00	15	san_pancrazio_salentino	23.25	1	47.16	1	0.0	1	null	6	null	6	null	6	null	6	40.423415	17.846371
2868	2024-04-29 11:00:00	15	san_pancrazio_salentino	23.51	1	44.02	1	0.0	1	null	6	null	6	null	6	null	6	40.423415	17.846371
2869	2024-04-29 12:00:00	15	san_pancrazio_salentino	25.88	1	38.59	1	0.0	1	null	6	null	6	null	6	null	6	40.423415	17.846371
2870	2024-04-29 13:00:00	15	san_pancrazio_salentino	27.9	1	32.72	1	0.0	1	null	6	null	6	null	6	null	6	40.423415	17.846371
2871	2024-04-29 14:00:00	15	san_pancrazio_salentino	28.58	1	31.16	1	0.0	1	null	6	null	6	null	6	null	6	40.423415	17.846371
2872	2024-04-29 15:00:00	15	san_pancrazio_salentino	29.15	1	32.89	1	0.0	1	null	6	null	6	null	6	null	6	40.423415	17.846371
2873	2024-04-29 16:00:00	15	san_pancrazio_salentino	28.07	1	35.62	1	0.0	1	null	6	null	6	null	6	null	6	40.423415	17.846371
2874	2024-04-29 17:00:00	15	san_pancrazio_salentino	26.96	1	37.72	1	0.0	1	null	6	null	6	null	6	null	6	40.423415	17.846371
2875	2024-04-29 18:00:00	15	san_pancrazio_salentino	25.33	1	42.5	1	0.0	1	null	6	null	6	null	6	null	6	40.423415	17.846371
2876	2024-04-29 19:00:00	15	san_pancrazio_salentino	21.39	1	59.11	1	0.0	1	null	6	null	6	null	6	null	6	40.423415	17.846371
2877	2024-04-29 20:00:00	15	san_pancrazio_salentino	17.6	1	76.13	1	0.0	1	null	6	null	6	null	6	null	6	40.423415	17.846371
2878	2024-04-29 21:00:00	15	san_pancrazio_salentino	16.19	1	82.17	1	0.0	1	null	6	null	6	null	6	null	6	40.423415	17.846371
2879	2024-04-29 22:00:00	15	san_pancrazio_salentino	15.59	1	82.8	1	0.0	1	null	6	null	6	null	6	null	6	40.423415	17.846371
2880	2024-04-29 23:00:00	15	san_pancrazio_salentino	15.01	1	89.13	1	0.0	1	null	6	null	6	null	6	null	6	40.423415	17.846371
2881	2024-04-30 00:00:00	15	san_pancrazio_salentino	14.53	1	88.02	1	0.0	1	null	6	null	6	null	6	null	6	40.423415	17.846371
2882	2024-04-30 01:00:00	15	san_pancrazio_salentino	13.24	1	88.73	1	0.0	1	null	6	null	6	null	6	null	6	40.423415	17.846371
2883	2024-04-30 02:00:00	15	san_pancrazio_salentino	13.19	1	81.62	1	0.0	1	null	6	null	6	null	6	null	6	40.423415	17.846371
2884	2024-04-30 03:00:00	15	san_pancrazio_salentino	13.01	1	75.89	1	0.0	1	null	6	null	6	null	6	null	6	40.423415	17.846371
2885	2024-04-30 04:00:00	15	san_pancrazio_salentino	12.46	1	75.57	1	0.0	1	null	6	null	6	null	6	null	6	40.423415	17.846371
2886	2024-04-30 05:00:00	15	san_pancrazio_salentino	12.49	1	73.15	1	0.0	1	null	6	null	6	null	6	null	6	40.423415	17.846371
2887	2024-04-30 06:00:00	15	san_pancrazio_salentino	12.7	1	74.45	1	0.0	1	null	6	null	6	null	6	null	6	40.423415	17.846371
2888	2024-04-30 07:00:00	15	san_pancrazio_salentino	17.04	1	72.69	1	0.0	1	null	6	null	6	null	6	null	6	40.423415	17.846371
2889	2024-04-30 08:00:00	15	san_pancrazio_salentino	22.41	1	56.64	1	0.0	1	null	6	null	6	null	6	null	6	40.423415	17.846371
2890	2024-04-30 09:00:00	15	san_pancrazio_salentino	25.08	1	45.09	1	0.0	1	null	6	null	6	null	6	null	6	40.423415	17.846371
2891	2024-04-30 10:00:00	15	san_pancrazio_salentino	24.78	1	45.49	1	0.0	1	null	6	null	6	null	6	null	6	40.423415	17.846371
2892	2024-04-30 11:00:00	15	san_pancrazio_salentino	25.15	1	44.17	1	0.0	1	null	6	null	6	null	6	null	6	40.423415	17.846371
2893	2024-04-30 12:00:00	15	san_pancrazio_salentino	27.93	1	36.8	1	0.0	1	null	6	null	6	null	6	null	6	40.423415	17.846371
2894	2024-04-30 13:00:00	15	san_pancrazio_salentino	30.25	1	34.77	1	0.0	1	null	6	null	6	null	6	null	6	40.423415	17.846371
2895	2024-04-30 14:00:00	15	san_pancrazio_salentino	30.61	1	32.47	1	0.0	1	null	6	null	6	null	6	null	6	40.423415	17.846371
2896	2024-04-30 15:00:00	15	san_pancrazio_salentino	30.52	1	33.69	1	0.0	1	null	6	null	6	null	6	null	6	40.423415	17.846371
2897	2024-04-30 16:00:00	15	san_pancrazio_salentino	27.68	1	36.83	1	0.0	1	null	6	null	6	null	6	null	6	40.423415	17.846371
2898	2024-04-30 17:00:00	15	san_pancrazio_salentino	25.0	1	43.6	1	0.0	1	null	6	null	6	null	6	null	6	40.423415	17.846371
2899	2024-04-30 18:00:00	15	san_pancrazio_salentino	21.05	1	60.99	1	0.0	1	null	6	null	6	null	6	null	6	40.423415	17.846371
2900	2024-04-30 19:00:00	15	san_pancrazio_salentino	19.92	1	65.17	1	0.0	1	null	6	null	6	null	6	null	6	40.423415	17.846371
2901	2024-04-30 20:00:00	15	san_pancrazio_salentino	19.02	1	76.94	1	0.0	1	null	6	null	6	null	6	null	6	40.423415	17.846371
2902	2024-04-30 21:00:00	15	san_pancrazio_salentino	18.16	1	82.31	1	0.0	1	null	6	null	6	null	6	null	6	40.423415	17.846371
2903	2024-04-30 22:00:00	15	san_pancrazio_salentino	18.07	1	77.42	1	0.0	1	null	6	null	6	null	6	null	6	40.423415	17.846371
2904	2024-04-30 23:00:00	15	san_pancrazio_salentino	17.66	1	72.62	1	0.0	1	null	6	null	6	null	6	null	6	40.423415	17.846371
2905	2024-05-01 00:00:00	15	san_pancrazio_salentino	16.5	1	79.05	1	0.0	1	null	6	null	6	null	6	null	6	40.423415	17.846371
2906	2024-05-01 01:00:00	15	san_pancrazio_salentino	15.61	1	82.74	1	0.0	1	null	6	null	6	null	6	null	6	40.423415	17.846371
2907	2024-05-01 02:00:00	15	san_pancrazio_salentino	15.69	1	77.24	1	0.0	1	null	6	null	6	null	6	null	6	40.423415	17.846371
2908	2024-05-01 03:00:00	15	san_pancrazio_salentino	15.97	1	72.25	1	0.0	1	null	6	null	6	null	6	null	6	40.423415	17.846371
2909	2024-05-01 04:00:00	15	san_pancrazio_salentino	15.69	1	75.24	1	0.0	1	null	6	null	6	null	6	null	6	40.423415	17.846371
2910	2024-05-01 05:00:00	15	san_pancrazio_salentino	15.24	1	77.44	1	0.0	1	null	6	null	6	null	6	null	6	40.423415	17.846371
2911	2024-05-01 06:00:00	15	san_pancrazio_salentino	15.71	1	79.26	1	0.0	1	null	6	null	6	null	6	null	6	40.423415	17.846371
2912	2024-05-01 07:00:00	15	san_pancrazio_salentino	17.7	1	81.94	1	0.0	1	null	6	null	6	null	6	null	6	40.423415	17.846371
2913	2024-05-01 08:00:00	15	san_pancrazio_salentino	19.58	1	69.18	1	0.0	1	null	6	null	6	null	6	null	6	40.423415	17.846371
2914	2024-05-01 09:00:00	15	san_pancrazio_salentino	22.07	1	44.88	1	0.0	1	null	6	null	6	null	6	null	6	40.423415	17.846371
2915	2024-05-01 10:00:00	15	san_pancrazio_salentino	22.62	1	38.29	1	0.0	1	null	6	null	6	null	6	null	6	40.423415	17.846371
2916	2024-05-01 11:00:00	15	san_pancrazio_salentino	22.66	1	37.27	1	0.0	1	null	6	null	6	null	6	null	6	40.423415	17.846371
2917	2024-05-01 12:00:00	15	san_pancrazio_salentino	22.13	1	58.96	1	0.0	1	null	6	null	6	null	6	null	6	40.423415	17.846371
2918	2024-05-01 13:00:00	15	san_pancrazio_salentino	22.51	1	54.44	1	0.0	1	null	6	null	6	null	6	null	6	40.423415	17.846371
2919	2024-05-01 14:00:00	15	san_pancrazio_salentino	21.23	1	65.97	1	0.0	1	null	6	null	6	null	6	null	6	40.423415	17.846371
2920	2024-05-01 15:00:00	15	san_pancrazio_salentino	21.32	1	69.07	1	0.0	1	null	6	null	6	null	6	null	6	40.423415	17.846371
2921	2024-05-01 16:00:00	15	san_pancrazio_salentino	21.91	1	66.3	1	0.0	1	null	6	null	6	null	6	null	6	40.423415	17.846371
2922	2024-05-01 17:00:00	15	san_pancrazio_salentino	20.48	1	72.37	1	0.0	1	null	6	null	6	null	6	null	6	40.423415	17.846371
2923	2024-05-01 18:00:00	15	san_pancrazio_salentino	18.13	1	90.3	1	0.8	1	null	6	null	6	null	6	null	6	40.423415	17.846371
2924	2024-05-01 19:00:00	15	san_pancrazio_salentino	17.82	1	91.56	1	0.0	1	null	6	null	6	null	6	null	6	40.423415	17.846371
2925	2024-05-01 20:00:00	15	san_pancrazio_salentino	17.89	1	91.6	1	0.0	1	null	6	null	6	null	6	null	6	40.423415	17.846371
2926	2024-05-01 21:00:00	15	san_pancrazio_salentino	17.79	1	93.9	1	0.2	1	null	6	null	6	null	6	null	6	40.423415	17.846371
2927	2024-05-01 22:00:00	15	san_pancrazio_salentino	17.72	1	93.98	1	0.0	1	null	6	null	6	null	6	null	6	40.423415	17.846371
2928	2024-05-01 23:00:00	15	san_pancrazio_salentino	17.57	1	94.97	1	0.2	1	null	6	null	6	null	6	null	6	40.423415	17.846371
2929	2024-05-02 00:00:00	15	san_pancrazio_salentino	17.42	1	95.69	1	0.2	1	null	6	null	6	null	6	null	6	40.423415	17.846371
2930	2024-05-02 01:00:00	15	san_pancrazio_salentino	17.4	1	95.33	1	0.4	1	null	6	null	6	null	6	null	6	40.423415	17.846371
2931	2024-05-02 02:00:00	15	san_pancrazio_salentino	17.17	1	95.69	1	0.8	1	null	6	null	6	null	6	null	6	40.423415	17.846371
2932	2024-05-02 03:00:00	15	san_pancrazio_salentino	16.51	1	95.47	1	0.0	1	null	6	null	6	null	6	null	6	40.423415	17.846371
2933	2024-05-02 04:00:00	15	san_pancrazio_salentino	15.88	1	96.09	1	0.0	1	null	6	null	6	null	6	null	6	40.423415	17.846371
2934	2024-05-02 05:00:00	15	san_pancrazio_salentino	15.76	1	96.44	1	0.0	1	null	6	null	6	null	6	null	6	40.423415	17.846371
2935	2024-05-02 06:00:00	15	san_pancrazio_salentino	15.56	1	94.74	1	0.0	1	null	6	null	6	null	6	null	6	40.423415	17.846371
2936	2024-05-02 07:00:00	15	san_pancrazio_salentino	16.35	1	94.01	1	0.0	1	null	6	null	6	null	6	null	6	40.423415	17.846371
2937	2024-05-02 08:00:00	15	san_pancrazio_salentino	18.81	1	80.76	1	0.0	1	null	6	null	6	null	6	null	6	40.423415	17.846371
2938	2024-05-02 09:00:00	15	san_pancrazio_salentino	21.75	1	62.03	1	0.2	1	null	6	null	6	null	6	null	6	40.423415	17.846371
2939	2024-05-02 10:00:00	15	san_pancrazio_salentino	22.46	1	53.59	1	0.0	1	null	6	null	6	null	6	null	6	40.423415	17.846371
2940	2024-05-02 11:00:00	15	san_pancrazio_salentino	22.22	1	49.07	1	0.0	1	null	6	null	6	null	6	null	6	40.423415	17.846371
2941	2024-05-02 12:00:00	15	san_pancrazio_salentino	23.54	1	43.16	1	0.0	1	null	6	null	6	null	6	null	6	40.423415	17.846371
2942	2024-05-02 13:00:00	15	san_pancrazio_salentino	24.17	1	44.66	1	0.0	1	null	6	null	6	null	6	null	6	40.423415	17.846371
2943	2024-05-02 14:00:00	15	san_pancrazio_salentino	23.91	1	46.52	1	0.0	1	null	6	null	6	null	6	null	6	40.423415	17.846371
2944	2024-05-02 15:00:00	15	san_pancrazio_salentino	24.3	1	44.01	1	0.0	1	null	6	null	6	null	6	null	6	40.423415	17.846371
2945	2024-05-02 16:00:00	15	san_pancrazio_salentino	23.79	1	47.5	1	0.0	1	null	6	null	6	null	6	null	6	40.423415	17.846371
2946	2024-05-02 17:00:00	15	san_pancrazio_salentino	22.47	1	52.34	1	0.0	1	null	6	null	6	null	6	null	6	40.423415	17.846371
2947	2024-05-02 18:00:00	15	san_pancrazio_salentino	20.63	1	61.19	1	0.0	1	null	6	null	6	null	6	null	6	40.423415	17.846371
2948	2024-05-02 19:00:00	15	san_pancrazio_salentino	19.53	1	64.49	1	0.0	1	null	6	null	6	null	6	null	6	40.423415	17.846371
2949	2024-05-02 20:00:00	15	san_pancrazio_salentino	16.22	1	82.46	1	0.0	1	null	6	null	6	null	6	null	6	40.423415	17.846371
2950	2024-05-02 21:00:00	15	san_pancrazio_salentino	15.79	1	83.83	1	0.0	1	null	6	null	6	null	6	null	6	40.423415	17.846371
2951	2024-05-02 22:00:00	15	san_pancrazio_salentino	15.24	1	87.55	1	0.0	1	null	6	null	6	null	6	null	6	40.423415	17.846371
2952	2024-05-02 23:00:00	15	san_pancrazio_salentino	14.83	1	86.49	1	0.0	1	null	6	null	6	null	6	null	6	40.423415	17.846371
2953	2024-05-03 00:00:00	15	san_pancrazio_salentino	14.43	1	77.03	1	0.0	1	null	6	null	6	null	6	null	6	40.423415	17.846371
2954	2024-05-03 01:00:00	15	san_pancrazio_salentino	14.49	1	66.95	1	0.0	1	null	6	null	6	null	6	null	6	40.423415	17.846371
2955	2024-05-03 02:00:00	15	san_pancrazio_salentino	13.6	1	68.76	1	0.0	1	null	6	null	6	null	6	null	6	40.423415	17.846371
2956	2024-05-03 03:00:00	15	san_pancrazio_salentino	13.47	1	66.25	1	0.0	1	null	6	null	6	null	6	null	6	40.423415	17.846371
2957	2024-05-03 04:00:00	15	san_pancrazio_salentino	14.25	1	62.56	1	0.0	1	null	6	null	6	null	6	null	6	40.423415	17.846371
2958	2024-05-03 05:00:00	15	san_pancrazio_salentino	13.51	1	66.97	1	0.0	1	null	6	null	6	null	6	null	6	40.423415	17.846371
2959	2024-05-03 06:00:00	15	san_pancrazio_salentino	13.47	1	69.44	1	0.0	1	null	6	null	6	null	6	null	6	40.423415	17.846371
2960	2024-05-03 07:00:00	15	san_pancrazio_salentino	16.88	1	56.04	1	0.0	1	null	6	null	6	null	6	null	6	40.423415	17.846371
2961	2024-05-03 08:00:00	15	san_pancrazio_salentino	18.97	1	48.58	1	0.0	1	null	6	null	6	null	6	null	6	40.423415	17.846371
2962	2024-05-03 09:00:00	15	san_pancrazio_salentino	19.9	1	41.86	1	0.0	1	null	6	null	6	null	6	null	6	40.423415	17.846371
2963	2024-05-03 10:00:00	15	san_pancrazio_salentino	20.21	1	38.63	1	0.0	1	null	6	null	6	null	6	null	6	40.423415	17.846371
2964	2024-05-03 11:00:00	15	san_pancrazio_salentino	20.64	1	34.15	1	0.0	1	null	6	null	6	null	6	null	6	40.423415	17.846371
2965	2024-05-03 12:00:00	15	san_pancrazio_salentino	22.5	1	30.86	1	0.0	1	null	6	null	6	null	6	null	6	40.423415	17.846371
2966	2024-05-03 13:00:00	15	san_pancrazio_salentino	21.32	1	41.15	1	0.0	1	null	6	null	6	null	6	null	6	40.423415	17.846371
2967	2024-05-03 14:00:00	15	san_pancrazio_salentino	20.48	1	45.48	1	0.0	1	null	6	null	6	null	6	null	6	40.423415	17.846371
2968	2024-05-03 15:00:00	15	san_pancrazio_salentino	19.22	1	52.21	1	0.0	1	null	6	null	6	null	6	null	6	40.423415	17.846371
2969	2024-05-03 16:00:00	15	san_pancrazio_salentino	18.31	1	56.89	1	0.0	1	null	6	null	6	null	6	null	6	40.423415	17.846371
2970	2024-05-03 17:00:00	15	san_pancrazio_salentino	17.57	1	65.7	1	0.0	1	null	6	null	6	null	6	null	6	40.423415	17.846371
2971	2024-05-03 18:00:00	15	san_pancrazio_salentino	15.38	1	77.8	1	1.0	1	null	6	null	6	null	6	null	6	40.423415	17.846371
2972	2024-05-03 19:00:00	15	san_pancrazio_salentino	13.44	1	89.97	1	0.2	1	null	6	null	6	null	6	null	6	40.423415	17.846371
2973	2024-05-03 20:00:00	15	san_pancrazio_salentino	13.16	1	90.22	1	0.0	1	null	6	null	6	null	6	null	6	40.423415	17.846371
2974	2024-05-03 21:00:00	15	san_pancrazio_salentino	13.35	1	88.79	1	0.0	1	null	6	null	6	null	6	null	6	40.423415	17.846371
2975	2024-05-03 22:00:00	15	san_pancrazio_salentino	13.05	1	91.46	1	0.0	1	null	6	null	6	null	6	null	6	40.423415	17.846371
2976	2024-05-03 23:00:00	15	san_pancrazio_salentino	12.9	1	89.56	1	0.0	1	null	6	null	6	null	6	null	6	40.423415	17.846371
2977	2024-05-04 00:00:00	15	san_pancrazio_salentino	13.1	1	83.99	1	0.0	1	null	6	null	6	null	6	null	6	40.423415	17.846371
2978	2024-05-04 01:00:00	15	san_pancrazio_salentino	12.42	1	84.98	1	0.0	1	null	6	null	6	null	6	null	6	40.423415	17.846371
2979	2024-05-04 02:00:00	15	san_pancrazio_salentino	11.3	1	88.81	1	0.0	1	null	6	null	6	null	6	null	6	40.423415	17.846371
2980	2024-05-04 03:00:00	15	san_pancrazio_salentino	10.64	1	90.13	1	0.0	1	null	6	null	6	null	6	null	6	40.423415	17.846371
2981	2024-05-04 04:00:00	15	san_pancrazio_salentino	10.49	1	89.09	1	0.0	1	null	6	null	6	null	6	null	6	40.423415	17.846371
2982	2024-05-04 05:00:00	15	san_pancrazio_salentino	10.12	1	89.59	1	0.0	1	null	6	null	6	null	6	null	6	40.423415	17.846371
2983	2024-05-04 06:00:00	15	san_pancrazio_salentino	10.5	1	87.91	1	0.0	1	null	6	null	6	null	6	null	6	40.423415	17.846371
2984	2024-05-04 07:00:00	15	san_pancrazio_salentino	14.17	1	77.8	1	0.0	1	null	6	null	6	null	6	null	6	40.423415	17.846371
2985	2024-05-04 08:00:00	15	san_pancrazio_salentino	18.02	1	61.48	1	0.0	1	null	6	null	6	null	6	null	6	40.423415	17.846371
2986	2024-05-04 09:00:00	15	san_pancrazio_salentino	19.89	1	50.22	1	0.0	1	null	6	null	6	null	6	null	6	40.423415	17.846371
2987	2024-05-04 10:00:00	15	san_pancrazio_salentino	19.72	1	46.48	1	0.0	1	null	6	null	6	null	6	null	6	40.423415	17.846371
2988	2024-05-04 11:00:00	15	san_pancrazio_salentino	20.06	1	46.7	1	0.0	1	null	6	null	6	null	6	null	6	40.423415	17.846371
2989	2024-05-04 12:00:00	15	san_pancrazio_salentino	21.18	1	44.33	1	0.0	1	null	6	null	6	null	6	null	6	40.423415	17.846371
2990	2024-05-04 13:00:00	15	san_pancrazio_salentino	22.01	1	43.44	1	0.0	1	null	6	null	6	null	6	null	6	40.423415	17.846371
2991	2024-05-04 14:00:00	15	san_pancrazio_salentino	22.69	1	43.56	1	0.0	1	null	6	null	6	null	6	null	6	40.423415	17.846371
2992	2024-05-04 15:00:00	15	san_pancrazio_salentino	22.51	1	45.88	1	0.0	1	null	6	null	6	null	6	null	6	40.423415	17.846371
2993	2024-05-04 16:00:00	15	san_pancrazio_salentino	22.09	1	48.58	1	0.0	1	null	6	null	6	null	6	null	6	40.423415	17.846371
2994	2024-05-04 17:00:00	15	san_pancrazio_salentino	21.19	1	48.68	1	0.0	1	null	6	null	6	null	6	null	6	40.423415	17.846371
2995	2024-05-04 18:00:00	15	san_pancrazio_salentino	20.0	1	53.7	1	0.0	1	null	6	null	6	null	6	null	6	40.423415	17.846371
2996	2024-05-04 19:00:00	15	san_pancrazio_salentino	17.54	1	65.95	1	0.0	1	null	6	null	6	null	6	null	6	40.423415	17.846371
2997	2024-05-04 20:00:00	15	san_pancrazio_salentino	15.59	1	79.73	1	0.0	1	null	6	null	6	null	6	null	6	40.423415	17.846371
2998	2024-05-04 21:00:00	15	san_pancrazio_salentino	14.79	1	86.48	1	0.0	1	null	6	null	6	null	6	null	6	40.423415	17.846371
2999	2024-05-04 22:00:00	15	san_pancrazio_salentino	14.32	1	89.18	1	0.0	1	null	6	null	6	null	6	null	6	40.423415	17.846371
3000	2024-05-04 23:00:00	15	san_pancrazio_salentino	13.92	1	91.45	1	0.0	1	null	6	null	6	null	6	null	6	40.423415	17.846371
3001	2024-05-05 00:00:00	15	san_pancrazio_salentino	13.66	1	92.78	1	0.0	1	null	6	null	6	null	6	null	6	40.423415	17.846371
3002	2024-05-05 01:00:00	15	san_pancrazio_salentino	13.67	1	92.92	1	0.0	1	null	6	null	6	null	6	null	6	40.423415	17.846371
3003	2024-05-05 02:00:00	15	san_pancrazio_salentino	13.66	1	92.52	1	0.0	1	null	6	null	6	null	6	null	6	40.423415	17.846371
3004	2024-05-05 03:00:00	15	san_pancrazio_salentino	13.25	1	92.74	1	0.0	1	null	6	null	6	null	6	null	6	40.423415	17.846371
3005	2024-05-05 04:00:00	15	san_pancrazio_salentino	12.78	1	93.13	1	0.0	1	null	6	null	6	null	6	null	6	40.423415	17.846371
3006	2024-05-05 05:00:00	15	san_pancrazio_salentino	12.32	1	94.09	1	0.0	1	null	6	null	6	null	6	null	6	40.423415	17.846371
3007	2024-05-05 06:00:00	15	san_pancrazio_salentino	12.46	1	91.55	1	0.0	1	null	6	null	6	null	6	null	6	40.423415	17.846371
3008	2024-05-05 07:00:00	15	san_pancrazio_salentino	16.27	1	77.62	1	0.0	1	null	6	null	6	null	6	null	6	40.423415	17.846371
3009	2024-05-05 08:00:00	15	san_pancrazio_salentino	21.11	1	60.75	1	0.0	1	null	6	null	6	null	6	null	6	40.423415	17.846371
3010	2024-05-05 09:00:00	15	san_pancrazio_salentino	22.84	1	51.26	1	0.0	1	null	6	null	6	null	6	null	6	40.423415	17.846371
3011	2024-05-05 10:00:00	15	san_pancrazio_salentino	22.81	1	46.02	1	0.0	1	null	6	null	6	null	6	null	6	40.423415	17.846371
3012	2024-05-05 11:00:00	15	san_pancrazio_salentino	22.8	1	41.79	1	0.0	1	null	6	null	6	null	6	null	6	40.423415	17.846371
3013	2024-05-05 12:00:00	15	san_pancrazio_salentino	25.21	1	38.89	1	0.0	1	null	6	null	6	null	6	null	6	40.423415	17.846371
3014	2024-05-05 13:00:00	15	san_pancrazio_salentino	26.29	1	37.76	1	0.0	1	null	6	null	6	null	6	null	6	40.423415	17.846371
3015	2024-05-05 14:00:00	15	san_pancrazio_salentino	27.57	1	35.67	1	0.0	1	null	6	null	6	null	6	null	6	40.423415	17.846371
3016	2024-05-05 15:00:00	15	san_pancrazio_salentino	27.9	1	35.7	1	0.0	1	null	6	null	6	null	6	null	6	40.423415	17.846371
3017	2024-05-05 16:00:00	15	san_pancrazio_salentino	26.47	1	41.66	1	0.0	1	null	6	null	6	null	6	null	6	40.423415	17.846371
3018	2024-05-05 17:00:00	15	san_pancrazio_salentino	24.3	1	47.47	1	0.0	1	null	6	null	6	null	6	null	6	40.423415	17.846371
3019	2024-05-05 18:00:00	15	san_pancrazio_salentino	22.58	1	54.15	1	0.0	1	null	6	null	6	null	6	null	6	40.423415	17.846371
3020	2024-05-05 19:00:00	15	san_pancrazio_salentino	19.86	1	68.66	1	0.0	1	null	6	null	6	null	6	null	6	40.423415	17.846371
3021	2024-05-05 20:00:00	15	san_pancrazio_salentino	17.89	1	77.83	1	0.0	1	null	6	null	6	null	6	null	6	40.423415	17.846371
3022	2024-05-05 21:00:00	15	san_pancrazio_salentino	16.98	1	83.04	1	0.0	1	null	6	null	6	null	6	null	6	40.423415	17.846371
3023	2024-05-05 22:00:00	15	san_pancrazio_salentino	16.34	1	84.94	1	0.0	1	null	6	null	6	null	6	null	6	40.423415	17.846371
3024	2024-05-05 23:00:00	15	san_pancrazio_salentino	15.67	1	85.63	1	0.0	1	null	6	null	6	null	6	null	6	40.423415	17.846371
3025	2024-05-06 00:00:00	15	san_pancrazio_salentino	14.55	1	90.1	1	0.0	1	null	6	null	6	null	6	null	6	40.423415	17.846371
3026	2024-05-06 01:00:00	15	san_pancrazio_salentino	14.02	1	90.84	1	0.0	1	null	6	null	6	null	6	null	6	40.423415	17.846371
3027	2024-05-06 02:00:00	15	san_pancrazio_salentino	13.14	1	91.6	1	0.0	1	null	6	null	6	null	6	null	6	40.423415	17.846371
3028	2024-05-06 03:00:00	15	san_pancrazio_salentino	13.06	1	91.42	1	0.0	1	null	6	null	6	null	6	null	6	40.423415	17.846371
3029	2024-05-06 04:00:00	15	san_pancrazio_salentino	12.44	1	91.32	1	0.0	1	null	6	null	6	null	6	null	6	40.423415	17.846371
3030	2024-05-06 05:00:00	15	san_pancrazio_salentino	11.53	1	92.88	1	0.0	1	null	6	null	6	null	6	null	6	40.423415	17.846371
3031	2024-05-06 06:00:00	15	san_pancrazio_salentino	12.01	1	96.13	1	0.0	1	null	6	null	6	null	6	null	6	40.423415	17.846371
3032	2024-05-06 07:00:00	15	san_pancrazio_salentino	17.23	1	83.61	1	0.0	1	null	6	null	6	null	6	null	6	40.423415	17.846371
3033	2024-05-06 08:00:00	15	san_pancrazio_salentino	21.22	1	66.07	1	0.0	1	null	6	null	6	null	6	null	6	40.423415	17.846371
3034	2024-05-06 09:00:00	15	san_pancrazio_salentino	22.62	1	45.67	1	0.0	1	null	6	null	6	null	6	null	6	40.423415	17.846371
3035	2024-05-06 10:00:00	15	san_pancrazio_salentino	22.72	1	39.54	1	0.0	1	null	6	null	6	null	6	null	6	40.423415	17.846371
3036	2024-05-06 11:00:00	15	san_pancrazio_salentino	22.33	1	49.57	1	0.0	1	null	6	null	6	null	6	null	6	40.423415	17.846371
3037	2024-05-06 12:00:00	15	san_pancrazio_salentino	23.13	1	48.26	1	0.0	1	null	6	null	6	null	6	null	6	40.423415	17.846371
3038	2024-05-06 13:00:00	15	san_pancrazio_salentino	23.11	1	42.79	1	0.0	1	null	6	null	6	null	6	null	6	40.423415	17.846371
3039	2024-05-06 14:00:00	15	san_pancrazio_salentino	22.96	1	44.87	1	0.0	1	null	6	null	6	null	6	null	6	40.423415	17.846371
3040	2024-05-06 15:00:00	15	san_pancrazio_salentino	22.88	1	46.37	1	0.0	1	null	6	null	6	null	6	null	6	40.423415	17.846371
3041	2024-05-06 16:00:00	15	san_pancrazio_salentino	22.2	1	48.35	1	0.0	1	null	6	null	6	null	6	null	6	40.423415	17.846371
3042	2024-05-06 17:00:00	15	san_pancrazio_salentino	21.07	1	61.46	1	0.0	1	null	6	null	6	null	6	null	6	40.423415	17.846371
3043	2024-05-06 18:00:00	15	san_pancrazio_salentino	20.46	1	67.7	1	0.0	1	null	6	null	6	null	6	null	6	40.423415	17.846371
3044	2024-05-06 19:00:00	15	san_pancrazio_salentino	18.51	1	78.52	1	0.0	1	null	6	null	6	null	6	null	6	40.423415	17.846371
3045	2024-05-06 20:00:00	15	san_pancrazio_salentino	17.21	1	79.66	1	0.0	1	null	6	null	6	null	6	null	6	40.423415	17.846371
3046	2024-05-06 21:00:00	15	san_pancrazio_salentino	16.75	1	79.22	1	0.0	1	null	6	null	6	null	6	null	6	40.423415	17.846371
3047	2024-05-06 22:00:00	15	san_pancrazio_salentino	15.43	1	85.14	1	0.0	1	null	6	null	6	null	6	null	6	40.423415	17.846371
3048	2024-05-06 23:00:00	15	san_pancrazio_salentino	14.88	1	89.56	1	0.0	1	null	6	null	6	null	6	null	6	40.423415	17.846371
3049	2024-05-07 00:00:00	15	san_pancrazio_salentino	14.34	1	92.63	1	0.0	1	null	6	null	6	null	6	null	6	40.423415	17.846371
3050	2024-05-07 01:00:00	15	san_pancrazio_salentino	13.95	1	94.3	1	0.0	1	null	6	null	6	null	6	null	6	40.423415	17.846371
3051	2024-05-07 02:00:00	15	san_pancrazio_salentino	13.79	1	94.89	1	0.0	1	null	6	null	6	null	6	null	6	40.423415	17.846371
3052	2024-05-07 03:00:00	15	san_pancrazio_salentino	12.89	1	94.9	1	0.0	1	null	6	null	6	null	6	null	6	40.423415	17.846371
3053	2024-05-07 04:00:00	15	san_pancrazio_salentino	13.17	1	95.05	1	0.0	1	null	6	null	6	null	6	null	6	40.423415	17.846371
3054	2024-05-07 05:00:00	15	san_pancrazio_salentino	13.71	1	94.31	1	0.0	1	null	6	null	6	null	6	null	6	40.423415	17.846371
3055	2024-05-07 06:00:00	15	san_pancrazio_salentino	15.02	1	92.89	1	0.0	1	null	6	null	6	null	6	null	6	40.423415	17.846371
3056	2024-05-07 07:00:00	15	san_pancrazio_salentino	16.78	1	87.67	1	0.0	1	null	6	null	6	null	6	null	6	40.423415	17.846371
3057	2024-05-07 08:00:00	15	san_pancrazio_salentino	18.29	1	80.99	1	0.0	1	null	6	null	6	null	6	null	6	40.423415	17.846371
3058	2024-05-07 09:00:00	15	san_pancrazio_salentino	19.47	1	75.22	1	0.0	1	null	6	null	6	null	6	null	6	40.423415	17.846371
3059	2024-05-07 10:00:00	15	san_pancrazio_salentino	20.21	1	72.17	1	0.0	1	null	6	null	6	null	6	null	6	40.423415	17.846371
3060	2024-05-07 11:00:00	15	san_pancrazio_salentino	20.27	1	72.1	1	0.0	1	null	6	null	6	null	6	null	6	40.423415	17.846371
3061	2024-05-07 12:00:00	15	san_pancrazio_salentino	20.76	1	70.13	1	0.0	1	null	6	null	6	null	6	null	6	40.423415	17.846371
3062	2024-05-07 13:00:00	15	san_pancrazio_salentino	21.76	1	66.08	1	0.0	1	null	6	null	6	null	6	null	6	40.423415	17.846371
3063	2024-05-07 14:00:00	15	san_pancrazio_salentino	21.86	1	65.77	1	0.0	1	null	6	null	6	null	6	null	6	40.423415	17.846371
3064	2024-05-07 15:00:00	15	san_pancrazio_salentino	21.74	1	67.75	1	0.0	1	null	6	null	6	null	6	null	6	40.423415	17.846371
3065	2024-05-07 16:00:00	15	san_pancrazio_salentino	21.63	1	67.57	1	0.0	1	null	6	null	6	null	6	null	6	40.423415	17.846371
3066	2024-05-07 17:00:00	15	san_pancrazio_salentino	20.23	1	73.02	1	0.0	1	null	6	null	6	null	6	null	6	40.423415	17.846371
3067	2024-05-07 18:00:00	15	san_pancrazio_salentino	18.79	1	80.64	1	0.0	1	null	6	null	6	null	6	null	6	40.423415	17.846371
3068	2024-05-07 19:00:00	15	san_pancrazio_salentino	18.29	1	84.0	1	0.0	1	null	6	null	6	null	6	null	6	40.423415	17.846371
3069	2024-05-07 20:00:00	15	san_pancrazio_salentino	17.89	1	86.67	1	0.0	1	null	6	null	6	null	6	null	6	40.423415	17.846371
3070	2024-05-07 21:00:00	15	san_pancrazio_salentino	17.48	1	87.87	1	0.0	1	null	6	null	6	null	6	null	6	40.423415	17.846371
3071	2024-05-07 22:00:00	15	san_pancrazio_salentino	16.84	1	88.25	1	0.0	1	null	6	null	6	null	6	null	6	40.423415	17.846371
3072	2024-05-07 23:00:00	15	san_pancrazio_salentino	17.01	1	89.49	1	0.0	1	null	6	null	6	null	6	null	6	40.423415	17.846371
3073	2024-05-08 00:00:00	15	san_pancrazio_salentino	17.62	1	91.18	1	0.0	1	null	6	null	6	null	6	null	6	40.423415	17.846371
3074	2024-05-08 01:00:00	15	san_pancrazio_salentino	17.73	1	91.57	1	0.0	1	null	6	null	6	null	6	null	6	40.423415	17.846371
3075	2024-05-08 02:00:00	15	san_pancrazio_salentino	17.46	1	93.05	1	0.0	1	null	6	null	6	null	6	null	6	40.423415	17.846371
3076	2024-05-08 03:00:00	15	san_pancrazio_salentino	17.47	1	93.38	1	0.0	1	null	6	null	6	null	6	null	6	40.423415	17.846371
3077	2024-05-08 04:00:00	15	san_pancrazio_salentino	16.94	1	93.75	1	0.0	1	null	6	null	6	null	6	null	6	40.423415	17.846371
3078	2024-05-08 05:00:00	15	san_pancrazio_salentino	16.19	1	94.53	1	0.0	1	null	6	null	6	null	6	null	6	40.423415	17.846371
3079	2024-05-08 06:00:00	15	san_pancrazio_salentino	15.73	1	95.73	1	0.0	1	null	6	null	6	null	6	null	6	40.423415	17.846371
3080	2024-05-08 07:00:00	15	san_pancrazio_salentino	19.44	1	83.14	1	0.0	1	null	6	null	6	null	6	null	6	40.423415	17.846371
3081	2024-05-08 08:00:00	15	san_pancrazio_salentino	23.22	1	60.04	1	0.0	1	null	6	null	6	null	6	null	6	40.423415	17.846371
3082	2024-05-08 09:00:00	15	san_pancrazio_salentino	23.89	1	60.56	1	0.0	1	null	6	null	6	null	6	null	6	40.423415	17.846371
3083	2024-05-08 10:00:00	15	san_pancrazio_salentino	23.43	1	60.99	1	0.0	1	null	6	null	6	null	6	null	6	40.423415	17.846371
3084	2024-05-08 11:00:00	15	san_pancrazio_salentino	23.56	1	58.27	1	0.0	1	null	6	null	6	null	6	null	6	40.423415	17.846371
3085	2024-05-08 12:00:00	15	san_pancrazio_salentino	26.22	1	46.97	1	0.0	1	null	6	null	6	null	6	null	6	40.423415	17.846371
3086	2024-05-08 13:00:00	15	san_pancrazio_salentino	28.53	1	42.16	1	0.0	1	null	6	null	6	null	6	null	6	40.423415	17.846371
3087	2024-05-08 14:00:00	15	san_pancrazio_salentino	28.96	1	41.84	1	0.0	1	null	6	null	6	null	6	null	6	40.423415	17.846371
3088	2024-05-08 15:00:00	15	san_pancrazio_salentino	28.37	1	38.84	1	0.0	1	null	6	null	6	null	6	null	6	40.423415	17.846371
3089	2024-05-08 16:00:00	15	san_pancrazio_salentino	25.74	1	49.62	1	0.0	1	null	6	null	6	null	6	null	6	40.423415	17.846371
3090	2024-05-08 17:00:00	15	san_pancrazio_salentino	23.42	1	58.97	1	0.0	1	null	6	null	6	null	6	null	6	40.423415	17.846371
3091	2024-05-08 18:00:00	15	san_pancrazio_salentino	21.45	1	65.94	1	0.0	1	null	6	null	6	null	6	null	6	40.423415	17.846371
3092	2024-05-08 19:00:00	15	san_pancrazio_salentino	19.56	1	75.67	1	0.0	1	null	6	null	6	null	6	null	6	40.423415	17.846371
3093	2024-05-08 20:00:00	15	san_pancrazio_salentino	17.87	1	83.82	1	0.0	1	null	6	null	6	null	6	null	6	40.423415	17.846371
3094	2024-05-08 21:00:00	15	san_pancrazio_salentino	17.15	1	87.37	1	0.0	1	null	6	null	6	null	6	null	6	40.423415	17.846371
3095	2024-05-08 22:00:00	15	san_pancrazio_salentino	17.45	1	86.99	1	0.0	1	null	6	null	6	null	6	null	6	40.423415	17.846371
3096	2024-05-08 23:00:00	15	san_pancrazio_salentino	17.64	1	87.63	1	0.0	1	null	6	null	6	null	6	null	6	40.423415	17.846371
3097	2024-05-09 00:00:00	15	san_pancrazio_salentino	17.47	1	89.76	1	0.0	1	null	6	null	6	null	6	null	6	40.423415	17.846371
3098	2024-05-09 01:00:00	15	san_pancrazio_salentino	17.39	1	90.04	1	0.0	1	null	6	null	6	null	6	null	6	40.423415	17.846371
3099	2024-05-09 02:00:00	15	san_pancrazio_salentino	17.4	1	90.17	1	0.0	1	null	6	null	6	null	6	null	6	40.423415	17.846371
3100	2024-05-09 03:00:00	15	san_pancrazio_salentino	17.44	1	88.92	1	0.0	1	null	6	null	6	null	6	null	6	40.423415	17.846371
3101	2024-05-09 04:00:00	15	san_pancrazio_salentino	17.39	1	87.83	1	0.0	1	null	6	null	6	null	6	null	6	40.423415	17.846371
3102	2024-05-09 05:00:00	15	san_pancrazio_salentino	17.22	1	87.4	1	0.0	1	null	6	null	6	null	6	null	6	40.423415	17.846371
3103	2024-05-09 06:00:00	15	san_pancrazio_salentino	17.25	1	87.08	1	0.0	1	null	6	null	6	null	6	null	6	40.423415	17.846371
3104	2024-05-09 07:00:00	15	san_pancrazio_salentino	18.01	1	84.21	1	0.0	1	null	6	null	6	null	6	null	6	40.423415	17.846371
3105	2024-05-09 08:00:00	15	san_pancrazio_salentino	18.19	1	84.64	1	0.0	1	null	6	null	6	null	6	null	6	40.423415	17.846371
3106	2024-05-09 09:00:00	15	san_pancrazio_salentino	17.94	1	86.59	1	0.0	1	null	6	null	6	null	6	null	6	40.423415	17.846371
3107	2024-05-09 10:00:00	15	san_pancrazio_salentino	19.36	1	78.58	1	0.0	1	null	6	null	6	null	6	null	6	40.423415	17.846371
3108	2024-05-09 11:00:00	15	san_pancrazio_salentino	21.28	1	71.15	1	0.0	1	null	6	null	6	null	6	null	6	40.423415	17.846371
3109	2024-05-09 12:00:00	15	san_pancrazio_salentino	21.39	1	69.81	1	0.0	1	null	6	null	6	null	6	null	6	40.423415	17.846371
3110	2024-05-09 13:00:00	15	san_pancrazio_salentino	23.12	1	58.03	1	0.0	1	null	6	null	6	null	6	null	6	40.423415	17.846371
3111	2024-05-09 14:00:00	15	san_pancrazio_salentino	26.47	1	45.28	1	0.0	1	null	6	null	6	null	6	null	6	40.423415	17.846371
3112	2024-05-09 15:00:00	15	san_pancrazio_salentino	26.16	1	48.94	1	0.0	1	null	6	null	6	null	6	null	6	40.423415	17.846371
3113	2024-05-09 16:00:00	15	san_pancrazio_salentino	23.76	1	56.61	1	0.0	1	null	6	null	6	null	6	null	6	40.423415	17.846371
3114	2024-05-09 17:00:00	15	san_pancrazio_salentino	22.56	1	57.49	1	0.0	1	null	6	null	6	null	6	null	6	40.423415	17.846371
3115	2024-05-09 18:00:00	15	san_pancrazio_salentino	21.84	1	59.07	1	0.0	1	null	6	null	6	null	6	null	6	40.423415	17.846371
3116	2024-05-09 19:00:00	15	san_pancrazio_salentino	20.96	1	57.26	1	0.0	1	null	6	null	6	null	6	null	6	40.423415	17.846371
3117	2024-05-09 20:00:00	15	san_pancrazio_salentino	20.2	1	57.16	1	0.0	1	null	6	null	6	null	6	null	6	40.423415	17.846371
3118	2024-05-09 21:00:00	15	san_pancrazio_salentino	19.63	1	64.26	1	0.0	1	null	6	null	6	null	6	null	6	40.423415	17.846371
3119	2024-05-09 22:00:00	15	san_pancrazio_salentino	19.04	1	74.8	1	0.0	1	null	6	null	6	null	6	null	6	40.423415	17.846371
3120	2024-05-09 23:00:00	15	san_pancrazio_salentino	18.68	1	77.68	1	0.0	1	null	6	null	6	null	6	null	6	40.423415	17.846371
3121	2024-05-10 00:00:00	15	san_pancrazio_salentino	18.55	1	78.1	1	0.0	1	null	6	null	6	null	6	null	6	40.423415	17.846371
3122	2024-05-10 01:00:00	15	san_pancrazio_salentino	18.36	1	75.25	1	0.0	1	null	6	null	6	null	6	null	6	40.423415	17.846371
3123	2024-05-10 02:00:00	15	san_pancrazio_salentino	17.69	1	80.53	1	0.0	1	null	6	null	6	null	6	null	6	40.423415	17.846371
3124	2024-05-10 03:00:00	15	san_pancrazio_salentino	17.24	1	84.15	1	0.0	1	null	6	null	6	null	6	null	6	40.423415	17.846371
3125	2024-05-10 04:00:00	15	san_pancrazio_salentino	17.13	1	88.5	1	0.0	1	null	6	null	6	null	6	null	6	40.423415	17.846371
3126	2024-05-10 05:00:00	15	san_pancrazio_salentino	16.73	1	88.61	1	0.0	1	null	6	null	6	null	6	null	6	40.423415	17.846371
3127	2024-05-10 06:00:00	15	san_pancrazio_salentino	17.18	1	84.37	1	0.0	1	null	6	null	6	null	6	null	6	40.423415	17.846371
3128	2024-05-10 07:00:00	15	san_pancrazio_salentino	20.67	1	68.76	1	0.0	1	null	6	null	6	null	6	null	6	40.423415	17.846371
3129	2024-05-10 08:00:00	15	san_pancrazio_salentino	23.06	1	58.05	1	0.0	1	null	6	null	6	null	6	null	6	40.423415	17.846371
3130	2024-05-10 09:00:00	15	san_pancrazio_salentino	24.12	1	50.19	1	0.0	1	null	6	null	6	null	6	null	6	40.423415	17.846371
3131	2024-05-10 10:00:00	15	san_pancrazio_salentino	24.48	1	46.06	1	0.0	1	null	6	null	6	null	6	null	6	40.423415	17.846371
3132	2024-05-10 11:00:00	15	san_pancrazio_salentino	24.53	1	43.87	1	0.0	1	null	6	null	6	null	6	null	6	40.423415	17.846371
3133	2024-05-10 12:00:00	15	san_pancrazio_salentino	25.61	1	43.47	1	0.0	1	null	6	null	6	null	6	null	6	40.423415	17.846371
3134	2024-05-10 13:00:00	15	san_pancrazio_salentino	26.24	1	41.65	1	0.0	1	null	6	null	6	null	6	null	6	40.423415	17.846371
3135	2024-05-10 14:00:00	15	san_pancrazio_salentino	26.8	1	35.94	1	0.0	1	null	6	null	6	null	6	null	6	40.423415	17.846371
3136	2024-05-10 15:00:00	15	san_pancrazio_salentino	26.37	1	37.43	1	0.0	1	null	6	null	6	null	6	null	6	40.423415	17.846371
3137	2024-05-10 16:00:00	15	san_pancrazio_salentino	25.58	1	40.65	1	0.0	1	null	6	null	6	null	6	null	6	40.423415	17.846371
3138	2024-05-10 17:00:00	15	san_pancrazio_salentino	24.12	1	40.75	1	0.0	1	null	6	null	6	null	6	null	6	40.423415	17.846371
3139	2024-05-10 18:00:00	15	san_pancrazio_salentino	23.3	1	41.93	1	0.0	1	null	6	null	6	null	6	null	6	40.423415	17.846371
3140	2024-05-10 19:00:00	15	san_pancrazio_salentino	20.98	1	49.43	1	0.0	1	null	6	null	6	null	6	null	6	40.423415	17.846371
3141	2024-05-10 20:00:00	15	san_pancrazio_salentino	19.26	1	62.34	1	0.0	1	null	6	null	6	null	6	null	6	40.423415	17.846371
3142	2024-05-10 21:00:00	15	san_pancrazio_salentino	18.11	1	73.69	1	0.0	1	null	6	null	6	null	6	null	6	40.423415	17.846371
3143	2024-05-10 22:00:00	15	san_pancrazio_salentino	17.2	1	77.51	1	0.0	1	null	6	null	6	null	6	null	6	40.423415	17.846371
3144	2024-05-10 23:00:00	15	san_pancrazio_salentino	16.84	1	79.44	1	0.0	1	null	6	null	6	null	6	null	6	40.423415	17.846371
3145	2024-05-11 00:00:00	15	san_pancrazio_salentino	16.73	1	78.38	1	0.0	1	null	6	null	6	null	6	null	6	40.423415	17.846371
3146	2024-05-11 01:00:00	15	san_pancrazio_salentino	16.93	1	76.87	1	0.0	1	null	6	null	6	null	6	null	6	40.423415	17.846371
3147	2024-05-11 02:00:00	15	san_pancrazio_salentino	16.41	1	80.38	1	0.0	1	null	6	null	6	null	6	null	6	40.423415	17.846371
3148	2024-05-11 03:00:00	15	san_pancrazio_salentino	15.99	1	88.21	1	0.0	1	null	6	null	6	null	6	null	6	40.423415	17.846371
3149	2024-05-11 04:00:00	15	san_pancrazio_salentino	16.26	1	84.92	1	0.0	1	null	6	null	6	null	6	null	6	40.423415	17.846371
3150	2024-05-11 05:00:00	15	san_pancrazio_salentino	16.39	1	79.87	1	0.0	1	null	6	null	6	null	6	null	6	40.423415	17.846371
3151	2024-05-11 06:00:00	15	san_pancrazio_salentino	17.4	1	73.38	1	0.0	1	null	6	null	6	null	6	null	6	40.423415	17.846371
3152	2024-05-11 07:00:00	15	san_pancrazio_salentino	19.89	1	62.96	1	0.0	1	null	6	null	6	null	6	null	6	40.423415	17.846371
3153	2024-05-11 08:00:00	15	san_pancrazio_salentino	22.71	1	47.93	1	0.0	1	null	6	null	6	null	6	null	6	40.423415	17.846371
3154	2024-05-11 09:00:00	15	san_pancrazio_salentino	23.36	1	45.32	1	0.0	1	null	6	null	6	null	6	null	6	40.423415	17.846371
3155	2024-05-11 10:00:00	15	san_pancrazio_salentino	23.31	1	45.76	1	0.0	1	null	6	null	6	null	6	null	6	40.423415	17.846371
3156	2024-05-11 11:00:00	15	san_pancrazio_salentino	23.11	1	44.47	1	0.0	1	null	6	null	6	null	6	null	6	40.423415	17.846371
3157	2024-05-11 12:00:00	15	san_pancrazio_salentino	24.29	1	37.78	1	0.0	1	null	6	null	6	null	6	null	6	40.423415	17.846371
3158	2024-05-11 13:00:00	15	san_pancrazio_salentino	25.25	1	34.99	1	0.0	1	null	6	null	6	null	6	null	6	40.423415	17.846371
3159	2024-05-11 14:00:00	15	san_pancrazio_salentino	25.82	1	32.44	1	0.0	1	null	6	null	6	null	6	null	6	40.423415	17.846371
3160	2024-05-11 15:00:00	15	san_pancrazio_salentino	26.02	1	33.87	1	0.0	1	null	6	null	6	null	6	null	6	40.423415	17.846371
3161	2024-05-11 16:00:00	15	san_pancrazio_salentino	25.64	1	33.91	1	0.0	1	null	6	null	6	null	6	null	6	40.423415	17.846371
3162	2024-05-11 17:00:00	15	san_pancrazio_salentino	24.9	1	36.82	1	0.0	1	null	6	null	6	null	6	null	6	40.423415	17.846371
3163	2024-05-11 18:00:00	15	san_pancrazio_salentino	23.03	1	41.42	1	0.0	1	null	6	null	6	null	6	null	6	40.423415	17.846371
3164	2024-05-11 19:00:00	15	san_pancrazio_salentino	20.58	1	48.34	1	0.0	1	null	6	null	6	null	6	null	6	40.423415	17.846371
3165	2024-05-11 20:00:00	15	san_pancrazio_salentino	17.94	1	61.63	1	0.0	1	null	6	null	6	null	6	null	6	40.423415	17.846371
3166	2024-05-11 21:00:00	15	san_pancrazio_salentino	16.36	1	73.09	1	0.0	1	null	6	null	6	null	6	null	6	40.423415	17.846371
3167	2024-05-11 22:00:00	15	san_pancrazio_salentino	15.77	1	74.52	1	0.0	1	null	6	null	6	null	6	null	6	40.423415	17.846371
3168	2024-05-11 23:00:00	15	san_pancrazio_salentino	15.21	1	81.23	1	0.0	1	null	6	null	6	null	6	null	6	40.423415	17.846371
3169	2024-05-12 00:00:00	15	san_pancrazio_salentino	14.63	1	86.5	1	0.0	1	null	6	null	6	null	6	null	6	40.423415	17.846371
3170	2024-05-12 01:00:00	15	san_pancrazio_salentino	14.15	1	87.32	1	0.0	1	null	6	null	6	null	6	null	6	40.423415	17.846371
3171	2024-05-12 02:00:00	15	san_pancrazio_salentino	13.56	1	86.72	1	0.0	1	null	6	null	6	null	6	null	6	40.423415	17.846371
3172	2024-05-12 03:00:00	15	san_pancrazio_salentino	13.37	1	83.84	1	0.0	1	null	6	null	6	null	6	null	6	40.423415	17.846371
3173	2024-05-12 04:00:00	15	san_pancrazio_salentino	13.18	1	78.79	1	0.0	1	null	6	null	6	null	6	null	6	40.423415	17.846371
3174	2024-05-12 05:00:00	15	san_pancrazio_salentino	12.93	1	74.81	1	0.0	1	null	6	null	6	null	6	null	6	40.423415	17.846371
3175	2024-05-12 06:00:00	15	san_pancrazio_salentino	13.81	1	70.16	1	0.0	1	null	6	null	6	null	6	null	6	40.423415	17.846371
3176	2024-05-12 07:00:00	15	san_pancrazio_salentino	18.51	1	59.76	1	0.0	1	null	6	null	6	null	6	null	6	40.423415	17.846371
3177	2024-05-12 08:00:00	15	san_pancrazio_salentino	24.15	1	42.58	1	0.0	1	null	6	null	6	null	6	null	6	40.423415	17.846371
3178	2024-05-12 09:00:00	15	san_pancrazio_salentino	26.01	1	35.09	1	0.0	1	null	6	null	6	null	6	null	6	40.423415	17.846371
3179	2024-05-12 10:00:00	15	san_pancrazio_salentino	25.1	1	34.97	1	0.0	1	null	6	null	6	null	6	null	6	40.423415	17.846371
3180	2024-05-12 11:00:00	15	san_pancrazio_salentino	24.49	1	35.23	1	0.0	1	null	6	null	6	null	6	null	6	40.423415	17.846371
3181	2024-05-12 12:00:00	15	san_pancrazio_salentino	25.48	1	32.73	1	0.0	1	null	6	null	6	null	6	null	6	40.423415	17.846371
3182	2024-05-12 13:00:00	15	san_pancrazio_salentino	27.68	1	29.03	1	0.0	1	null	6	null	6	null	6	null	6	40.423415	17.846371
3183	2024-05-12 14:00:00	15	san_pancrazio_salentino	27.63	1	30.57	1	0.0	1	null	6	null	6	null	6	null	6	40.423415	17.846371
3184	2024-05-12 15:00:00	15	san_pancrazio_salentino	25.98	1	33.64	1	0.0	1	null	6	null	6	null	6	null	6	40.423415	17.846371
3185	2024-05-12 16:00:00	15	san_pancrazio_salentino	26.89	1	32.65	1	0.0	1	null	6	null	6	null	6	null	6	40.423415	17.846371
3186	2024-05-12 17:00:00	15	san_pancrazio_salentino	26.18	1	35.9	1	0.0	1	null	6	null	6	null	6	null	6	40.423415	17.846371
3187	2024-05-12 18:00:00	15	san_pancrazio_salentino	24.55	1	38.25	1	0.0	1	null	6	null	6	null	6	null	6	40.423415	17.846371
3188	2024-05-12 19:00:00	15	san_pancrazio_salentino	21.95	1	42.78	1	0.0	1	null	6	null	6	null	6	null	6	40.423415	17.846371
3189	2024-05-12 20:00:00	15	san_pancrazio_salentino	19.83	1	55.82	1	0.0	1	null	6	null	6	null	6	null	6	40.423415	17.846371
3190	2024-05-12 21:00:00	15	san_pancrazio_salentino	19.06	1	64.09	1	0.0	1	null	6	null	6	null	6	null	6	40.423415	17.846371
3191	2024-05-12 22:00:00	15	san_pancrazio_salentino	18.45	1	66.29	1	0.0	1	null	6	null	6	null	6	null	6	40.423415	17.846371
3192	2024-05-12 23:00:00	15	san_pancrazio_salentino	16.89	1	76.13	1	0.0	1	null	6	null	6	null	6	null	6	40.423415	17.846371
3193	2024-05-13 00:00:00	15	san_pancrazio_salentino	16.28	1	76.69	1	0.0	1	null	6	null	6	null	6	null	6	40.423415	17.846371
3194	2024-05-13 01:00:00	15	san_pancrazio_salentino	13.84	1	83.21	1	0.0	1	null	6	null	6	null	6	null	6	40.423415	17.846371
3195	2024-05-13 02:00:00	15	san_pancrazio_salentino	13.88	1	83.25	1	0.0	1	null	6	null	6	null	6	null	6	40.423415	17.846371
3196	2024-05-13 03:00:00	15	san_pancrazio_salentino	15.02	1	75.88	1	0.0	1	null	6	null	6	null	6	null	6	40.423415	17.846371
3197	2024-05-13 04:00:00	15	san_pancrazio_salentino	13.73	1	76.35	1	0.0	1	null	6	null	6	null	6	null	6	40.423415	17.846371
3198	2024-05-13 05:00:00	15	san_pancrazio_salentino	13.59	1	73.64	1	0.0	1	null	6	null	6	null	6	null	6	40.423415	17.846371
3199	2024-05-13 06:00:00	15	san_pancrazio_salentino	14.54	1	68.5	1	0.0	1	null	6	null	6	null	6	null	6	40.423415	17.846371
3200	2024-05-13 07:00:00	15	san_pancrazio_salentino	19.71	1	55.7	1	0.0	1	null	6	null	6	null	6	null	6	40.423415	17.846371
3201	2024-05-13 08:00:00	15	san_pancrazio_salentino	23.97	1	44.05	1	0.0	1	null	6	null	6	null	6	null	6	40.423415	17.846371
3202	2024-05-13 09:00:00	15	san_pancrazio_salentino	25.51	1	38.69	1	0.0	1	null	6	null	6	null	6	null	6	40.423415	17.846371
3203	2024-05-13 10:00:00	15	san_pancrazio_salentino	25.21	1	36.6	1	0.0	1	null	6	null	6	null	6	null	6	40.423415	17.846371
3204	2024-05-13 11:00:00	15	san_pancrazio_salentino	25.69	1	32.13	1	0.0	1	null	6	null	6	null	6	null	6	40.423415	17.846371
3205	2024-05-13 12:00:00	15	san_pancrazio_salentino	28.03	1	30.25	1	0.0	1	null	6	null	6	null	6	null	6	40.423415	17.846371
3206	2024-05-13 13:00:00	15	san_pancrazio_salentino	27.43	1	35.16	1	0.0	1	null	6	null	6	null	6	null	6	40.423415	17.846371
3207	2024-05-13 14:00:00	15	san_pancrazio_salentino	26.91	1	39.08	1	0.0	1	null	6	null	6	null	6	null	6	40.423415	17.846371
3208	2024-05-13 15:00:00	15	san_pancrazio_salentino	25.17	1	47.5	1	0.0	1	null	6	null	6	null	6	null	6	40.423415	17.846371
3209	2024-05-13 16:00:00	15	san_pancrazio_salentino	25.31	1	40.62	1	0.0	1	null	6	null	6	null	6	null	6	40.423415	17.846371
3210	2024-05-13 17:00:00	15	san_pancrazio_salentino	23.57	1	57.73	1	0.0	1	null	6	null	6	null	6	null	6	40.423415	17.846371
3211	2024-05-13 18:00:00	15	san_pancrazio_salentino	22.06	1	63.58	1	0.0	1	null	6	null	6	null	6	null	6	40.423415	17.846371
3212	2024-05-13 19:00:00	15	san_pancrazio_salentino	20.26	1	75.36	1	0.0	1	null	6	null	6	null	6	null	6	40.423415	17.846371
3213	2024-05-13 20:00:00	15	san_pancrazio_salentino	18.81	1	86.39	1	0.0	1	null	6	null	6	null	6	null	6	40.423415	17.846371
3214	2024-05-13 21:00:00	15	san_pancrazio_salentino	18.02	1	89.43	1	0.0	1	null	6	null	6	null	6	null	6	40.423415	17.846371
3215	2024-05-13 22:00:00	15	san_pancrazio_salentino	17.77	1	91.13	1	0.0	1	null	6	null	6	null	6	null	6	40.423415	17.846371
3216	2024-05-13 23:00:00	15	san_pancrazio_salentino	17.65	1	90.59	1	0.0	1	null	6	null	6	null	6	null	6	40.423415	17.846371
3217	2024-05-14 00:00:00	15	san_pancrazio_salentino	17.34	1	91.62	1	0.0	1	null	6	null	6	null	6	null	6	40.423415	17.846371
3218	2024-05-14 01:00:00	15	san_pancrazio_salentino	17.05	1	92.96	1	0.0	1	null	6	null	6	null	6	null	6	40.423415	17.846371
3219	2024-05-14 02:00:00	15	san_pancrazio_salentino	16.48	1	92.09	1	0.0	1	null	6	null	6	null	6	null	6	40.423415	17.846371
3220	2024-05-14 03:00:00	15	san_pancrazio_salentino	16.43	1	92.38	1	0.0	1	null	6	null	6	null	6	null	6	40.423415	17.846371
3221	2024-05-14 04:00:00	15	san_pancrazio_salentino	16.6	1	92.1	1	0.0	1	null	6	null	6	null	6	null	6	40.423415	17.846371
3222	2024-05-14 05:00:00	15	san_pancrazio_salentino	16.97	1	91.36	1	0.0	1	null	6	null	6	null	6	null	6	40.423415	17.846371
3223	2024-05-14 06:00:00	15	san_pancrazio_salentino	17.52	1	90.04	1	0.0	1	null	6	null	6	null	6	null	6	40.423415	17.846371
3224	2024-05-14 07:00:00	15	san_pancrazio_salentino	18.65	1	83.29	1	0.0	1	null	6	null	6	null	6	null	6	40.423415	17.846371
3225	2024-05-14 08:00:00	15	san_pancrazio_salentino	19.56	1	77.38	1	0.0	1	null	6	null	6	null	6	null	6	40.423415	17.846371
3226	2024-05-14 09:00:00	15	san_pancrazio_salentino	20.36	1	74.26	1	0.0	1	null	6	null	6	null	6	null	6	40.423415	17.846371
3227	2024-05-14 10:00:00	15	san_pancrazio_salentino	21.4	1	67.72	1	0.0	1	null	6	null	6	null	6	null	6	40.423415	17.846371
3228	2024-05-14 11:00:00	15	san_pancrazio_salentino	22.04	1	62.7	1	0.0	1	null	6	null	6	null	6	null	6	40.423415	17.846371
3229	2024-05-14 12:00:00	15	san_pancrazio_salentino	22.79	1	59.53	1	0.0	1	null	6	null	6	null	6	null	6	40.423415	17.846371
3230	2024-05-14 13:00:00	15	san_pancrazio_salentino	23.39	1	57.42	1	0.0	1	null	6	null	6	null	6	null	6	40.423415	17.846371
3231	2024-05-14 14:00:00	15	san_pancrazio_salentino	23.6	1	58.62	1	0.0	1	null	6	null	6	null	6	null	6	40.423415	17.846371
3232	2024-05-14 15:00:00	15	san_pancrazio_salentino	22.63	1	65.32	1	0.0	1	null	6	null	6	null	6	null	6	40.423415	17.846371
3233	2024-05-14 16:00:00	15	san_pancrazio_salentino	22.4	1	66.4	1	0.0	1	null	6	null	6	null	6	null	6	40.423415	17.846371
3234	2024-05-14 17:00:00	15	san_pancrazio_salentino	21.36	1	70.56	1	0.0	1	null	6	null	6	null	6	null	6	40.423415	17.846371
3235	2024-05-14 18:00:00	15	san_pancrazio_salentino	20.02	1	75.45	1	0.0	1	null	6	null	6	null	6	null	6	40.423415	17.846371
3236	2024-05-14 19:00:00	15	san_pancrazio_salentino	19.49	1	74.88	1	0.0	1	null	6	null	6	null	6	null	6	40.423415	17.846371
3237	2024-05-14 20:00:00	15	san_pancrazio_salentino	19.19	1	74.59	1	0.0	1	null	6	null	6	null	6	null	6	40.423415	17.846371
3238	2024-05-14 21:00:00	15	san_pancrazio_salentino	19.08	1	76.8	1	0.0	1	null	6	null	6	null	6	null	6	40.423415	17.846371
3239	2024-05-14 22:00:00	15	san_pancrazio_salentino	18.97	1	76.79	1	0.0	1	null	6	null	6	null	6	null	6	40.423415	17.846371
3240	2024-05-14 23:00:00	15	san_pancrazio_salentino	18.85	1	75.53	1	0.0	1	null	6	null	6	null	6	null	6	40.423415	17.846371
3241	2024-05-15 00:00:00	15	san_pancrazio_salentino	18.77	1	76.38	1	0.0	1	null	6	null	6	null	6	null	6	40.423415	17.846371
3242	2024-05-15 01:00:00	15	san_pancrazio_salentino	18.72	1	78.25	1	0.0	1	null	6	null	6	null	6	null	6	40.423415	17.846371
3243	2024-05-15 02:00:00	15	san_pancrazio_salentino	18.59	1	79.58	1	0.0	1	null	6	null	6	null	6	null	6	40.423415	17.846371
3244	2024-05-15 03:00:00	15	san_pancrazio_salentino	18.49	1	81.02	1	0.0	1	null	6	null	6	null	6	null	6	40.423415	17.846371
3245	2024-05-15 04:00:00	15	san_pancrazio_salentino	18.5	1	81.35	1	0.0	1	null	6	null	6	null	6	null	6	40.423415	17.846371
3246	2024-05-15 05:00:00	15	san_pancrazio_salentino	18.49	1	81.51	1	0.0	1	null	6	null	6	null	6	null	6	40.423415	17.846371
3247	2024-05-15 06:00:00	15	san_pancrazio_salentino	18.51	1	81.3	1	0.0	1	null	6	null	6	null	6	null	6	40.423415	17.846371
3248	2024-05-15 07:00:00	15	san_pancrazio_salentino	18.87	1	78.72	1	0.0	1	null	6	null	6	null	6	null	6	40.423415	17.846371
3249	2024-05-15 08:00:00	15	san_pancrazio_salentino	19.45	1	75.69	1	0.0	1	null	6	null	6	null	6	null	6	40.423415	17.846371
3250	2024-05-15 09:00:00	15	san_pancrazio_salentino	20.5	1	70.95	1	0.0	1	null	6	null	6	null	6	null	6	40.423415	17.846371
3251	2024-05-15 10:00:00	15	san_pancrazio_salentino	21.3	1	68.76	1	0.0	1	null	6	null	6	null	6	null	6	40.423415	17.846371
3252	2024-05-15 11:00:00	15	san_pancrazio_salentino	21.83	1	64.39	1	0.0	1	null	6	null	6	null	6	null	6	40.423415	17.846371
3253	2024-05-15 12:00:00	15	san_pancrazio_salentino	21.69	1	65.53	1	0.0	1	null	6	null	6	null	6	null	6	40.423415	17.846371
3254	2024-05-15 13:00:00	15	san_pancrazio_salentino	22.75	1	60.39	1	0.0	1	null	6	null	6	null	6	null	6	40.423415	17.846371
3255	2024-05-15 14:00:00	15	san_pancrazio_salentino	22.94	1	59.5	1	0.0	1	null	6	null	6	null	6	null	6	40.423415	17.846371
3256	2024-05-15 15:00:00	15	san_pancrazio_salentino	22.75	1	58.56	1	0.0	1	null	6	null	6	null	6	null	6	40.423415	17.846371
3257	2024-05-15 16:00:00	15	san_pancrazio_salentino	21.96	1	62.53	1	0.0	1	null	6	null	6	null	6	null	6	40.423415	17.846371
3258	2024-05-15 17:00:00	15	san_pancrazio_salentino	21.09	1	66.44	1	0.0	1	null	6	null	6	null	6	null	6	40.423415	17.846371
3259	2024-05-15 18:00:00	15	san_pancrazio_salentino	20.75	1	68.94	1	0.0	1	null	6	null	6	null	6	null	6	40.423415	17.846371
3260	2024-05-15 19:00:00	15	san_pancrazio_salentino	19.63	1	73.57	1	0.0	1	null	6	null	6	null	6	null	6	40.423415	17.846371
3261	2024-05-15 20:00:00	15	san_pancrazio_salentino	18.8	1	76.43	1	0.0	1	null	6	null	6	null	6	null	6	40.423415	17.846371
3262	2024-05-15 21:00:00	15	san_pancrazio_salentino	18.14	1	79.38	1	0.0	1	null	6	null	6	null	6	null	6	40.423415	17.846371
3263	2024-05-15 22:00:00	15	san_pancrazio_salentino	17.85	1	81.69	1	0.0	1	null	6	null	6	null	6	null	6	40.423415	17.846371
3264	2024-05-15 23:00:00	15	san_pancrazio_salentino	18.27	1	83.58	1	0.0	1	null	6	null	6	null	6	null	6	40.423415	17.846371
3265	2024-05-16 00:00:00	15	san_pancrazio_salentino	18.34	1	85.68	1	0.0	1	null	6	null	6	null	6	null	6	40.423415	17.846371
3266	2024-05-16 01:00:00	15	san_pancrazio_salentino	18.69	1	86.37	1	0.0	1	null	6	null	6	null	6	null	6	40.423415	17.846371
3267	2024-05-16 02:00:00	15	san_pancrazio_salentino	18.78	1	86.13	1	0.0	1	null	6	null	6	null	6	null	6	40.423415	17.846371
3268	2024-05-16 03:00:00	15	san_pancrazio_salentino	18.94	1	85.37	1	0.0	1	null	6	null	6	null	6	null	6	40.423415	17.846371
3269	2024-05-16 04:00:00	15	san_pancrazio_salentino	19.09	1	84.21	1	0.0	1	null	6	null	6	null	6	null	6	40.423415	17.846371
3270	2024-05-16 05:00:00	15	san_pancrazio_salentino	19.16	1	83.37	1	0.0	1	null	6	null	6	null	6	null	6	40.423415	17.846371
3271	2024-05-16 06:00:00	15	san_pancrazio_salentino	19.18	1	83.27	1	0.0	1	null	6	null	6	null	6	null	6	40.423415	17.846371
3272	2024-05-16 07:00:00	15	san_pancrazio_salentino	19.53	1	79.17	1	0.0	1	null	6	null	6	null	6	null	6	40.423415	17.846371
3273	2024-05-16 08:00:00	15	san_pancrazio_salentino	20.46	1	71.89	1	0.0	1	null	6	null	6	null	6	null	6	40.423415	17.846371
3274	2024-05-16 09:00:00	15	san_pancrazio_salentino	21.34	1	66.53	1	0.0	1	null	6	null	6	null	6	null	6	40.423415	17.846371
3275	2024-05-16 10:00:00	15	san_pancrazio_salentino	22.13	1	63.25	1	0.0	1	null	6	null	6	null	6	null	6	40.423415	17.846371
3276	2024-05-16 11:00:00	15	san_pancrazio_salentino	23.32	1	59.14	1	0.0	1	null	6	null	6	null	6	null	6	40.423415	17.846371
3277	2024-05-16 12:00:00	15	san_pancrazio_salentino	23.67	1	57.18	1	0.0	1	null	6	null	6	null	6	null	6	40.423415	17.846371
3278	2024-05-16 13:00:00	15	san_pancrazio_salentino	23.74	1	57.68	1	0.0	1	null	6	null	6	null	6	null	6	40.423415	17.846371
3279	2024-05-16 14:00:00	15	san_pancrazio_salentino	23.86	1	56.71	1	0.0	1	null	6	null	6	null	6	null	6	40.423415	17.846371
3280	2024-05-16 15:00:00	15	san_pancrazio_salentino	23.74	1	55.76	1	0.0	1	null	6	null	6	null	6	null	6	40.423415	17.846371
3281	2024-05-16 16:00:00	15	san_pancrazio_salentino	22.98	1	57.76	1	0.0	1	null	6	null	6	null	6	null	6	40.423415	17.846371
3282	2024-05-16 17:00:00	15	san_pancrazio_salentino	21.99	1	63.83	1	0.0	1	null	6	null	6	null	6	null	6	40.423415	17.846371
3283	2024-05-16 18:00:00	15	san_pancrazio_salentino	21.15	1	69.62	1	0.0	1	null	6	null	6	null	6	null	6	40.423415	17.846371
3284	2024-05-16 19:00:00	15	san_pancrazio_salentino	20.83	1	72.31	1	0.0	1	null	6	null	6	null	6	null	6	40.423415	17.846371
3285	2024-05-16 20:00:00	15	san_pancrazio_salentino	20.31	1	74.74	1	0.0	1	null	6	null	6	null	6	null	6	40.423415	17.846371
3286	2024-05-16 21:00:00	15	san_pancrazio_salentino	19.94	1	76.66	1	0.0	1	null	6	null	6	null	6	null	6	40.423415	17.846371
3287	2024-05-16 22:00:00	15	san_pancrazio_salentino	19.76	1	78.13	1	0.0	1	null	6	null	6	null	6	null	6	40.423415	17.846371
3288	2024-05-16 23:00:00	15	san_pancrazio_salentino	19.55	1	80.32	1	0.0	1	null	6	null	6	null	6	null	6	40.423415	17.846371
3289	2024-05-17 00:00:00	15	san_pancrazio_salentino	19.11	1	83.56	1	0.0	1	null	6	null	6	null	6	null	6	40.423415	17.846371
3290	2024-05-17 01:00:00	15	san_pancrazio_salentino	18.7	1	85.86	1	0.0	1	null	6	null	6	null	6	null	6	40.423415	17.846371
3291	2024-05-17 02:00:00	15	san_pancrazio_salentino	18.72	1	85.86	1	0.0	1	null	6	null	6	null	6	null	6	40.423415	17.846371
3292	2024-05-17 03:00:00	15	san_pancrazio_salentino	18.71	1	85.92	1	0.0	1	null	6	null	6	null	6	null	6	40.423415	17.846371
3293	2024-05-17 04:00:00	15	san_pancrazio_salentino	18.74	1	85.68	1	0.0	1	null	6	null	6	null	6	null	6	40.423415	17.846371
3294	2024-05-17 05:00:00	15	san_pancrazio_salentino	18.5	1	86.06	1	0.0	1	null	6	null	6	null	6	null	6	40.423415	17.846371
3295	2024-05-17 06:00:00	15	san_pancrazio_salentino	19.01	1	85.25	1	0.0	1	null	6	null	6	null	6	null	6	40.423415	17.846371
3296	2024-05-17 07:00:00	15	san_pancrazio_salentino	20.73	1	80.31	1	0.0	1	null	6	null	6	null	6	null	6	40.423415	17.846371
3297	2024-05-17 08:00:00	15	san_pancrazio_salentino	21.01	1	79.04	1	0.0	1	null	6	null	6	null	6	null	6	40.423415	17.846371
3298	2024-05-17 09:00:00	15	san_pancrazio_salentino	23.36	1	70.43	1	0.0	1	null	6	null	6	null	6	null	6	40.423415	17.846371
3299	2024-05-17 10:00:00	15	san_pancrazio_salentino	25.19	1	60.1	1	0.0	1	null	6	null	6	null	6	null	6	40.423415	17.846371
3300	2024-05-17 11:00:00	15	san_pancrazio_salentino	26.48	1	52.3	1	0.0	1	null	6	null	6	null	6	null	6	40.423415	17.846371
3301	2024-05-17 12:00:00	15	san_pancrazio_salentino	28.36	1	44.83	1	0.0	1	null	6	null	6	null	6	null	6	40.423415	17.846371
3302	2024-05-17 13:00:00	15	san_pancrazio_salentino	29.49	1	38.66	1	0.0	1	null	6	null	6	null	6	null	6	40.423415	17.846371
3303	2024-05-17 14:00:00	15	san_pancrazio_salentino	29.48	1	35.15	1	0.0	1	null	6	null	6	null	6	null	6	40.423415	17.846371
3304	2024-05-17 15:00:00	15	san_pancrazio_salentino	30.26	1	36.55	1	0.0	1	null	6	null	6	null	6	null	6	40.423415	17.846371
3305	2024-05-17 16:00:00	15	san_pancrazio_salentino	29.97	1	40.64	1	0.0	1	null	6	null	6	null	6	null	6	40.423415	17.846371
3306	2024-05-17 17:00:00	15	san_pancrazio_salentino	29.03	1	46.82	1	0.0	1	null	6	null	6	null	6	null	6	40.423415	17.846371
3307	2024-05-17 18:00:00	15	san_pancrazio_salentino	26.38	1	59.88	1	0.0	1	null	6	null	6	null	6	null	6	40.423415	17.846371
3308	2024-05-17 19:00:00	15	san_pancrazio_salentino	23.02	1	72.32	1	0.0	1	null	6	null	6	null	6	null	6	40.423415	17.846371
3309	2024-05-17 20:00:00	15	san_pancrazio_salentino	20.9	1	81.19	1	0.0	1	null	6	null	6	null	6	null	6	40.423415	17.846371
3310	2024-05-17 21:00:00	15	san_pancrazio_salentino	19.79	1	88.65	1	0.0	1	null	6	null	6	null	6	null	6	40.423415	17.846371
3311	2024-05-17 22:00:00	15	san_pancrazio_salentino	19.28	1	90.6	1	0.0	1	null	6	null	6	null	6	null	6	40.423415	17.846371
3312	2024-05-17 23:00:00	15	san_pancrazio_salentino	18.79	1	92.47	1	0.0	1	null	6	null	6	null	6	null	6	40.423415	17.846371
3313	2024-05-18 00:00:00	15	san_pancrazio_salentino	18.32	1	92.43	1	0.0	1	null	6	null	6	null	6	null	6	40.423415	17.846371
3314	2024-05-18 01:00:00	15	san_pancrazio_salentino	17.15	1	92.63	1	0.0	1	null	6	null	6	null	6	null	6	40.423415	17.846371
3315	2024-05-18 02:00:00	15	san_pancrazio_salentino	16.63	1	94.67	1	0.0	1	null	6	null	6	null	6	null	6	40.423415	17.846371
3316	2024-05-18 03:00:00	15	san_pancrazio_salentino	17.07	1	95.73	1	0.0	1	null	6	null	6	null	6	null	6	40.423415	17.846371
3317	2024-05-18 04:00:00	15	san_pancrazio_salentino	17.35	1	95.37	1	0.0	1	null	6	null	6	null	6	null	6	40.423415	17.846371
3318	2024-05-18 05:00:00	15	san_pancrazio_salentino	16.97	1	94.5	1	0.0	1	null	6	null	6	null	6	null	6	40.423415	17.846371
3319	2024-05-18 06:00:00	15	san_pancrazio_salentino	17.13	1	95.12	1	0.0	1	null	6	null	6	null	6	null	6	40.423415	17.846371
3320	2024-05-18 07:00:00	15	san_pancrazio_salentino	18.72	1	90.65	1	0.0	1	null	6	null	6	null	6	null	6	40.423415	17.846371
3321	2024-05-18 08:00:00	15	san_pancrazio_salentino	21.34	1	79.63	1	0.0	1	null	6	null	6	null	6	null	6	40.423415	17.846371
3322	2024-05-18 09:00:00	15	san_pancrazio_salentino	23.4	1	69.98	1	0.0	1	null	6	null	6	null	6	null	6	40.423415	17.846371
3323	2024-05-18 10:00:00	15	san_pancrazio_salentino	24.75	1	64.29	1	0.0	1	null	6	null	6	null	6	null	6	40.423415	17.846371
3324	2024-05-18 11:00:00	15	san_pancrazio_salentino	25.41	1	63.84	1	0.0	1	null	6	null	6	null	6	null	6	40.423415	17.846371
3325	2024-05-18 12:00:00	15	san_pancrazio_salentino	26.77	1	57.24	1	0.0	1	null	6	null	6	null	6	null	6	40.423415	17.846371
3326	2024-05-18 13:00:00	15	san_pancrazio_salentino	28.3	1	52.07	1	0.0	1	null	6	null	6	null	6	null	6	40.423415	17.846371
3327	2024-05-18 14:00:00	15	san_pancrazio_salentino	26.97	1	58.55	1	0.0	1	null	6	null	6	null	6	null	6	40.423415	17.846371
3328	2024-05-18 15:00:00	15	san_pancrazio_salentino	25.52	1	65.09	1	0.0	1	null	6	null	6	null	6	null	6	40.423415	17.846371
3329	2024-05-18 16:00:00	15	san_pancrazio_salentino	23.11	1	75.5	1	0.0	1	null	6	null	6	null	6	null	6	40.423415	17.846371
3330	2024-05-18 17:00:00	15	san_pancrazio_salentino	21.9	1	82.5	1	0.0	1	null	6	null	6	null	6	null	6	40.423415	17.846371
3331	2024-05-18 18:00:00	15	san_pancrazio_salentino	20.86	1	90.34	1	0.0	1	null	6	null	6	null	6	null	6	40.423415	17.846371
3332	2024-05-18 19:00:00	15	san_pancrazio_salentino	20.16	1	89.59	1	0.2	1	null	6	null	6	null	6	null	6	40.423415	17.846371
3333	2024-05-18 20:00:00	15	san_pancrazio_salentino	18.76	1	89.51	1	1.4	1	null	6	null	6	null	6	null	6	40.423415	17.846371
3334	2024-05-18 21:00:00	15	san_pancrazio_salentino	18.49	1	93.53	1	0.6	1	null	6	null	6	null	6	null	6	40.423415	17.846371
3335	2024-05-18 22:00:00	15	san_pancrazio_salentino	18.54	1	94.89	1	2.0	1	null	6	null	6	null	6	null	6	40.423415	17.846371
3336	2024-05-18 23:00:00	15	san_pancrazio_salentino	18.58	1	95.99	1	0.0	1	null	6	null	6	null	6	null	6	40.423415	17.846371
3337	2024-05-19 00:00:00	15	san_pancrazio_salentino	18.73	1	96.14	1	0.0	1	null	6	null	6	null	6	null	6	40.423415	17.846371
3338	2024-05-19 01:00:00	15	san_pancrazio_salentino	18.73	1	96.3	1	0.0	1	null	6	null	6	null	6	null	6	40.423415	17.846371
3339	2024-05-19 02:00:00	15	san_pancrazio_salentino	18.49	1	96.39	1	0.0	1	null	6	null	6	null	6	null	6	40.423415	17.846371
3340	2024-05-19 03:00:00	15	san_pancrazio_salentino	18.25	1	96.54	1	0.0	1	null	6	null	6	null	6	null	6	40.423415	17.846371
3341	2024-05-19 04:00:00	15	san_pancrazio_salentino	17.71	1	96.52	1	0.0	1	null	6	null	6	null	6	null	6	40.423415	17.846371
3342	2024-05-19 05:00:00	15	san_pancrazio_salentino	17.36	1	97.08	1	0.0	1	null	6	null	6	null	6	null	6	40.423415	17.846371
3343	2024-05-19 06:00:00	15	san_pancrazio_salentino	17.69	1	97.21	1	0.0	1	null	6	null	6	null	6	null	6	40.423415	17.846371
3344	2024-05-19 07:00:00	15	san_pancrazio_salentino	17.97	1	96.84	1	0.0	1	null	6	null	6	null	6	null	6	40.423415	17.846371
3345	2024-05-19 08:00:00	15	san_pancrazio_salentino	19.52	1	92.81	1	0.0	1	null	6	null	6	null	6	null	6	40.423415	17.846371
3346	2024-05-19 09:00:00	15	san_pancrazio_salentino	21.81	1	79.07	1	0.0	1	null	6	null	6	null	6	null	6	40.423415	17.846371
3347	2024-05-19 10:00:00	15	san_pancrazio_salentino	23.01	1	74.46	1	0.0	1	null	6	null	6	null	6	null	6	40.423415	17.846371
3348	2024-05-19 11:00:00	15	san_pancrazio_salentino	24.38	1	69.16	1	0.0	1	null	6	null	6	null	6	null	6	40.423415	17.846371
3349	2024-05-19 12:00:00	15	san_pancrazio_salentino	26.27	1	62.08	1	0.0	1	null	6	null	6	null	6	null	6	40.423415	17.846371
3350	2024-05-19 13:00:00	15	san_pancrazio_salentino	27.37	1	57.99	1	0.0	1	null	6	null	6	null	6	null	6	40.423415	17.846371
3351	2024-05-19 14:00:00	15	san_pancrazio_salentino	29.05	1	52.54	1	0.0	1	null	6	null	6	null	6	null	6	40.423415	17.846371
3352	2024-05-19 15:00:00	15	san_pancrazio_salentino	29.51	1	51.26	1	0.0	1	null	6	null	6	null	6	null	6	40.423415	17.846371
3353	2024-05-19 16:00:00	15	san_pancrazio_salentino	28.57	1	54.47	1	0.0	1	null	6	null	6	null	6	null	6	40.423415	17.846371
3354	2024-05-19 17:00:00	15	san_pancrazio_salentino	24.4	1	65.22	1	0.0	1	null	6	null	6	null	6	null	6	40.423415	17.846371
3355	2024-05-19 18:00:00	15	san_pancrazio_salentino	22.44	1	76.96	1	0.0	1	null	6	null	6	null	6	null	6	40.423415	17.846371
3356	2024-05-19 19:00:00	15	san_pancrazio_salentino	21.57	1	80.54	1	0.0	1	null	6	null	6	null	6	null	6	40.423415	17.846371
3357	2024-05-19 20:00:00	15	san_pancrazio_salentino	21.08	1	83.34	1	0.0	1	null	6	null	6	null	6	null	6	40.423415	17.846371
3358	2024-05-19 21:00:00	15	san_pancrazio_salentino	20.62	1	88.23	1	0.0	1	null	6	null	6	null	6	null	6	40.423415	17.846371
3359	2024-05-19 22:00:00	15	san_pancrazio_salentino	20.07	1	89.01	1	0.0	1	null	6	null	6	null	6	null	6	40.423415	17.846371
3360	2024-05-19 23:00:00	15	san_pancrazio_salentino	19.5	1	91.06	1	0.0	1	null	6	null	6	null	6	null	6	40.423415	17.846371
3361	2024-05-20 00:00:00	15	san_pancrazio_salentino	18.92	1	93.46	1	0.0	1	null	6	null	6	null	6	null	6	40.423415	17.846371
3362	2024-05-20 01:00:00	15	san_pancrazio_salentino	18.45	1	95.24	1	0.0	1	null	6	null	6	null	6	null	6	40.423415	17.846371
3363	2024-05-20 02:00:00	15	san_pancrazio_salentino	18.29	1	96.06	1	0.0	1	null	6	null	6	null	6	null	6	40.423415	17.846371
3364	2024-05-20 03:00:00	15	san_pancrazio_salentino	17.99	1	96.51	1	0.0	1	null	6	null	6	null	6	null	6	40.423415	17.846371
3365	2024-05-20 04:00:00	15	san_pancrazio_salentino	17.9	1	96.78	1	0.0	1	null	6	null	6	null	6	null	6	40.423415	17.846371
3366	2024-05-20 05:00:00	15	san_pancrazio_salentino	18.13	1	97.08	1	0.0	1	null	6	null	6	null	6	null	6	40.423415	17.846371
3367	2024-05-20 06:00:00	15	san_pancrazio_salentino	18.3	1	97.09	1	0.0	1	null	6	null	6	null	6	null	6	40.423415	17.846371
3368	2024-05-20 07:00:00	15	san_pancrazio_salentino	19.03	1	96.99	1	0.0	1	null	6	null	6	null	6	null	6	40.423415	17.846371
3369	2024-05-20 08:00:00	15	san_pancrazio_salentino	20.26	1	93.38	1	0.0	1	null	6	null	6	null	6	null	6	40.423415	17.846371
3370	2024-05-20 09:00:00	15	san_pancrazio_salentino	22.61	1	79.94	1	0.0	1	null	6	null	6	null	6	null	6	40.423415	17.846371
3371	2024-05-20 10:00:00	15	san_pancrazio_salentino	24.65	1	69.68	1	0.0	1	null	6	null	6	null	6	null	6	40.423415	17.846371
3372	2024-05-20 11:00:00	15	san_pancrazio_salentino	25.77	1	63.24	1	0.0	1	null	6	null	6	null	6	null	6	40.423415	17.846371
3373	2024-05-20 12:00:00	15	san_pancrazio_salentino	27.36	1	58.83	1	0.0	1	null	6	null	6	null	6	null	6	40.423415	17.846371
3374	2024-05-20 13:00:00	15	san_pancrazio_salentino	28.8	1	55.6	1	0.0	1	null	6	null	6	null	6	null	6	40.423415	17.846371
3375	2024-05-20 14:00:00	15	san_pancrazio_salentino	27.98	1	58.33	1	0.0	1	null	6	null	6	null	6	null	6	40.423415	17.846371
3376	2024-05-20 15:00:00	15	san_pancrazio_salentino	27.43	1	58.33	1	0.0	1	null	6	null	6	null	6	null	6	40.423415	17.846371
3377	2024-05-20 16:00:00	15	san_pancrazio_salentino	26.88	1	60.35	1	0.0	1	null	6	null	6	null	6	null	6	40.423415	17.846371
3378	2024-05-20 17:00:00	15	san_pancrazio_salentino	26.57	1	59.28	1	0.0	1	null	6	null	6	null	6	null	6	40.423415	17.846371
3379	2024-05-20 18:00:00	15	san_pancrazio_salentino	25.0	1	61.84	1	0.0	1	null	6	null	6	null	6	null	6	40.423415	17.846371
3380	2024-05-20 19:00:00	15	san_pancrazio_salentino	23.45	1	65.06	1	0.0	1	null	6	null	6	null	6	null	6	40.423415	17.846371
3381	2024-05-20 20:00:00	15	san_pancrazio_salentino	22.13	1	70.86	1	0.0	1	null	6	null	6	null	6	null	6	40.423415	17.846371
3382	2024-05-20 21:00:00	15	san_pancrazio_salentino	21.13	1	74.05	1	0.0	1	null	6	null	6	null	6	null	6	40.423415	17.846371
3383	2024-05-20 22:00:00	15	san_pancrazio_salentino	19.83	1	80.13	1	0.0	1	null	6	null	6	null	6	null	6	40.423415	17.846371
3384	2024-05-20 23:00:00	15	san_pancrazio_salentino	19.59	1	81.18	1	0.0	1	null	6	null	6	null	6	null	6	40.423415	17.846371
3385	2024-05-21 00:00:00	15	san_pancrazio_salentino	19.21	1	83.11	1	0.0	1	null	6	null	6	null	6	null	6	40.423415	17.846371
3386	2024-05-21 01:00:00	15	san_pancrazio_salentino	19.2	1	80.37	1	0.0	1	null	6	null	6	null	6	null	6	40.423415	17.846371
3387	2024-05-21 02:00:00	15	san_pancrazio_salentino	18.45	1	84.56	1	0.0	1	null	6	null	6	null	6	null	6	40.423415	17.846371
3388	2024-05-21 03:00:00	15	san_pancrazio_salentino	18.55	1	83.37	1	0.0	1	null	6	null	6	null	6	null	6	40.423415	17.846371
3389	2024-05-21 04:00:00	15	san_pancrazio_salentino	18.61	1	84.96	1	0.0	1	null	6	null	6	null	6	null	6	40.423415	17.846371
3390	2024-05-21 05:00:00	15	san_pancrazio_salentino	18.81	1	84.45	1	0.0	1	null	6	null	6	null	6	null	6	40.423415	17.846371
3391	2024-05-21 06:00:00	15	san_pancrazio_salentino	20.09	1	81.99	1	0.0	1	null	6	null	6	null	6	null	6	40.423415	17.846371
3392	2024-05-21 07:00:00	15	san_pancrazio_salentino	21.78	1	79.73	1	0.0	1	null	6	null	6	null	6	null	6	40.423415	17.846371
3393	2024-05-21 08:00:00	15	san_pancrazio_salentino	22.25	1	79.28	1	0.0	1	null	6	null	6	null	6	null	6	40.423415	17.846371
3394	2024-05-21 09:00:00	15	san_pancrazio_salentino	24.11	1	70.08	1	0.0	1	null	6	null	6	null	6	null	6	40.423415	17.846371
3395	2024-05-21 10:00:00	15	san_pancrazio_salentino	25.33	1	63.01	1	0.0	1	null	6	null	6	null	6	null	6	40.423415	17.846371
3396	2024-05-21 11:00:00	15	san_pancrazio_salentino	25.57	1	61.8	1	0.0	1	null	6	null	6	null	6	null	6	40.423415	17.846371
3397	2024-05-21 12:00:00	15	san_pancrazio_salentino	26.97	1	56.11	1	0.0	1	null	6	null	6	null	6	null	6	40.423415	17.846371
3398	2024-05-21 13:00:00	15	san_pancrazio_salentino	28.08	1	50.97	1	0.0	1	null	6	null	6	null	6	null	6	40.423415	17.846371
3399	2024-05-21 14:00:00	15	san_pancrazio_salentino	29.52	1	43.93	1	0.0	1	null	6	null	6	null	6	null	6	40.423415	17.846371
3400	2024-05-21 15:00:00	15	san_pancrazio_salentino	29.45	1	42.88	1	0.0	1	null	6	null	6	null	6	null	6	40.423415	17.846371
3401	2024-05-21 16:00:00	15	san_pancrazio_salentino	28.99	1	44.37	1	0.0	1	null	6	null	6	null	6	null	6	40.423415	17.846371
3402	2024-05-21 17:00:00	15	san_pancrazio_salentino	28.1	1	43.63	1	0.0	1	null	6	null	6	null	6	null	6	40.423415	17.846371
3403	2024-05-21 18:00:00	15	san_pancrazio_salentino	26.7	1	45.08	1	0.0	1	null	6	null	6	null	6	null	6	40.423415	17.846371
3404	2024-05-21 19:00:00	15	san_pancrazio_salentino	25.18	1	48.28	1	0.0	1	null	6	null	6	null	6	null	6	40.423415	17.846371
3405	2024-05-21 20:00:00	15	san_pancrazio_salentino	22.99	1	59.62	1	0.0	1	null	6	null	6	null	6	null	6	40.423415	17.846371
3406	2024-05-21 21:00:00	15	san_pancrazio_salentino	21.54	1	69.02	1	0.0	1	null	6	null	6	null	6	null	6	40.423415	17.846371
3407	2024-05-21 22:00:00	15	san_pancrazio_salentino	21.34	1	63.19	1	0.0	1	null	6	null	6	null	6	null	6	40.423415	17.846371
3408	2024-05-21 23:00:00	15	san_pancrazio_salentino	21.47	1	61.22	1	0.0	1	null	6	null	6	null	6	null	6	40.423415	17.846371
3409	2024-05-22 00:00:00	15	san_pancrazio_salentino	20.64	1	63.62	1	0.0	1	null	6	null	6	null	6	null	6	40.423415	17.846371
3410	2024-05-22 01:00:00	15	san_pancrazio_salentino	19.68	1	65.95	1	0.0	1	null	6	null	6	null	6	null	6	40.423415	17.846371
3411	2024-05-22 02:00:00	15	san_pancrazio_salentino	18.92	1	65.46	1	0.0	1	null	6	null	6	null	6	null	6	40.423415	17.846371
3412	2024-05-22 03:00:00	15	san_pancrazio_salentino	17.96	1	61.51	1	0.0	1	null	6	null	6	null	6	null	6	40.423415	17.846371
3413	2024-05-22 04:00:00	15	san_pancrazio_salentino	18.02	1	58.71	1	0.0	1	null	6	null	6	null	6	null	6	40.423415	17.846371
3414	2024-05-22 05:00:00	15	san_pancrazio_salentino	17.21	1	62.02	1	0.0	1	null	6	null	6	null	6	null	6	40.423415	17.846371
3415	2024-05-22 06:00:00	15	san_pancrazio_salentino	18.85	1	57.79	1	0.0	1	null	6	null	6	null	6	null	6	40.423415	17.846371
3416	2024-05-22 07:00:00	15	san_pancrazio_salentino	22.36	1	49.12	1	0.0	1	null	6	null	6	null	6	null	6	40.423415	17.846371
3417	2024-05-22 08:00:00	15	san_pancrazio_salentino	24.06	1	42.25	1	0.0	1	null	6	null	6	null	6	null	6	40.423415	17.846371
3418	2024-05-22 09:00:00	15	san_pancrazio_salentino	25.99	1	36.13	1	0.0	1	null	6	null	6	null	6	null	6	40.423415	17.846371
3419	2024-05-22 10:00:00	15	san_pancrazio_salentino	26.29	1	34.34	1	0.0	1	null	6	null	6	null	6	null	6	40.423415	17.846371
3420	2024-05-22 11:00:00	15	san_pancrazio_salentino	26.82	1	32.58	1	0.0	1	null	6	null	6	null	6	null	6	40.423415	17.846371
3421	2024-05-22 12:00:00	15	san_pancrazio_salentino	27.61	1	34.28	1	0.0	1	null	6	null	6	null	6	null	6	40.423415	17.846371
3422	2024-05-22 13:00:00	15	san_pancrazio_salentino	26.75	1	38.7	1	0.0	1	null	6	null	6	null	6	null	6	40.423415	17.846371
3423	2024-05-22 14:00:00	15	san_pancrazio_salentino	26.66	1	39.57	1	0.0	1	null	6	null	6	null	6	null	6	40.423415	17.846371
3424	2024-05-22 15:00:00	15	san_pancrazio_salentino	27.0	1	37.45	1	0.0	1	null	6	null	6	null	6	null	6	40.423415	17.846371
3425	2024-05-22 16:00:00	15	san_pancrazio_salentino	26.82	1	37.94	1	0.0	1	null	6	null	6	null	6	null	6	40.423415	17.846371
3426	2024-05-22 17:00:00	15	san_pancrazio_salentino	27.46	1	35.88	1	0.0	1	null	6	null	6	null	6	null	6	40.423415	17.846371
3427	2024-05-22 18:00:00	15	san_pancrazio_salentino	25.19	1	41.98	1	0.0	1	null	6	null	6	null	6	null	6	40.423415	17.846371
3428	2024-05-22 19:00:00	15	san_pancrazio_salentino	23.28	1	48.85	1	0.0	1	null	6	null	6	null	6	null	6	40.423415	17.846371
3429	2024-05-22 20:00:00	15	san_pancrazio_salentino	21.5	1	55.82	1	0.0	1	null	6	null	6	null	6	null	6	40.423415	17.846371
3430	2024-05-22 21:00:00	15	san_pancrazio_salentino	20.3	1	58.89	1	0.0	1	null	6	null	6	null	6	null	6	40.423415	17.846371
3431	2024-05-22 22:00:00	15	san_pancrazio_salentino	19.1	1	64.35	1	0.0	1	null	6	null	6	null	6	null	6	40.423415	17.846371
3432	2024-05-22 23:00:00	15	san_pancrazio_salentino	18.18	1	69.2	1	0.0	1	null	6	null	6	null	6	null	6	40.423415	17.846371
3433	2024-05-23 00:00:00	15	san_pancrazio_salentino	17.52	1	73.86	1	0.0	1	null	6	null	6	null	6	null	6	40.423415	17.846371
3434	2024-05-23 01:00:00	15	san_pancrazio_salentino	16.87	1	76.49	1	0.0	1	null	6	null	6	null	6	null	6	40.423415	17.846371
3435	2024-05-23 02:00:00	15	san_pancrazio_salentino	16.42	1	72.59	1	0.0	1	null	6	null	6	null	6	null	6	40.423415	17.846371
3436	2024-05-23 03:00:00	15	san_pancrazio_salentino	16.19	1	69.48	1	0.0	1	null	6	null	6	null	6	null	6	40.423415	17.846371
3437	2024-05-23 04:00:00	15	san_pancrazio_salentino	15.48	1	71.16	1	0.0	1	null	6	null	6	null	6	null	6	40.423415	17.846371
3438	2024-05-23 05:00:00	15	san_pancrazio_salentino	14.87	1	73.26	1	0.0	1	null	6	null	6	null	6	null	6	40.423415	17.846371
3439	2024-05-23 06:00:00	15	san_pancrazio_salentino	16.86	1	66.69	1	0.0	1	null	6	null	6	null	6	null	6	40.423415	17.846371
3440	2024-05-23 07:00:00	15	san_pancrazio_salentino	21.46	1	54.42	1	0.0	1	null	6	null	6	null	6	null	6	40.423415	17.846371
3441	2024-05-23 08:00:00	15	san_pancrazio_salentino	24.16	1	49.82	1	0.0	1	null	6	null	6	null	6	null	6	40.423415	17.846371
3442	2024-05-23 09:00:00	15	san_pancrazio_salentino	26.15	1	46.24	1	0.0	1	null	6	null	6	null	6	null	6	40.423415	17.846371
3443	2024-05-23 10:00:00	15	san_pancrazio_salentino	26.21	1	44.76	1	0.0	1	null	6	null	6	null	6	null	6	40.423415	17.846371
3444	2024-05-23 11:00:00	15	san_pancrazio_salentino	26.41	1	40.33	1	0.0	1	null	6	null	6	null	6	null	6	40.423415	17.846371
3445	2024-05-23 12:00:00	15	san_pancrazio_salentino	27.57	1	36.33	1	0.0	1	null	6	null	6	null	6	null	6	40.423415	17.846371
3446	2024-05-23 13:00:00	15	san_pancrazio_salentino	28.43	1	33.53	1	0.0	1	null	6	null	6	null	6	null	6	40.423415	17.846371
3447	2024-05-23 14:00:00	15	san_pancrazio_salentino	29.5	1	31.92	1	0.0	1	null	6	null	6	null	6	null	6	40.423415	17.846371
3448	2024-05-23 15:00:00	15	san_pancrazio_salentino	29.68	1	31.48	1	0.0	1	null	6	null	6	null	6	null	6	40.423415	17.846371
3449	2024-05-23 16:00:00	15	san_pancrazio_salentino	28.61	1	32.14	1	0.0	1	null	6	null	6	null	6	null	6	40.423415	17.846371
3450	2024-05-23 17:00:00	15	san_pancrazio_salentino	27.02	1	35.12	1	0.0	1	null	6	null	6	null	6	null	6	40.423415	17.846371
3451	2024-05-23 18:00:00	15	san_pancrazio_salentino	25.83	1	35.51	1	0.0	1	null	6	null	6	null	6	null	6	40.423415	17.846371
3452	2024-05-23 19:00:00	15	san_pancrazio_salentino	24.05	1	38.79	1	0.0	1	null	6	null	6	null	6	null	6	40.423415	17.846371
3453	2024-05-23 20:00:00	15	san_pancrazio_salentino	21.55	1	59.43	1	0.0	1	null	6	null	6	null	6	null	6	40.423415	17.846371
3454	2024-05-23 21:00:00	15	san_pancrazio_salentino	20.1	1	68.76	1	0.0	1	null	6	null	6	null	6	null	6	40.423415	17.846371
3455	2024-05-23 22:00:00	15	san_pancrazio_salentino	19.42	1	74.09	1	0.0	1	null	6	null	6	null	6	null	6	40.423415	17.846371
3456	2024-05-23 23:00:00	15	san_pancrazio_salentino	18.14	1	75.01	1	0.0	1	null	6	null	6	null	6	null	6	40.423415	17.846371
3457	2024-05-24 00:00:00	15	san_pancrazio_salentino	16.86	1	77.6	1	0.0	1	null	6	null	6	null	6	null	6	40.423415	17.846371
3458	2024-05-24 01:00:00	15	san_pancrazio_salentino	16.81	1	80.92	1	0.0	1	null	6	null	6	null	6	null	6	40.423415	17.846371
3459	2024-05-24 02:00:00	15	san_pancrazio_salentino	16.2	1	83.24	1	0.0	1	null	6	null	6	null	6	null	6	40.423415	17.846371
3460	2024-05-24 03:00:00	15	san_pancrazio_salentino	16.22	1	79.58	1	0.0	1	null	6	null	6	null	6	null	6	40.423415	17.846371
3461	2024-05-24 04:00:00	15	san_pancrazio_salentino	15.26	1	87.22	1	0.0	1	null	6	null	6	null	6	null	6	40.423415	17.846371
3462	2024-05-24 05:00:00	15	san_pancrazio_salentino	15.45	1	90.42	1	0.0	1	null	6	null	6	null	6	null	6	40.423415	17.846371
3463	2024-05-24 06:00:00	15	san_pancrazio_salentino	17.15	1	80.31	1	0.0	1	null	6	null	6	null	6	null	6	40.423415	17.846371
3464	2024-05-24 07:00:00	15	san_pancrazio_salentino	21.38	1	64.39	1	0.0	1	null	6	null	6	null	6	null	6	40.423415	17.846371
3465	2024-05-24 08:00:00	15	san_pancrazio_salentino	25.57	1	44.47	1	0.0	1	null	6	null	6	null	6	null	6	40.423415	17.846371
3466	2024-05-24 09:00:00	15	san_pancrazio_salentino	27.84	1	41.7	1	0.0	1	null	6	null	6	null	6	null	6	40.423415	17.846371
3467	2024-05-24 10:00:00	15	san_pancrazio_salentino	27.23	1	37.63	1	0.0	1	null	6	null	6	null	6	null	6	40.423415	17.846371
3468	2024-05-24 11:00:00	15	san_pancrazio_salentino	28.21	1	35.75	1	0.0	1	null	6	null	6	null	6	null	6	40.423415	17.846371
3469	2024-05-24 12:00:00	15	san_pancrazio_salentino	27.6	1	41.31	1	0.0	1	null	6	null	6	null	6	null	6	40.423415	17.846371
3470	2024-05-24 13:00:00	15	san_pancrazio_salentino	26.61	1	44.59	1	0.0	1	null	6	null	6	null	6	null	6	40.423415	17.846371
3471	2024-05-24 14:00:00	15	san_pancrazio_salentino	27.1	1	40.1	1	0.0	1	null	6	null	6	null	6	null	6	40.423415	17.846371
3472	2024-05-24 15:00:00	15	san_pancrazio_salentino	26.82	1	38.95	1	0.0	1	null	6	null	6	null	6	null	6	40.423415	17.846371
3473	2024-05-24 16:00:00	15	san_pancrazio_salentino	28.03	1	35.15	1	0.0	1	null	6	null	6	null	6	null	6	40.423415	17.846371
3474	2024-05-24 17:00:00	15	san_pancrazio_salentino	26.67	1	36.3	1	0.0	1	null	6	null	6	null	6	null	6	40.423415	17.846371
3475	2024-05-24 18:00:00	15	san_pancrazio_salentino	24.93	1	37.64	1	0.0	1	null	6	null	6	null	6	null	6	40.423415	17.846371
3476	2024-05-24 19:00:00	15	san_pancrazio_salentino	23.31	1	58.21	1	0.0	1	null	6	null	6	null	6	null	6	40.423415	17.846371
3477	2024-05-24 20:00:00	15	san_pancrazio_salentino	21.4	1	65.89	1	0.0	1	null	6	null	6	null	6	null	6	40.423415	17.846371
3478	2024-05-24 21:00:00	15	san_pancrazio_salentino	20.37	1	74.05	1	0.0	1	null	6	null	6	null	6	null	6	40.423415	17.846371
3479	2024-05-24 22:00:00	15	san_pancrazio_salentino	19.65	1	82.65	1	0.0	1	null	6	null	6	null	6	null	6	40.423415	17.846371
3480	2024-05-24 23:00:00	15	san_pancrazio_salentino	18.07	1	81.76	1	0.0	1	null	6	null	6	null	6	null	6	40.423415	17.846371
3481	2024-05-25 00:00:00	15	san_pancrazio_salentino	17.12	1	80.96	1	0.0	1	null	6	null	6	null	6	null	6	40.423415	17.846371
3482	2024-05-25 01:00:00	15	san_pancrazio_salentino	16.64	1	84.84	1	0.0	1	null	6	null	6	null	6	null	6	40.423415	17.846371
3483	2024-05-25 02:00:00	15	san_pancrazio_salentino	16.24	1	80.53	1	0.0	1	null	6	null	6	null	6	null	6	40.423415	17.846371
3484	2024-05-25 03:00:00	15	san_pancrazio_salentino	15.71	1	73.81	1	0.0	1	null	6	null	6	null	6	null	6	40.423415	17.846371
3485	2024-05-25 04:00:00	15	san_pancrazio_salentino	14.8	1	76.68	1	0.0	1	null	6	null	6	null	6	null	6	40.423415	17.846371
3486	2024-05-25 05:00:00	15	san_pancrazio_salentino	14.56	1	80.16	1	0.0	1	null	6	null	6	null	6	null	6	40.423415	17.846371
3487	2024-05-25 06:00:00	15	san_pancrazio_salentino	16.58	1	74.73	1	0.0	1	null	6	null	6	null	6	null	6	40.423415	17.846371
3488	2024-05-25 07:00:00	15	san_pancrazio_salentino	22.45	1	58.9	1	0.0	1	null	6	null	6	null	6	null	6	40.423415	17.846371
3489	2024-05-25 08:00:00	15	san_pancrazio_salentino	26.01	1	42.54	1	0.0	1	null	6	null	6	null	6	null	6	40.423415	17.846371
3490	2024-05-25 09:00:00	15	san_pancrazio_salentino	27.38	1	38.94	1	0.0	1	null	6	null	6	null	6	null	6	40.423415	17.846371
3491	2024-05-25 10:00:00	15	san_pancrazio_salentino	27.93	1	35.16	1	0.0	1	null	6	null	6	null	6	null	6	40.423415	17.846371
3492	2024-05-25 11:00:00	15	san_pancrazio_salentino	28.22	1	30.8	1	0.0	1	null	6	null	6	null	6	null	6	40.423415	17.846371
3493	2024-05-25 12:00:00	15	san_pancrazio_salentino	28.04	1	32.57	1	0.0	1	null	6	null	6	null	6	null	6	40.423415	17.846371
3494	2024-05-25 13:00:00	15	san_pancrazio_salentino	27.14	1	35.14	1	0.0	1	null	6	null	6	null	6	null	6	40.423415	17.846371
3495	2024-05-25 14:00:00	15	san_pancrazio_salentino	27.56	1	36.38	1	0.0	1	null	6	null	6	null	6	null	6	40.423415	17.846371
3496	2024-05-25 15:00:00	15	san_pancrazio_salentino	26.29	1	40.92	1	0.0	1	null	6	null	6	null	6	null	6	40.423415	17.846371
3497	2024-05-25 16:00:00	15	san_pancrazio_salentino	25.23	1	44.44	1	0.0	1	null	6	null	6	null	6	null	6	40.423415	17.846371
3498	2024-05-25 17:00:00	15	san_pancrazio_salentino	23.99	1	51.23	1	0.0	1	null	6	null	6	null	6	null	6	40.423415	17.846371
3499	2024-05-25 18:00:00	15	san_pancrazio_salentino	22.5	1	54.34	1	0.0	1	null	6	null	6	null	6	null	6	40.423415	17.846371
3500	2024-05-25 19:00:00	15	san_pancrazio_salentino	21.74	1	54.91	1	0.0	1	null	6	null	6	null	6	null	6	40.423415	17.846371
3501	2024-05-25 20:00:00	15	san_pancrazio_salentino	20.55	1	55.74	1	0.0	1	null	6	null	6	null	6	null	6	40.423415	17.846371
3502	2024-05-25 21:00:00	15	san_pancrazio_salentino	19.92	1	59.59	1	0.0	1	null	6	null	6	null	6	null	6	40.423415	17.846371
3503	2024-05-25 22:00:00	15	san_pancrazio_salentino	19.6	1	58.3	1	0.0	1	null	6	null	6	null	6	null	6	40.423415	17.846371
3504	2024-05-25 23:00:00	15	san_pancrazio_salentino	17.96	1	76.46	1	1.2	1	null	6	null	6	null	6	null	6	40.423415	17.846371
3505	2024-05-26 00:00:00	15	san_pancrazio_salentino	17.38	1	79.68	1	0.0	1	null	6	null	6	null	6	null	6	40.423415	17.846371
3506	2024-05-26 01:00:00	15	san_pancrazio_salentino	16.85	1	84.68	1	0.0	1	null	6	null	6	null	6	null	6	40.423415	17.846371
3507	2024-05-26 02:00:00	15	san_pancrazio_salentino	16.55	1	86.59	1	0.0	1	null	6	null	6	null	6	null	6	40.423415	17.846371
3508	2024-05-26 03:00:00	15	san_pancrazio_salentino	16.27	1	86.21	1	0.0	1	null	6	null	6	null	6	null	6	40.423415	17.846371
3509	2024-05-26 04:00:00	15	san_pancrazio_salentino	16.47	1	78.31	1	0.0	1	null	6	null	6	null	6	null	6	40.423415	17.846371
3510	2024-05-26 05:00:00	15	san_pancrazio_salentino	16.48	1	78.14	1	0.0	1	null	6	null	6	null	6	null	6	40.423415	17.846371
3511	2024-05-26 06:00:00	15	san_pancrazio_salentino	17.77	1	74.92	1	0.0	1	null	6	null	6	null	6	null	6	40.423415	17.846371
3512	2024-05-26 07:00:00	15	san_pancrazio_salentino	19.59	1	73.52	1	0.0	1	null	6	null	6	null	6	null	6	40.423415	17.846371
3513	2024-05-26 08:00:00	15	san_pancrazio_salentino	22.22	1	67.06	1	0.0	1	null	6	null	6	null	6	null	6	40.423415	17.846371
3514	2024-05-26 09:00:00	15	san_pancrazio_salentino	21.25	1	71.1	1	0.6	1	null	6	null	6	null	6	null	6	40.423415	17.846371
3515	2024-05-26 10:00:00	15	san_pancrazio_salentino	22.71	1	59.08	1	0.0	1	null	6	null	6	null	6	null	6	40.423415	17.846371
3516	2024-05-26 11:00:00	15	san_pancrazio_salentino	23.94	1	59.62	1	0.0	1	null	6	null	6	null	6	null	6	40.423415	17.846371
3517	2024-05-26 12:00:00	15	san_pancrazio_salentino	22.43	1	62.95	1	0.0	1	null	6	null	6	null	6	null	6	40.423415	17.846371
3518	2024-05-26 13:00:00	15	san_pancrazio_salentino	23.31	1	58.29	1	0.0	1	null	6	null	6	null	6	null	6	40.423415	17.846371
3519	2024-05-26 14:00:00	15	san_pancrazio_salentino	24.86	1	53.11	1	0.0	1	null	6	null	6	null	6	null	6	40.423415	17.846371
3520	2024-05-26 15:00:00	15	san_pancrazio_salentino	26.71	1	45.29	1	0.0	1	null	6	null	6	null	6	null	6	40.423415	17.846371
3521	2024-05-26 16:00:00	15	san_pancrazio_salentino	27.71	1	41.11	1	0.0	1	null	6	null	6	null	6	null	6	40.423415	17.846371
3522	2024-05-26 17:00:00	15	san_pancrazio_salentino	26.51	1	45.37	1	0.0	1	null	6	null	6	null	6	null	6	40.423415	17.846371
3523	2024-05-26 18:00:00	15	san_pancrazio_salentino	24.23	1	53.23	1	0.0	1	null	6	null	6	null	6	null	6	40.423415	17.846371
3524	2024-05-26 19:00:00	15	san_pancrazio_salentino	21.43	1	65.41	1	0.0	1	null	6	null	6	null	6	null	6	40.423415	17.846371
3525	2024-05-26 20:00:00	15	san_pancrazio_salentino	18.92	1	75.87	1	0.0	1	null	6	null	6	null	6	null	6	40.423415	17.846371
3526	2024-05-26 21:00:00	15	san_pancrazio_salentino	17.59	1	81.47	1	0.0	1	null	6	null	6	null	6	null	6	40.423415	17.846371
3527	2024-05-26 22:00:00	15	san_pancrazio_salentino	17.03	1	83.66	1	0.0	1	null	6	null	6	null	6	null	6	40.423415	17.846371
3528	2024-05-26 23:00:00	15	san_pancrazio_salentino	16.53	1	85.22	1	0.0	1	null	6	null	6	null	6	null	6	40.423415	17.846371
3529	2024-05-27 00:00:00	15	san_pancrazio_salentino	15.77	1	87.4	1	0.0	1	null	6	null	6	null	6	null	6	40.423415	17.846371
3530	2024-05-27 01:00:00	15	san_pancrazio_salentino	15.32	1	89.29	1	0.0	1	null	6	null	6	null	6	null	6	40.423415	17.846371
3531	2024-05-27 02:00:00	15	san_pancrazio_salentino	14.97	1	91.05	1	0.0	1	null	6	null	6	null	6	null	6	40.423415	17.846371
3532	2024-05-27 03:00:00	15	san_pancrazio_salentino	14.71	1	91.63	1	0.0	1	null	6	null	6	null	6	null	6	40.423415	17.846371
3533	2024-05-27 04:00:00	15	san_pancrazio_salentino	14.7	1	91.37	1	0.0	1	null	6	null	6	null	6	null	6	40.423415	17.846371
3534	2024-05-27 05:00:00	15	san_pancrazio_salentino	14.28	1	92.51	1	0.0	1	null	6	null	6	null	6	null	6	40.423415	17.846371
3535	2024-05-27 06:00:00	15	san_pancrazio_salentino	15.87	1	89.42	1	0.0	1	null	6	null	6	null	6	null	6	40.423415	17.846371
3536	2024-05-27 07:00:00	15	san_pancrazio_salentino	21.7	1	71.41	1	0.0	1	null	6	null	6	null	6	null	6	40.423415	17.846371
3537	2024-05-27 08:00:00	15	san_pancrazio_salentino	24.26	1	57.94	1	0.0	1	null	6	null	6	null	6	null	6	40.423415	17.846371
3538	2024-05-27 09:00:00	15	san_pancrazio_salentino	25.75	1	50.33	1	0.0	1	null	6	null	6	null	6	null	6	40.423415	17.846371
3539	2024-05-27 10:00:00	15	san_pancrazio_salentino	26.03	1	48.09	1	0.0	1	null	6	null	6	null	6	null	6	40.423415	17.846371
3540	2024-05-27 11:00:00	15	san_pancrazio_salentino	25.46	1	47.08	1	0.0	1	null	6	null	6	null	6	null	6	40.423415	17.846371
3541	2024-05-27 12:00:00	15	san_pancrazio_salentino	26.06	1	46.44	1	0.0	1	null	6	null	6	null	6	null	6	40.423415	17.846371
3542	2024-05-27 13:00:00	15	san_pancrazio_salentino	27.42	1	43.82	1	0.0	1	null	6	null	6	null	6	null	6	40.423415	17.846371
3543	2024-05-27 14:00:00	15	san_pancrazio_salentino	27.42	1	40.44	1	0.0	1	null	6	null	6	null	6	null	6	40.423415	17.846371
3544	2024-05-27 15:00:00	15	san_pancrazio_salentino	24.99	1	52.32	1	0.0	1	null	6	null	6	null	6	null	6	40.423415	17.846371
3545	2024-05-27 16:00:00	15	san_pancrazio_salentino	27.92	1	41.44	1	0.0	1	null	6	null	6	null	6	null	6	40.423415	17.846371
3546	2024-05-27 17:00:00	15	san_pancrazio_salentino	27.58	1	40.69	1	0.0	1	null	6	null	6	null	6	null	6	40.423415	17.846371
3547	2024-05-27 18:00:00	15	san_pancrazio_salentino	25.42	1	44.77	1	0.0	1	null	6	null	6	null	6	null	6	40.423415	17.846371
3548	2024-05-27 19:00:00	15	san_pancrazio_salentino	23.52	1	57.68	1	0.0	1	null	6	null	6	null	6	null	6	40.423415	17.846371
3549	2024-05-27 20:00:00	15	san_pancrazio_salentino	21.08	1	66.76	1	0.0	1	null	6	null	6	null	6	null	6	40.423415	17.846371
3550	2024-05-27 21:00:00	15	san_pancrazio_salentino	19.38	1	77.19	1	0.0	1	null	6	null	6	null	6	null	6	40.423415	17.846371
3551	2024-05-27 22:00:00	15	san_pancrazio_salentino	18.8	1	79.89	1	0.0	1	null	6	null	6	null	6	null	6	40.423415	17.846371
3552	2024-05-27 23:00:00	15	san_pancrazio_salentino	18.01	1	82.88	1	0.0	1	null	6	null	6	null	6	null	6	40.423415	17.846371
3553	2024-05-28 00:00:00	15	san_pancrazio_salentino	17.12	1	86.36	1	0.0	1	null	6	null	6	null	6	null	6	40.423415	17.846371
3554	2024-05-28 01:00:00	15	san_pancrazio_salentino	16.72	1	88.84	1	0.0	1	null	6	null	6	null	6	null	6	40.423415	17.846371
3555	2024-05-28 02:00:00	15	san_pancrazio_salentino	16.43	1	89.49	1	0.0	1	null	6	null	6	null	6	null	6	40.423415	17.846371
3556	2024-05-28 03:00:00	15	san_pancrazio_salentino	15.36	1	87.63	1	0.0	1	null	6	null	6	null	6	null	6	40.423415	17.846371
3557	2024-05-28 04:00:00	15	san_pancrazio_salentino	15.5	1	91.7	1	0.0	1	null	6	null	6	null	6	null	6	40.423415	17.846371
3558	2024-05-28 05:00:00	15	san_pancrazio_salentino	15.88	1	90.8	1	0.0	1	null	6	null	6	null	6	null	6	40.423415	17.846371
3559	2024-05-28 06:00:00	15	san_pancrazio_salentino	17.53	1	84.98	1	0.0	1	null	6	null	6	null	6	null	6	40.423415	17.846371
3560	2024-05-28 07:00:00	15	san_pancrazio_salentino	22.14	1	71.61	1	0.0	1	null	6	null	6	null	6	null	6	40.423415	17.846371
3561	2024-05-28 08:00:00	15	san_pancrazio_salentino	24.53	1	59.89	1	0.0	1	null	6	null	6	null	6	null	6	40.423415	17.846371
3562	2024-05-28 09:00:00	15	san_pancrazio_salentino	24.56	1	58.17	1	0.0	1	null	6	null	6	null	6	null	6	40.423415	17.846371
3563	2024-05-28 10:00:00	15	san_pancrazio_salentino	23.8	1	59.34	1	0.0	1	null	6	null	6	null	6	null	6	40.423415	17.846371
3564	2024-05-28 11:00:00	15	san_pancrazio_salentino	23.6	1	59.24	1	0.2	1	null	6	null	6	null	6	null	6	40.423415	17.846371
3565	2024-05-28 12:00:00	15	san_pancrazio_salentino	21.9	1	68.83	1	0.2	1	null	6	null	6	null	6	null	6	40.423415	17.846371
3566	2024-05-28 13:00:00	15	san_pancrazio_salentino	18.5	1	88.2	1	0.6	1	null	6	null	6	null	6	null	6	40.423415	17.846371
3567	2024-05-28 14:00:00	15	san_pancrazio_salentino	21.5	1	70.86	1	0.0	1	null	6	null	6	null	6	null	6	40.423415	17.846371
3568	2024-05-28 15:00:00	15	san_pancrazio_salentino	24.79	1	54.8	1	0.2	1	null	6	null	6	null	6	null	6	40.423415	17.846371
3569	2024-05-28 16:00:00	15	san_pancrazio_salentino	25.53	1	47.52	1	0.0	1	null	6	null	6	null	6	null	6	40.423415	17.846371
3570	2024-05-28 17:00:00	15	san_pancrazio_salentino	23.6	1	57.21	1	0.0	1	null	6	null	6	null	6	null	6	40.423415	17.846371
3571	2024-05-28 18:00:00	15	san_pancrazio_salentino	22.59	1	59.7	1	0.0	1	null	6	null	6	null	6	null	6	40.423415	17.846371
3572	2024-05-28 19:00:00	15	san_pancrazio_salentino	22.2	1	60.78	1	0.0	1	null	6	null	6	null	6	null	6	40.423415	17.846371
3573	2024-05-28 20:00:00	15	san_pancrazio_salentino	20.92	1	71.12	1	0.0	1	null	6	null	6	null	6	null	6	40.423415	17.846371
3574	2024-05-28 21:00:00	15	san_pancrazio_salentino	19.65	1	77.64	1	0.0	1	null	6	null	6	null	6	null	6	40.423415	17.846371
3575	2024-05-28 22:00:00	15	san_pancrazio_salentino	18.15	1	83.93	1	0.0	1	null	6	null	6	null	6	null	6	40.423415	17.846371
3576	2024-05-28 23:00:00	15	san_pancrazio_salentino	17.16	1	88.91	1	0.0	1	null	6	null	6	null	6	null	6	40.423415	17.846371
3577	2024-05-29 00:00:00	15	san_pancrazio_salentino	16.93	1	90.14	1	0.0	1	null	6	null	6	null	6	null	6	40.423415	17.846371
3578	2024-05-29 01:00:00	15	san_pancrazio_salentino	16.48	1	89.92	1	0.0	1	null	6	null	6	null	6	null	6	40.423415	17.846371
3579	2024-05-29 02:00:00	15	san_pancrazio_salentino	15.15	1	92.16	1	0.0	1	null	6	null	6	null	6	null	6	40.423415	17.846371
3580	2024-05-29 03:00:00	15	san_pancrazio_salentino	15.02	1	93.81	1	0.0	1	null	6	null	6	null	6	null	6	40.423415	17.846371
3581	2024-05-29 04:00:00	15	san_pancrazio_salentino	14.69	1	92.05	1	0.0	1	null	6	null	6	null	6	null	6	40.423415	17.846371
3582	2024-05-29 05:00:00	15	san_pancrazio_salentino	14.5	1	92.57	1	0.0	1	null	6	null	6	null	6	null	6	40.423415	17.846371
3583	2024-05-29 06:00:00	15	san_pancrazio_salentino	16.49	1	88.86	1	0.0	1	null	6	null	6	null	6	null	6	40.423415	17.846371
3584	2024-05-29 07:00:00	15	san_pancrazio_salentino	21.07	1	79.26	1	0.0	1	null	6	null	6	null	6	null	6	40.423415	17.846371
3585	2024-05-29 08:00:00	15	san_pancrazio_salentino	24.35	1	65.28	1	0.0	1	null	6	null	6	null	6	null	6	40.423415	17.846371
3586	2024-05-29 09:00:00	15	san_pancrazio_salentino	23.44	1	64.6	1	0.0	1	null	6	null	6	null	6	null	6	40.423415	17.846371
3587	2024-05-29 10:00:00	15	san_pancrazio_salentino	22.93	1	65.06	1	0.0	1	null	6	null	6	null	6	null	6	40.423415	17.846371
3588	2024-05-29 11:00:00	15	san_pancrazio_salentino	22.03	1	75.66	1	0.0	1	null	6	null	6	null	6	null	6	40.423415	17.846371
3589	2024-05-29 12:00:00	15	san_pancrazio_salentino	21.71	1	80.18	1	0.0	1	null	6	null	6	null	6	null	6	40.423415	17.846371
3590	2024-05-29 13:00:00	15	san_pancrazio_salentino	24.64	1	62.7	1	0.0	1	null	6	null	6	null	6	null	6	40.423415	17.846371
3591	2024-05-29 14:00:00	15	san_pancrazio_salentino	20.2	1	78.04	1	0.0	1	null	6	null	6	null	6	null	6	40.423415	17.846371
3592	2024-05-29 15:00:00	15	san_pancrazio_salentino	24.36	1	58.69	1	0.0	1	null	6	null	6	null	6	null	6	40.423415	17.846371
3593	2024-05-29 16:00:00	15	san_pancrazio_salentino	27.3	1	46.16	1	0.0	1	null	6	null	6	null	6	null	6	40.423415	17.846371
3594	2024-05-29 17:00:00	15	san_pancrazio_salentino	26.82	1	49.22	1	0.0	1	null	6	null	6	null	6	null	6	40.423415	17.846371
3595	2024-05-29 18:00:00	15	san_pancrazio_salentino	24.41	1	52.11	1	0.0	1	null	6	null	6	null	6	null	6	40.423415	17.846371
3596	2024-05-29 19:00:00	15	san_pancrazio_salentino	22.28	1	57.59	1	0.0	1	null	6	null	6	null	6	null	6	40.423415	17.846371
3597	2024-05-29 20:00:00	15	san_pancrazio_salentino	20.35	1	64.59	1	0.0	1	null	6	null	6	null	6	null	6	40.423415	17.846371
3598	2024-05-29 21:00:00	15	san_pancrazio_salentino	18.79	1	71.8	1	0.0	1	null	6	null	6	null	6	null	6	40.423415	17.846371
3599	2024-05-29 22:00:00	15	san_pancrazio_salentino	18.02	1	78.29	1	0.0	1	null	6	null	6	null	6	null	6	40.423415	17.846371
3600	2024-05-29 23:00:00	15	san_pancrazio_salentino	17.39	1	83.66	1	0.0	1	null	6	null	6	null	6	null	6	40.423415	17.846371
3601	2024-05-30 00:00:00	15	san_pancrazio_salentino	16.58	1	87.18	1	0.0	1	null	6	null	6	null	6	null	6	40.423415	17.846371
3602	2024-05-30 01:00:00	15	san_pancrazio_salentino	16.02	1	91.48	1	0.0	1	null	6	null	6	null	6	null	6	40.423415	17.846371
3603	2024-05-30 02:00:00	15	san_pancrazio_salentino	15.75	1	93.44	1	0.0	1	null	6	null	6	null	6	null	6	40.423415	17.846371
3604	2024-05-30 03:00:00	15	san_pancrazio_salentino	15.47	1	94.1	1	0.0	1	null	6	null	6	null	6	null	6	40.423415	17.846371
3605	2024-05-30 04:00:00	15	san_pancrazio_salentino	14.73	1	94.01	1	0.0	1	null	6	null	6	null	6	null	6	40.423415	17.846371
3606	2024-05-30 05:00:00	15	san_pancrazio_salentino	14.32	1	94.46	1	0.0	1	null	6	null	6	null	6	null	6	40.423415	17.846371
3607	2024-05-30 06:00:00	15	san_pancrazio_salentino	16.23	1	92.17	1	0.0	1	null	6	null	6	null	6	null	6	40.423415	17.846371
3608	2024-05-30 07:00:00	15	san_pancrazio_salentino	21.57	1	78.07	1	0.0	1	null	6	null	6	null	6	null	6	40.423415	17.846371
3609	2024-05-30 08:00:00	15	san_pancrazio_salentino	24.18	1	70.09	1	0.0	1	null	6	null	6	null	6	null	6	40.423415	17.846371
3610	2024-05-30 09:00:00	15	san_pancrazio_salentino	25.26	1	62.14	1	0.0	1	null	6	null	6	null	6	null	6	40.423415	17.846371
3611	2024-05-30 10:00:00	15	san_pancrazio_salentino	24.99	1	57.2	1	0.0	1	null	6	null	6	null	6	null	6	40.423415	17.846371
3612	2024-05-30 11:00:00	15	san_pancrazio_salentino	25.37	1	49.16	1	0.0	1	null	6	null	6	null	6	null	6	40.423415	17.846371
3613	2024-05-30 12:00:00	15	san_pancrazio_salentino	25.97	1	49.7	1	0.0	1	null	6	null	6	null	6	null	6	40.423415	17.846371
3614	2024-05-30 13:00:00	15	san_pancrazio_salentino	26.37	1	50.41	1	0.0	1	null	6	null	6	null	6	null	6	40.423415	17.846371
3615	2024-05-30 14:00:00	15	san_pancrazio_salentino	25.88	1	52.02	1	0.0	1	null	6	null	6	null	6	null	6	40.423415	17.846371
3616	2024-05-30 15:00:00	15	san_pancrazio_salentino	25.39	1	55.64	1	0.0	1	null	6	null	6	null	6	null	6	40.423415	17.846371
3617	2024-05-30 16:00:00	15	san_pancrazio_salentino	25.14	1	57.16	1	0.0	1	null	6	null	6	null	6	null	6	40.423415	17.846371
3618	2024-05-30 17:00:00	15	san_pancrazio_salentino	24.26	1	59.81	1	0.0	1	null	6	null	6	null	6	null	6	40.423415	17.846371
3619	2024-05-30 18:00:00	15	san_pancrazio_salentino	23.33	1	61.72	1	0.0	1	null	6	null	6	null	6	null	6	40.423415	17.846371
3620	2024-05-30 19:00:00	15	san_pancrazio_salentino	21.81	1	71.53	1	0.0	1	null	6	null	6	null	6	null	6	40.423415	17.846371
3621	2024-05-30 20:00:00	15	san_pancrazio_salentino	20.85	1	79.8	1	0.0	1	null	6	null	6	null	6	null	6	40.423415	17.846371
3622	2024-05-30 21:00:00	15	san_pancrazio_salentino	20.69	1	83.0	1	0.0	1	null	6	null	6	null	6	null	6	40.423415	17.846371
3623	2024-05-30 22:00:00	15	san_pancrazio_salentino	20.55	1	85.15	1	0.0	1	null	6	null	6	null	6	null	6	40.423415	17.846371
3624	2024-05-30 23:00:00	15	san_pancrazio_salentino	20.56	1	86.04	1	0.0	1	null	6	null	6	null	6	null	6	40.423415	17.846371
3625	2024-05-31 00:00:00	15	san_pancrazio_salentino	20.42	1	86.06	1	0.0	1	null	6	null	6	null	6	null	6	40.423415	17.846371
3626	2024-05-31 01:00:00	15	san_pancrazio_salentino	20.29	1	87.88	1	0.0	1	null	6	null	6	null	6	null	6	40.423415	17.846371
3627	2024-05-31 02:00:00	15	san_pancrazio_salentino	20.26	1	88.02	1	0.0	1	null	6	null	6	null	6	null	6	40.423415	17.846371
3628	2024-05-31 03:00:00	15	san_pancrazio_salentino	20.1	1	89.45	1	0.0	1	null	6	null	6	null	6	null	6	40.423415	17.846371
3629	2024-05-31 04:00:00	15	san_pancrazio_salentino	20.22	1	89.16	1	0.0	1	null	6	null	6	null	6	null	6	40.423415	17.846371
3630	2024-05-31 05:00:00	15	san_pancrazio_salentino	20.29	1	88.04	1	0.0	1	null	6	null	6	null	6	null	6	40.423415	17.846371
3631	2024-05-31 06:00:00	15	san_pancrazio_salentino	20.57	1	86.61	1	0.0	1	null	6	null	6	null	6	null	6	40.423415	17.846371
3632	2024-05-31 07:00:00	15	san_pancrazio_salentino	21.37	1	80.84	1	0.0	1	null	6	null	6	null	6	null	6	40.423415	17.846371
3633	2024-05-31 08:00:00	15	san_pancrazio_salentino	21.6	1	76.8	1	0.0	1	null	6	null	6	null	6	null	6	40.423415	17.846371
3634	2024-05-31 09:00:00	15	san_pancrazio_salentino	23.23	1	71.0	1	0.0	1	null	6	null	6	null	6	null	6	40.423415	17.846371
3635	2024-05-31 10:00:00	15	san_pancrazio_salentino	23.81	1	68.12	1	0.0	1	null	6	null	6	null	6	null	6	40.423415	17.846371
3636	2024-05-31 11:00:00	15	san_pancrazio_salentino	24.01	1	67.17	1	0.0	1	null	6	null	6	null	6	null	6	40.423415	17.846371
3637	2024-05-31 12:00:00	15	san_pancrazio_salentino	24.38	1	66.87	1	0.0	1	null	6	null	6	null	6	null	6	40.423415	17.846371
3638	2024-05-31 13:00:00	15	san_pancrazio_salentino	24.44	1	67.15	1	0.0	1	null	6	null	6	null	6	null	6	40.423415	17.846371
3639	2024-05-31 14:00:00	15	san_pancrazio_salentino	24.31	1	67.09	1	0.0	1	null	6	null	6	null	6	null	6	40.423415	17.846371
3640	2024-05-31 15:00:00	15	san_pancrazio_salentino	23.75	1	68.52	1	0.0	1	null	6	null	6	null	6	null	6	40.423415	17.846371
3641	2024-05-31 16:00:00	15	san_pancrazio_salentino	23.96	1	68.03	1	0.0	1	null	6	null	6	null	6	null	6	40.423415	17.846371
3642	2024-05-31 17:00:00	15	san_pancrazio_salentino	23.65	1	69.39	1	0.0	1	null	6	null	6	null	6	null	6	40.423415	17.846371
3643	2024-05-31 18:00:00	15	san_pancrazio_salentino	23.06	1	74.18	1	0.0	1	null	6	null	6	null	6	null	6	40.423415	17.846371
3644	2024-05-31 19:00:00	15	san_pancrazio_salentino	21.97	1	79.66	1	0.0	1	null	6	null	6	null	6	null	6	40.423415	17.846371
3645	2024-05-31 20:00:00	15	san_pancrazio_salentino	21.45	1	81.68	1	0.0	1	null	6	null	6	null	6	null	6	40.423415	17.846371
3646	2024-05-31 21:00:00	15	san_pancrazio_salentino	21.43	1	82.33	1	0.0	1	null	6	null	6	null	6	null	6	40.423415	17.846371
3647	2024-05-31 22:00:00	15	san_pancrazio_salentino	21.42	1	83.4	1	0.0	1	null	6	null	6	null	6	null	6	40.423415	17.846371
3648	2024-05-31 23:00:00	15	san_pancrazio_salentino	21.38	1	85.62	1	0.0	1	null	6	null	6	null	6	null	6	40.423415	"17.846371	"
